# Wetter Temperatur Luftdruck Luftfeuchtigkeit Sichtweite Windgeschwindigkeit Windrichtung Zeit
1 Clouds 6 1029 81 9000 0.45 54 15:59 23.01.2022
2 Clouds 6 1029 83 8000 0.45 54 14:52 23.01.2022
3 Clouds 6 1029 82 6000 0.45 54 14:18 23.01.2022
4 Mist 6 1029 86 4500 0.45 54 12:46 23.01.2022
5 Mist 6 1029 86 4000 0.45 54 12:21 23.01.2022
6 Mist 5 1029 87 2900 0.45 54 11:27 23.01.2022
7 Mist 5 1029 88 2600 0.45 54 10:58 23.01.2022
8 Mist 5 1029 88 2600 0.45 54 10:25 23.01.2022
9 Mist 5 1029 84 2800 0.45 54 09:33 23.01.2022
10 Mist 5 1029 84 2800 0.45 54 08:50 23.01.2022
11 Mist 5 1029 84 2800 0.45 54 08:50 23.01.2022
12 Mist 5 1028 84 5000 0.45 54 04:41 23.01.2022
13 Clouds 5 1029 86 10000 0.45 54 01:43 23.01.2022
14 Clouds 5 1029 85 10000 0.45 54 00:56 23.01.2022
15 Clouds 5 1029 83 10000 0.45 54 00:22 23.01.2022
16 Clouds 5 1029 85 8000 0.45 54 23:19 22.01.2022
17 Clouds 5 1029 86 7000 0.45 54 22:34 22.01.2022
18 Clouds 5 1029 85 7000 0.45 54 22:34 22.01.2022
19 Drizzle 5 1029 86 6000 0.45 54 21:18 22.01.2022
20 Drizzle 5 1029 88 5000 0.45 54 19:46 22.01.2022
21 Drizzle 6 1028 88 4500 0.45 54 18:45 22.01.2022
22 Drizzle 6 1028 88 3300 0.45 54 17:56 22.01.2022
23 Drizzle 6 1028 88 3300 0.45 54 17:35 22.01.2022
24 Drizzle 6 1028 88 5000 0.45 54 16:55 22.01.2022
25 Drizzle 6 1028 87 7000 0.45 54 15:49 22.01.2022
26 Drizzle 6 1028 87 6000 0.45 54 14:57 22.01.2022
27 Drizzle 6 1028 87 6000 0.45 54 13:39 22.01.2022
28 Mist 6 1028 89 2500 0.45 54 12:48 22.01.2022
29 Drizzle 6 1028 89 3500 0.45 54 12:28 22.01.2022
30 Drizzle 5 1028 88 2800 0.45 54 10:56 22.01.2022
31 Drizzle 5 1028 89 2800 0.45 54 10:28 22.01.2022
32 Mist 5 1028 86 1800 0.45 54 09:57 22.01.2022
33 Drizzle 5 1028 86 2000 0.45 54 08:51 22.01.2022
34 Mist 5 1028 86 2200 0.45 54 07:34 22.01.2022
35 Drizzle 4 1028 87 10000 0.45 54 04:52 22.01.2022
36 Drizzle 4 1028 87 10000 0.45 54 04:52 22.01.2022
37 Drizzle 4 1028 84 10000 0.45 54 01:34 22.01.2022
38 Drizzle 4 1028 83 10000 0.45 54 23:38 21.01.2022
39 Clouds 5 1028 85 10000 0.45 54 22:27 21.01.2022
40 Drizzle 5 1028 84 10000 0.45 54 20:22 21.01.2022
41 Clouds 5 1028 87 8000 0.45 54 18:39 21.01.2022
42 Clouds 5 1028 86 5000 0.45 54 17:28 21.01.2022
43 Clouds 5 1028 83 10000 0.45 54 15:42 21.01.2022
44 Clouds 5 1028 79 10000 0.45 54 13:37 21.01.2022
45 Clouds 5 1024 78 10000 0.45 54 12:38 21.01.2022
46 Clouds 3 1034 88 10000 3.6 310 11:28 21.01.2022
47 Clouds 2 1034 87 10000 3.6 310 10:19 21.01.2022
48 Clouds 1 1033 90 10000 2.57 270 08:24 21.01.2022
49 Clouds 1 1033 89 10000 2.57 320 06:57 21.01.2022
50 Clouds 1 1031 89 10000 2.57 310 23:40 20.01.2022
51 Clouds 1 1031 87 10000 2.57 320 22:41 20.01.2022
52 Clouds 2 1030 86 10000 6.17 310 21:43 20.01.2022
53 Clouds 2 1030 88 10000 4.12 310 20:53 20.01.2022
54 Clouds 2 1029 85 10000 7.72 310 19:20 20.01.2022
55 Clouds 2 1029 83 10000 6.17 300 18:51 20.01.2022
56 Clouds 3 1028 77 10000 6.69 320 17:30 20.01.2022
57 Clouds 4 1025 80 10000 0.45 54 15:44 20.01.2022
58 Clouds 4 1025 72 10000 0.45 54 15:24 20.01.2022
59 Clouds 4 1025 71 10000 0.45 54 13:42 20.01.2022
60 Clouds 4 1025 71 10000 0.45 54 12:35 20.01.2022
61 Clouds 4 1027 75 10000 6.17 310 11:57 20.01.2022
62 Clouds 4 1025 80 10000 0.89 285 10:47 20.01.2022
63 Clouds 3 1024 85 10000 5.66 310 09:42 20.01.2022
64 Clouds 4 1022 87 10000 8.75 310 08:34 20.01.2022
65 Clear 4 1021 89 10000 0.89 273 05:38 20.01.2022
66 Clouds 5 1023 90 10000 5.66 300 23:42 19.01.2022
67 Clouds 6 1020 93 10000 0.89 278 22:37 19.01.2022
68 Clouds 5 1019 94 10000 0.89 261 21:24 19.01.2022
69 Clouds 5 1019 92 6000 0.89 267 20:51 19.01.2022
70 Clouds 5 1019 91 10000 1.34 209 20:22 19.01.2022
71 Clouds 4 1019 89 9000 0.45 278 18:48 19.01.2022
72 Clouds 4 1019 85 10000 0.45 88 17:50 19.01.2022
73 Clouds 4 1020 81 10000 3.6 220 16:59 19.01.2022
74 Clouds 5 1021 75 10000 0.89 226 14:43 19.01.2022
75 Clouds 5 1023 77 10000 0.45 147 12:53 19.01.2022
76 Clouds 5 1024 77 10000 0.89 235 11:54 19.01.2022
77 Clouds 4 1024 77 10000 2.06 230 10:52 19.01.2022
78 Clouds 4 1027 82 10000 1.54 200 09:35 19.01.2022
79 Clouds 3 1028 81 10000 3.6 160 07:34 19.01.2022
80 Clouds 3 1029 85 10000 4.12 140 05:19 19.01.2022
81 Clouds 4 1032 83 10000 2.06 90 23:53 18.01.2022
82 Clouds 4 1032 82 10000 1.54 100 23:18 18.01.2022
83 Clouds 6 1035 78 10000 2.06 110 21:43 18.01.2022
84 Clouds 7 1036 77 10000 2.06 130 20:21 18.01.2022
85 Clouds 7 1036 79 10000 1.54 110 19:39 18.01.2022
86 Clouds 7 1036 80 10000 1.54 110 19:21 18.01.2022
87 Clouds 7 1034 76 10000 1.54 110 18:18 18.01.2022
88 Clouds 7 1037 80 10000 1.54 70 17:31 18.01.2022
89 Clouds 8 1035 76 10000 1.03 0 16:18 18.01.2022
90 Clouds 8 1037 82 10000 1.03 0 15:25 18.01.2022
91 Clouds 8 1038 84 10000 0.51 0 14:22 18.01.2022
92 Clouds 7 1039 92 10000 1.03 0 11:31 18.01.2022
93 Clouds 6 1038 94 10000 0.51 220 09:59 18.01.2022
94 Clouds 6 1036 92 10000 1.54 350 08:29 18.01.2022
95 Clouds 6 1036 92 10000 1.54 330 07:43 18.01.2022
96 Clouds 7 1037 92 10000 2.57 310 00:39 18.01.2022
97 Clouds 7 1035 90 10000 2.57 300 22:40 17.01.2022
98 Clouds 7 1036 90 10000 2.57 330 21:42 17.01.2022
99 Clouds 7 1033 90 10000 5.14 330 20:44 17.01.2022
100 Clouds 7 1032 93 10000 0.89 267 18:51 17.01.2022
101 Clouds 7 1032 92 4800 0.89 291 18:25 17.01.2022
102 Clouds 7 1032 92 6000 0.89 299 17:22 17.01.2022
103 Clouds 7 1031 93 4000 0.89 304 15:58 17.01.2022
104 Clouds 7 1031 92 4500 0.89 272 14:58 17.01.2022
105 Clouds 7 1031 91 5000 1.34 290 14:31 17.01.2022
106 Clouds 7 1031 90 7000 1.79 320 13:18 17.01.2022
107 Rain 7 1031 88 10000 1.34 266 12:22 17.01.2022
108 Clouds 6 1031 85 10000 0.89 307 10:53 17.01.2022
109 Clouds 6 1030 85 10000 0.89 259 09:53 17.01.2022
110 Clouds 5 1030 86 10000 0.89 287 08:44 17.01.2022
111 Clouds 5 1030 89 10000 0.45 268 07:20 17.01.2022
112 Clouds 5 1028 92 10000 1.79 274 01:52 17.01.2022
113 Clouds 5 1028 91 10000 0.45 255 23:44 16.01.2022
114 Clouds 5 1027 89 10000 0.45 253 21:21 16.01.2022
115 Clouds 5 1026 88 10000 1.79 278 20:28 16.01.2022
116 Clouds 5 1025 87 10000 0.89 24 18:46 16.01.2022
117 Clouds 5 1025 84 10000 0.89 136 17:50 16.01.2022
118 Clouds 5 1024 83 10000 0.45 272 16:54 16.01.2022
119 Clouds 5 1024 81 10000 0.89 265 15:43 16.01.2022
120 Clouds 5 1023 80 10000 1.79 265 14:29 16.01.2022
121 Clouds 5 1025 83 10000 5.14 270 13:33 16.01.2022
122 Clouds 5 1023 81 10000 0.89 302 12:22 16.01.2022
123 Clouds 4 1023 85 10000 0.45 148 11:29 16.01.2022
124 Clouds 4 1023 86 10000 0.89 276 10:28 16.01.2022
125 Clouds 4 1022 85 10000 0.45 275 09:58 16.01.2022
126 Clouds 4 1022 85 10000 0.45 274 09:38 16.01.2022
127 Clouds 3 1022 85 10000 3.6 210 09:19 16.01.2022
128 Clouds 3 1021 87 10000 3.09 190 07:19 16.01.2022
129 Clouds 2 1022 91 10000 0.89 243 00:35 16.01.2022
130 Clouds 2 1022 91 10000 4.12 130 22:53 15.01.2022
131 Clouds 2 1022 93 10000 0.45 90 21:22 15.01.2022
132 Clouds 2 1023 93 10000 4.63 120 20:45 15.01.2022
133 Clouds 2 1024 93 10000 0.89 132 20:22 15.01.2022
134 Clouds 2 1024 93 10000 4.12 130 19:27 15.01.2022
135 Clouds 3 1024 91 10000 4.63 140 18:20 15.01.2022
136 Clouds 3 1024 91 10000 0.89 343 16:49 15.01.2022
137 Clouds 3 1027 93 10000 4.63 120 14:38 15.01.2022
138 Clouds 3 1029 92 10000 3.6 130 12:52 15.01.2022
139 Clouds 3 1027 91 10000 3.6 140 11:32 15.01.2022
140 Clouds 1 1028 93 10000 3.09 120 09:46 15.01.2022
141 Clouds 2 1029 93 7000 3.09 140 05:18 15.01.2022
142 Clouds 3 1031 91 10000 1.54 90 23:32 14.01.2022
143 Clouds 3 1032 89 10000 1.54 70 21:19 14.01.2022
144 Clouds 3 1032 89 10000 1.54 70 20:37 14.01.2022
145 Clouds 4 1032 91 10000 0.51 0 19:55 14.01.2022
146 Clouds 4 1033 91 9000 1.03 0 18:43 14.01.2022
147 Clouds 4 1033 90 9000 1.54 150 17:52 14.01.2022
148 Clouds 4 1033 90 9000 1.54 70 16:43 14.01.2022
149 Clouds 4 1033 90 9000 1.54 70 16:43 14.01.2022
150 Clouds 4 1033 89 6000 2.06 30 15:33 14.01.2022
151 Mist 4 1033 90 4500 2.57 340 14:29 14.01.2022
152 Clouds 5 1034 83 10000 0.51 0 12:59 14.01.2022
153 Clear 4 1034 90 10000 1.03 0 11:53 14.01.2022
154 Clear 2 1036 93 10000 0.51 0 10:40 14.01.2022
155 Clear 0 1032 92 10000 1 205 08:53 14.01.2022
156 Clear 0 1033 92 10000 0.69 193 07:35 14.01.2022
157 Clear 0 1036 90 10000 1.03 70 02:28 14.01.2022
158 Clouds 0 1036 90 10000 0.51 0 00:33 14.01.2022
159 Clear 1 1037 87 10000 1.03 160 21:55 13.01.2022
160 Clear 2 1037 85 10000 2.57 70 21:30 13.01.2022
161 Clear 3 1037 84 10000 1.03 0 20:27 13.01.2022
162 Clear 3 1037 82 10000 0.51 0 19:30 13.01.2022
163 Clear 3 1037 80 10000 1.54 90 18:50 13.01.2022
164 Clear 6 1037 69 10000 1.03 0 16:58 13.01.2022
165 Clear 6 1038 70 10000 1.54 160 15:49 13.01.2022
166 Clear 7 1038 68 10000 1.03 0 15:26 13.01.2022
167 Clouds 5 1040 78 10000 2.06 160 13:42 13.01.2022
168 Clouds 3 1040 88 9000 2.57 100 11:43 13.01.2022
169 Clouds 1 1040 88 6000 3.6 160 09:37 13.01.2022
170 Clouds 1 1039 87 8000 0.45 263 08:54 13.01.2022
171 Clouds 1 1039 87 8000 1.54 140 08:22 13.01.2022
172 Clouds 2 1039 85 8000 1.03 0 07:21 13.01.2022
173 Clouds 2 1039 86 8000 1.54 260 05:56 13.01.2022
174 Clouds 2 1039 86 9000 1.54 190 05:18 13.01.2022
175 Clouds 3 1039 89 10000 2.06 0 01:46 13.01.2022
176 Clouds 3 1040 89 10000 1.03 100 23:54 12.01.2022
177 Clouds 3 1039 89 10000 1.54 120 23:34 12.01.2022
178 Clouds 3 1039 88 10000 1.03 100 22:56 12.01.2022
179 Clouds 3 1042 89 10000 1.03 0 21:56 12.01.2022
180 Clouds 3 1039 88 10000 1.54 70 21:21 12.01.2022
181 Clouds 3 1039 88 10000 1.03 0 20:56 12.01.2022
182 Clouds 3 1038 91 6000 0.51 0 19:28 12.01.2022
183 Clouds 3 1038 91 7000 0.51 0 18:28 12.01.2022
184 Clouds 4 1037 89 10000 0.51 0 16:59 12.01.2022
185 Clouds 4 1037 88 10000 0.51 0 15:58 12.01.2022
186 Clouds 4 1037 85 10000 1.03 0 14:47 12.01.2022
187 Clouds 3 1037 84 10000 0.51 0 12:58 12.01.2022
188 Clouds 2 1037 86 10000 1.54 140 09:59 12.01.2022
189 Clouds 1 1035 87 10000 3.09 150 08:37 12.01.2022
190 Clouds 1 1035 87 10000 1.03 140 07:34 12.01.2022
191 Clear 1 1035 87 10000 0.51 100 06:49 12.01.2022
192 Clear 0 1034 90 10000 0.45 105 23:31 11.01.2022
193 Clear 0 1034 89 10000 1.54 110 22:49 11.01.2022
194 Clouds 1 1032 87 10000 1.55 152 22:22 11.01.2022
195 Clear 1 1033 86 10000 2.06 130 20:51 11.01.2022
196 Clear 1 1033 85 10000 1.03 0 19:48 11.01.2022
197 Clear 2 1032 83 10000 3.09 140 18:31 11.01.2022
198 Clear 3 1032 79 10000 2.57 130 17:24 11.01.2022
199 Clear 4 1032 78 10000 2.06 130 16:37 11.01.2022
200 Clear 5 1032 77 10000 2.57 150 15:39 11.01.2022
201 Clear 5 1032 80 10000 0.45 81 14:42 11.01.2022
202 Clear 5 1032 80 10000 2.57 160 13:55 11.01.2022
203 Clear 5 1032 75 10000 2.57 160 13:35 11.01.2022
204 Clouds 4 1032 87 10000 3.09 160 12:43 11.01.2022
205 Clouds 2 1032 90 10000 0.89 253 11:45 11.01.2022
206 Mist -1 1031 93 2200 3.09 120 09:39 11.01.2022
207 Clouds -1 1030 94 8000 2.57 130 07:18 11.01.2022
208 Mist 0 1028 93 5000 0.45 79 00:33 11.01.2022
209 Mist 0 1028 94 2500 3.09 110 23:44 10.01.2022
210 Fog 0 1028 94 800 0.45 49 23:24 10.01.2022
211 Fog 0 1028 93 800 0.45 91 22:19 10.01.2022
212 Fog 0 1028 93 800 0.45 91 22:19 10.01.2022
213 Clouds 0 1027 93 10000 3.09 150 21:54 10.01.2022
214 Clear 1 1027 91 10000 0.45 183 21:21 10.01.2022
215 Clear 1 1027 90 10000 2.57 100 20:57 10.01.2022
216 Clear 1 1026 89 10000 2.06 90 20:28 10.01.2022
217 Clear 1 1026 89 10000 1.54 110 19:44 10.01.2022
218 Clear 1 1025 89 10000 2.57 150 19:21 10.01.2022
219 Clear 2 1025 87 10000 1.03 0 18:50 10.01.2022
220 Clear 2 1025 86 10000 0.51 120 18:31 10.01.2022
221 Clouds 5 1023 78 10000 0.51 120 16:42 10.01.2022
222 Clouds 6 1022 76 10000 1.03 250 15:49 10.01.2022
223 Clouds 6 1021 74 10000 0.45 102 14:34 10.01.2022
224 Clear 5 1020 87 10000 0.45 100 12:22 10.01.2022
225 Clouds 3 1019 92 10000 1.54 150 11:25 10.01.2022
226 Clouds 2 1018 93 10000 2.57 60 10:21 10.01.2022
227 Clouds 1 1016 93 10000 0.51 0 08:22 10.01.2022
228 Clouds 0 1012 93 10000 0.51 0 05:50 10.01.2022
229 Clouds 2 1009 88 10000 0.51 0 01:33 10.01.2022
230 Clouds 2 1008 88 10000 1.03 0 00:36 10.01.2022
231 Clouds 3 1007 88 10000 0.51 0 23:54 09.01.2022
232 Clouds 3 1008 87 10000 1.54 170 22:43 09.01.2022
233 Clouds 3 1008 87 10000 1.54 200 21:47 09.01.2022
234 Clouds 4 1005 85 10000 1.03 0 21:25 09.01.2022
235 Clouds 4 1005 85 10000 1.03 0 21:25 09.01.2022
236 Clouds 3 1005 85 10000 1.54 0 20:58 09.01.2022
237 Clouds 3 1005 85 10000 1.54 0 20:39 09.01.2022
238 Clouds 4 1004 84 10000 2.06 230 20:21 09.01.2022
239 Clouds 4 1003 82 10000 2.06 260 19:38 09.01.2022
240 Clouds 4 1003 82 10000 2.06 260 19:18 09.01.2022
241 Clouds 5 1003 81 10000 3.6 270 18:37 09.01.2022
242 Clouds 5 1002 79 10000 4.12 260 17:48 09.01.2022
243 Clouds 5 1004 82 10000 4.12 270 17:29 09.01.2022
244 Clouds 5 1003 83 10000 4.12 260 16:43 09.01.2022
245 Rain 6 1001 78 10000 0.89 306 15:42 09.01.2022
246 Rain 6 1001 78 10000 0.89 306 15:42 09.01.2022
247 Clouds 6 1000 79 10000 6.17 270 14:58 09.01.2022
248 Clouds 6 1000 80 10000 0.45 274 14:24 09.01.2022
249 Clouds 6 1000 82 10000 0.45 262 13:48 09.01.2022
250 Clouds 6 999 81 10000 0.89 257 11:58 09.01.2022
251 Clouds 5 998 81 10000 0.89 255 11:28 09.01.2022
252 Clouds 5 997 82 10000 0.45 274 09:55 09.01.2022
253 Clouds 5 996 81 10000 0.89 264 09:20 09.01.2022
254 Clouds 5 994 84 10000 1.34 296 07:54 09.01.2022
255 Rain 5 987 88 10000 0.45 100 01:30 09.01.2022
256 Rain 5 988 88 10000 0.89 136 00:50 09.01.2022
257 Rain 5 989 87 10000 0.89 329 23:36 08.01.2022
258 Rain 5 991 87 10000 1.34 112 22:56 08.01.2022
259 Rain 5 993 84 10000 0.89 68 21:32 08.01.2022
260 Rain 4 995 85 10000 1.79 83 20:44 08.01.2022
261 Rain 4 996 85 10000 0.45 333 20:23 08.01.2022
262 Rain 4 996 87 10000 0.89 115 19:46 08.01.2022
263 Clouds 3 1001 91 10000 5.66 150 17:49 08.01.2022
264 Snow 3 1003 92 10000 0.45 111 16:57 08.01.2022
265 Rain 4 1005 77 10000 0.89 30 15:37 08.01.2022
266 Rain 4 1007 74 10000 0.89 321 14:38 08.01.2022
267 Clouds 3 1012 85 10000 3.6 180 12:36 08.01.2022
268 Clouds 2 1013 91 10000 2.57 170 10:49 08.01.2022
269 Clouds 2 1011 91 10000 0.45 263 10:24 08.01.2022
270 Clouds 1 1011 91 6000 1.54 160 09:34 08.01.2022
271 Clouds 1 1010 89 10000 1.54 240 07:18 08.01.2022
272 Clouds 3 1010 90 10000 2.06 180 02:33 08.01.2022
273 Clouds 3 1008 85 10000 3.6 190 00:41 08.01.2022
274 Clouds 3 1008 84 10000 2.57 140 22:40 07.01.2022
275 Clouds 3 1009 84 10000 3.09 190 20:56 07.01.2022
276 Clouds 3 1009 83 10000 0.45 258 19:56 07.01.2022
277 Clouds 3 1009 83 10000 0.45 258 19:56 07.01.2022
278 Clouds 4 1009 81 10000 3.6 210 18:58 07.01.2022
279 Clouds 4 1011 84 10000 3.6 210 18:38 07.01.2022
280 Clouds 4 1011 85 10000 5.14 210 17:25 07.01.2022
281 Rain 5 1011 85 10000 5.66 220 16:23 07.01.2022
282 Clouds 6 1010 77 10000 5.14 230 13:53 07.01.2022
283 Clouds 6 1012 81 10000 5.66 210 13:22 07.01.2022
284 Clouds 5 1012 84 10000 2.57 160 12:49 07.01.2022
285 Rain 4 1011 85 10000 0.45 5 09:37 07.01.2022
286 Clouds 3 1014 85 10000 5.14 140 02:56 07.01.2022
287 Clouds 2 1015 87 10000 0.89 84 01:54 07.01.2022
288 Clouds 2 1016 86 10000 3.6 170 01:28 07.01.2022
289 Clouds 2 1014 85 10000 4.26 192 00:58 07.01.2022
290 Clouds 2 1014 85 10000 4.26 192 00:58 07.01.2022
291 Clouds 2 1015 86 10000 0.89 93 23:53 06.01.2022
292 Clouds 2 1016 87 10000 2.88 176 21:28 06.01.2022
293 Clear 2 1018 89 10000 3.09 160 20:22 06.01.2022
294 Clouds 2 1018 88 10000 3.09 150 19:45 06.01.2022
295 Clear 3 1018 88 10000 2.57 170 18:34 06.01.2022
296 Clouds 3 1020 88 10000 2.57 150 17:41 06.01.2022
297 Clouds 4 1020 86 10000 1.03 120 16:52 06.01.2022
298 Clouds 6 1017 82 10000 1.03 0 15:48 06.01.2022
299 Clouds 6 1017 83 10000 1.54 130 15:26 06.01.2022
300 Clouds 6 1018 84 10000 0.51 0 14:54 06.01.2022
301 Clouds 5 1020 86 10000 0.51 0 14:18 06.01.2022
302 Clouds 5 1018 86 10000 2.06 290 12:56 06.01.2022
303 Clouds 4 1020 90 10000 0.51 0 11:43 06.01.2022
304 Clouds 4 1020 92 10000 0.51 0 11:23 06.01.2022
305 Clouds 2 1016 90 10000 2.06 260 08:59 06.01.2022
306 Clouds 4 1012 92 10000 4.63 290 01:52 06.01.2022
307 Clouds 5 1011 92 6000 0.45 293 23:40 05.01.2022
308 Clouds 5 1011 92 6000 0.89 270 23:19 05.01.2022
309 Clouds 5 1010 91 10000 6.69 280 22:40 05.01.2022
310 Clouds 5 1010 91 10000 1.34 281 21:54 05.01.2022
311 Clouds 5 1010 91 10000 1.34 274 21:22 05.01.2022
312 Clouds 5 1009 89 10000 1.34 299 20:21 05.01.2022
313 Clouds 5 1008 89 10000 0.45 290 19:27 05.01.2022
314 Clouds 5 1007 85 10000 1.79 275 17:50 05.01.2022
315 Clouds 5 1006 83 10000 1.79 301 16:56 05.01.2022
316 Clouds 5 1005 77 10000 1.79 298 15:46 05.01.2022
317 Clouds 5 1004 77 10000 0.89 231 14:50 05.01.2022
318 Clouds 5 1006 80 10000 9.26 260 13:33 05.01.2022
319 Clouds 4 1006 80 10000 9.77 250 11:59 05.01.2022
320 Clouds 2 1002 84 10000 0.89 260 08:21 05.01.2022
321 Clouds 2 1002 87 10000 0.45 250 06:37 05.01.2022
322 Clouds 2 1002 88 10000 0.45 250 06:37 05.01.2022
323 Rain 3 998 91 10000 0.89 99 01:20 05.01.2022
324 Clouds 5 996 91 10000 4.63 330 23:41 04.01.2022
325 Rain 5 996 93 10000 2.57 310 23:19 04.01.2022
326 Clouds 6 996 93 10000 1.54 200 21:36 04.01.2022
327 Clouds 6 996 93 10000 1.03 0 20:41 04.01.2022
328 Clouds 7 996 93 6000 0.89 255 18:35 04.01.2022
329 Rain 7 995 89 10000 0.89 289 17:19 04.01.2022
330 Clouds 8 997 91 10000 5.14 240 16:31 04.01.2022
331 Clouds 8 995 91 10000 3.6 230 15:20 04.01.2022
332 Clouds 8 995 92 10000 3.09 240 14:37 04.01.2022
333 Clouds 8 995 94 10000 2.57 230 13:55 04.01.2022
334 Rain 7 995 95 10000 0.45 90 12:20 04.01.2022
335 Clouds 7 995 96 9000 1.03 130 10:21 04.01.2022
336 Rain 7 995 96 10000 1.54 150 08:49 04.01.2022
337 Rain 7 996 94 10000 2.57 170 06:28 04.01.2022
338 Rain 8 1002 92 10000 0.45 220 00:42 04.01.2022
339 Rain 8 1005 94 10000 3.6 210 23:54 03.01.2022
340 Rain 9 1004 94 10000 2.06 150 22:22 03.01.2022
341 Clouds 9 1004 94 10000 2.06 170 21:39 03.01.2022
342 Clouds 9 1005 94 10000 2.06 190 20:41 03.01.2022
343 Clouds 9 1006 91 10000 2.57 270 18:55 03.01.2022
344 Clouds 9 1006 90 10000 4.12 180 18:31 03.01.2022
345 Clouds 9 1007 89 10000 2.57 180 17:21 03.01.2022
346 Clouds 9 1008 87 10000 2.06 200 16:53 03.01.2022
347 Clouds 10 1012 78 10000 4.12 210 14:31 03.01.2022
348 Clouds 11 1011 73 10000 0.89 274 12:53 03.01.2022
349 Clouds 11 1011 75 10000 0.45 291 11:50 03.01.2022
350 Clouds 11 1011 76 10000 4.12 220 11:22 03.01.2022
351 Clouds 10 1012 79 10000 4.12 220 09:29 03.01.2022
352 Clouds 10 1012 75 10000 4.12 220 07:55 03.01.2022
353 Clouds 10 1012 76 10000 0.89 306 04:23 03.01.2022
354 Rain 11 1010 89 10000 1.34 276 23:44 02.01.2022
355 Clouds 10 1009 90 10000 7.2 280 22:57 02.01.2022
356 Clouds 11 1010 84 10000 1.34 275 22:22 02.01.2022
357 Clouds 11 1010 90 10000 4.63 200 21:26 02.01.2022
358 Clouds 11 1010 88 10000 2.57 220 20:30 02.01.2022
359 Rain 11 1011 83 10000 5.14 220 19:49 02.01.2022
360 Rain 12 1013 79 10000 4.12 200 19:25 02.01.2022
361 Clouds 13 1011 75 10000 0.45 98 18:31 02.01.2022
362 Clouds 13 1012 75 10000 3.6 220 17:43 02.01.2022
363 Clouds 13 1012 74 10000 0.89 270 17:21 02.01.2022
364 Clouds 13 1012 73 10000 0.89 261 16:33 02.01.2022
365 Clouds 13 1012 73 10000 0.89 235 15:49 02.01.2022
366 Clouds 13 1012 73 10000 0.89 235 15:49 02.01.2022
367 Clouds 13 1012 70 10000 7.2 260 13:58 02.01.2022
368 Clouds 14 1012 75 10000 0.45 281 12:34 02.01.2022
369 Clouds 13 1012 77 10000 3.6 180 11:56 02.01.2022
370 Clouds 12 1012 80 10000 3.6 140 10:56 02.01.2022
371 Clouds 11 1012 83 10000 3.09 130 10:26 02.01.2022
372 Clouds 11 1014 90 10000 4.63 140 08:22 02.01.2022
373 Clear 11 1017 88 10000 0.45 294 02:58 02.01.2022
374 Clear 10 1018 91 10000 0.45 44 23:56 01.01.2022
375 Clear 10 1019 91 10000 0.45 32 23:36 01.01.2022
376 Clear 11 1019 90 10000 3.6 130 22:44 01.01.2022
377 Clear 11 1019 90 10000 0.89 299 22:18 01.01.2022
378 Clear 11 1020 88 10000 0.45 189 21:43 01.01.2022
379 Clear 11 1020 88 10000 0.45 349 20:51 01.01.2022
380 Clear 11 1020 88 10000 0.45 326 19:55 01.01.2022
381 Clear 12 1021 87 10000 3.09 120 18:58 01.01.2022
382 Clear 12 1021 85 10000 2.57 120 17:56 01.01.2022
383 Clear 13 1022 80 10000 3.6 130 16:35 01.01.2022
384 Clouds 14 1022 78 10000 0.89 229 15:57 01.01.2022
385 Clouds 15 1022 73 10000 1.79 42 14:56 01.01.2022
386 Clouds 14 1024 75 10000 5.66 170 13:42 01.01.2022
387 Clouds 14 1025 76 10000 5.14 180 12:43 01.01.2022
388 Clouds 14 1026 77 10000 4.63 180 11:47 01.01.2022
389 Clouds 13 1026 78 10000 4.12 180 11:20 01.01.2022
390 Clouds 13 1026 77 10000 3.6 190 09:49 01.01.2022
391 Clouds 13 1026 77 10000 4.12 210 09:21 01.01.2022
392 Clouds 13 1025 78 10000 4.12 210 08:24 01.01.2022
393 Clouds 13 1025 79 10000 3.6 210 07:41 01.01.2022
394 Clouds 13 1023 80 10000 2.57 200 06:45 01.01.2022
395 Clouds 13 1025 85 10000 2.57 220 05:26 01.01.2022
396 Clouds 13 1025 85 10000 3.09 240 04:37 01.01.2022
397 Clouds 13 1022 86 10000 0.45 265 00:53 01.01.2022
398 Clouds 14 1022 85 10000 1.79 248 23:22 31.12.2021
399 Clouds 13 1021 85 10000 4.63 280 21:52 31.12.2021
400 Clouds 14 1020 81 10000 0.89 273 20:33 31.12.2021
401 Clouds 14 1019 81 10000 1.34 271 19:30 31.12.2021
402 Clouds 14 1021 77 10000 7.72 260 18:35 31.12.2021
403 Clouds 14 1020 78 10000 6.17 270 17:38 31.12.2021
404 Clouds 14 1020 76 10000 4.12 270 17:18 31.12.2021
405 Clear 15 1019 75 10000 1.54 260 16:25 31.12.2021
406 Clear 15 1017 71 10000 0.45 268 15:57 31.12.2021
407 Clear 15 1016 72 10000 2.57 200 15:28 31.12.2021
408 Clear 15 1016 72 10000 0.45 264 14:52 31.12.2021
409 Clear 15 1017 73 10000 2.06 190 14:29 31.12.2021
410 Clear 14 1017 76 10000 2.06 160 13:36 31.12.2021
411 Rain 14 1017 76 10000 3.6 170 12:45 31.12.2021
412 Clear 13 1018 78 10000 4.63 170 11:51 31.12.2021
413 Clear 13 1017 79 10000 0.45 93 11:30 31.12.2021
414 Clear 13 1018 81 10000 0.89 315 10:38 31.12.2021
415 Clear 12 1018 83 10000 0.45 160 09:55 31.12.2021
416 Clouds 12 1017 84 10000 0.45 62 09:33 31.12.2021
417 Clouds 12 1017 83 10000 4.63 200 08:43 31.12.2021
418 Clouds 13 1019 84 10000 5.66 200 07:31 31.12.2021
419 Clouds 14 1020 84 10000 6.69 250 23:32 30.12.2021
420 Clouds 14 1018 83 10000 0.89 257 22:38 30.12.2021
421 Clouds 14 1018 83 10000 6.17 250 22:20 30.12.2021
422 Clouds 14 1017 83 10000 4.63 240 21:37 30.12.2021
423 Clouds 14 1017 83 10000 4.63 240 21:37 30.12.2021
424 Clouds 14 1017 83 10000 0.45 253 20:48 30.12.2021
425 Clouds 14 1017 83 10000 3.09 220 20:28 30.12.2021
426 Clouds 14 1017 84 10000 3.09 220 19:48 30.12.2021
427 Clouds 14 1017 85 10000 0.45 255 18:51 30.12.2021
428 Clouds 14 1016 83 10000 0.45 260 18:20 30.12.2021
429 Clouds 15 1015 79 10000 0.45 288 16:34 30.12.2021
430 Clouds 15 1015 79 10000 0.89 259 15:52 30.12.2021
431 Clouds 15 1015 78 10000 7.2 250 14:41 30.12.2021
432 Clouds 15 1016 81 10000 6.17 240 14:19 30.12.2021
433 Clouds 15 1017 83 10000 4.63 230 13:23 30.12.2021
434 Clouds 15 1015 86 10000 3.6 230 11:34 30.12.2021
435 Clouds 14 1014 90 10000 4.63 250 10:27 30.12.2021
436 Clouds 14 1013 91 10000 0.89 275 09:27 30.12.2021
437 Clouds 13 1012 96 10000 4.12 170 06:55 30.12.2021
438 Drizzle 12 1011 90 10000 3.09 200 04:42 30.12.2021
439 Drizzle 12 1011 88 10000 2.57 180 03:40 30.12.2021
440 Clouds 12 1010 86 10000 0.45 196 01:56 30.12.2021
441 Clouds 13 1009 92 10000 0.89 252 23:37 29.12.2021
442 Drizzle 13 1007 97 10000 5.66 270 22:33 29.12.2021
443 Drizzle 13 1006 96 10000 0.89 250 21:55 29.12.2021
444 Drizzle 12 1005 97 8000 0.89 276 20:56 29.12.2021
445 Clouds 11 1005 97 5000 3.6 170 20:26 29.12.2021
446 Clouds 11 1004 98 6000 4.63 160 19:31 29.12.2021
447 Clouds 10 1004 96 6000 4.63 150 18:36 29.12.2021
448 Clouds 9 1004 94 10000 0.89 66 17:42 29.12.2021
449 Clouds 9 1005 93 7000 0.45 83 17:23 29.12.2021
450 Rain 10 1005 88 10000 3.6 120 16:21 29.12.2021
451 Clouds 10 1005 83 10000 4.12 160 15:21 29.12.2021
452 Clouds 10 1008 82 10000 2.57 220 12:57 29.12.2021
453 Clouds 10 1008 84 10000 3.09 220 12:33 29.12.2021
454 Clouds 9 1006 84 10000 4.63 230 11:23 29.12.2021
455 Clouds 9 1005 90 10000 0.45 101 09:35 29.12.2021
456 Drizzle 9 1004 93 10000 0.45 263 07:45 29.12.2021
457 Drizzle 9 1003 93 10000 0.45 277 06:33 29.12.2021
458 Clouds 9 1003 90 10000 0.45 264 05:56 29.12.2021
459 Clouds 9 1002 91 10000 0.45 264 05:27 29.12.2021
460 Drizzle 9 998 94 10000 1.34 298 00:45 29.12.2021
461 Drizzle 9 996 95 10000 1.79 255 23:59 28.12.2021
462 Drizzle 9 995 95 10000 1.79 261 22:57 28.12.2021
463 Clouds 9 994 96 8000 1.34 264 22:25 28.12.2021
464 Clouds 9 994 97 6000 3.09 280 21:56 28.12.2021
465 Clouds 9 994 96 6000 0.89 274 21:35 28.12.2021
466 Clouds 9 993 94 10000 0.89 273 20:32 28.12.2021
467 Rain 8 991 88 10000 4.63 210 18:56 28.12.2021
468 Clouds 8 991 87 10000 0.89 304 18:29 28.12.2021
469 Rain 9 991 81 10000 0.89 202 17:48 28.12.2021
470 Rain 10 991 73 10000 6.69 260 16:29 28.12.2021
471 Clouds 11 991 70 10000 0.89 288 15:45 28.12.2021
472 Clouds 11 991 74 10000 0.89 229 15:19 28.12.2021
473 Clouds 10 991 83 10000 0.89 235 14:45 28.12.2021
474 Clouds 10 991 93 10000 5.66 190 14:20 28.12.2021
475 Clouds 10 990 94 8000 0.45 34 13:42 28.12.2021
476 Clouds 10 991 93 10000 0.45 110 13:24 28.12.2021
477 Clouds 10 991 94 10000 0.45 63 12:39 28.12.2021
478 Clouds 9 992 95 10000 0.45 247 11:27 28.12.2021
479 Clouds 9 992 95 10000 4.63 130 07:41 28.12.2021
480 Clouds 9 993 97 10000 0.45 27 06:41 28.12.2021
481 Clouds 8 996 96 10000 3.6 140 23:43 27.12.2021
482 Clouds 8 996 95 10000 0.89 352 22:58 27.12.2021
483 Clouds 8 997 94 10000 0.89 4 21:33 27.12.2021
484 Clouds 8 997 94 10000 5.14 130 20:57 27.12.2021
485 Clouds 7 997 93 10000 5.14 130 19:58 27.12.2021
486 Clouds 8 997 91 10000 0.45 46 19:39 27.12.2021
487 Clouds 8 997 91 10000 2.57 110 18:23 27.12.2021
488 Clouds 8 997 90 10000 4.12 120 17:46 27.12.2021
489 Clouds 8 997 91 10000 3.09 120 16:40 27.12.2021
490 Clouds 8 997 91 10000 3.09 130 15:52 27.12.2021
491 Clouds 8 997 88 10000 4.63 140 14:32 27.12.2021
492 Clouds 8 997 89 10000 0.45 337 13:39 27.12.2021
493 Clouds 7 998 91 10000 3.6 130 12:36 27.12.2021
494 Clouds 6 999 94 10000 0.45 282 10:31 27.12.2021
495 Clouds 5 999 94 10000 3.6 110 09:47 27.12.2021
496 Clouds 5 999 94 10000 3.09 110 07:50 27.12.2021
497 Clouds 5 1000 94 10000 3.09 130 07:29 27.12.2021
498 Clouds 4 1001 94 10000 3.6 130 02:21 27.12.2021
499 Rain 3 1002 91 10000 0.45 312 23:58 26.12.2021
500 Clouds 3 1002 91 10000 4.12 120 23:38 26.12.2021
501 Clouds 3 1002 88 10000 0.45 89 22:34 26.12.2021
502 Clouds 3 1003 87 10000 0.45 124 20:59 26.12.2021
503 Clouds 3 1003 86 10000 4.63 120 19:49 26.12.2021
504 Clouds 3 1003 84 10000 0.89 71 18:24 26.12.2021
505 Clouds 3 1003 85 10000 0.89 85 17:30 26.12.2021
506 Clouds 4 1004 82 10000 0.45 68 14:32 26.12.2021
507 Clouds 4 1004 82 10000 0.89 47 13:43 26.12.2021
508 Clouds 3 1004 83 10000 0.45 80 13:20 26.12.2021
509 Clouds 3 1004 87 10000 4.12 120 12:33 26.12.2021
510 Clouds 2 1005 82 10000 0.45 110 10:44 26.12.2021
511 Clouds 2 1005 79 10000 0.45 46 09:29 26.12.2021
512 Clouds 2 1005 79 10000 0.89 322 08:44 26.12.2021
513 Clouds 1 1005 79 10000 0.45 91 07:59 26.12.2021
514 Clouds 1 1006 78 10000 2.57 110 01:36 26.12.2021
515 Clouds 1 1006 78 10000 0.45 80 00:20 26.12.2021
516 Clouds 1 1006 78 10000 2.57 90 23:28 25.12.2021
517 Clouds 1 1006 78 10000 3.09 100 22:29 25.12.2021
518 Clouds 1 1006 77 10000 2.06 100 21:25 25.12.2021
519 Clouds 1 1006 77 10000 2.57 80 19:46 25.12.2021
520 Snow 1 1006 75 10000 3.09 100 19:18 25.12.2021
521 Clouds 2 1007 77 10000 3.09 100 18:26 25.12.2021
522 Clouds 2 1006 79 10000 0.45 91 16:49 25.12.2021
523 Clouds 2 1007 83 10000 4.12 80 15:30 25.12.2021
524 Clouds 3 1005 83 10000 4.63 80 14:22 25.12.2021
525 Clouds 3 1005 89 10000 4.12 80 12:21 25.12.2021
526 Clouds 3 1004 93 10000 4.63 70 10:38 25.12.2021
527 Clouds 3 1004 94 10000 4.12 70 09:48 25.12.2021
528 Clouds 4 1002 94 10000 0.45 149 07:27 25.12.2021
529 Clouds 7 1002 92 10000 0.51 0 01:40 25.12.2021
530 Clouds 7 1002 91 10000 1.54 240 00:21 25.12.2021
531 Clouds 8 1002 89 10000 0.45 270 21:59 24.12.2021
532 Clouds 8 1002 87 10000 0.89 272 19:27 24.12.2021
533 Clear 8 1002 86 10000 1.54 280 18:56 24.12.2021
534 Clouds 9 1002 83 10000 0.45 260 16:49 24.12.2021
535 Clouds 10 1002 81 10000 0.89 284 15:52 24.12.2021
536 Clouds 10 1002 81 10000 4.63 270 15:32 24.12.2021
537 Clouds 10 1004 80 10000 6.17 270 14:35 24.12.2021
538 Clouds 10 1002 79 10000 0.45 305 13:59 24.12.2021
539 Clouds 10 1002 80 10000 0.89 273 13:32 24.12.2021
540 Clouds 10 1003 81 10000 6.69 270 12:47 24.12.2021
541 Clouds 10 1003 82 10000 1.34 263 11:47 24.12.2021
542 Clouds 9 1003 83 10000 0.89 277 11:24 24.12.2021
543 Clouds 9 1003 84 10000 5.66 260 10:45 24.12.2021
544 Clouds 9 1004 85 10000 6.69 270 09:25 24.12.2021
545 Clouds 9 1003 86 10000 0.45 77 08:19 24.12.2021
546 Clouds 9 1003 86 10000 7.72 260 07:44 24.12.2021
547 Clouds 9 1004 92 10000 1.34 268 01:30 24.12.2021
548 Clouds 8 1004 92 10000 1.54 150 23:55 23.12.2021
549 Clouds 7 1004 93 10000 4.63 180 22:56 23.12.2021
550 Clouds 7 1004 92 10000 4.63 180 22:37 23.12.2021
551 Rain 7 1005 90 10000 5.14 160 22:18 23.12.2021
552 Clouds 6 1006 87 10000 2.57 130 20:56 23.12.2021
553 Clouds 6 1006 84 10000 3.6 150 19:47 23.12.2021
554 Clouds 6 1006 81 10000 3.6 150 18:34 23.12.2021
555 Clouds 5 1006 81 10000 4.12 140 17:56 23.12.2021
556 Clouds 5 1006 79 10000 5.66 150 16:43 23.12.2021
557 Clouds 5 1006 77 10000 4.63 130 16:23 23.12.2021
558 Clouds 5 1007 74 10000 0.89 251 15:31 23.12.2021
559 Clear 5 1007 72 10000 4.63 130 14:49 23.12.2021
560 Clear 4 1007 71 10000 0.45 73 14:30 23.12.2021
561 Clear 3 1009 70 10000 0.89 333 12:53 23.12.2021
562 Clear 1 1011 77 10000 0.45 27 10:44 23.12.2021
563 Clear 0 1011 79 10000 3.6 130 09:42 23.12.2021
564 Clear 0 1011 79 10000 0.89 108 08:59 23.12.2021
565 Clear -1 1012 79 10000 5.66 130 06:55 23.12.2021
566 Clear 0 1014 77 10000 4.63 130 04:30 23.12.2021
567 Clear -1 1018 78 10000 0.89 69 23:20 22.12.2021
568 Clear -1 1018 77 10000 0.45 75 22:42 22.12.2021
569 Clear -1 1018 77 10000 0.45 52 21:56 22.12.2021
570 Clear 0 1019 76 10000 3.6 120 21:29 22.12.2021
571 Clear 0 1019 76 10000 0.45 89 20:47 22.12.2021
572 Clear 0 1019 76 10000 4.63 130 20:26 22.12.2021
573 Clear 0 1019 75 10000 5.14 130 19:28 22.12.2021
574 Clear 0 1020 73 10000 0.45 99 17:50 22.12.2021
575 Clear 1 1021 71 10000 0.89 122 16:40 22.12.2021
576 Clear 2 1021 68 10000 3.09 120 15:42 22.12.2021
577 Clear 2 1022 72 10000 4.63 130 13:37 22.12.2021
578 Clear 1 1023 73 10000 4.12 120 12:41 22.12.2021
579 Clear -1 1024 84 10000 0.45 206 10:36 22.12.2021
580 Clear -2 1024 86 10000 2.06 100 09:39 22.12.2021
581 Clear -3 1024 85 10000 2.06 110 07:31 22.12.2021
582 Clear -3 1024 86 10000 2.06 100 05:50 22.12.2021
583 Clear -2 1024 85 10000 1.54 90 05:27 22.12.2021
584 Clear -2 1024 87 10000 2.06 90 04:52 22.12.2021
585 Clear -3 1024 86 10000 1.54 100 04:30 22.12.2021
586 Clear -3 1024 86 10000 1.54 100 04:30 22.12.2021
587 Clear -3 1024 88 10000 2.06 90 03:33 22.12.2021
588 Clear -2 1024 87 10000 2.06 90 00:57 22.12.2021
589 Clear -2 1024 88 10000 2.57 110 23:33 21.12.2021
590 Clear -2 1024 87 10000 1.03 0 22:29 21.12.2021
591 Clear -2 1024 87 10000 1.03 0 21:51 21.12.2021
592 Clear -2 1024 87 10000 1.03 0 21:24 21.12.2021
593 Clear -1 1024 84 10000 0.51 0 20:23 21.12.2021
594 Clear -1 1024 84 10000 1.03 0 19:46 21.12.2021
595 Clear -1 1024 83 10000 1.03 0 19:26 21.12.2021
596 Clear 0 1023 80 10000 2.06 60 18:22 21.12.2021
597 Clear 0 1023 77 10000 1.03 0 17:51 21.12.2021
598 Clear 2 1023 70 10000 1.54 80 16:39 21.12.2021
599 Clear 3 1023 67 10000 1.03 0 15:29 21.12.2021
600 Clear 3 1023 68 10000 0.45 130 13:51 21.12.2021
601 Clear 3 1026 76 10000 1.03 0 13:32 21.12.2021
602 Clear 2 1024 80 10000 0.45 192 12:20 21.12.2021
603 Clear -1 1026 85 10000 2.06 150 10:37 21.12.2021
604 Clear -3 1027 92 10000 0.51 0 09:35 21.12.2021
605 Clear -3 1024 90 10000 0.51 0 08:30 21.12.2021
606 Clear -3 1026 90 10000 1.1 108 07:32 21.12.2021
607 Clear -3 1026 91 10000 1.03 140 06:56 21.12.2021
608 Clear -2 1025 89 10000 1.03 0 03:22 21.12.2021
609 Clear -2 1025 88 10000 1.03 0 01:18 21.12.2021
610 Clear -1 1025 84 10000 0.51 0 23:34 20.12.2021
611 Clear 0 1025 82 10000 0.51 0 22:35 20.12.2021
612 Clear 0 1025 81 10000 0.51 0 21:48 20.12.2021
613 Clear 0 1025 79 10000 2.57 60 21:24 20.12.2021
614 Clear 0 1026 81 10000 3.6 60 20:50 20.12.2021
615 Clear 1 1025 78 10000 4.12 60 19:55 20.12.2021
616 Clear 1 1025 78 10000 4.12 60 19:55 20.12.2021
617 Clear 1 1025 78 10000 4.12 60 19:36 20.12.2021
618 Clear 1 1025 76 10000 2.06 70 19:18 20.12.2021
619 Clear 2 1025 71 10000 2.57 60 18:28 20.12.2021
620 Clear 3 1025 67 10000 1.54 60 17:49 20.12.2021
621 Clouds 5 1025 56 10000 2.06 80 16:45 20.12.2021
622 Clouds 6 1025 51 10000 0.45 103 15:55 20.12.2021
623 Clouds 7 1025 52 10000 2.06 80 15:31 20.12.2021
624 Clouds 7 1027 63 10000 3.6 80 13:31 20.12.2021
625 Clouds 6 1026 76 10000 3.09 60 11:47 20.12.2021
626 Clouds 5 1025 83 10000 2.57 60 10:35 20.12.2021
627 Clouds 5 1027 85 10000 2.06 60 09:38 20.12.2021
628 Clouds 5 1025 81 10000 1.03 70 08:44 20.12.2021
629 Clouds 5 1024 82 10000 1.54 360 08:00 20.12.2021
630 Clouds 6 1024 83 10000 1.54 30 07:32 20.12.2021
631 Clouds 6 1024 87 10000 2.06 350 06:32 20.12.2021
632 Clouds 6 1024 86 10000 2.06 360 06:32 20.12.2021
633 Clouds 6 1025 94 10000 3.09 310 00:19 20.12.2021
634 Drizzle 6 1025 94 9000 0.45 136 22:56 19.12.2021
635 Drizzle 6 1026 94 9000 2.57 330 22:24 19.12.2021
636 Drizzle 6 1025 93 10000 0.89 258 21:32 19.12.2021
637 Drizzle 6 1025 93 10000 3.09 300 20:36 19.12.2021
638 Drizzle 6 1025 92 10000 3.6 300 19:53 19.12.2021
639 Drizzle 6 1025 92 10000 3.6 300 19:34 19.12.2021
640 Drizzle 6 1026 91 10000 3.6 320 18:35 19.12.2021
641 Drizzle 6 1026 89 10000 4.12 310 17:53 19.12.2021
642 Drizzle 6 1026 89 10000 0.45 283 17:28 19.12.2021
643 Drizzle 6 1027 87 10000 3.6 320 16:27 19.12.2021
644 Clouds 6 1029 90 10000 4.63 320 15:52 19.12.2021
645 Clouds 7 1027 87 10000 0.45 45 15:24 19.12.2021
646 Clouds 7 1027 88 10000 0.89 121 14:45 19.12.2021
647 Drizzle 7 1028 89 10000 3.6 310 13:26 19.12.2021
648 Drizzle 7 1029 89 10000 1.79 272 12:52 19.12.2021
649 Clouds 7 1029 91 10000 3.6 300 12:28 19.12.2021
650 Drizzle 6 1030 91 10000 1.34 281 11:33 19.12.2021
651 Clouds 6 1030 92 10000 0.89 276 10:48 19.12.2021
652 Clouds 6 1030 94 10000 3.6 320 10:21 19.12.2021
653 Clouds 6 1030 95 10000 0.89 256 08:46 19.12.2021
654 Drizzle 6 1031 95 4500 0.45 275 06:30 19.12.2021
655 Drizzle 6 1033 96 8000 0.89 270 01:45 19.12.2021
656 Clouds 6 1034 97 10000 1.54 350 00:54 19.12.2021
657 Drizzle 6 1034 96 10000 1.54 360 22:51 18.12.2021
658 Drizzle 6 1034 96 8000 2.57 360 22:24 18.12.2021
659 Drizzle 6 1035 97 3200 1.54 360 21:43 18.12.2021
660 Drizzle 6 1035 97 1200 1.54 280 21:22 18.12.2021
661 Drizzle 6 1035 96 1200 1.03 0 20:25 18.12.2021
662 Drizzle 6 1035 97 1600 1.03 0 19:35 18.12.2021
663 Drizzle 6 1035 76 2200 0.51 170 18:24 18.12.2021
664 Drizzle 6 1035 97 2500 1.03 210 17:49 18.12.2021
665 Drizzle 6 1035 97 2200 1.54 220 16:36 18.12.2021
666 Drizzle 6 1035 97 2200 1.03 220 16:18 18.12.2021
667 Drizzle 6 1036 95 2800 1.54 180 14:54 18.12.2021
668 Drizzle 6 1036 95 1600 1.54 210 13:45 18.12.2021
669 Clouds 6 1035 96 10000 0.45 314 11:57 18.12.2021
670 Mist 5 1038 95 2200 1.03 160 09:54 18.12.2021
671 Clouds 5 1036 95 10000 0.41 222 09:31 18.12.2021
672 Mist 5 1037 96 2000 1.54 160 08:36 18.12.2021
673 Mist 5 1037 95 4500 2.06 160 07:24 18.12.2021
674 Clouds 5 1037 95 10000 0.51 0 01:45 18.12.2021
675 Clouds 5 1037 92 10000 0.51 0 23:49 17.12.2021
676 Clouds 5 1038 92 10000 2.57 70 22:39 17.12.2021
677 Clouds 6 1037 91 10000 2.57 50 21:31 17.12.2021
678 Clouds 6 1037 89 10000 2.57 70 20:43 17.12.2021
679 Clouds 7 1037 88 10000 2.06 60 19:56 17.12.2021
680 Clouds 8 1037 88 10000 2.06 20 18:40 17.12.2021
681 Clouds 8 1039 89 10000 1.54 40 17:59 17.12.2021
682 Clouds 9 1039 92 7000 1.03 0 16:53 17.12.2021
683 Clouds 9 1039 93 7000 0.51 0 16:28 17.12.2021
684 Clouds 9 1039 93 7000 1.03 0 15:49 17.12.2021
685 Drizzle 9 1039 94 6000 0.51 0 14:43 17.12.2021
686 Drizzle 9 1037 93 6000 0.51 0 13:55 17.12.2021
687 Clouds 9 1039 94 10000 1.54 260 12:37 17.12.2021
688 Drizzle 8 1040 91 8000 1.03 0 10:42 17.12.2021
689 Drizzle 8 1039 91 8000 0.51 0 10:42 17.12.2021
690 Clouds 8 1039 91 10000 0.51 0 09:47 17.12.2021
691 Clouds 8 1039 93 8000 0.51 0 08:43 17.12.2021
692 Clouds 8 1039 93 10000 1.03 0 08:18 17.12.2021
693 Clouds 8 1039 92 10000 1.03 60 04:57 17.12.2021
694 Drizzle 9 1038 93 9000 1.03 100 00:57 17.12.2021
695 Clouds 9 1037 92 8000 1.54 90 22:44 16.12.2021
696 Clouds 9 1039 94 8000 1.03 80 22:22 16.12.2021
697 Clouds 9 1037 93 6000 0.51 0 21:43 16.12.2021
698 Clouds 9 1037 92 6000 1.03 30 20:42 16.12.2021
699 Clouds 9 1037 92 6000 1.03 360 20:21 16.12.2021
700 Mist 9 1036 92 4000 1.54 30 19:30 16.12.2021
701 Mist 9 1036 92 5000 1.03 0 18:33 16.12.2021
702 Mist 10 1036 91 4000 1.03 350 17:46 16.12.2021
703 Mist 10 1036 90 5000 1.03 340 16:24 16.12.2021
704 Clouds 10 1036 88 8000 1.54 350 15:50 16.12.2021
705 Clouds 10 1035 88 8000 1.03 0 13:46 16.12.2021
706 Clouds 10 1035 89 8000 0.89 270 12:26 16.12.2021
707 Clouds 9 1038 95 7000 1.03 0 11:19 16.12.2021
708 Clouds 8 1037 94 6000 0.51 0 10:39 16.12.2021
709 Fog 7 1037 93 7000 0.51 0 09:43 16.12.2021
710 Clouds 8 1033 93 10000 1.03 0 06:51 16.12.2021
711 Clouds 8 1033 93 10000 0.51 0 06:18 16.12.2021
712 Clouds 9 1032 91 10000 1.03 0 23:58 15.12.2021
713 Clouds 9 1034 92 10000 1.03 0 23:18 15.12.2021
714 Clouds 9 1034 92 10000 0.51 110 22:21 15.12.2021
715 Clouds 9 1033 92 10000 1.03 0 21:44 15.12.2021
716 Clouds 9 1033 92 10000 0.51 0 21:24 15.12.2021
717 Clouds 9 1033 92 10000 0.51 0 19:54 15.12.2021
718 Clouds 9 1033 90 10000 0.51 140 19:18 15.12.2021
719 Clouds 9 1032 89 10000 2.06 250 18:20 15.12.2021
720 Clouds 9 1032 91 10000 1.54 240 17:45 15.12.2021
721 Clouds 10 1030 89 10000 2.57 300 17:21 15.12.2021
722 Clouds 10 1029 88 10000 0.89 267 15:49 15.12.2021
723 Clouds 10 1029 87 10000 1.03 160 15:31 15.12.2021
724 Clouds 10 1031 89 10000 1.03 0 14:59 15.12.2021
725 Clouds 10 1031 91 10000 1.54 160 13:48 15.12.2021
726 Clouds 9 1032 93 10000 2.57 160 11:52 15.12.2021
727 Clouds 9 1030 91 10000 2.57 150 10:22 15.12.2021
728 Clouds 8 1029 91 10000 2.57 190 08:27 15.12.2021
729 Clouds 8 1030 90 10000 1.54 180 05:54 15.12.2021
730 Drizzle 8 1028 91 10000 1.54 140 00:45 15.12.2021
731 Clouds 8 1028 90 10000 2.06 130 23:32 14.12.2021
732 Clouds 8 1028 90 10000 2.06 120 22:45 14.12.2021
733 Drizzle 8 1027 89 10000 3.09 170 21:47 14.12.2021
734 Drizzle 8 1027 87 10000 1.54 50 20:23 14.12.2021
735 Clouds 9 1027 87 10000 2.06 150 19:39 14.12.2021
736 Clouds 9 1027 87 10000 2.06 140 18:42 14.12.2021
737 Clouds 9 1026 86 10000 1.03 150 17:57 14.12.2021
738 Clouds 9 1026 85 10000 1.54 160 16:58 14.12.2021
739 Clouds 9 1026 85 10000 1.54 160 16:35 14.12.2021
740 Clouds 9 1026 83 10000 1.03 0 14:39 14.12.2021
741 Clouds 9 1026 83 10000 1.03 0 13:24 14.12.2021
742 Clouds 8 1026 87 10000 1.03 0 11:56 14.12.2021
743 Clouds 8 1028 89 10000 1.54 280 11:22 14.12.2021
744 Clouds 8 1026 90 10000 3.09 280 09:55 14.12.2021
745 Clouds 7 1025 90 10000 3.09 280 09:22 14.12.2021
746 Clouds 7 1027 91 10000 1.54 260 08:23 14.12.2021
747 Clouds 7 1027 91 10000 1.54 260 08:23 14.12.2021
748 Clouds 7 1027 88 10000 3.09 280 07:42 14.12.2021
749 Clouds 7 1027 90 10000 3.6 170 01:46 14.12.2021
750 Clouds 8 1028 87 10000 3.09 170 22:49 13.12.2021
751 Clouds 8 1028 85 10000 3.6 170 21:51 13.12.2021
752 Clouds 8 1028 87 10000 2.57 180 20:59 13.12.2021
753 Clouds 8 1028 86 10000 2.57 0 20:31 13.12.2021
754 Clouds 8 1028 85 10000 2.06 160 19:52 13.12.2021
755 Clouds 9 1028 81 10000 2.57 220 17:56 13.12.2021
756 Clouds 9 1028 82 10000 3.09 200 17:23 13.12.2021
757 Clouds 9 1028 82 10000 3.09 200 17:23 13.12.2021
758 Clouds 10 1028 84 10000 2.06 220 15:49 13.12.2021
759 Clouds 10 1026 83 10000 2.06 190 15:19 13.12.2021
760 Clouds 10 1028 87 10000 2.06 170 13:38 13.12.2021
761 Clouds 10 1026 88 10000 3.09 150 12:42 13.12.2021
762 Clouds 9 1028 91 10000 2.57 160 11:54 13.12.2021
763 Clouds 9 1028 92 10000 2.57 150 11:35 13.12.2021
764 Clouds 9 1026 95 10000 2.57 150 10:43 13.12.2021
765 Clouds 8 1025 93 10000 2.57 140 08:57 13.12.2021
766 Clouds 8 1025 95 10000 2.57 150 07:38 13.12.2021
767 Clouds 8 1025 96 10000 3.09 150 05:35 13.12.2021
768 Clouds 9 1024 96 10000 3.09 150 00:43 13.12.2021
769 Drizzle 9 1023 97 7000 2.06 160 22:22 12.12.2021
770 Drizzle 9 1023 97 4800 3.09 160 21:35 12.12.2021
771 Drizzle 8 1023 97 4500 3.6 160 19:47 12.12.2021
772 Drizzle 8 1022 96 3500 3.09 160 18:35 12.12.2021
773 Drizzle 8 1022 95 3500 3.09 160 17:31 12.12.2021
774 Drizzle 8 1022 95 3800 3.09 160 16:27 12.12.2021
775 Drizzle 8 1021 95 9000 3.09 160 15:45 12.12.2021
776 Drizzle 8 1021 95 5000 3.6 160 15:25 12.12.2021
777 Drizzle 8 1021 95 4000 4.12 160 14:34 12.12.2021
778 Clouds 7 1021 92 10000 5.14 160 13:26 12.12.2021
779 Clouds 7 1021 93 10000 5.66 160 12:30 12.12.2021
780 Clouds 7 1021 95 10000 5.14 150 11:44 12.12.2021
781 Clouds 6 1021 95 10000 4.63 150 11:20 12.12.2021
782 Drizzle 6 1021 95 10000 3.6 150 10:22 12.12.2021
783 Drizzle 5 1021 96 10000 3.6 140 09:38 12.12.2021
784 Clouds 5 1021 96 6000 0.89 50 08:33 12.12.2021
785 Clouds 4 1021 86 10000 0.45 240 06:19 12.12.2021
786 Rain 4 1020 86 10000 0.89 3 04:56 12.12.2021
787 Clear 4 1021 84 10000 4.12 130 03:57 12.12.2021
788 Clear 3 1021 85 10000 3.6 160 23:47 11.12.2021
789 Clouds 3 1020 86 10000 2.57 170 22:23 11.12.2021
790 Clouds 3 1020 86 10000 3.6 210 21:52 11.12.2021
791 Clouds 4 1020 86 10000 2.57 200 21:18 11.12.2021
792 Clouds 5 1020 91 10000 1.03 240 19:30 11.12.2021
793 Clouds 5 1020 92 10000 2.06 280 18:53 11.12.2021
794 Clouds 5 1018 90 10000 1.03 0 18:26 11.12.2021
795 Clouds 5 1017 90 10000 0.45 314 17:24 11.12.2021
796 Clouds 6 1017 90 10000 3.6 300 15:55 11.12.2021
797 Clouds 6 1015 89 10000 0.89 254 15:35 11.12.2021
798 Clouds 5 1014 95 9000 3.6 160 13:21 11.12.2021
799 Drizzle 4 1013 93 6000 2.57 160 11:46 11.12.2021
800 Clouds 3 1012 91 9000 1.03 150 09:57 11.12.2021
801 Clouds 3 1012 91 9000 1.03 150 09:33 11.12.2021
802 Clouds 2 1004 92 10000 0.45 266 02:41 11.12.2021
803 Clouds 1 1001 89 10000 0.51 0 00:42 11.12.2021
804 Clouds 2 999 88 10000 1.54 330 23:24 10.12.2021
805 Clouds 3 998 88 10000 1.03 0 22:26 10.12.2021
806 Clouds 3 997 88 10000 0.51 0 21:37 10.12.2021
807 Clouds 3 994 88 10000 1.03 80 19:23 10.12.2021
808 Clouds 3 994 87 10000 1.03 0 18:57 10.12.2021
809 Clouds 3 992 85 10000 2.57 120 17:21 10.12.2021
810 Clouds 3 991 82 10000 3.09 110 16:32 10.12.2021
811 Clouds 4 990 79 10000 3.6 120 15:42 10.12.2021
812 Clouds 4 990 79 10000 3.6 120 15:23 10.12.2021
813 Clouds 4 990 70 10000 5.14 130 13:53 10.12.2021
814 Rain 5 990 70 10000 0.89 15 13:31 10.12.2021
815 Clouds 4 990 70 10000 0.89 244 12:47 10.12.2021
816 Clouds 4 990 74 10000 0.89 233 11:34 10.12.2021
817 Clouds 4 991 77 10000 0.89 20 10:50 10.12.2021
818 Clouds 4 991 80 10000 0.89 184 09:33 10.12.2021
819 Clouds 3 991 82 10000 0.89 358 07:24 10.12.2021
820 Clouds 4 994 82 10000 0.45 94 04:32 10.12.2021
821 Clouds 4 997 85 10000 0.89 331 02:29 10.12.2021
822 Clouds 4 1000 87 10000 4.63 160 23:39 09.12.2021
823 Clouds 4 1001 85 10000 0.45 295 22:41 09.12.2021
824 Clouds 4 1001 84 10000 3.6 170 22:21 09.12.2021
825 Clouds 4 1002 85 10000 4.12 170 21:39 09.12.2021
826 Clouds 5 1002 86 10000 0.45 309 20:34 09.12.2021
827 Clouds 4 1002 87 10000 0.89 68 19:38 09.12.2021
828 Clouds 4 1002 88 10000 3.6 150 19:19 09.12.2021
829 Clouds 4 1002 86 10000 3.09 180 18:18 09.12.2021
830 Clouds 5 1002 85 10000 3.09 160 17:47 09.12.2021
831 Clouds 5 1002 84 10000 2.06 170 17:24 09.12.2021
832 Clouds 5 1002 83 10000 2.57 210 16:36 09.12.2021
833 Clouds 5 1002 77 10000 0.45 202 15:18 09.12.2021
834 Clouds 5 1003 77 10000 0.45 196 14:30 09.12.2021
835 Clouds 5 1003 80 10000 0.89 212 12:48 09.12.2021
836 Clouds 5 1003 84 10000 0.89 217 11:51 09.12.2021
837 Clouds 2 1003 92 10000 0.45 96 10:28 09.12.2021
838 Clear 1 1002 89 10000 1.54 140 07:34 09.12.2021
839 Clouds 2 1001 87 10000 3.6 150 03:58 09.12.2021
840 Clouds 3 1001 85 10000 3.09 160 00:26 09.12.2021
841 Clouds 3 1001 85 10000 1.54 120 23:37 08.12.2021
842 Clouds 3 1000 83 10000 0.45 120 22:57 08.12.2021
843 Clouds 4 1000 83 10000 2.57 190 22:36 08.12.2021
844 Clouds 4 1000 83 10000 2.57 150 21:38 08.12.2021
845 Clouds 4 999 83 10000 2.06 130 20:58 08.12.2021
846 Clouds 4 998 83 10000 1.03 0 19:57 08.12.2021
847 Clouds 4 999 81 10000 2.57 110 19:29 08.12.2021
848 Clouds 5 998 78 10000 3.09 160 18:28 08.12.2021
849 Clouds 5 997 75 10000 2.57 160 17:24 08.12.2021
850 Clouds 7 997 72 10000 2.57 180 15:45 08.12.2021
851 Clouds 7 997 71 10000 0.45 307 15:23 08.12.2021
852 Clouds 7 996 72 10000 0.45 246 13:40 08.12.2021
853 Clouds 6 996 83 10000 4.12 140 10:45 08.12.2021
854 Clouds 5 995 85 10000 4.12 150 10:23 08.12.2021
855 Clouds 5 995 87 10000 4.12 160 08:54 08.12.2021
856 Clouds 5 995 88 10000 0.45 54 06:52 08.12.2021
857 Rain 5 994 71 10000 0.89 31 01:21 08.12.2021
858 Rain 5 995 70 10000 1.34 323 23:31 07.12.2021
859 Clouds 5 998 77 10000 0.89 28 21:26 07.12.2021
860 Clouds 5 999 76 10000 0.45 293 20:30 07.12.2021
861 Clear 5 1000 77 10000 7.2 140 19:48 07.12.2021
862 Clear 4 1002 76 10000 4.63 120 18:39 07.12.2021
863 Clouds 4 1004 74 10000 0.45 95 17:27 07.12.2021
864 Clouds 4 1004 74 10000 4.12 140 16:57 07.12.2021
865 Clouds 5 1005 73 10000 0.45 112 16:28 07.12.2021
866 Clouds 6 1007 68 10000 1.34 87 14:50 07.12.2021
867 Clouds 6 1008 69 10000 0.45 214 13:49 07.12.2021
868 Clouds 6 1010 76 10000 5.66 220 12:46 07.12.2021
869 Clouds 5 1009 85 10000 3.09 210 11:25 07.12.2021
870 Clouds 4 1009 90 10000 0.45 236 09:55 07.12.2021
871 Clouds 4 1008 89 10000 0.89 277 07:55 07.12.2021
872 Clouds 4 1006 91 10000 1.34 276 05:55 07.12.2021
873 Clouds 4 1006 91 10000 1.34 276 05:30 07.12.2021
874 Clouds 2 1002 92 10000 0.45 16 23:45 06.12.2021
875 Clouds 3 1005 85 10000 0.45 52 22:44 06.12.2021
876 Rain 3 1005 82 10000 0.89 188 22:22 06.12.2021
877 Clear 4 1006 79 10000 0.45 60 21:46 06.12.2021
878 Clouds 4 1007 79 10000 0.89 57 20:33 06.12.2021
879 Clouds 4 1009 77 10000 4.63 170 19:27 06.12.2021
880 Clouds 4 1009 78 10000 0.89 96 18:59 06.12.2021
881 Clouds 4 1009 79 10000 5.14 160 18:23 06.12.2021
882 Clouds 4 1011 82 10000 4.12 170 17:40 06.12.2021
883 Clouds 4 1010 76 10000 0.89 284 16:22 06.12.2021
884 Clouds 5 1013 80 10000 5.14 200 15:38 06.12.2021
885 Clouds 6 1011 81 10000 3.09 190 13:46 06.12.2021
886 Clouds 5 1013 85 10000 3.09 190 13:46 06.12.2021
887 Clouds 5 1014 89 10000 2.57 170 12:39 06.12.2021
888 Clouds 3 1013 94 10000 0.45 247 10:38 06.12.2021
889 Rain 2 1013 92 9000 2.57 150 08:46 06.12.2021
890 Clear 2 1011 95 10000 1.03 0 06:39 06.12.2021
891 Clouds 4 1007 88 10000 2.57 70 22:54 05.12.2021
892 Clouds 4 1006 87 10000 1.54 50 21:51 05.12.2021
893 Clouds 4 1006 86 10000 1.54 110 21:19 05.12.2021
894 Clouds 4 1007 86 10000 2.06 80 20:19 05.12.2021
895 Clouds 5 1007 84 10000 2.06 140 19:33 05.12.2021
896 Clouds 5 1004 78 10000 2.06 120 18:47 05.12.2021
897 Clouds 5 1003 78 10000 2.57 130 18:19 05.12.2021
898 Clouds 5 1003 77 10000 2.06 110 17:48 05.12.2021
899 Clouds 6 1002 74 10000 1.54 110 16:48 05.12.2021
900 Clouds 6 1002 73 10000 1.54 110 16:26 05.12.2021
901 Clouds 6 1001 72 10000 3.09 130 15:48 05.12.2021
902 Clouds 6 1000 73 10000 0.45 110 14:41 05.12.2021
903 Clouds 6 1000 74 10000 2.57 180 14:23 05.12.2021
904 Clouds 6 1000 77 10000 0.45 1 13:22 05.12.2021
905 Clouds 6 1000 80 10000 4.63 150 12:40 05.12.2021
906 Clouds 6 1000 81 10000 0.45 22 12:18 05.12.2021
907 Clouds 5 1000 85 10000 0.45 227 11:30 05.12.2021
908 Clouds 4 999 82 10000 0.45 95 10:18 05.12.2021
909 Clouds 3 999 84 10000 0.89 73 08:29 05.12.2021
910 Clouds 4 1000 87 10000 4.12 180 03:39 05.12.2021
911 Clear 4 998 87 10000 3.09 160 00:48 05.12.2021
912 Clouds 5 997 88 10000 0.45 253 22:18 04.12.2021
913 Clouds 5 996 89 10000 0.45 274 21:18 04.12.2021
914 Clouds 5 996 91 10000 7.72 270 20:27 04.12.2021
915 Clouds 6 995 93 10000 0.89 267 19:32 04.12.2021
916 Clouds 5 994 94 10000 0.89 268 18:22 04.12.2021
917 Clouds 5 994 94 10000 0.45 279 17:42 04.12.2021
918 Clouds 5 993 95 10000 0.89 269 17:20 04.12.2021
919 Drizzle 5 993 94 4800 0.45 90 16:42 04.12.2021
920 Clouds 5 992 92 5000 2.57 160 16:24 04.12.2021
921 Clouds 5 997 86 10000 4.12 130 11:56 04.12.2021
922 Clouds 5 997 87 10000 4.12 130 11:33 04.12.2021
923 Clouds 5 996 88 10000 0.45 68 10:57 04.12.2021
924 Clouds 4 996 91 10000 3.6 130 08:53 04.12.2021
925 Clouds 4 996 91 10000 3.09 120 08:28 04.12.2021
926 Clouds 4 997 91 10000 3.09 130 04:43 04.12.2021
927 Clouds 5 1000 83 10000 0.89 295 00:49 04.12.2021
928 Clouds 5 1001 83 10000 0.45 257 23:33 03.12.2021
929 Clouds 5 1002 81 10000 4.63 180 22:53 03.12.2021
930 Clouds 4 1002 82 10000 0.89 112 21:54 03.12.2021
931 Clouds 5 1003 83 10000 1.34 75 21:22 03.12.2021
932 Clouds 4 1003 85 10000 0.89 343 20:42 03.12.2021
933 Clouds 4 1004 82 10000 4.63 180 19:28 03.12.2021
934 Clouds 4 1005 82 10000 0.89 319 18:23 03.12.2021
935 Clouds 4 1005 81 10000 0.89 307 17:31 03.12.2021
936 Clouds 5 1008 70 10000 0.89 236 13:40 03.12.2021
937 Clouds 5 1008 71 10000 0.45 281 12:44 03.12.2021
938 Clouds 4 1010 77 10000 5.14 190 11:23 03.12.2021
939 Clouds 2 1010 90 10000 3.09 180 09:22 03.12.2021
940 Clouds 3 1010 90 10000 3.09 190 08:20 03.12.2021
941 Clouds 2 1009 89 10000 0.45 90 06:44 03.12.2021
942 Clouds 0 1009 93 7000 1.54 160 01:43 03.12.2021
943 Clouds 0 1009 91 10000 1.03 0 00:34 03.12.2021
944 Clouds 1 1009 90 10000 3.09 300 23:40 02.12.2021
945 Clouds 2 1007 85 10000 2.06 340 21:42 02.12.2021
946 Clouds 2 1007 84 10000 0.45 256 20:48 02.12.2021
947 Clouds 2 1008 83 10000 3.6 330 20:29 02.12.2021
948 Clouds 3 1005 84 10000 5.14 350 19:23 02.12.2021
949 Clouds 3 1005 83 10000 7.2 290 17:36 02.12.2021
950 Clouds 4 1001 81 10000 0.89 263 15:42 02.12.2021
951 Clouds 4 1000 79 10000 0.45 301 14:57 02.12.2021
952 Clouds 4 999 80 10000 1.79 268 13:54 02.12.2021
953 Clouds 4 1000 81 10000 0.89 271 12:52 02.12.2021
954 Clouds 4 1000 81 10000 0.89 271 12:52 02.12.2021
955 Clouds 4 999 86 10000 1.34 279 11:55 02.12.2021
956 Rain 4 998 88 10000 2.24 248 09:34 02.12.2021
957 Rain 4 997 88 10000 0.89 261 08:35 02.12.2021
958 Rain 5 996 91 10000 1.34 271 03:39 02.12.2021
959 Clouds 5 998 91 10000 4.12 260 00:52 02.12.2021
960 Clouds 6 995 90 10000 0.89 263 23:19 01.12.2021
961 Clouds 6 997 90 10000 5.14 270 22:23 01.12.2021
962 Clouds 6 994 90 10000 0.45 281 20:36 01.12.2021
963 Rain 7 993 86 10000 1.79 265 19:54 01.12.2021
964 Rain 7 994 86 10000 9.77 260 19:28 01.12.2021
965 Clouds 8 993 83 10000 7.72 260 17:45 01.12.2021
966 Clouds 8 993 82 10000 6.17 260 16:42 01.12.2021
967 Clouds 9 990 86 10000 1.79 243 14:52 01.12.2021
968 Clouds 9 992 89 10000 5.66 230 13:45 01.12.2021
969 Rain 10 990 80 10000 8.75 230 12:50 01.12.2021
970 Rain 10 992 78 10000 1.34 240 10:42 01.12.2021
971 Clouds 9 993 76 10000 0.89 340 09:20 01.12.2021
972 Clouds 9 994 79 10000 6.17 190 08:29 01.12.2021
973 Clouds 9 995 81 10000 0.45 11 07:33 01.12.2021
974 Rain 9 996 81 10000 0.89 6 06:59 01.12.2021
975 Clouds 9 1000 83 10000 0.45 334 03:46 01.12.2021
976 Rain 9 1003 90 10000 4.63 210 00:59 01.12.2021
977 Clouds 9 1004 95 10000 4.12 180 23:55 30.11.2021
978 Clouds 9 1004 96 10000 3.09 190 23:26 30.11.2021
979 Clouds 9 1005 95 8000 0.89 265 21:40 30.11.2021
980 Clouds 9 1006 95 10000 0.45 264 20:46 30.11.2021
981 Clouds 9 1006 95 10000 7.2 270 20:19 30.11.2021
982 Clouds 9 1006 95 10000 0.89 280 19:38 30.11.2021
983 Clouds 9 1006 95 10000 1.34 296 18:38 30.11.2021
984 Rain 9 1005 95 8000 0.89 270 17:21 30.11.2021
985 Clouds 9 1005 95 10000 0.45 277 15:44 30.11.2021
986 Drizzle 9 1005 95 6000 1.34 263 14:23 30.11.2021
987 Clouds 8 1004 95 6000 3.13 282 13:28 30.11.2021
988 Clouds 8 1004 95 4000 0.89 262 12:52 30.11.2021
989 Clouds 8 1004 94 10000 1.34 270 11:52 30.11.2021
990 Clouds 8 1005 94 9000 1.34 272 11:25 30.11.2021
991 Drizzle 7 1005 94 5000 1.79 324 10:35 30.11.2021
992 Clouds 6 1005 96 5000 0.45 259 08:54 30.11.2021
993 Clouds 6 1005 96 7000 0.45 292 08:31 30.11.2021
994 Clouds 5 1005 96 7000 5.14 230 07:48 30.11.2021
995 Clouds 5 1006 94 6000 0.89 251 06:32 30.11.2021
996 Rain 4 1010 84 10000 1.79 292 01:46 30.11.2021
997 Rain 4 1012 87 10000 7.2 260 01:26 30.11.2021
998 Clouds 4 1011 90 10000 0.89 259 23:25 29.11.2021
999 Clouds 4 1011 91 10000 0.89 259 22:59 29.11.2021
1000 Clouds 4 1010 92 10000 0.89 271 22:36 29.11.2021
1001 Clouds 4 1010 92 10000 0.45 273 21:46 29.11.2021
1002 Clouds 4 1010 91 10000 0.89 283 21:19 29.11.2021
1003 Clouds 4 1010 90 10000 0.45 270 20:44 29.11.2021
1004 Clouds 4 1010 91 10000 0.45 278 19:57 29.11.2021
1005 Clouds 4 1009 91 10000 0.89 287 19:38 29.11.2021
1006 Clouds 4 1009 89 10000 0.89 273 18:58 29.11.2021
1007 Clouds 2 1011 90 10000 1.81 250 18:39 29.11.2021
1008 Clouds 3 1010 89 10000 2.12 299 17:21 29.11.2021
1009 Clouds 3 1010 89 10000 2.14 299 16:40 29.11.2021
1010 Clouds 4 1009 86 10000 2.72 298 16:22 29.11.2021
1011 Clouds 4 1009 84 10000 3.2 284 14:45 29.11.2021
1012 Clouds 3 1008 93 7682 3.97 279 13:52 29.11.2021
1013 Clouds 3 1008 92 3071 4.54 280 12:56 29.11.2021
1014 Rain 5 1007 68 10000 5.01 281 11:54 29.11.2021
1015 Clouds 4 1007 71 10000 4.29 276 10:59 29.11.2021
1016 Clouds 2 1007 77 10000 3.94 273 09:57 29.11.2021
1017 Clouds 1 1005 93 10000 1.03 0 07:21 29.11.2021
1018 Clouds 0 1004 93 10000 2.57 260 05:48 29.11.2021
1019 Clouds 2 1002 87 10000 4.12 310 00:46 29.11.2021
1020 Clouds 2 1001 87 10000 3.6 320 23:47 28.11.2021
1021 Clouds 2 1001 87 10000 4.12 320 23:29 28.11.2021
1022 Clouds 3 1000 87 10000 4.12 320 21:57 28.11.2021
1023 Clouds 3 1000 87 10000 4.12 320 21:38 28.11.2021
1024 Clouds 3 1000 87 10000 2.57 320 20:36 28.11.2021
1025 Clouds 3 999 87 10000 1.54 220 19:37 28.11.2021
1026 Clouds 3 999 87 10000 0.51 0 18:40 28.11.2021
1027 Clouds 3 998 87 10000 1.54 360 17:58 28.11.2021
1028 Clouds 3 998 87 10000 1.54 340 17:34 28.11.2021
1029 Clouds 4 998 81 10000 2.06 330 16:47 28.11.2021
1030 Clouds 4 998 81 10000 4.12 320 16:27 28.11.2021
1031 Clouds 4 997 81 10000 3.09 310 15:48 28.11.2021
1032 Clouds 4 997 81 10000 2.57 320 14:55 28.11.2021
1033 Clouds 4 997 81 10000 2.57 320 14:28 28.11.2021
1034 Clouds 4 997 81 10000 2.06 310 12:54 28.11.2021
1035 Clouds 4 997 81 10000 1.03 0 11:38 28.11.2021
1036 Clouds 3 997 87 10000 1.54 60 10:31 28.11.2021
1037 Clouds 2 996 93 10000 1.03 0 09:51 28.11.2021
1038 Clouds 2 996 87 10000 1.03 70 09:30 28.11.2021
1039 Clouds 2 994 80 10000 2.57 130 00:52 28.11.2021
1040 Clouds 1 994 86 10000 3.09 120 21:54 27.11.2021
1041 Clear 1 993 75 10000 0.51 0 19:50 27.11.2021
1042 Clear 1 993 80 10000 1.54 120 18:26 27.11.2021
1043 Clouds 4 992 70 10000 3.6 210 16:19 27.11.2021
1044 Clouds 6 991 65 10000 5.14 220 14:51 27.11.2021
1045 Clouds 6 991 65 10000 4.63 230 13:39 27.11.2021
1046 Clouds 5 990 75 10000 5.14 220 12:19 27.11.2021
1047 Clouds 2 989 93 10000 2.06 150 10:27 27.11.2021
1048 Clouds 2 988 93 10000 1.54 140 09:18 27.11.2021
1049 Clouds 3 987 87 10000 1.54 270 07:43 27.11.2021
1050 Clouds 4 985 87 10000 3.6 180 04:53 27.11.2021
1051 Clouds 4 985 75 10000 6.17 190 00:26 27.11.2021
1052 Clouds 4 986 81 10000 6.17 200 22:52 26.11.2021
1053 Clouds 4 987 81 10000 5.66 190 22:24 26.11.2021
1054 Clouds 4 987 81 10000 6.17 190 21:34 26.11.2021
1055 Rain 5 988 70 10000 6.69 190 20:42 26.11.2021
1056 Rain 5 988 70 10000 6.69 190 19:56 26.11.2021
1057 Rain 5 989 70 10000 6.17 180 19:27 26.11.2021
1058 Clouds 4 990 75 10000 5.66 170 17:55 26.11.2021
1059 Rain 4 991 75 10000 7.2 170 17:21 26.11.2021
1060 Rain 5 993 70 10000 5.66 190 15:46 26.11.2021
1061 Rain 5 994 76 10000 0.89 174 13:35 26.11.2021
1062 Rain 5 999 92 10000 3.09 170 11:58 26.11.2021
1063 Clouds 5 998 93 10000 2.57 190 10:37 26.11.2021
1064 Drizzle 4 999 92 10000 4.63 230 08:57 26.11.2021
1065 Drizzle 5 999 90 10000 3.6 210 08:21 26.11.2021
1066 Rain 4 1000 92 10000 0.45 95 07:26 26.11.2021
1067 Clouds 4 1003 88 10000 2.57 210 06:26 26.11.2021
1068 Clouds 4 1004 91 10000 3.09 190 03:59 26.11.2021
1069 Mist 4 1008 94 4000 1.54 180 01:55 26.11.2021
1070 Mist 4 1010 91 4500 1.54 350 23:18 25.11.2021
1071 Clouds 5 1010 90 8000 1.03 0 21:26 25.11.2021
1072 Clouds 5 1011 87 8000 2.06 250 20:27 25.11.2021
1073 Clouds 4 1010 85 10000 2.06 270 18:47 25.11.2021
1074 Clouds 5 1008 84 10000 1.03 190 17:48 25.11.2021
1075 Clouds 5 1008 84 10000 1.54 200 17:25 25.11.2021
1076 Clouds 5 1009 80 10000 2.57 250 16:33 25.11.2021
1077 Clouds 5 1010 77 10000 1.03 0 15:33 25.11.2021
1078 Clouds 6 1009 73 10000 2.06 280 13:50 25.11.2021
1079 Clouds 5 1012 80 10000 2.57 230 12:28 25.11.2021
1080 Clouds 4 1012 83 10000 2.06 220 11:51 25.11.2021
1081 Clouds 2 1010 90 10000 2.06 140 09:41 25.11.2021
1082 Clouds 2 1010 90 10000 0.51 0 06:22 25.11.2021
1083 Clouds 2 1011 92 10000 1.54 60 02:52 25.11.2021
1084 Clouds 1 1013 90 10000 1.03 0 23:32 24.11.2021
1085 Clouds 1 1014 89 10000 1.03 0 22:26 24.11.2021
1086 Clouds 1 1014 88 10000 0.51 0 21:44 24.11.2021
1087 Clouds 2 1014 88 10000 1.03 0 20:56 24.11.2021
1088 Clouds 2 1015 86 10000 0.51 0 20:26 24.11.2021
1089 Clouds 4 1016 78 10000 1.03 0 18:37 24.11.2021
1090 Clouds 4 1016 77 10000 1.03 0 18:18 24.11.2021
1091 Clouds 7 1019 70 10000 4.12 150 16:19 24.11.2021
1092 Clouds 7 1018 66 10000 0.45 159 14:54 24.11.2021
1093 Clouds 8 1018 67 10000 3.09 150 14:20 24.11.2021
1094 Clouds 8 1019 67 10000 0.89 305 14:20 24.11.2021
1095 Clouds 7 1022 78 10000 3.6 150 12:50 24.11.2021
1096 Clouds 6 1024 91 10000 1.03 0 11:22 24.11.2021
1097 Clouds 6 1022 92 8000 1.03 0 10:50 24.11.2021
1098 Clouds 6 1024 93 6000 0.51 0 10:27 24.11.2021
1099 Mist 5 1023 93 4500 1.03 0 07:59 24.11.2021
1100 Mist 5 1023 94 4500 0.51 0 06:59 24.11.2021
1101 Mist 5 1025 94 5000 0 0 03:59 24.11.2021
1102 Clouds 5 1026 94 6000 1.03 40 01:30 24.11.2021
1103 Mist 5 1027 94 5000 1.54 70 23:30 23.11.2021
1104 Clouds 5 1027 93 7000 1.03 0 22:34 23.11.2021
1105 Clouds 5 1027 95 7000 1.54 100 21:45 23.11.2021
1106 Clouds 5 1027 94 10000 1.54 70 20:21 23.11.2021
1107 Clouds 5 1027 94 10000 2.06 160 19:22 23.11.2021
1108 Clouds 5 1028 93 10000 2.06 140 18:33 23.11.2021
1109 Mist 5 1028 91 4500 0.51 0 17:23 23.11.2021
1110 Clouds 6 1028 89 10000 0.51 0 16:35 23.11.2021
1111 Clouds 6 1028 87 10000 0.45 90 15:26 23.11.2021
1112 Drizzle 6 1028 86 6000 0.51 0 14:44 23.11.2021
1113 Clouds 5 1029 89 10000 1.03 0 12:53 23.11.2021
1114 Clouds 3 1029 92 10000 1.03 0 10:28 23.11.2021
1115 Clouds 2 1027 91 10000 0.74 212 09:46 23.11.2021
1116 Clouds 1 1027 94 10000 1.03 195 07:56 23.11.2021
1117 Clear -1 1028 94 10000 0.51 0 04:53 23.11.2021
1118 Clear 0 1027 93 10000 0.56 199 03:29 23.11.2021
1119 Clear 0 1028 90 10000 2.06 60 23:38 22.11.2021
1120 Clear 0 1028 88 10000 1.03 0 22:58 22.11.2021
1121 Clear 0 1028 88 10000 1.54 140 22:30 22.11.2021
1122 Clear 0 1028 88 10000 1.54 140 22:30 22.11.2021
1123 Clear 1 1027 86 10000 2.57 60 21:44 22.11.2021
1124 Clear 1 1029 86 10000 2.57 60 21:19 22.11.2021
1125 Clear 2 1027 82 10000 1.54 50 20:26 22.11.2021
1126 Clear 3 1028 81 10000 1.03 350 19:20 22.11.2021
1127 Clear 3 1028 78 10000 2.06 350 18:40 22.11.2021
1128 Clear 4 1027 75 10000 3.09 20 17:48 22.11.2021
1129 Clouds 6 1027 68 10000 4.63 10 16:31 22.11.2021
1130 Clouds 7 1024 64 10000 0.89 105 15:29 22.11.2021
1131 Clouds 6 1025 73 10000 5.14 30 12:48 22.11.2021
1132 Clouds 6 1025 79 10000 3.6 20 11:34 22.11.2021
1133 Clouds 5 1024 89 10000 3.09 340 10:22 22.11.2021
1134 Clouds 5 1023 91 10000 3.09 350 08:43 22.11.2021
1135 Clouds 5 1022 94 10000 2.57 340 08:23 22.11.2021
1136 Fog 3 1015 96 5000 0.51 0 01:36 22.11.2021
1137 Clear 5 1014 94 10000 2.06 340 23:21 21.11.2021
1138 Clear 5 1014 94 10000 2.06 340 22:43 21.11.2021
1139 Clouds 6 1012 92 10000 1.54 320 20:55 21.11.2021
1140 Clouds 7 1012 92 10000 1.54 320 20:34 21.11.2021
1141 Clouds 7 1014 94 10000 2.06 350 19:35 21.11.2021
1142 Clouds 7 1012 94 10000 1.03 320 17:57 21.11.2021
1143 Clouds 8 1012 96 10000 1.03 320 17:36 21.11.2021
1144 Clouds 9 1010 93 9000 0.45 90 14:56 21.11.2021
1145 Clouds 9 1010 94 9000 2.06 320 14:38 21.11.2021
1146 Clouds 9 1010 95 8000 2.57 320 13:23 21.11.2021
1147 Mist 8 1010 95 4500 2.57 290 12:27 21.11.2021
1148 Drizzle 8 1010 96 4000 3.6 270 11:38 21.11.2021
1149 Drizzle 8 1010 95 2200 0.45 264 10:19 21.11.2021
1150 Drizzle 8 1010 92 6000 0.89 270 09:47 21.11.2021
1151 Drizzle 7 1010 93 10000 1.03 0 08:33 21.11.2021
1152 Drizzle 7 1010 93 9000 0.45 272 07:53 21.11.2021
1153 Drizzle 7 1010 93 8000 1.54 260 07:33 21.11.2021
1154 Drizzle 7 1011 93 9000 1.54 230 05:43 21.11.2021
1155 Drizzle 7 1011 93 10000 1.54 180 04:35 21.11.2021
1156 Clouds 7 1013 95 9000 2.06 150 02:57 21.11.2021
1157 Clouds 7 1013 95 8000 2.06 170 02:33 21.11.2021
1158 Drizzle 7 1014 93 8000 2.06 160 00:51 21.11.2021
1159 Clouds 7 1015 91 10000 0.51 0 23:22 20.11.2021
1160 Clouds 7 1016 90 10000 1.03 0 21:39 20.11.2021
1161 Clouds 7 1015 90 10000 1.55 245 20:39 20.11.2021
1162 Clouds 8 1018 82 10000 1.54 130 18:46 20.11.2021
1163 Clouds 8 1018 82 10000 1.54 130 18:46 20.11.2021
1164 Clouds 8 1018 81 10000 1.54 150 18:25 20.11.2021
1165 Clouds 9 1019 77 10000 1.54 200 17:22 20.11.2021
1166 Clouds 10 1020 77 10000 2.06 230 16:41 20.11.2021
1167 Clouds 10 1021 75 10000 1.54 240 14:40 20.11.2021
1168 Clouds 10 1022 76 10000 2.06 230 14:21 20.11.2021
1169 Clouds 11 1024 79 10000 3.6 220 11:56 20.11.2021
1170 Clouds 10 1025 82 10000 2.57 210 10:35 20.11.2021
1171 Clouds 10 1027 82 10000 3.09 200 09:29 20.11.2021
1172 Clouds 10 1027 85 10000 2.06 220 07:22 20.11.2021
1173 Clouds 10 1028 89 10000 1.54 230 05:26 20.11.2021
1174 Clouds 10 1028 89 10000 1.54 220 04:50 20.11.2021
1175 Clouds 10 1029 91 10000 2.06 250 01:48 20.11.2021
1176 Clouds 10 1030 91 10000 0.51 0 00:40 20.11.2021
1177 Clouds 11 1030 90 10000 1.54 320 22:58 19.11.2021
1178 Clouds 11 1028 91 10000 1.54 320 21:58 19.11.2021
1179 Clouds 11 1028 90 10000 3.09 270 20:58 19.11.2021
1180 Clouds 11 1028 90 10000 3.09 270 20:36 19.11.2021
1181 Clouds 11 1028 90 10000 3.09 260 19:50 19.11.2021
1182 Clouds 11 1028 90 10000 0.45 267 18:54 19.11.2021
1183 Clouds 11 1028 90 10000 3.09 270 18:23 19.11.2021
1184 Clouds 11 1027 91 10000 3.09 250 17:31 19.11.2021
1185 Clouds 12 1027 91 10000 4.12 270 15:51 19.11.2021
1186 Drizzle 11 1028 92 10000 0.45 269 13:55 19.11.2021
1187 Drizzle 10 1028 95 10000 0.45 290 10:28 19.11.2021
1188 Drizzle 10 1028 95 10000 0.45 290 10:28 19.11.2021
1189 Drizzle 10 1028 95 10000 0.45 91 09:38 19.11.2021
1190 Drizzle 10 1028 96 8000 2.57 210 08:24 19.11.2021
1191 Drizzle 10 1028 96 3800 4.12 250 04:53 19.11.2021
1192 Clouds 10 1028 89 10000 4.12 250 02:40 19.11.2021
1193 Drizzle 9 1030 90 10000 1.03 0 23:52 18.11.2021
1194 Clouds 10 1028 86 10000 3.09 160 22:21 18.11.2021
1195 Clouds 10 1028 82 10000 3.09 200 20:50 18.11.2021
1196 Clouds 10 1028 81 10000 3.09 190 20:32 18.11.2021
1197 Clouds 9 1028 80 10000 3.09 190 19:58 18.11.2021
1198 Clouds 9 1028 80 10000 3.09 190 19:35 18.11.2021
1199 Clouds 9 1027 81 10000 2.57 200 18:34 18.11.2021
1200 Clouds 9 1027 79 10000 2.06 220 17:51 18.11.2021
1201 Clouds 10 1027 74 10000 3.6 250 16:45 18.11.2021
1202 Clouds 11 1027 71 10000 5.14 260 15:51 18.11.2021
1203 Clouds 11 1027 71 10000 5.66 260 14:18 18.11.2021
1204 Clouds 10 1030 84 10000 3.09 210 12:34 18.11.2021
1205 Clear 9 1030 88 10000 2.57 170 11:43 18.11.2021
1206 Clear 9 1028 88 10000 2.57 170 11:25 18.11.2021
1207 Clear 7 1027 94 10000 3.6 160 10:21 18.11.2021
1208 Clear 5 1027 94 10000 3.09 160 07:42 18.11.2021
1209 Clear 5 1026 94 10000 2.06 160 06:20 18.11.2021
1210 Clear 5 1026 94 10000 1.03 0 05:41 18.11.2021
1211 Clouds 6 1025 96 10000 0.51 210 01:25 18.11.2021
1212 Clouds 7 1024 94 10000 1.54 230 23:27 17.11.2021
1213 Clouds 7 1024 95 10000 2.06 250 22:39 17.11.2021
1214 Clouds 7 1024 94 10000 2.06 250 22:18 17.11.2021
1215 Clouds 7 1026 93 10000 2.06 250 21:35 17.11.2021
1216 Clouds 8 1024 93 10000 2.06 270 19:31 17.11.2021
1217 Drizzle 9 1021 94 10000 2.57 290 17:35 17.11.2021
1218 Drizzle 9 1020 93 10000 0.89 286 15:55 17.11.2021
1219 Drizzle 8 1020 91 10000 2.57 160 13:18 17.11.2021
1220 Drizzle 8 1020 90 10000 3.09 160 12:36 17.11.2021
1221 Clouds 7 1019 89 10000 3.09 150 10:54 17.11.2021
1222 Clouds 7 1019 92 10000 3.09 140 09:38 17.11.2021
1223 Drizzle 6 1019 92 9000 1.03 0 07:56 17.11.2021
1224 Drizzle 6 1019 92 9000 1.03 0 07:37 17.11.2021
1225 Clouds 5 1020 91 10000 1.54 200 02:49 17.11.2021
1226 Clouds 5 1021 92 10000 2.06 220 00:34 17.11.2021
1227 Clouds 5 1021 91 10000 1.54 220 22:32 16.11.2021
1228 Clouds 6 1021 87 10000 1.54 220 20:19 16.11.2021
1229 Clouds 6 1021 87 10000 2.06 220 19:41 16.11.2021
1230 Clouds 6 1019 85 10000 1.54 220 18:52 16.11.2021
1231 Clouds 6 1019 85 10000 1.54 170 18:29 16.11.2021
1232 Clouds 6 1021 90 10000 2.06 240 17:26 16.11.2021
1233 Clouds 7 1019 89 10000 1.54 170 16:21 16.11.2021
1234 Clouds 6 1019 89 10000 0.51 160 15:44 16.11.2021
1235 Drizzle 7 1020 92 10000 0.45 94 13:49 16.11.2021
1236 Drizzle 6 1021 90 10000 1.03 340 10:39 16.11.2021
1237 Clouds 6 1022 87 10000 1.03 340 09:42 16.11.2021
1238 Clouds 6 1023 87 10000 1.54 50 08:23 16.11.2021
1239 Clouds 6 1023 89 10000 1.03 0 07:30 16.11.2021
1240 Clouds 6 1025 86 10000 0.51 30 23:54 15.11.2021
1241 Clouds 6 1023 85 10000 1.54 120 22:43 15.11.2021
1242 Clouds 6 1025 86 10000 0.51 0 22:20 15.11.2021
1243 Clouds 7 1025 86 10000 1.03 0 21:51 15.11.2021
1244 Clouds 7 1025 85 10000 0.51 120 21:25 15.11.2021
1245 Clouds 7 1024 85 10000 1.03 0 19:41 15.11.2021
1246 Clouds 7 1022 83 10000 2.57 80 17:50 15.11.2021
1247 Clouds 7 1022 83 10000 2.06 130 16:19 15.11.2021
1248 Clouds 7 1022 83 10000 3.09 120 15:40 15.11.2021
1249 Clouds 7 1024 83 10000 2.57 80 15:20 15.11.2021
1250 Clouds 8 1025 82 10000 3.09 60 12:47 15.11.2021
1251 Clouds 8 1025 84 10000 1.03 0 10:54 15.11.2021
1252 Clouds 8 1025 84 10000 1.03 50 09:26 15.11.2021
1253 Clouds 8 1025 84 10000 2.06 90 07:45 15.11.2021
1254 Clouds 7 1025 90 10000 1.03 50 04:46 15.11.2021
1255 Clouds 7 1024 89 10000 1.54 90 23:37 14.11.2021
1256 Clouds 7 1024 90 10000 2.06 60 22:34 14.11.2021
1257 Clouds 8 1021 89 10000 1.6 67 19:53 14.11.2021
1258 Clouds 8 1021 88 10000 1.65 66 19:18 14.11.2021
1259 Clouds 8 1022 87 10000 0.51 0 18:54 14.11.2021
1260 Clouds 9 1021 85 10000 1.65 66 18:36 14.11.2021
1261 Clouds 9 1022 84 10000 0.51 40 18:18 14.11.2021
1262 Clouds 9 1023 83 10000 1.03 40 17:55 14.11.2021
1263 Clouds 9 1023 83 10000 1.03 40 17:37 14.11.2021
1264 Clouds 9 1023 82 10000 1.54 40 17:19 14.11.2021
1265 Clouds 10 1023 80 10000 2.06 40 16:46 14.11.2021
1266 Clouds 10 1023 80 10000 3.09 30 16:20 14.11.2021
1267 Clouds 10 1022 80 10000 3.09 10 15:23 14.11.2021
1268 Clouds 10 1020 78 10000 2.57 20 14:49 14.11.2021
1269 Clouds 10 1020 77 10000 4.12 30 14:28 14.11.2021
1270 Clouds 10 1020 77 10000 0.45 90 13:54 14.11.2021
1271 Clouds 10 1020 77 10000 3.09 50 13:35 14.11.2021
1272 Clouds 10 1020 82 10000 3.09 30 12:27 14.11.2021
1273 Clouds 9 1020 84 10000 3.6 40 11:41 14.11.2021
1274 Clouds 9 1021 88 10000 4.12 50 10:41 14.11.2021
1275 Clouds 8 1019 93 10000 1.54 60 09:48 14.11.2021
1276 Clouds 8 1018 95 10000 2.57 60 08:54 14.11.2021
1277 Clouds 8 1016 95 10000 1.16 94 07:19 14.11.2021
1278 Clouds 9 1013 95 10000 2.06 80 00:26 14.11.2021
1279 Clouds 9 1013 95 10000 2.06 90 22:26 13.11.2021
1280 Clouds 9 1013 97 10000 1.54 80 21:56 13.11.2021
1281 Clouds 9 1012 97 10000 2.06 80 21:22 13.11.2021
1282 Clouds 10 1012 96 10000 1.54 80 19:47 13.11.2021
1283 Clouds 10 1011 96 10000 1.03 80 18:33 13.11.2021
1284 Clouds 10 1011 96 2900 3.09 130 17:55 13.11.2021
1285 Clouds 10 1011 95 10000 2.06 130 16:37 13.11.2021
1286 Rain 10 1010 95 10000 0.45 313 15:34 13.11.2021
1287 Clouds 10 1010 95 10000 3.6 130 14:30 13.11.2021
1288 Clouds 10 1010 95 8000 3.6 150 13:32 13.11.2021
1289 Clouds 10 1010 95 10000 3.6 130 12:28 13.11.2021
1290 Clouds 10 1010 95 10000 3.6 150 11:38 13.11.2021
1291 Rain 9 1010 96 10000 3.09 140 10:45 13.11.2021
1292 Rain 9 1010 98 10000 3.6 140 10:22 13.11.2021
1293 Rain 8 1010 96 10000 3.6 130 09:38 13.11.2021
1294 Clouds 8 1010 97 6000 4.12 140 08:56 13.11.2021
1295 Clouds 8 1010 97 6000 4.12 140 08:31 13.11.2021
1296 Mist 7 1009 93 4500 0.45 235 05:59 13.11.2021
1297 Clouds 7 1010 85 10000 0.89 25 04:30 13.11.2021
1298 Clouds 6 1011 81 10000 0.45 41 01:54 13.11.2021
1299 Clouds 5 1012 86 10000 0.45 346 22:59 12.11.2021
1300 Clear 5 1013 87 10000 4.12 130 21:50 12.11.2021
1301 Clear 5 1012 88 10000 0.89 219 20:18 12.11.2021
1302 Clear 6 1013 85 10000 0.45 133 19:28 12.11.2021
1303 Clear 6 1013 84 10000 3.6 130 18:46 12.11.2021
1304 Clear 8 1013 78 10000 0.89 303 16:40 12.11.2021
1305 Clear 9 1014 73 10000 0.45 251 15:34 12.11.2021
1306 Clear 9 1015 72 10000 0.89 344 13:21 12.11.2021
1307 Clouds 5 1017 93 10000 0.89 31 10:58 12.11.2021
1308 Clouds 4 1017 95 8000 0.45 62 09:45 12.11.2021
1309 Clouds 4 1018 97 7000 0.45 116 08:44 12.11.2021
1310 Clouds 2 1019 96 7000 2.06 140 05:54 12.11.2021
1311 Clear 2 1022 94 6000 1.03 0 23:43 11.11.2021
1312 Clear 3 1022 94 8000 0.51 0 22:46 11.11.2021
1313 Clear 4 1022 94 10000 1.03 0 21:29 11.11.2021
1314 Clear 4 1022 95 10000 1.03 0 20:48 11.11.2021
1315 Clear 5 1023 91 9000 0.51 0 19:30 11.11.2021
1316 Clear 6 1022 89 10000 0.51 130 18:25 11.11.2021
1317 Clear 7 1022 85 10000 1.54 40 17:37 11.11.2021
1318 Clear 9 1024 76 10000 1.03 0 15:20 11.11.2021
1319 Clear 9 1022 82 10000 1.03 0 14:38 11.11.2021
1320 Clear 9 1022 84 10000 1.03 0 14:19 11.11.2021
1321 Clear 9 1023 85 10000 0.51 0 13:35 11.11.2021
1322 Clouds 8 1025 55 10000 0.82 169 12:23 11.11.2021
1323 Fog 2 1026 93 350 1.54 150 09:55 11.11.2021
1324 Clouds 0 1025 100 10000 2.57 140 08:47 11.11.2021
1325 Clouds 0 1021 95 10000 1.22 148 06:55 11.11.2021
1326 Clear 1 1023 95 10000 1.54 80 00:38 11.11.2021
1327 Clear 2 1023 93 10000 1.54 130 22:42 10.11.2021
1328 Clear 3 1023 93 10000 1.03 0 21:53 10.11.2021
1329 Clear 3 1023 92 10000 0.51 0 20:56 10.11.2021
1330 Clear 4 1023 89 10000 1.54 70 20:18 10.11.2021
1331 Clear 4 1023 88 10000 0.51 0 19:39 10.11.2021
1332 Clear 7 1022 77 10000 0 0 17:28 10.11.2021
1333 Clear 10 1022 71 10000 1.54 150 15:47 10.11.2021
1334 Clear 10 1022 70 10000 2.06 140 14:25 10.11.2021
1335 Clear 10 1022 70 10000 0.45 221 14:25 10.11.2021
1336 Clear 10 1023 68 10000 2.06 150 13:38 10.11.2021
1337 Clear 9 1023 78 10000 2.57 190 12:31 10.11.2021
1338 Clear 3 1023 94 10000 2.06 140 09:29 10.11.2021
1339 Clouds 3 1021 95 10000 0.45 282 08:42 10.11.2021
1340 Clouds 3 1021 95 10000 0.45 282 08:42 10.11.2021
1341 Clear 1 1023 93 10000 2.06 130 06:59 10.11.2021
1342 Clear 2 1023 93 10000 1.03 0 05:58 10.11.2021
1343 Clear 2 1023 94 10000 0.45 297 04:58 10.11.2021
1344 Clear 5 1024 85 10000 0.51 0 22:41 09.11.2021
1345 Clear 6 1024 83 10000 2.06 110 20:51 09.11.2021
1346 Clear 6 1024 81 10000 2.06 90 19:51 09.11.2021
1347 Clear 8 1024 76 10000 2.06 120 18:58 09.11.2021
1348 Clear 10 1024 64 10000 2.57 130 17:24 09.11.2021
1349 Clear 12 1026 59 10000 3.09 140 15:38 09.11.2021
1350 Clouds 13 1025 56 10000 3.09 160 13:55 09.11.2021
1351 Clear 12 1028 68 10000 3.09 180 12:50 09.11.2021
1352 Clear 11 1028 80 10000 3.09 140 11:34 09.11.2021
1353 Clear 8 1026 89 10000 3.09 150 10:42 09.11.2021
1354 Clear 5 1026 95 10000 0.51 0 09:24 09.11.2021
1355 Clear 4 1025 94 10000 0.51 0 08:18 09.11.2021
1356 Clouds 4 1024 95 10000 1.03 0 05:23 09.11.2021
1357 Clouds 5 1024 92 10000 0.51 0 02:19 09.11.2021
1358 Clouds 6 1024 90 10000 0.51 0 01:39 09.11.2021
1359 Clouds 7 1024 86 10000 1.03 60 23:35 08.11.2021
1360 Clouds 8 1024 85 10000 1.03 150 22:48 08.11.2021
1361 Clouds 8 1025 87 10000 1.54 150 21:46 08.11.2021
1362 Clouds 9 1025 86 10000 1.54 170 20:47 08.11.2021
1363 Clouds 9 1025 85 10000 0.51 0 19:48 08.11.2021
1364 Clouds 10 1021 79 10000 1.03 100 17:55 08.11.2021
1365 Clouds 11 1021 74 10000 1.03 320 15:59 08.11.2021
1366 Clouds 11 1021 73 10000 0.89 292 14:57 08.11.2021
1367 Clouds 11 1021 74 10000 2.06 320 14:37 08.11.2021
1368 Clouds 11 1023 77 10000 1.54 270 13:24 08.11.2021
1369 Clouds 10 1023 84 10000 1.03 0 11:56 08.11.2021
1370 Clouds 9 1021 87 10000 1.03 0 10:50 08.11.2021
1371 Clouds 8 1021 89 10000 1.54 150 09:37 08.11.2021
1372 Clouds 8 1022 92 10000 2.06 170 08:53 08.11.2021
1373 Clouds 7 1021 90 10000 2.06 160 07:28 08.11.2021
1374 Clouds 7 1019 91 10000 0.51 0 03:48 08.11.2021
1375 Clouds 7 1019 89 10000 0 0 03:26 08.11.2021
1376 Clouds 7 1018 87 10000 0.45 268 23:46 07.11.2021
1377 Clouds 8 1017 84 10000 0.89 278 21:48 07.11.2021
1378 Clouds 8 1018 83 10000 4.12 270 20:54 07.11.2021
1379 Clouds 9 1018 77 10000 5.14 270 19:30 07.11.2021
1380 Clouds 10 1015 74 10000 0.45 283 18:22 07.11.2021
1381 Clouds 10 1014 70 10000 0.89 297 16:54 07.11.2021
1382 Clouds 11 1014 68 10000 0.89 302 15:48 07.11.2021
1383 Clouds 12 1016 73 10000 7.72 280 14:29 07.11.2021
1384 Clouds 12 1014 71 10000 0.45 275 13:35 07.11.2021
1385 Clouds 11 1017 80 10000 5.66 280 11:43 07.11.2021
1386 Clouds 11 1014 90 10000 0.45 278 09:52 07.11.2021
1387 Clouds 10 1014 84 10000 0.89 285 07:54 07.11.2021
1388 Clouds 10 1017 76 10000 5.14 210 02:41 07.11.2021
1389 Clouds 10 1020 76 10000 4.12 220 23:38 06.11.2021
1390 Clouds 10 1020 76 10000 4.12 200 22:48 06.11.2021
1391 Clouds 10 1021 75 10000 4.63 210 21:33 06.11.2021
1392 Clouds 10 1021 75 10000 4.12 210 20:52 06.11.2021
1393 Clouds 10 1025 77 10000 4.12 200 18:56 06.11.2021
1394 Clouds 11 1025 71 10000 2.57 200 16:47 06.11.2021
1395 Clouds 11 1025 71 10000 2.57 200 16:47 06.11.2021
1396 Clouds 12 1027 68 10000 4.63 200 15:21 06.11.2021
1397 Clouds 12 1028 71 10000 5.14 220 13:38 06.11.2021
1398 Clouds 11 1029 77 10000 3.6 0 12:29 06.11.2021
1399 Clear 7 1027 96 10000 3.6 150 09:39 06.11.2021
1400 Clear 5 1027 99 10000 2.06 150 07:57 06.11.2021
1401 Clouds 6 1026 97 10000 1.03 170 03:20 06.11.2021
1402 Clouds 7 1028 94 10000 0.51 0 23:38 05.11.2021
1403 Clouds 8 1028 93 10000 1.54 250 22:50 05.11.2021
1404 Clouds 8 1025 93 10000 0.45 270 21:54 05.11.2021
1405 Clouds 9 1027 90 10000 3.09 290 20:20 05.11.2021
1406 Clouds 9 1024 90 10000 3.6 280 19:49 05.11.2021
1407 Clouds 10 1023 88 10000 2.06 240 18:41 05.11.2021
1408 Clouds 11 1022 87 10000 2.57 170 17:31 05.11.2021
1409 Clouds 11 1021 84 10000 2.06 150 15:48 05.11.2021
1410 Clouds 11 1021 84 10000 0.51 0 13:58 05.11.2021
1411 Drizzle 10 1021 91 8000 0.45 270 11:42 05.11.2021
1412 Clouds 7 1018 93 6000 1.54 300 08:41 05.11.2021
1413 Clouds 7 1017 94 7000 0.89 266 07:39 05.11.2021
1414 Clouds 7 1018 95 10000 1.54 320 05:33 05.11.2021
1415 Clouds 7 1013 96 10000 0.51 0 02:27 05.11.2021
1416 Clouds 7 1010 95 10000 1.3 257 00:53 05.11.2021
1417 Clouds 7 1010 94 10000 1.54 40 23:25 04.11.2021
1418 Clouds 7 1010 94 10000 0.51 0 22:20 04.11.2021
1419 Clouds 7 1009 93 10000 1.03 0 21:44 04.11.2021
1420 Clouds 8 1009 93 10000 2.57 240 21:19 04.11.2021
1421 Clouds 8 1009 92 10000 1.03 310 20:23 04.11.2021
1422 Clouds 8 1008 91 10000 1.54 320 19:48 04.11.2021
1423 Clouds 8 1008 90 10000 3.09 290 19:20 04.11.2021
1424 Clouds 8 1007 90 10000 0.89 285 18:21 04.11.2021
1425 Clouds 8 1006 88 10000 0.45 276 17:26 04.11.2021
1426 Clouds 8 1006 88 10000 0.45 276 17:26 04.11.2021
1427 Clouds 9 1005 89 8000 0.89 291 15:35 04.11.2021
1428 Clouds 9 1004 89 6000 0.89 282 13:45 04.11.2021
1429 Clouds 6 1003 95 6000 0.45 270 09:50 04.11.2021
1430 Mist 6 1002 94 5000 0.89 272 08:31 04.11.2021
1431 Mist 6 1001 94 5000 0.45 206 07:35 04.11.2021
1432 Mist 6 1001 94 5000 4.63 310 06:38 04.11.2021
1433 Clouds 7 1002 94 6000 3.09 330 22:54 03.11.2021
1434 Clouds 7 1001 94 9000 2.06 330 21:57 03.11.2021
1435 Clouds 7 1001 94 9000 2.06 330 21:35 03.11.2021
1436 Clouds 7 1001 93 10000 2.57 330 20:39 03.11.2021
1437 Clouds 7 1001 93 10000 2.57 330 20:39 03.11.2021
1438 Clouds 7 1001 93 10000 1.54 300 20:19 03.11.2021
1439 Clouds 7 998 93 10000 2.06 340 19:19 03.11.2021
1440 Rain 7 998 93 10000 3.09 340 18:26 03.11.2021
1441 Clouds 7 1000 94 10000 3.09 360 17:41 03.11.2021
1442 Clouds 8 997 91 10000 2.57 350 16:42 03.11.2021
1443 Clouds 8 999 93 10000 3.6 20 15:47 03.11.2021
1444 Clouds 8 999 94 10000 3.09 20 15:29 03.11.2021
1445 Rain 8 997 94 8000 2.06 30 13:18 03.11.2021
1446 Rain 7 998 93 10000 3.09 60 11:34 03.11.2021
1447 Rain 7 997 93 10000 4.12 60 10:49 03.11.2021
1448 Rain 6 998 94 10000 3.09 80 09:40 03.11.2021
1449 Rain 6 998 95 10000 1.03 0 08:49 03.11.2021
1450 Rain 5 998 95 10000 1.54 110 07:40 03.11.2021
1451 Clouds 5 998 95 9000 1.54 90 06:30 03.11.2021
1452 Clouds 5 998 96 10000 3.09 90 04:22 03.11.2021
1453 Clear 4 999 95 10000 0.51 0 00:55 03.11.2021
1454 Clouds 6 999 94 10000 1.54 150 22:52 02.11.2021
1455 Clouds 6 999 93 10000 0.51 0 21:47 02.11.2021
1456 Clouds 7 999 93 10000 2.57 210 20:36 02.11.2021
1457 Clouds 8 999 94 10000 2.57 160 19:56 02.11.2021
1458 Clouds 8 999 92 10000 2.06 210 19:27 02.11.2021
1459 Rain 8 998 93 10000 1.03 0 18:35 02.11.2021
1460 Clouds 9 997 95 10000 2.57 170 17:44 02.11.2021
1461 Rain 9 997 92 10000 2.06 120 16:47 02.11.2021
1462 Clouds 10 997 92 10000 2.57 150 15:50 02.11.2021
1463 Clouds 10 997 88 10000 0.45 61 14:56 02.11.2021
1464 Clouds 10 997 86 10000 0.45 90 13:29 02.11.2021
1465 Clouds 10 998 87 10000 0.45 254 12:52 02.11.2021
1466 Rain 9 998 86 10000 2.57 160 11:39 02.11.2021
1467 Rain 9 998 83 10000 3.09 140 10:59 02.11.2021
1468 Rain 9 998 83 10000 0.45 316 10:32 02.11.2021
1469 Clouds 8 998 86 10000 2.06 130 09:45 02.11.2021
1470 Clouds 6 997 90 10000 1.54 120 07:46 02.11.2021
1471 Clouds 6 998 90 10000 3.6 160 05:42 02.11.2021
1472 Clouds 7 998 86 10000 3.09 150 03:24 02.11.2021
1473 Clear 8 998 87 10000 2.57 110 00:19 02.11.2021
1474 Clouds 9 996 81 10000 3.04 176 21:57 01.11.2021
1475 Clear 10 999 77 10000 3.6 150 20:45 01.11.2021
1476 Clear 10 998 75 10000 3.6 160 20:19 01.11.2021
1477 Clear 9 1002 77 10000 3.6 170 19:42 01.11.2021
1478 Clear 10 998 71 10000 3.09 170 18:50 01.11.2021
1479 Clouds 11 1001 67 10000 3.6 210 17:49 01.11.2021
1480 Clouds 13 1001 61 10000 4.63 210 16:57 01.11.2021
1481 Clouds 13 1001 59 10000 4.63 210 16:25 01.11.2021
1482 Clouds 14 1000 57 10000 5.66 230 15:39 01.11.2021
1483 Clouds 14 1000 56 10000 5.66 230 15:19 01.11.2021
1484 Clouds 15 1001 54 10000 6.69 220 14:38 01.11.2021
1485 Clouds 14 1001 55 10000 6.69 220 14:19 01.11.2021
1486 Clouds 14 1001 61 10000 6.17 220 12:41 01.11.2021
1487 Clouds 13 1001 69 10000 6.69 210 11:39 01.11.2021
1488 Clouds 12 999 78 10000 0.45 327 10:20 01.11.2021
1489 Clouds 9 998 83 10000 0.89 36 08:20 01.11.2021
1490 Clear 9 998 85 10000 2.57 140 07:46 01.11.2021
1491 Clear 9 997 93 10000 2.57 180 03:55 01.11.2021
1492 Clear 10 1001 94 10000 3.6 160 01:44 01.11.2021
1493 Clouds 11 998 96 10000 2.57 150 23:52 31.10.2021
1494 Rain 16 995 80 10000 1.79 277 20:58 31.10.2021
1495 Clouds 17 994 82 10000 0.89 334 19:49 31.10.2021
1496 Clear 17 995 79 10000 0.45 309 18:43 31.10.2021
1497 Clear 17 996 78 10000 0.89 58 18:20 31.10.2021
1498 Clouds 17 997 80 10000 0.45 306 16:41 31.10.2021
1499 Clouds 17 998 81 10000 5.14 130 14:53 31.10.2021
1500 Clouds 16 1001 83 10000 4.63 140 12:56 31.10.2021
1501 Clouds 15 1002 86 10000 4.63 140 11:44 31.10.2021
1502 Clouds 13 1003 91 10000 4.12 140 10:48 31.10.2021
1503 Clear 11 1004 94 10000 4.63 140 09:26 31.10.2021
1504 Clear 10 1004 95 10000 4.63 140 08:45 31.10.2021
1505 Clouds 11 1005 94 10000 2.06 170 02:54 31.10.2021
1506 Rain 13 1003 90 10000 1.03 0 23:42 30.10.2021
1507 Rain 13 1002 83 10000 0.45 296 21:36 30.10.2021
1508 Clouds 13 1001 83 10000 0.89 337 21:18 30.10.2021
1509 Clouds 13 1001 81 10000 5.14 130 19:35 30.10.2021
1510 Clouds 14 1000 80 10000 1.34 284 17:43 30.10.2021
1511 Clouds 14 1000 73 10000 0.89 305 15:34 30.10.2021
1512 Rain 13 1000 72 10000 0.89 303 13:58 30.10.2021
1513 Rain 13 1000 71 10000 0.89 282 13:38 30.10.2021
1514 Rain 13 1000 72 10000 1.79 326 13:19 30.10.2021
1515 Rain 13 1001 73 10000 0.89 13 11:49 30.10.2021
1516 Rain 13 1002 72 10000 0.89 298 10:34 30.10.2021
1517 Clear 12 1002 74 10000 6.69 150 08:55 30.10.2021
1518 Clear 12 1002 73 10000 5.14 130 07:55 30.10.2021
1519 Rain 12 1003 75 10000 6.69 130 05:46 30.10.2021
1520 Clear 12 1005 74 10000 0.45 301 02:26 30.10.2021
1521 Clear 13 1006 71 10000 0.45 318 23:20 29.10.2021
1522 Clear 14 1006 71 10000 0.45 320 22:33 29.10.2021
1523 Clear 14 1005 69 10000 1.34 77 20:55 29.10.2021
1524 Clear 15 1005 68 10000 1.34 325 20:31 29.10.2021
1525 Clear 15 1005 69 10000 0.89 292 19:18 29.10.2021
1526 Clear 18 1005 59 10000 5.66 160 17:28 29.10.2021
1527 Clear 17 1005 61 10000 1.34 304 15:26 29.10.2021
1528 Clear 14 1007 73 10000 1.34 301 12:30 29.10.2021
1529 Clear 11 1008 82 10000 0.45 284 10:46 29.10.2021
1530 Clear 10 1008 85 10000 4.12 120 09:45 29.10.2021
1531 Clear 9 1010 93 10000 0.45 80 02:22 29.10.2021
1532 Clear 9 1011 90 10000 0.89 65 00:30 29.10.2021
1533 Clear 9 1012 90 10000 0.89 231 22:27 28.10.2021
1534 Clear 10 1012 88 10000 4.63 120 20:59 28.10.2021
1535 Clear 11 1013 85 10000 0.89 278 19:52 28.10.2021
1536 Clear 11 1013 85 10000 0.89 278 19:52 28.10.2021
1537 Clear 12 1013 80 10000 5.66 130 18:46 28.10.2021
1538 Clear 15 1013 71 10000 0.89 307 17:38 28.10.2021
1539 Clear 16 1013 68 10000 0.89 333 16:38 28.10.2021
1540 Clear 16 1014 66 10000 0.45 276 14:42 28.10.2021
1541 Clear 15 1018 74 10000 5.14 140 13:33 28.10.2021
1542 Clear 14 1018 78 10000 5.14 140 12:50 28.10.2021
1543 Clear 13 1016 82 10000 0.89 312 11:49 28.10.2021
1544 Clear 10 1016 93 10000 0.45 305 10:38 28.10.2021
1545 Clear 9 1017 93 10000 4.63 130 09:37 28.10.2021
1546 Clouds 8 1017 95 9000 5.14 130 08:36 28.10.2021
1547 Mist 9 1017 95 4500 0.89 260 07:41 28.10.2021
1548 Clear 9 1019 94 10000 0.45 286 02:33 28.10.2021
1549 Clear 10 1020 88 10000 2.06 130 22:54 27.10.2021
1550 Clear 11 1020 89 10000 2.57 130 22:26 27.10.2021
1551 Clear 11 1020 85 10000 2.06 140 21:32 27.10.2021
1552 Clear 12 1020 83 10000 2.06 140 20:46 27.10.2021
1553 Clouds 13 1020 81 10000 2.57 170 19:48 27.10.2021
1554 Clouds 14 1020 76 10000 0.45 114 18:56 27.10.2021
1555 Clouds 14 1020 74 10000 0.45 278 18:36 27.10.2021
1556 Clouds 17 1024 67 10000 3.6 190 16:25 27.10.2021
1557 Clouds 18 1024 66 10000 4.63 190 15:28 27.10.2021
1558 Clouds 17 1024 70 10000 4.63 190 14:28 27.10.2021
1559 Clouds 14 1022 81 10000 0.89 272 11:18 27.10.2021
1560 Clouds 13 1022 83 10000 0.45 110 10:56 27.10.2021
1561 Clouds 12 1022 88 10000 3.6 180 09:28 27.10.2021
1562 Clouds 11 1021 91 10000 4.12 170 07:47 27.10.2021
1563 Clouds 12 1021 88 10000 3.6 170 06:34 27.10.2021
1564 Clouds 12 1021 84 10000 3.6 160 01:29 27.10.2021
1565 Clouds 12 1021 84 10000 3.6 160 00:55 27.10.2021
1566 Clouds 12 1021 84 10000 0.45 75 23:56 26.10.2021
1567 Clear 11 1021 82 10000 3.09 180 22:55 26.10.2021
1568 Clear 11 1021 80 10000 3.09 180 22:29 26.10.2021
1569 Clouds 11 1021 78 10000 3.09 180 21:51 26.10.2021
1570 Clear 12 1023 75 10000 3.6 210 20:26 26.10.2021
1571 Clouds 13 1023 73 10000 4.12 240 19:26 26.10.2021
1572 Clouds 14 1022 69 10000 4.12 250 18:32 26.10.2021
1573 Clouds 16 1021 62 10000 6.17 230 15:54 26.10.2021
1574 Clouds 16 1022 68 10000 5.66 270 14:18 26.10.2021
1575 Clouds 13 1022 84 10000 3.09 210 11:33 26.10.2021
1576 Clouds 11 1018 92 10000 2.57 170 09:29 26.10.2021
1577 Clouds 11 1017 91 10000 2.57 160 07:24 26.10.2021
1578 Rain 11 1016 89 10000 2.57 170 03:37 26.10.2021
1579 Clouds 11 1019 87 10000 3.09 200 23:49 25.10.2021
1580 Clouds 12 1016 86 10000 3.6 210 22:39 25.10.2021
1581 Clouds 11 1019 87 10000 5.14 220 22:18 25.10.2021
1582 Clouds 12 1016 88 10000 1.54 70 21:26 25.10.2021
1583 Clouds 12 1016 86 10000 3.09 250 19:45 25.10.2021
1584 Clouds 12 1016 85 10000 2.57 240 19:25 25.10.2021
1585 Rain 12 1017 81 10000 2.06 180 18:53 25.10.2021
1586 Rain 14 1017 69 10000 2.06 200 17:48 25.10.2021
1587 Clear 16 1015 57 10000 0.45 14 15:41 25.10.2021
1588 Clear 16 1019 61 10000 4.12 190 14:20 25.10.2021
1589 Clear 12 1020 73 10000 4.63 170 12:24 25.10.2021
1590 Clear 7 1018 87 10000 0.45 350 10:20 25.10.2021
1591 Clear 5 1017 92 10000 2.57 130 08:28 25.10.2021
1592 Clear 5 1017 91 10000 2.57 130 05:59 25.10.2021
1593 Clear 7 1018 83 10000 2.57 120 00:54 25.10.2021
1594 Clear 7 1018 83 10000 2.57 120 00:35 25.10.2021
1595 Clear 8 1018 82 10000 3.09 130 23:46 24.10.2021
1596 Clear 8 1018 80 10000 2.06 110 22:44 24.10.2021
1597 Clear 8 1018 80 10000 0.45 313 22:21 24.10.2021
1598 Clear 9 1018 77 10000 3.09 130 21:41 24.10.2021
1599 Clear 10 1019 73 10000 0.45 352 20:45 24.10.2021
1600 Clear 10 1019 71 10000 4.63 130 20:23 24.10.2021
1601 Clear 12 1018 64 10000 0.89 162 18:52 24.10.2021
1602 Clear 13 1019 58 10000 0.89 355 17:55 24.10.2021
1603 Clear 15 1022 56 10000 6.17 150 16:52 24.10.2021
1604 Clear 14 1023 55 10000 6.69 150 15:37 24.10.2021
1605 Clear 12 1024 63 10000 5.66 130 13:49 24.10.2021
1606 Clear 11 1024 68 10000 5.14 120 12:41 24.10.2021
1607 Clear 9 1022 71 10000 0.45 11 11:40 24.10.2021
1608 Clear 7 1023 80 10000 4.12 120 10:43 24.10.2021
1609 Clear 5 1024 89 10000 0.45 14 09:38 24.10.2021
1610 Clear 4 1024 91 10000 2.57 120 05:35 24.10.2021
1611 Clear 6 1026 88 10000 2.06 100 00:40 24.10.2021
1612 Clear 7 1026 86 10000 2.06 120 23:32 23.10.2021
1613 Clear 8 1026 83 10000 1.54 100 21:50 23.10.2021
1614 Clouds 9 1026 79 10000 1.54 80 19:47 23.10.2021
1615 Clouds 10 1026 79 10000 1.54 150 18:48 23.10.2021
1616 Clouds 11 1026 75 10000 1.54 120 18:21 23.10.2021
1617 Clouds 12 1026 73 10000 2.06 90 17:42 23.10.2021
1618 Clouds 13 1026 74 10000 1.54 90 16:20 23.10.2021
1619 Clouds 12 1026 79 10000 1.03 0 13:58 23.10.2021
1620 Clouds 8 1022 93 10000 0.45 277 03:33 23.10.2021
1621 Clouds 9 1020 91 10000 0.45 274 23:45 22.10.2021
1622 Clear 9 1020 90 10000 2.06 280 22:44 22.10.2021
1623 Rain 10 1017 78 10000 1.79 274 19:51 22.10.2021
1624 Clouds 11 1016 69 10000 0.89 277 18:40 22.10.2021
1625 Clouds 12 1015 66 10000 1.79 267 17:36 22.10.2021
1626 Clouds 12 1014 63 10000 0.89 301 14:58 22.10.2021
1627 Clouds 11 1017 67 10000 9.26 260 13:35 22.10.2021
1628 Clouds 10 1014 69 10000 5.14 230 11:18 22.10.2021
1629 Clouds 9 1014 73 10000 4.12 230 10:38 22.10.2021
1630 Clear 7 1013 83 10000 4.12 200 09:44 22.10.2021
1631 Clear 5 1014 85 10000 3.09 210 08:31 22.10.2021
1632 Clear 5 1013 89 10000 3.09 190 07:22 22.10.2021
1633 Clouds 7 1013 88 10000 3.09 230 02:56 22.10.2021
1634 Clouds 7 1012 89 10000 0.45 270 23:54 21.10.2021
1635 Clouds 7 1014 88 10000 3.09 250 23:29 21.10.2021
1636 Clear 7 1010 86 10000 3.09 270 21:50 21.10.2021
1637 Clouds 8 1011 86 10000 3.09 280 20:28 21.10.2021
1638 Clouds 8 1010 88 10000 2.57 330 19:58 21.10.2021
1639 Clouds 9 1010 87 10000 5.14 270 19:28 21.10.2021
1640 Clouds 9 1007 84 10000 0.89 268 18:45 21.10.2021
1641 Clouds 10 1006 84 10000 1.34 275 17:56 21.10.2021
1642 Clouds 10 1006 84 10000 1.34 286 17:37 21.10.2021
1643 Rain 10 1004 91 8000 0.89 332 15:49 21.10.2021
1644 Rain 11 1003 85 10000 0.89 276 15:20 21.10.2021
1645 Rain 13 1002 65 10000 0.45 262 14:38 21.10.2021
1646 Clouds 13 1002 66 10000 1.34 338 13:19 21.10.2021
1647 -273 0 0 0 0 0 10:45 21.10.2021
1648 -273 0 0 0 0 0 10:44 21.10.2021
1649 Clouds 11 1000 82 10000 0.45 248 10:43 21.10.2021
1650 Clouds 11 1000 82 10000 0.45 248 10:43 21.10.2021
1651 Rain 11 990 77 10000 2.68 250 08:34 21.10.2021
1652 Clouds 13 988 70 10000 0.89 102 07:28 21.10.2021
1653 Clouds 15 989 85 10000 0.89 300 03:29 21.10.2021
1654 Clouds 16 997 83 10000 0.45 308 23:29 20.10.2021
1655 Clouds 17 999 80 10000 0.45 27 21:52 20.10.2021
1656 Clouds 17 999 79 10000 0.45 205 21:30 20.10.2021
1657 Clouds 17 1000 78 10000 1.34 57 20:54 20.10.2021
1658 Clouds 17 1000 78 10000 0.45 97 20:28 20.10.2021
1659 Rain 17 1000 79 10000 5.14 160 19:51 20.10.2021
1660 Clouds 17 1001 79 10000 5.14 160 18:54 20.10.2021
1661 Clouds 17 1002 78 10000 5.66 170 17:50 20.10.2021
1662 Clouds 17 1004 78 10000 0.45 275 15:39 20.10.2021
1663 Clouds 16 1006 74 10000 0.89 296 10:43 20.10.2021
1664 Clear 15 1007 74 10000 0.89 344 08:54 20.10.2021
1665 Clear 15 1010 80 10000 0.89 359 04:50 20.10.2021
1666 Clear 15 1012 89 10000 4.63 170 00:48 20.10.2021
1667 Clear 15 1012 89 10000 4.63 170 00:48 20.10.2021
1668 Clear 15 1012 90 10000 6.17 170 00:22 20.10.2021
1669 Clear 15 1014 93 10000 4.12 140 21:45 19.10.2021
1670 Clear 15 1015 93 10000 3.6 140 20:56 19.10.2021
1671 Clear 16 1014 93 10000 2.57 130 20:25 19.10.2021
1672 Clear 16 1015 92 10000 3.6 150 19:44 19.10.2021
1673 Clouds 16 1014 90 10000 4.12 190 19:20 19.10.2021
1674 Clouds 18 1015 89 10000 4.63 180 17:59 19.10.2021
1675 Clouds 17 1015 92 10000 0.89 4 15:57 19.10.2021
1676 Clouds 17 1015 92 10000 0.45 308 15:20 19.10.2021
1677 Clouds 17 1016 93 10000 5.14 160 14:27 19.10.2021
1678 Clouds 17 1016 93 10000 5.14 160 14:27 19.10.2021
1679 Clouds 16 1016 94 10000 4.63 160 13:43 19.10.2021
1680 Clouds 14 1017 94 10000 0.45 292 11:37 19.10.2021
1681 Clouds 13 1017 96 10000 4.12 140 10:39 19.10.2021
1682 Clouds 12 1016 97 10000 0.45 292 08:59 19.10.2021
1683 Clouds 12 1017 94 7000 0.45 316 07:56 19.10.2021
1684 Clear 11 1019 85 10000 3.09 130 00:27 19.10.2021
1685 Clear 11 1019 85 10000 2.57 110 23:56 18.10.2021
1686 Clear 11 1019 85 10000 3.09 120 23:21 18.10.2021
1687 Clear 11 1020 85 10000 0.45 49 22:55 18.10.2021
1688 Clear 11 1019 84 10000 4.12 130 21:58 18.10.2021
1689 Clear 11 1019 84 10000 4.12 130 21:58 18.10.2021
1690 Clear 11 1019 83 10000 4.63 130 20:46 18.10.2021
1691 Clear 12 1020 82 10000 4.63 130 20:20 18.10.2021
1692 Clear 12 1019 79 10000 0.89 281 19:31 18.10.2021
1693 Clear 13 1019 78 10000 0.89 330 18:58 18.10.2021
1694 Clear 15 1019 69 10000 0.45 331 16:32 18.10.2021
1695 Clear 16 1020 66 10000 0.45 342 14:41 18.10.2021
1696 Clear 12 1021 77 10000 0.45 354 11:47 18.10.2021
1697 Clear 8 1021 86 10000 0.45 347 09:47 18.10.2021
1698 Clear 6 1021 91 10000 1.54 110 07:31 18.10.2021
1699 Clear 9 1019 82 10000 2.06 130 23:54 17.10.2021
1700 Clear 9 1019 83 10000 0.51 0 22:27 17.10.2021
1701 Clear 10 1019 81 10000 0.51 0 21:44 17.10.2021
1702 Clear 10 1018 80 10000 1.03 0 20:56 17.10.2021
1703 Clear 11 1018 75 10000 2.06 130 19:59 17.10.2021
1704 Clear 11 1018 74 10000 2.06 130 19:38 17.10.2021
1705 Clouds 13 1016 65 10000 1.01 93 18:28 17.10.2021
1706 Clouds 15 1020 55 10000 2.06 150 16:40 17.10.2021
1707 Clouds 15 1021 58 10000 1.54 280 14:40 17.10.2021
1708 Clouds 14 1021 61 10000 1.54 280 14:21 17.10.2021
1709 Clouds 14 1021 64 10000 1.03 0 13:33 17.10.2021
1710 Clear 10 1019 82 10000 0.45 105 11:31 17.10.2021
1711 Clear 8 1019 83 10000 0.51 0 10:19 17.10.2021
1712 Clouds 5 1017 97 10000 1.34 139 09:21 17.10.2021
1713 Clouds 4 1016 94 10000 1.53 140 06:52 17.10.2021
1714 Clouds 6 1018 90 10000 1.03 0 00:35 17.10.2021
1715 Clouds 7 1019 88 10000 1.54 110 23:22 16.10.2021
1716 Clouds 8 1021 86 10000 1.54 110 21:28 16.10.2021
1717 Clouds 9 1021 83 10000 1.03 0 20:30 16.10.2021
1718 Clouds 10 1021 79 10000 1.03 0 19:42 16.10.2021
1719 Clouds 10 1021 77 10000 1.54 50 19:20 16.10.2021
1720 Clouds 11 1021 70 10000 1.03 40 18:45 16.10.2021
1721 Clouds 12 1021 69 10000 1.54 20 18:26 16.10.2021
1722 Clouds 12 1021 65 10000 1.54 350 17:49 16.10.2021
1723 Clouds 13 1021 61 10000 1.54 330 17:20 16.10.2021
1724 Clouds 12 1023 87 10000 1.03 0 13:45 16.10.2021
1725 Clear 9 1019 96 10000 1.17 139 11:25 16.10.2021
1726 Fog 5 1020 97 300 1.54 80 09:45 16.10.2021
1727 Fog 4 1020 96 2000 0.51 0 06:48 16.10.2021
1728 Clear 6 1019 94 10000 1.03 0 01:24 16.10.2021
1729 Clear 7 1019 90 10000 0 0 23:27 15.10.2021
1730 Clear 8 1021 92 10000 0.51 0 22:22 15.10.2021
1731 Clear 8 1021 92 10000 1.54 70 21:50 15.10.2021
1732 Clouds 9 1021 91 10000 0.51 0 21:20 15.10.2021
1733 Clouds 9 1020 89 10000 0.51 0 20:44 15.10.2021
1734 Clouds 11 1017 81 10000 0.51 0 19:23 15.10.2021
1735 Clouds 12 1017 78 10000 1.54 320 18:38 15.10.2021
1736 Clouds 14 1018 75 10000 2.57 340 16:27 15.10.2021
1737 Clouds 13 1018 84 10000 3.6 330 15:22 15.10.2021
1738 Clouds 13 1014 85 10000 1.34 242 12:31 15.10.2021
1739 Clouds 13 1014 80 10000 4.12 230 11:20 15.10.2021
1740 Clouds 12 1014 81 10000 3.6 220 10:42 15.10.2021
1741 Clouds 11 1013 81 10000 2.57 190 08:58 15.10.2021
1742 Clear 9 1015 86 10000 3.09 190 05:31 15.10.2021
1743 Clouds 12 1020 86 10000 3.09 210 00:38 15.10.2021
1744 Clouds 13 1018 88 10000 2.57 170 23:49 14.10.2021
1745 Clouds 13 1021 90 10000 0.51 60 22:49 14.10.2021
1746 Clouds 13 1021 87 10000 1.03 0 21:43 14.10.2021
1747 Clouds 13 1022 85 10000 1.54 210 20:36 14.10.2021
1748 Clouds 13 1022 84 10000 1.54 210 20:18 14.10.2021
1749 Clouds 14 1022 81 10000 2.06 260 19:26 14.10.2021
1750 Clouds 15 1020 75 10000 0.45 270 17:26 14.10.2021
1751 Clouds 15 1023 77 10000 4.12 230 16:48 14.10.2021
1752 Clouds 15 1021 76 10000 3.09 270 15:33 14.10.2021
1753 Clouds 15 1021 79 10000 3.6 270 14:41 14.10.2021
1754 Clouds 14 1022 85 10000 0.89 277 13:37 14.10.2021
1755 Drizzle 12 1023 90 10000 0.89 284 11:44 14.10.2021
1756 Drizzle 11 1023 88 10000 1.54 190 09:55 14.10.2021
1757 Clouds 10 1021 88 10000 2.14 242 06:54 14.10.2021
1758 Clouds 10 1022 90 10000 1.87 251 00:58 14.10.2021
1759 Clouds 11 1022 89 10000 1.87 242 00:22 14.10.2021
1760 Clouds 10 1027 89 10000 1.03 0 21:53 13.10.2021
1761 Clouds 10 1027 87 10000 1.54 260 21:32 13.10.2021
1762 Clouds 11 1026 85 10000 1.54 0 19:58 13.10.2021
1763 Clouds 12 1026 82 10000 1.54 330 18:49 13.10.2021
1764 Clouds 13 1023 75 10000 1.54 320 17:55 13.10.2021
1765 Clouds 13 1025 83 10000 2.57 310 15:32 13.10.2021
1766 Clouds 12 1025 80 10000 1.54 0 14:45 13.10.2021
1767 Clouds 13 1026 82 10000 1.54 280 14:21 13.10.2021
1768 Clouds 11 1026 92 10000 1.54 280 12:22 13.10.2021
1769 Clouds 10 1025 93 10000 1.03 0 11:34 13.10.2021
1770 Clouds 6 1022 95 10000 1.03 150 08:41 13.10.2021
1771 Clouds 6 1019 96 10000 1.9 265 06:42 13.10.2021
1772 Fog 6 1020 96 7000 1.03 0 02:27 13.10.2021
1773 Fog 6 1019 93 9000 1.03 0 01:43 13.10.2021
1774 Fog 6 1021 93 10000 1.03 0 23:30 12.10.2021
1775 Fog 7 1021 95 10000 2.06 360 22:46 12.10.2021
1776 Clouds 8 1018 95 10000 2.06 350 21:50 12.10.2021
1777 Clouds 9 1017 92 10000 3.09 340 20:34 12.10.2021
1778 Clouds 9 1017 92 10000 3.09 340 20:34 12.10.2021
1779 Clouds 9 1017 92 10000 3.09 320 19:57 12.10.2021
1780 Clouds 11 1016 90 10000 1.54 330 18:36 12.10.2021
1781 Clouds 12 1015 90 10000 3.09 320 17:57 12.10.2021
1782 Rain 13 1017 91 10000 4.12 280 16:39 12.10.2021
1783 Clouds 13 1015 92 10000 0.89 288 15:58 12.10.2021
1784 Clouds 12 1016 94 10000 0.89 270 14:45 12.10.2021
1785 Rain 12 1019 95 10000 5.14 270 13:43 12.10.2021
1786 Rain 11 1017 95 6000 4.63 270 12:39 12.10.2021
1787 Drizzle 10 1018 94 8000 0.89 270 09:59 12.10.2021
1788 Clouds 10 1018 93 10000 0.45 270 08:44 12.10.2021
1789 Clouds 10 1022 95 10000 2.06 240 07:54 12.10.2021
1790 Clouds 10 1020 94 10000 3.09 260 05:31 12.10.2021
1791 Rain 10 1021 93 10000 0.89 259 04:33 12.10.2021
1792 Clouds 10 1026 92 10000 2.01 275 00:28 12.10.2021
1793 Clouds 10 1025 92 10000 1.03 0 23:41 11.10.2021
1794 Clouds 10 1025 92 10000 0.51 0 22:58 11.10.2021
1795 Clouds 11 1025 91 10000 0.51 0 21:46 11.10.2021
1796 Clouds 11 1025 91 10000 0.51 0 21:46 11.10.2021
1797 Clouds 11 1026 89 10000 1.03 310 21:18 11.10.2021
1798 Clear 12 1026 82 10000 3.09 270 19:46 11.10.2021
1799 Clouds 13 1025 78 10000 3.6 280 18:44 11.10.2021
1800 Clouds 14 1023 70 10000 4.12 310 17:54 11.10.2021
1801 Clouds 15 1025 72 10000 3.09 330 16:39 11.10.2021
1802 Clouds 15 1026 70 10000 4.63 310 15:51 11.10.2021
1803 Clouds 15 1026 70 10000 4.63 310 15:32 11.10.2021
1804 Clouds 15 1026 72 10000 4.63 320 14:46 11.10.2021
1805 Clouds 14 1026 76 10000 2.57 330 13:38 11.10.2021
1806 Mist 13 1027 88 4000 1.03 0 11:52 11.10.2021
1807 Mist 12 1024 93 3200 0.51 0 10:43 11.10.2021
1808 Clouds 11 1021 95 10000 2.19 308 09:44 11.10.2021
1809 Drizzle 10 1023 94 3200 1.54 130 07:29 11.10.2021
1810 Clouds 8 1021 90 10000 0.84 196 01:41 11.10.2021
1811 Clear 9 1024 89 10000 1.03 0 00:50 11.10.2021
1812 Clouds 9 1024 88 10000 0.51 0 00:28 11.10.2021
1813 Clouds 9 1026 87 10000 0.78 212 21:57 10.10.2021
1814 Clear 9 1026 87 10000 1.03 0 21:32 10.10.2021
1815 Clear 10 1023 80 10000 1.54 60 20:48 10.10.2021
1816 Clear 11 1023 79 10000 1.03 60 20:22 10.10.2021
1817 Clear 11 1023 75 10000 0.51 0 19:59 10.10.2021
1818 Clear 13 1023 69 10000 0.51 0 19:38 10.10.2021
1819 Clear 15 1023 54 10000 1.03 240 18:37 10.10.2021
1820 Clear 17 1026 53 10000 1.54 160 17:19 10.10.2021
1821 Clear 17 1026 56 10000 1.54 0 15:47 10.10.2021
1822 Clear 16 1026 60 10000 1.03 0 14:42 10.10.2021
1823 Clear 15 1027 65 10000 1.54 170 13:34 10.10.2021
1824 Clear 14 1027 68 10000 2.57 170 12:40 10.10.2021
1825 Clear 10 1025 75 10000 1.54 150 10:44 10.10.2021
1826 Clear 6 1025 90 10000 1.03 0 09:31 10.10.2021
1827 Clear 6 1025 90 10000 1.03 0 09:31 10.10.2021
1828 Clear 6 1025 89 10000 1.03 0 08:54 10.10.2021
1829 Clear 5 1024 90 10000 0.51 0 07:53 10.10.2021
1830 Clear 7 1025 87 10000 1.54 100 03:28 10.10.2021
1831 Clear 8 1025 83 10000 1.03 0 01:28 10.10.2021
1832 Clear 9 1025 79 10000 2.57 110 00:33 10.10.2021
1833 Clear 10 1025 81 10000 2.57 90 23:20 09.10.2021
1834 Clear 11 1025 82 10000 3.09 90 21:48 09.10.2021
1835 Clear 10 1028 87 10000 1.03 0 21:29 09.10.2021
1836 Clear 13 1027 81 10000 1.03 0 19:45 09.10.2021
1837 Clear 14 1027 77 10000 1.54 50 19:22 09.10.2021
1838 Clear 15 1027 68 10000 1.03 50 18:33 09.10.2021
1839 Clear 15 1027 68 10000 1.03 50 18:33 09.10.2021
1840 Clear 17 1027 54 10000 1.54 70 17:43 09.10.2021
1841 Clear 18 1028 52 10000 2.57 40 16:19 09.10.2021
1842 Clouds 16 1029 66 10000 1.03 0 13:47 09.10.2021
1843 Clear 16 1029 68 10000 1.03 0 13:24 09.10.2021
1844 Clear 13 1027 75 10000 1.54 290 11:56 09.10.2021
1845 Clear 12 1027 76 10000 1.03 0 10:42 09.10.2021
1846 Clear 9 1029 94 6000 0.51 0 09:54 09.10.2021
1847 Mist 6 1026 95 1200 1.03 50 08:32 09.10.2021
1848 Mist 6 1026 95 1800 0.51 0 07:49 09.10.2021
1849 Clear 7 1026 95 10000 0.51 0 05:55 09.10.2021
1850 Clear 8 1026 93 10000 1.54 150 04:18 09.10.2021
1851 Clear 9 1026 91 10000 2.57 90 02:43 09.10.2021
1852 Clear 10 1026 92 10000 1.03 0 23:58 08.10.2021
1853 Clear 11 1026 91 10000 1.03 0 23:31 08.10.2021
1854 Clear 11 1026 88 10000 1.03 0 22:42 08.10.2021
1855 Clear 12 1026 87 10000 2.57 90 21:39 08.10.2021
1856 Clear 14 1026 78 10000 2.06 60 19:47 08.10.2021
1857 Clouds 17 1028 65 10000 2.06 90 18:19 08.10.2021
1858 Clouds 18 1029 61 10000 2.06 0 16:54 08.10.2021
1859 Clouds 18 1029 60 10000 3.6 140 16:24 08.10.2021
1860 Clouds 17 1030 66 10000 2.06 70 14:20 08.10.2021
1861 Clouds 17 1030 70 10000 1.54 0 13:45 08.10.2021
1862 Clear 14 1028 72 10000 0.45 270 11:41 08.10.2021
1863 Clear 11 1029 85 10000 0.51 0 10:42 08.10.2021
1864 Clear 9 1028 96 10000 1.03 0 09:47 08.10.2021
1865 Clear 7 1028 94 10000 0.51 0 03:38 08.10.2021
1866 Clear 9 1027 92 10000 1.54 80 23:24 07.10.2021
1867 Clear 11 1027 89 10000 0.51 0 21:48 07.10.2021
1868 Clear 11 1026 87 10000 0.51 0 21:28 07.10.2021
1869 Clear 12 1026 84 10000 2.57 60 20:39 07.10.2021
1870 Clouds 14 1026 77 10000 1.03 70 19:32 07.10.2021
1871 Clouds 16 1025 68 10000 0.51 130 18:41 07.10.2021
1872 Clouds 16 1028 68 10000 1.03 120 17:32 07.10.2021
1873 Clouds 17 1028 65 10000 1.03 0 16:25 07.10.2021
1874 Clouds 17 1028 66 10000 1.54 250 14:55 07.10.2021
1875 Clouds 16 1025 66 10000 2.06 0 13:43 07.10.2021
1876 Clouds 15 1025 77 10000 1.54 70 12:54 07.10.2021
1877 Clouds 13 1027 91 10000 2.06 120 10:59 07.10.2021
1878 Clouds 13 1024 91 10000 0.45 306 10:40 07.10.2021
1879 Fog 12 1024 97 500 1.54 110 09:43 07.10.2021
1880 Fog 12 1023 97 100 1.03 0 08:54 07.10.2021
1881 Fog 12 1023 96 500 0.51 0 07:58 07.10.2021
1882 Mist 12 1023 95 4000 0.51 0 07:38 07.10.2021
1883 Clouds 12 1022 95 6000 0.51 0 06:38 07.10.2021
1884 Clouds 12 1020 95 10000 3.6 280 00:52 07.10.2021
1885 Rain 12 1019 95 10000 4.12 270 23:20 06.10.2021
1886 Clouds 12 1018 93 10000 4.63 260 22:31 06.10.2021
1887 Clouds 12 1018 93 10000 0.89 270 21:39 06.10.2021
1888 Rain 12 1017 93 10000 5.66 240 20:29 06.10.2021
1889 Clouds 12 1016 89 10000 5.66 240 19:21 06.10.2021
1890 Clouds 13 1015 84 10000 0.45 291 17:27 06.10.2021
1891 Clouds 13 1017 82 10000 7.72 250 15:43 06.10.2021
1892 Clouds 12 1016 82 10000 5.14 250 14:43 06.10.2021
1893 Clouds 12 1015 86 10000 5.66 210 13:25 06.10.2021
1894 Rain 12 1015 82 10000 5.14 220 12:47 06.10.2021
1895 Clouds 12 1012 80 10000 5.14 210 12:26 06.10.2021
1896 Clouds 12 1012 76 10000 0.45 65 11:35 06.10.2021
1897 Clouds 12 1012 76 10000 0.45 65 11:35 06.10.2021
1898 Rain 12 1011 79 10000 4.12 210 09:40 06.10.2021
1899 Rain 11 1013 82 10000 4.12 200 08:59 06.10.2021
1900 Clouds 11 1010 80 10000 0.45 297 08:31 06.10.2021
1901 Clouds 11 1009 85 10000 4.12 200 06:18 06.10.2021
1902 Clouds 11 1008 85 10000 4.12 200 02:52 06.10.2021
1903 Clouds 12 1005 87 10000 0.45 266 00:24 06.10.2021
1904 Clouds 12 1007 88 10000 0.45 225 23:51 05.10.2021
1905 Clouds 12 1006 89 10000 4.12 180 23:30 05.10.2021
1906 Clear 12 1005 88 10000 4.12 180 22:35 05.10.2021
1907 Clear 12 1005 89 10000 0.45 338 21:57 05.10.2021
1908 Clear 12 1005 89 10000 0.45 338 21:57 05.10.2021
1909 Clear 12 1003 89 10000 4.35 219 21:29 05.10.2021
1910 Clouds 12 1007 88 10000 3.6 230 20:33 05.10.2021
1911 Clouds 13 1004 88 10000 2.06 220 19:51 05.10.2021
1912 Clouds 13 1003 87 4000 8.23 250 19:25 05.10.2021
1913 Rain 15 1005 82 10000 6.17 180 18:21 05.10.2021
1914 Rain 18 1002 56 10000 0.45 25 15:39 05.10.2021
1915 Clouds 18 1003 57 10000 0.89 304 14:29 05.10.2021
1916 Clouds 18 1007 62 10000 7.2 160 13:27 05.10.2021
1917 Clouds 17 1005 64 10000 0.89 342 12:36 05.10.2021
1918 Clouds 16 1005 69 10000 1.34 326 11:58 05.10.2021
1919 Clear 14 1006 80 10000 0.89 303 10:39 05.10.2021
1920 Clear 11 1007 90 10000 5.66 130 08:38 05.10.2021
1921 Clear 11 1011 85 10000 1.54 100 03:38 05.10.2021
1922 Clear 11 1013 80 10000 2.57 120 23:52 04.10.2021
1923 Clear 12 1016 78 10000 2.06 130 21:54 04.10.2021
1924 Clouds 16 1016 57 10000 3.6 0 18:54 04.10.2021
1925 Clouds 18 1013 51 10000 4.63 210 17:58 04.10.2021
1926 Clouds 18 1017 52 10000 6.17 210 16:22 04.10.2021
1927 Clouds 18 1017 54 10000 4.63 210 15:31 04.10.2021
1928 Clouds 18 1017 58 10000 5.14 200 14:42 04.10.2021
1929 Clouds 17 1015 61 10000 0.45 61 13:48 04.10.2021
1930 Clouds 17 1018 68 10000 6.17 170 13:23 04.10.2021
1931 Clear 15 1015 75 10000 0.89 295 11:35 04.10.2021
1932 Clear 14 1014 78 10000 0.89 287 10:48 04.10.2021
1933 Clear 13 1017 86 10000 3.6 170 09:51 04.10.2021
1934 Rain 12 1014 86 10000 3.09 140 08:33 04.10.2021
1935 Clear 12 1013 87 10000 2.57 130 06:56 04.10.2021
1936 Clear 12 1010 85 10000 1.54 120 00:28 04.10.2021
1937 Clear 12 1012 87 10000 3.09 200 22:33 03.10.2021
1938 Clouds 12 1008 88 10000 1.54 190 21:38 03.10.2021
1939 Rain 13 1007 89 10000 2.57 200 20:55 03.10.2021
1940 Clouds 13 1006 89 10000 4.12 290 19:57 03.10.2021
1941 Rain 14 1002 84 10000 0.89 271 18:33 03.10.2021
1942 Rain 16 1001 77 10000 1.79 269 17:48 03.10.2021
1943 Clouds 20 1000 64 10000 10.29 190 15:57 03.10.2021
1944 Clouds 21 1000 65 10000 6.69 180 14:45 03.10.2021
1945 Clouds 20 997 66 10000 0.89 6 13:58 03.10.2021
1946 Rain 20 997 66 10000 0.89 306 13:21 03.10.2021
1947 Rain 20 996 67 10000 1.34 325 12:28 03.10.2021
1948 Rain 19 996 66 10000 0.89 328 10:36 03.10.2021
1949 Clear 20 996 61 10000 0.89 290 08:36 03.10.2021
1950 Clouds 19 1001 71 10000 7.72 170 01:30 03.10.2021
1951 Rain 18 999 71 10000 0.89 319 22:34 02.10.2021
1952 Rain 17 1001 80 10000 5.14 130 20:55 02.10.2021
1953 Rain 17 1002 73 10000 0.89 306 19:40 02.10.2021
1954 Clouds 17 1003 72 10000 0.89 322 18:51 02.10.2021
1955 Clouds 18 1004 70 10000 0.89 325 17:41 02.10.2021
1956 Clouds 18 1004 68 10000 0.45 31 17:19 02.10.2021
1957 Clouds 18 1007 71 10000 1.79 305 14:58 02.10.2021
1958 Clouds 15 1025 55 10000 3.09 230 16:34 30.09.2021
1959 Clouds 16 1026 52 10000 4.63 240 14:48 30.09.2021
1960 Clouds 15 1027 58 10000 5.14 230 12:56 30.09.2021
1961 Clouds 13 1027 70 10000 3.09 220 11:35 30.09.2021
1962 Clouds 12 1024 70 10000 3.6 220 10:41 30.09.2021
1963 Clear 10 1024 83 10000 2.57 200 09:31 30.09.2021
1964 Clouds 8 1024 87 10000 3.6 190 08:28 30.09.2021
1965 Clouds 8 1024 87 10000 2.06 180 06:59 30.09.2021
1966 Clouds 9 1023 85 10000 3.09 220 04:42 30.09.2021
1967 Clouds 10 1024 83 10000 3.6 240 00:46 30.09.2021
1968 Clear 10 1021 78 10000 0.45 285 23:30 29.09.2021
1969 Clouds 11 1023 76 10000 4.63 250 21:58 29.09.2021
1970 Clouds 11 1022 74 10000 4.12 240 20:57 29.09.2021
1971 Clouds 12 1019 70 10000 6.17 250 20:24 29.09.2021
1972 Clouds 12 1021 70 10000 5.66 250 19:43 29.09.2021
1973 Clouds 14 1017 64 10000 0.89 228 18:25 29.09.2021
1974 Rain 14 1017 69 10000 0.89 264 17:33 29.09.2021
1975 Clouds 13 1019 79 10000 2.57 360 16:46 29.09.2021
1976 Rain 14 1018 66 10000 8.23 250 15:48 29.09.2021
1977 Clouds 14 1014 73 10000 0.45 295 14:39 29.09.2021
1978 Clouds 14 1016 84 10000 3.09 260 13:41 29.09.2021
1979 Clouds 13 1013 91 10000 0.45 134 12:47 29.09.2021
1980 Rain 13 1015 93 10000 4.63 150 11:39 29.09.2021
1981 Rain 12 1013 93 10000 0.45 78 10:39 29.09.2021
1982 Rain 12 1013 91 10000 0.45 27 09:48 29.09.2021
1983 Rain 12 1013 86 10000 0.89 292 08:49 29.09.2021
1984 Clear 11 1013 89 10000 3.09 140 07:31 29.09.2021
1985 Clear 11 1015 90 10000 2.06 130 03:29 29.09.2021
1986 Clear 12 1017 87 10000 1.03 0 23:26 28.09.2021
1987 Clear 13 1017 85 10000 1.54 100 22:23 28.09.2021
1988 Clear 13 1017 83 10000 2.06 100 21:35 28.09.2021
1989 Clouds 14 1018 81 10000 1.54 100 20:35 28.09.2021
1990 Clouds 15 1018 77 10000 2.06 90 19:42 28.09.2021
1991 Clouds 16 1018 72 10000 1.54 100 18:45 28.09.2021
1992 Clouds 17 1018 67 10000 2.06 130 17:54 28.09.2021
1993 Clouds 18 1019 63 10000 0.45 338 15:56 28.09.2021
1994 Clouds 17 1023 70 10000 2.06 140 13:44 28.09.2021
1995 Clear 17 1021 71 10000 0.45 294 12:48 28.09.2021
1996 Clear 16 1021 72 10000 0.45 327 12:19 28.09.2021
1997 Clear 16 1021 77 10000 0.89 252 11:45 28.09.2021
1998 Clear 15 1021 83 10000 0.89 272 10:58 28.09.2021
1999 Clear 13 1021 91 10000 2.57 130 09:53 28.09.2021
2000 Clouds 11 1019 94 10000 1.25 192 08:59 28.09.2021
2001 Clear 11 1021 95 10000 1.03 0 08:38 28.09.2021
2002 Clear 10 1021 94 10000 0.51 0 07:47 28.09.2021
2003 Clear 11 1020 95 10000 1.54 70 05:28 28.09.2021
2004 Clouds 12 1019 96 10000 0.51 0 01:23 28.09.2021
2005 Clouds 12 1019 94 10000 0.51 0 00:26 28.09.2021
2006 Clouds 13 1018 94 10000 2.06 200 23:41 27.09.2021
2007 Clouds 13 1018 93 10000 1.54 170 22:56 27.09.2021
2008 Clouds 14 1016 92 10000 1.54 210 21:55 27.09.2021
2009 Clouds 14 1016 93 10000 2.06 250 20:45 27.09.2021
2010 Rain 14 1015 92 10000 0.45 271 19:57 27.09.2021
2011 Rain 15 1013 89 10000 0.89 277 19:29 27.09.2021
2012 Rain 17 1013 89 10000 0.45 263 18:51 27.09.2021
2013 Rain 19 1013 77 10000 3.6 200 17:30 27.09.2021
2014 Rain 20 1012 70 10000 0.45 225 16:51 27.09.2021
2015 Rain 21 1012 64 10000 1.79 312 15:45 27.09.2021
2016 Clouds 21 1012 64 10000 0.45 330 15:27 27.09.2021
2017 Clouds 21 1012 65 10000 4.63 200 13:34 27.09.2021
2018 Clouds 21 1012 74 10000 0.89 349 11:59 27.09.2021
2019 Clear 19 1012 80 10000 0.89 62 10:38 27.09.2021
2020 Clouds 17 1013 89 10000 0.45 276 09:31 27.09.2021
2021 Clear 15 1013 93 10000 3.6 130 06:33 27.09.2021
2022 Clouds 16 1013 92 10000 2.57 140 03:29 27.09.2021
2023 Clouds 17 1014 88 10000 2.06 120 23:41 26.09.2021
2024 Clouds 18 1014 87 10000 2.06 140 21:55 26.09.2021
2025 Clouds 19 1013 85 10000 2.06 130 21:26 26.09.2021
2026 Clouds 19 1013 82 10000 3.09 130 20:24 26.09.2021
2027 Clouds 19 1013 81 10000 3.09 150 19:53 26.09.2021
2028 Clouds 20 1013 79 10000 3.09 150 19:25 26.09.2021
2029 Clouds 20 1013 79 10000 3.09 150 19:25 26.09.2021
2030 Clouds 21 1013 76 10000 2.06 180 18:34 26.09.2021
2031 Clouds 21 1013 72 10000 0.89 257 17:37 26.09.2021
2032 Clouds 21 1013 72 10000 0.45 307 17:18 26.09.2021
2033 Rain 21 1013 70 10000 0.89 42 16:22 26.09.2021
2034 Clouds 22 1013 68 10000 6.17 180 15:27 26.09.2021
2035 Clouds 22 1013 63 10000 0.89 280 14:20 26.09.2021
2036 Clouds 23 1013 62 10000 0.45 76 13:42 26.09.2021
2037 Clouds 23 1016 69 10000 4.12 170 12:31 26.09.2021
2038 Clouds 22 1013 70 10000 0.45 50 11:56 26.09.2021
2039 Clear 21 1013 73 10000 4.63 150 11:23 26.09.2021
2040 Clouds 18 1012 85 10000 4.12 150 09:51 26.09.2021
2041 Clear 17 1012 87 10000 2.06 130 08:41 26.09.2021
2042 Clear 16 1012 77 10000 2.06 90 01:18 26.09.2021
2043 Clear 16 1012 80 10000 2.57 100 00:18 26.09.2021
2044 Clear 16 1013 80 10000 2.57 90 22:39 25.09.2021
2045 Clear 16 1012 78 10000 2.06 90 22:19 25.09.2021
2046 Clear 17 1012 76 10000 2.06 80 21:46 25.09.2021
2047 Clear 18 1012 72 10000 1.03 0 20:53 25.09.2021
2048 Clear 20 1012 64 10000 2.06 120 19:41 25.09.2021
2049 Clear 23 1012 55 10000 4.12 160 18:31 25.09.2021
2050 Clear 23 1015 57 10000 3.09 150 17:46 25.09.2021
2051 Clear 23 1016 55 10000 2.06 160 14:46 25.09.2021
2052 Clear 22 1017 59 10000 2.06 160 13:55 25.09.2021
2053 Clouds 21 1014 63 10000 2.06 190 12:48 25.09.2021
2054 Clouds 19 1015 72 10000 0.45 90 11:38 25.09.2021
2055 Clear 16 1015 83 10000 3.09 160 10:21 25.09.2021
2056 Clear 15 1014 89 10000 1.03 0 09:24 25.09.2021
2057 Clear 13 1014 94 10000 2.57 130 07:50 25.09.2021
2058 Clouds 16 1017 82 10000 1.03 0 00:59 25.09.2021
2059 Clouds 16 1017 79 10000 2.06 210 23:33 24.09.2021
2060 Clouds 18 1017 75 10000 3.09 230 21:41 24.09.2021
2061 Clouds 18 1016 73 10000 2.57 250 20:33 24.09.2021
2062 Clouds 19 1016 71 10000 2.06 240 19:44 24.09.2021
2063 Clouds 20 1016 68 10000 2.57 210 18:30 24.09.2021
2064 Clouds 21 1013 65 10000 3.09 240 17:53 24.09.2021
2065 Clouds 21 1013 65 10000 3.09 240 17:35 24.09.2021
2066 Clouds 21 1013 64 10000 0.45 270 16:45 24.09.2021
2067 Clouds 20 1017 68 10000 3.6 220 13:55 24.09.2021
2068 Clouds 20 1017 71 10000 2.57 0 12:45 24.09.2021
2069 Clouds 19 1015 72 10000 0.45 288 12:27 24.09.2021
2070 Clouds 19 1015 75 10000 3.09 270 11:50 24.09.2021
2071 Clouds 17 1018 79 10000 2.06 190 10:24 24.09.2021
2072 Clouds 15 1017 88 10000 3.6 230 08:25 24.09.2021
2073 Clouds 15 1017 88 10000 3.09 240 07:32 24.09.2021
2074 Clouds 15 1017 87 10000 3.6 240 06:44 24.09.2021
2075 Clouds 16 1017 84 10000 4.12 280 04:53 24.09.2021
2076 Clouds 17 1018 75 10000 6.17 280 22:46 23.09.2021
2077 Clouds 17 1017 73 10000 5.66 280 22:20 23.09.2021
2078 Clouds 18 1017 72 10000 5.14 280 21:44 23.09.2021
2079 Clouds 19 1017 68 10000 5.66 280 20:33 23.09.2021
2080 Clouds 19 1017 66 10000 4.82 297 19:28 23.09.2021
2081 Clear 21 1017 54 10000 7.72 290 17:45 23.09.2021
2082 Clear 22 1018 46 10000 7.2 270 15:28 23.09.2021
2083 Clear 22 1018 48 10000 7.2 250 14:59 23.09.2021
2084 Clear 21 1019 52 10000 4.63 270 13:45 23.09.2021
2085 Clear 20 1019 57 10000 4.12 260 13:19 23.09.2021
2086 Clear 20 1019 61 10000 3.6 270 12:49 23.09.2021
2087 Clear 19 1020 65 10000 2.57 220 12:22 23.09.2021
2088 Clear 17 1020 71 10000 2.57 210 11:32 23.09.2021
2089 Clear 15 1021 81 10000 2.06 150 10:20 23.09.2021
2090 Clear 13 1021 88 10000 3.6 150 09:51 23.09.2021
2091 Clear 9 1022 94 10000 1.54 20 07:54 23.09.2021
2092 Clouds 10 1023 90 10000 1.81 153 03:31 23.09.2021
2093 Clear 12 1025 87 10000 0.51 0 23:24 22.09.2021
2094 Clear 12 1025 85 10000 1.03 0 22:29 22.09.2021
2095 Clear 13 1026 83 10000 0.51 0 21:55 22.09.2021
2096 Clear 13 1026 83 10000 0.51 0 21:33 22.09.2021
2097 Clear 14 1025 81 10000 1.03 50 20:52 22.09.2021
2098 Clear 17 1026 68 10000 1.03 50 19:29 22.09.2021
2099 Clear 20 1026 53 10000 1.54 360 18:39 22.09.2021
2100 Clouds 20 1026 51 10000 0.63 278 17:43 22.09.2021
2101 Clouds 21 1026 49 10000 0.73 292 16:37 22.09.2021
2102 Clear 20 1028 53 10000 2.06 0 15:19 22.09.2021
2103 Clear 19 1029 55 10000 2.06 270 13:48 22.09.2021
2104 Clear 16 1030 73 10000 1.03 0 11:57 22.09.2021
2105 Clear 14 1031 80 10000 2.57 160 10:52 22.09.2021
2106 Clouds 10 1030 88 10000 0.81 149 09:25 22.09.2021
2107 Clear 8 1030 91 10000 0.51 0 08:29 22.09.2021
2108 Clouds 8 1030 91 10000 1.01 156 07:19 22.09.2021
2109 Clear 8 1030 90 10000 0.51 0 05:56 22.09.2021
2110 Clear 8 1030 92 10000 0.51 0 05:34 22.09.2021
2111 Clouds 9 1029 88 10000 0.73 178 03:50 22.09.2021
2112 Clear 10 1031 87 10000 0.51 0 00:22 22.09.2021
2113 Clear 11 1030 85 10000 1.03 0 22:56 21.09.2021
2114 Clear 12 1030 80 10000 2.06 60 21:36 21.09.2021
2115 Clouds 14 1030 70 10000 1.12 36 20:26 21.09.2021
2116 Clear 17 1029 59 10000 0.51 0 19:22 21.09.2021
2117 Clouds 18 1029 48 10000 2.13 20 17:39 21.09.2021
2118 Clouds 18 1029 47 10000 1.03 0 16:38 21.09.2021
2119 Clouds 18 1030 46 10000 2.06 0 15:44 21.09.2021
2120 Clouds 18 1030 48 10000 2.06 0 14:58 21.09.2021
2121 Clouds 18 1030 48 10000 1.54 360 13:57 21.09.2021
2122 Clouds 18 1030 48 10000 1.54 360 13:36 21.09.2021
2123 Clouds 17 1030 51 10000 1.54 0 12:36 21.09.2021
2124 Clear 14 1029 67 10000 1.03 0 10:33 21.09.2021
2125 Clear 10 1028 93 10000 0.51 0 08:40 21.09.2021
2126 Clear 10 1027 93 10000 2.06 50 07:20 21.09.2021
2127 Clouds 12 1025 82 10000 1.03 0 00:48 21.09.2021
2128 Clouds 14 1024 67 10000 2.06 70 22:42 20.09.2021
2129 Clouds 14 1023 72 10000 2.06 80 21:41 20.09.2021
2130 Clouds 14 1022 77 10000 1.54 110 20:58 20.09.2021
2131 Clouds 16 1022 68 10000 1.03 110 19:40 20.09.2021
2132 Clouds 16 1021 60 10000 1.03 0 17:52 20.09.2021
2133 Clouds 17 1021 60 10000 2.06 70 16:57 20.09.2021
2134 Clouds 17 1020 57 10000 1.54 50 15:57 20.09.2021
2135 Clouds 17 1020 58 10000 1.54 50 15:33 20.09.2021
2136 Clouds 17 1020 58 10000 2.57 70 14:26 20.09.2021
2137 Clouds 16 1020 61 10000 2.06 120 12:44 20.09.2021
2138 Clouds 16 1020 61 10000 2.57 0 12:21 20.09.2021
2139 Clouds 16 1020 61 10000 2.57 0 12:21 20.09.2021
2140 Clouds 14 1019 66 10000 3.09 90 10:49 20.09.2021
2141 Clouds 12 1019 75 10000 2.57 100 09:48 20.09.2021
2142 Clouds 12 1018 74 10000 2.57 100 09:29 20.09.2021
2143 Clouds 11 1018 81 10000 2.06 120 08:34 20.09.2021
2144 Clear 10 1018 86 10000 1.54 90 06:21 20.09.2021
2145 Clear 13 1016 82 10000 2.57 80 22:57 19.09.2021
2146 Clear 14 1016 81 10000 2.06 90 21:48 19.09.2021
2147 Clear 14 1016 78 10000 1.54 100 20:59 19.09.2021
2148 Clear 16 1015 73 10000 2.57 90 19:54 19.09.2021
2149 Clouds 18 1015 64 10000 3.09 70 18:53 19.09.2021
2150 Clouds 19 1015 61 10000 3.6 80 17:42 19.09.2021
2151 Clouds 19 1015 61 10000 2.57 80 16:35 19.09.2021
2152 Clouds 19 1014 60 10000 2.06 110 15:31 19.09.2021
2153 Clouds 20 1015 60 10000 3.6 80 14:49 19.09.2021
2154 Clouds 19 1015 62 10000 3.09 100 13:57 19.09.2021
2155 Clouds 19 1015 61 10000 3.6 130 12:56 19.09.2021
2156 Clouds 18 1015 69 10000 4.12 120 11:49 19.09.2021
2157 Clouds 18 1015 68 10000 4.63 130 11:22 19.09.2021
2158 Clouds 15 1015 79 10000 2.57 110 09:52 19.09.2021
2159 Clouds 14 1015 84 10000 3.09 110 09:23 19.09.2021
2160 Clear 12 1014 89 10000 1.54 160 06:49 19.09.2021
2161 Clear 14 1015 82 10000 2.57 80 01:36 19.09.2021
2162 Clear 15 1015 78 10000 3.09 80 23:19 18.09.2021
2163 Clear 16 1015 75 10000 3.09 60 21:56 18.09.2021
2164 Clear 17 1015 76 10000 3.09 50 20:47 18.09.2021
2165 Clouds 19 1015 75 10000 1.54 60 19:58 18.09.2021
2166 Clouds 19 1015 71 10000 1.54 50 19:36 18.09.2021
2167 Clouds 20 1015 70 10000 1.54 50 19:18 18.09.2021
2168 Clouds 22 1015 58 10000 1.03 0 18:30 18.09.2021
2169 Clouds 23 1015 54 10000 2.57 30 16:35 18.09.2021
2170 Clouds 22 1016 61 10000 1.54 60 14:32 18.09.2021
2171 Clouds 22 1017 62 10000 1.54 0 13:45 18.09.2021
2172 Clouds 21 1017 64 10000 1.03 0 13:21 18.09.2021
2173 Clouds 20 1017 77 10000 0.51 0 12:23 18.09.2021
2174 Clear 18 1017 80 10000 1.54 190 11:31 18.09.2021
2175 Clear 19 1017 78 10000 1.54 190 11:30 18.09.2021
2176 Clear 16 1017 86 10000 1.03 0 10:31 18.09.2021
2177 Clouds 13 1017 94 7000 0.51 0 09:24 18.09.2021
2178 Mist 12 1017 94 4200 2.06 130 08:28 18.09.2021
2179 Clouds 14 1016 91 10000 0.65 139 00:53 18.09.2021
2180 Clouds 15 1016 90 10000 0.46 114 23:56 17.09.2021
2181 Clouds 15 1016 89 10000 0.45 117 23:32 17.09.2021
2182 Clouds 16 1016 88 10000 0.72 3 22:25 17.09.2021
2183 Clouds 16 1016 88 10000 1.54 60 21:45 17.09.2021
2184 Clouds 18 1015 81 10000 1.54 100 19:53 17.09.2021
2185 Clouds 20 1015 68 10000 1.03 0 18:43 17.09.2021
2186 Clouds 21 1015 65 10000 0.51 0 16:47 17.09.2021
2187 Clouds 21 1016 63 10000 2.06 0 15:25 17.09.2021
2188 Clear 19 1017 77 10000 2.57 200 12:31 17.09.2021
2189 Clear 15 1017 91 10000 2.06 150 10:24 17.09.2021
2190 Clear 14 1017 93 10000 1.03 0 07:49 17.09.2021
2191 Clear 13 1017 93 10000 1.03 0 06:29 17.09.2021
2192 Clear 14 1018 90 10000 0.51 0 00:34 17.09.2021
2193 Clouds 15 1018 86 10000 0.51 0 22:46 16.09.2021
2194 Clouds 16 1018 85 10000 1.03 0 22:24 16.09.2021
2195 Clouds 17 1017 81 10000 1.03 0 21:36 16.09.2021
2196 Clouds 17 1017 77 10000 1.03 0 20:36 16.09.2021
2197 Clouds 19 1017 70 10000 2.06 330 19:18 16.09.2021
2198 Clouds 20 1017 65 10000 1.03 0 18:19 16.09.2021
2199 Clouds 20 1017 64 10000 2.06 330 17:22 16.09.2021
2200 Clouds 19 1017 64 10000 5.14 280 14:51 16.09.2021
2201 Clouds 19 1017 68 10000 3.6 330 13:48 16.09.2021
2202 Clouds 18 1017 70 10000 4.63 300 12:47 16.09.2021
2203 Clouds 18 1017 73 10000 4.63 310 12:26 16.09.2021
2204 Clouds 16 1017 83 10000 4.12 290 11:24 16.09.2021
2205 Clouds 16 1017 86 10000 2.57 270 10:30 16.09.2021
2206 Clouds 15 1017 87 10000 3.09 280 09:39 16.09.2021
2207 Clouds 13 1017 92 10000 0.51 0 08:32 16.09.2021
2208 Clouds 13 1016 90 10000 0.51 0 06:59 16.09.2021
2209 Clouds 13 1016 89 10000 1.54 330 06:39 16.09.2021
2210 Clouds 14 1015 85 10000 4.63 300 04:31 16.09.2021
2211 Clouds 17 1014 85 10000 4.63 310 00:59 16.09.2021
2212 Clouds 17 1014 86 10000 4.63 290 23:35 15.09.2021
2213 Clouds 18 1013 86 10000 4.63 280 22:46 15.09.2021
2214 Clouds 18 1013 85 10000 4.63 300 21:41 15.09.2021
2215 Clouds 18 1013 85 10000 4.63 300 21:23 15.09.2021
2216 Clouds 19 1012 83 10000 5.66 320 19:51 15.09.2021
2217 Clouds 20 1011 85 10000 6.69 320 19:19 15.09.2021
2218 Clouds 21 1011 86 10000 3.09 260 17:49 15.09.2021
2219 Clouds 21 1011 87 10000 2.06 340 16:48 15.09.2021
2220 Rain 21 1011 90 10000 4.12 260 15:33 15.09.2021
2221 Rain 21 1011 90 10000 3.09 210 14:44 15.09.2021
2222 Rain 20 1011 91 10000 4.63 190 13:51 15.09.2021
2223 Rain 20 1011 89 10000 4.63 170 13:29 15.09.2021
2224 Rain 20 1011 87 10000 5.14 170 12:42 15.09.2021
2225 Clouds 21 1011 88 10000 4.12 170 11:51 15.09.2021
2226 Clouds 20 1011 86 10000 4.63 170 11:19 15.09.2021
2227 Clouds 20 1011 87 10000 4.63 160 10:50 15.09.2021
2228 Clouds 19 1011 93 10000 2.57 150 09:26 15.09.2021
2229 Rain 19 1011 92 10000 1.54 110 07:43 15.09.2021
2230 Clear 19 1011 87 10000 1.03 0 04:24 15.09.2021
2231 Clear 21 1013 81 10000 1.54 160 22:59 14.09.2021
2232 Clear 21 1013 77 10000 2.57 130 21:40 14.09.2021
2233 Clear 22 1013 76 10000 3.09 140 20:38 14.09.2021
2234 Clouds 22 1013 73 10000 2.57 140 19:41 14.09.2021
2235 Clear 24 1013 66 10000 2.06 120 17:40 14.09.2021
2236 Clear 24 1013 66 10000 2.06 120 17:40 14.09.2021
2237 Clear 25 1014 62 10000 3.6 140 16:58 14.09.2021
2238 Clear 25 1014 59 10000 3.6 130 15:30 14.09.2021
2239 Clouds 25 1014 57 10000 3.09 150 14:31 14.09.2021
2240 Clear 23 1015 66 10000 3.6 130 12:39 14.09.2021
2241 Clear 19 1015 76 10000 2.06 110 10:54 14.09.2021
2242 Clear 17 1015 80 10000 1.54 160 09:50 14.09.2021
2243 Clear 13 1015 93 10000 1.54 160 08:39 14.09.2021
2244 Clear 12 1015 92 10000 1.03 80 06:24 14.09.2021
2245 Clear 15 1017 85 10000 2.06 70 00:31 14.09.2021
2246 Clear 16 1017 84 10000 1.54 70 22:48 13.09.2021
2247 Clear 16 1017 84 10000 3.09 60 22:23 13.09.2021
2248 Clear 16 1017 82 10000 3.09 60 21:45 13.09.2021
2249 Clear 17 1017 81 10000 2.06 60 20:50 13.09.2021
2250 Clear 21 1017 59 10000 1.54 30 18:46 13.09.2021
2251 Clouds 22 1017 59 10000 1.03 0 17:49 13.09.2021
2252 Clouds 22 1017 58 10000 2.06 40 16:50 13.09.2021
2253 Clouds 22 1018 56 10000 2.57 50 15:30 13.09.2021
2254 Clouds 19 1019 76 10000 1.03 0 12:26 13.09.2021
2255 Clouds 16 1019 89 9000 2.06 170 10:58 13.09.2021
2256 Clouds 14 1019 92 10000 1.03 0 09:36 13.09.2021
2257 Clouds 13 1018 91 10000 0.81 1 04:59 13.09.2021
2258 Clear 14 1018 90 10000 0.51 120 23:41 12.09.2021
2259 Clouds 15 1018 84 10000 1.31 297 22:25 12.09.2021
2260 Clear 16 1018 80 10000 0.51 0 21:37 12.09.2021
2261 Clear 18 1017 72 10000 1.54 20 20:29 12.09.2021
2262 Clouds 19 1017 66 10000 1.54 350 19:51 12.09.2021
2263 Clouds 20 1017 62 10000 3.09 340 19:19 12.09.2021
2264 Clouds 21 1017 57 10000 3.6 300 18:29 12.09.2021
2265 Clouds 22 1018 53 10000 3.09 310 16:32 12.09.2021
2266 Clouds 22 1018 56 10000 2.57 0 14:56 12.09.2021
2267 Clouds 22 1018 56 10000 2.57 0 14:56 12.09.2021
2268 Clouds 21 1018 59 10000 2.06 230 13:45 12.09.2021
2269 Clouds 18 1019 76 10000 2.06 240 11:31 12.09.2021
2270 Clouds 16 1019 89 10000 1.54 200 09:27 12.09.2021
2271 Clouds 15 1019 90 10000 1.54 190 08:38 12.09.2021
2272 Clouds 17 1018 89 10000 2.06 150 02:22 12.09.2021
2273 Clouds 18 1018 85 10000 0.51 0 23:28 11.09.2021
2274 Clouds 18 1018 82 10000 2.57 320 21:50 11.09.2021
2275 Clouds 19 1018 78 10000 5.66 280 20:59 11.09.2021
2276 Clouds 20 1017 69 10000 5.14 280 19:21 11.09.2021
2277 Clouds 22 1017 58 10000 5.14 240 17:34 11.09.2021
2278 Clouds 22 1017 63 10000 4.63 230 15:51 11.09.2021
2279 Clouds 22 1017 64 10000 5.14 250 13:49 11.09.2021
2280 Clouds 21 1018 66 10000 4.63 250 12:50 11.09.2021
2281 Clouds 20 1018 71 10000 5.66 260 11:19 11.09.2021
2282 Clouds 18 1017 81 10000 4.12 290 09:38 11.09.2021
2283 Clouds 17 1017 90 10000 3.6 290 07:45 11.09.2021
2284 Clouds 18 1016 91 10000 1.54 230 06:50 11.09.2021
2285 Clouds 19 1015 92 10000 3.09 140 23:38 10.09.2021
2286 Clouds 19 1015 91 10000 3.09 130 22:25 10.09.2021
2287 Clouds 19 1015 91 10000 2.57 150 21:54 10.09.2021
2288 Clouds 20 1014 89 10000 1.03 110 20:25 10.09.2021
2289 Rain 21 1014 85 10000 2.06 300 18:28 10.09.2021
2290 Clouds 22 1013 81 10000 4.12 320 16:54 10.09.2021
2291 Rain 23 1013 78 10000 1.54 60 14:49 10.09.2021
2292 Clouds 22 1014 75 10000 2.06 0 12:43 10.09.2021
2293 Clouds 20 1013 86 10000 2.57 120 09:27 10.09.2021
2294 Clear 19 1013 91 10000 2.06 140 07:50 10.09.2021
2295 Clear 19 1013 90 10000 2.06 160 02:31 10.09.2021
2296 Clear 21 1012 89 10000 2.57 140 22:33 09.09.2021
2297 Clear 21 1012 89 10000 1.54 70 21:46 09.09.2021
2298 Rain 21 1011 87 10000 3.6 90 20:47 09.09.2021
2299 Clouds 22 1011 89 10000 1.03 0 19:58 09.09.2021
2300 Clouds 23 1010 87 10000 2.78 244 18:34 09.09.2021
2301 Clouds 27 1010 55 10000 1.54 240 16:41 09.09.2021
2302 Clouds 27 1011 55 10000 1.54 230 15:51 09.09.2021
2303 Clear 27 1011 56 10000 3.09 220 13:22 09.09.2021
2304 Clear 24 1011 59 10000 2.57 150 11:48 09.09.2021
2305 Clear 22 1011 63 10000 3.09 140 10:25 09.09.2021
2306 Clear 19 1011 69 10000 2.06 110 08:55 09.09.2021
2307 Clear 16 1011 80 10000 1.03 0 06:39 09.09.2021
2308 Clear 16 1012 76 10000 2.06 90 02:57 09.09.2021
2309 Clear 19 1013 67 10000 3.09 90 22:53 08.09.2021
2310 Clear 20 1013 65 10000 2.57 80 21:36 08.09.2021
2311 Clear 23 1013 53 10000 2.06 90 20:19 08.09.2021
2312 Clear 25 1013 45 10000 2.06 110 19:29 08.09.2021
2313 Clear 27 1014 43 10000 4.12 130 18:31 08.09.2021
2314 Clear 27 1014 43 10000 4.12 130 18:30 08.09.2021
2315 Clear 27 1014 43 10000 4.12 120 17:58 08.09.2021
2316 Clear 27 1015 39 10000 5.14 140 16:55 08.09.2021
2317 Clear 27 1016 47 10000 5.14 150 14:30 08.09.2021
2318 Clear 27 1016 47 10000 5.14 150 14:30 08.09.2021
2319 Clear 26 1017 51 10000 3.6 110 13:21 08.09.2021
2320 Clear 25 1018 55 10000 3.09 120 12:41 08.09.2021
2321 Clear 25 1018 56 10000 3.09 120 12:19 08.09.2021
2322 Clear 22 1018 66 10000 3.6 120 10:59 08.09.2021
2323 Clear 21 1018 69 10000 3.09 120 10:27 08.09.2021
2324 Clear 17 1019 80 10000 1.54 100 09:25 08.09.2021
2325 Clear 13 1019 92 10000 1.03 0 07:43 08.09.2021
2326 Clear 14 1019 89 10000 1.54 100 05:46 08.09.2021
2327 Clear 18 1021 77 10000 2.57 80 22:51 07.09.2021
2328 Clear 18 1021 78 10000 3.6 80 22:19 07.09.2021
2329 Clear 18 1021 77 10000 3.6 80 22:19 07.09.2021
2330 Clear 21 1021 70 10000 2.06 60 20:37 07.09.2021
2331 Clear 25 1021 47 10000 1.03 0 18:49 07.09.2021
2332 Clear 26 1022 46 10000 1.54 90 18:24 07.09.2021
2333 Clear 26 1022 44 10000 2.06 70 16:59 07.09.2021
2334 Clear 27 1023 42 10000 1.03 0 15:55 07.09.2021
2335 Clear 26 1023 47 10000 2.06 50 14:46 07.09.2021
2336 Clear 24 1024 56 10000 1.54 150 13:29 07.09.2021
2337 Clouds 22 1024 68 10000 1.53 101 11:51 07.09.2021
2338 Clear 19 1024 79 10000 0.51 0 10:45 07.09.2021
2339 Clouds 15 1024 86 10000 1.13 130 08:47 07.09.2021
2340 Clouds 14 1024 88 10000 1.18 130 07:45 07.09.2021
2341 Clouds 13 1023 88 10000 1.12 122 05:47 07.09.2021
2342 Clear 14 1024 88 10000 1.03 0 02:38 07.09.2021
2343 Clear 15 1024 86 10000 1.03 0 00:55 07.09.2021
2344 Clear 16 1024 84 10000 1.54 140 23:43 06.09.2021
2345 Clear 16 1024 82 10000 0.51 0 23:21 06.09.2021
2346 Clear 17 1024 80 10000 0.51 0 22:46 06.09.2021
2347 Clear 18 1024 73 10000 1.03 50 21:52 06.09.2021
2348 Clear 23 1023 52 10000 1.54 40 19:44 06.09.2021
2349 Clear 23 1023 49 10000 2.06 360 19:18 06.09.2021
2350 Clear 24 1023 47 10000 2.57 340 18:33 06.09.2021
2351 Clear 25 1023 40 10000 2.06 350 17:50 06.09.2021
2352 Clear 26 1024 45 10000 3.09 320 16:20 06.09.2021
2353 Clear 26 1024 45 10000 3.09 320 16:20 06.09.2021
2354 Clear 26 1024 53 10000 2.06 330 14:37 06.09.2021
2355 Clear 24 1024 61 10000 1.03 0 12:49 06.09.2021
2356 Clear 22 1024 69 10000 1.54 270 11:52 06.09.2021
2357 Clear 19 1024 77 10000 2.06 150 10:19 06.09.2021
2358 Clear 12 1023 91 10000 1.03 0 07:35 06.09.2021
2359 Clear 14 1022 90 10000 0.51 0 02:54 06.09.2021
2360 Clear 17 1021 82 10000 1.54 120 23:22 05.09.2021
2361 Clear 18 1021 76 10000 3.6 50 22:32 05.09.2021
2362 Clear 19 1021 72 10000 3.6 60 21:55 05.09.2021
2363 Clear 20 1021 71 10000 3.6 60 21:20 05.09.2021
2364 Clear 25 1020 54 10000 1.54 360 19:30 05.09.2021
2365 Clear 26 1020 43 10000 1.03 0 17:52 05.09.2021
2366 Clear 26 1020 47 10000 1.54 110 15:43 05.09.2021
2367 Clear 26 1020 47 10000 1.54 250 15:19 05.09.2021
2368 Clear 26 1020 47 10000 1.54 250 15:19 05.09.2021
2369 Clear 24 1020 62 10000 1.03 0 12:44 05.09.2021
2370 Clear 21 1021 71 10000 2.06 160 11:31 05.09.2021
2371 Clear 19 1020 76 10000 2.06 140 10:39 05.09.2021
2372 Clear 17 1020 77 10000 2.57 120 09:33 05.09.2021
2373 Clear 14 1020 90 10000 1.03 0 08:31 05.09.2021
2374 Clear 13 1019 92 10000 1.03 0 03:52 05.09.2021
2375 Clear 15 1018 90 10000 1.03 0 00:39 05.09.2021
2376 Clear 15 1018 87 10000 0.51 0 23:55 04.09.2021
2377 Clear 16 1018 85 10000 1.03 0 23:24 04.09.2021
2378 Clear 17 1018 80 10000 3.09 50 22:35 04.09.2021
2379 Clear 19 1017 75 10000 2.57 30 20:58 04.09.2021
2380 Clear 21 1016 64 10000 3.09 10 19:33 04.09.2021
2381 Clear 25 1017 59 10000 4.12 330 17:25 04.09.2021
2382 Clear 24 1017 58 10000 1.54 200 14:37 04.09.2021
2383 Clear 21 1018 71 10000 0.51 0 11:37 04.09.2021
2384 Clear 18 1018 78 10000 0.51 0 10:38 04.09.2021
2385 Clear 13 1018 93 10000 0.51 0 08:18 04.09.2021
2386 Clear 17 1018 80 10000 3.09 60 00:50 04.09.2021
2387 Clear 17 1018 79 10000 3.6 70 00:19 04.09.2021
2388 Clear 18 1018 77 10000 3.6 60 23:21 03.09.2021
2389 Clear 19 1018 76 10000 3.09 60 21:43 03.09.2021
2390 Clear 20 1018 73 10000 3.09 50 21:23 03.09.2021
2391 Clear 21 1017 66 10000 0.51 0 20:30 03.09.2021
2392 Clear 24 1018 54 10000 0.51 0 19:38 03.09.2021
2393 Clear 25 1018 44 10000 1.54 60 18:33 03.09.2021
2394 Clear 26 1018 41 10000 2.06 0 17:21 03.09.2021
2395 Clear 26 1020 43 10000 3.09 130 15:42 03.09.2021
2396 Clouds 25 1020 47 10000 3.09 170 14:40 03.09.2021
2397 Clear 20 1022 71 10000 2.06 150 11:21 03.09.2021
2398 Clear 20 1022 71 10000 2.06 150 11:21 03.09.2021
2399 Clear 18 1022 74 10000 0.51 0 10:18 03.09.2021
2400 Clear 12 1022 96 10000 0.51 0 08:22 03.09.2021
2401 Clear 11 1022 94 10000 0.51 0 06:51 03.09.2021
2402 Clear 15 1023 86 10000 2.06 90 23:58 02.09.2021
2403 Clear 16 1023 84 10000 2.57 70 22:22 02.09.2021
2404 Clear 19 1023 75 10000 1.03 0 20:59 02.09.2021
2405 Clouds 23 1024 50 10000 2.06 100 18:52 02.09.2021
2406 Clouds 23 1025 50 10000 2.57 120 16:57 02.09.2021
2407 Clouds 23 1026 53 10000 1.03 0 15:32 02.09.2021
2408 Clouds 21 1026 65 10000 1.54 210 13:42 02.09.2021
2409 Clouds 18 1027 80 10000 1.54 0 11:46 02.09.2021
2410 Clouds 18 1027 80 10000 1.54 0 11:46 02.09.2021
2411 Clouds 17 1027 82 10000 1.54 0 11:27 02.09.2021
2412 Fog 13 1027 94 150 1.03 0 09:21 02.09.2021
2413 Clouds 10 1027 95 8000 1.03 0 07:40 02.09.2021
2414 Clouds 10 1027 95 10000 0.51 150 06:40 02.09.2021
2415 Clouds 11 1028 93 10000 1.03 0 02:38 02.09.2021
2416 Clouds 11 1028 94 10000 1.03 0 01:53 02.09.2021
2417 Clear 12 1028 91 10000 0.51 200 00:24 02.09.2021
2418 Clear 13 1028 91 10000 0.51 0 23:28 01.09.2021
2419 Clouds 14 1028 89 10000 1.03 40 22:31 01.09.2021
2420 Clear 15 1027 85 10000 1.22 0 21:33 01.09.2021
2421 Clouds 16 1027 80 10000 2.57 350 19:55 01.09.2021
2422 Clouds 18 1028 69 10000 3.6 350 17:58 01.09.2021
2423 Clouds 18 1028 72 10000 3.09 330 17:18 01.09.2021
2424 Clouds 17 1028 72 10000 2.57 360 16:46 01.09.2021
2425 Clouds 17 1028 77 10000 3.09 10 15:23 01.09.2021
2426 Clouds 16 1029 81 10000 2.57 330 11:48 01.09.2021
2427 Clouds 16 1028 85 10000 2.06 340 10:42 01.09.2021
2428 Clouds 14 1028 92 10000 1.03 0 08:46 01.09.2021
2429 Clouds 14 1028 92 10000 1.54 340 07:50 01.09.2021
2430 Clouds 15 1026 87 10000 1.97 353 23:43 31.08.2021
2431 Clouds 16 1025 83 10000 1.9 355 22:29 31.08.2021
2432 Clear 17 1024 78 10000 1.54 20 20:56 31.08.2021
2433 Clouds 20 1024 64 10000 1.54 350 19:44 31.08.2021
2434 Clouds 21 1024 56 10000 3.6 350 18:23 31.08.2021
2435 Clouds 21 1024 56 10000 3.6 330 17:33 31.08.2021
2436 Clouds 21 1024 58 10000 3.6 360 16:49 31.08.2021
2437 Clouds 21 1025 60 10000 4.12 340 15:59 31.08.2021
2438 Clouds 18 1025 83 9000 6.17 320 12:55 31.08.2021
2439 Clouds 16 1025 91 6000 4.12 310 11:25 31.08.2021
2440 Mist 15 1025 92 5000 3.6 340 10:49 31.08.2021
2441 Clouds 15 1024 93 6000 3.09 320 09:43 31.08.2021
2442 Clouds 14 1023 97 6000 1.03 0 08:36 31.08.2021
2443 Clear 13 1022 96 10000 0.51 0 05:58 31.08.2021
2444 Clear 15 1021 92 10000 1.68 353 00:23 31.08.2021
2445 Clouds 15 1020 92 10000 0 0 23:29 30.08.2021
2446 Clouds 16 1020 89 10000 1.03 350 21:43 30.08.2021
2447 Clouds 18 1019 83 10000 2.06 340 20:42 30.08.2021
2448 Clouds 19 1019 78 10000 1.54 330 19:58 30.08.2021
2449 Clouds 19 1019 77 10000 2.06 340 19:29 30.08.2021
2450 Clouds 19 1019 75 10000 2.57 330 18:23 30.08.2021
2451 Clouds 20 1019 73 10000 6.17 330 17:44 30.08.2021
2452 Clouds 20 1019 74 10000 2.57 330 15:56 30.08.2021
2453 Clouds 19 1019 81 10000 3.6 340 14:39 30.08.2021
2454 Clouds 18 1019 83 10000 3.09 320 13:27 30.08.2021
2455 Clouds 18 1019 90 10000 4.12 350 11:57 30.08.2021
2456 Clouds 16 1018 96 10000 2.06 320 08:27 30.08.2021
2457 Clouds 16 1017 94 6000 1.03 0 22:20 29.08.2021
2458 Rain 16 1018 94 10000 1.91 311 21:31 29.08.2021
2459 Clouds 17 1017 91 10000 3.09 320 19:33 29.08.2021
2460 Clouds 16 1017 92 10000 3.6 320 18:30 29.08.2021
2461 Clouds 16 1017 89 10000 4.63 330 16:33 29.08.2021
2462 Drizzle 16 1017 95 10000 5.66 320 15:25 29.08.2021
2463 Drizzle 15 1018 94 4000 5.14 310 13:57 29.08.2021
2464 Clouds 15 1018 94 10000 3.9 302 12:58 29.08.2021
2465 Drizzle 15 1018 94 4500 5.14 310 12:21 29.08.2021
2466 Drizzle 15 1018 94 10000 3.09 320 11:41 29.08.2021
2467 Rain 15 1018 94 10000 4.12 310 10:49 29.08.2021
2468 Drizzle 15 1018 94 10000 4.63 310 10:30 29.08.2021
2469 Drizzle 15 1018 95 10000 4.12 310 09:44 29.08.2021
2470 Drizzle 14 1018 94 10000 3.6 320 06:38 29.08.2021
2471 Clouds 15 1020 93 10000 4.12 330 23:48 28.08.2021
2472 Clouds 16 1019 95 10000 2.57 320 20:52 28.08.2021
2473 Clouds 17 1018 91 10000 3.09 350 19:43 28.08.2021
2474 Clouds 17 1018 90 10000 3.09 340 18:27 28.08.2021
2475 Clouds 17 1018 84 10000 3.09 20 17:47 28.08.2021
2476 Clouds 19 1018 73 10000 5.14 350 16:58 28.08.2021
2477 Clouds 18 1018 77 10000 5.14 360 15:28 28.08.2021
2478 Clouds 17 1018 80 10000 5.14 360 14:18 28.08.2021
2479 Clouds 17 1018 83 10000 4.12 330 13:42 28.08.2021
2480 Clouds 17 1018 87 10000 4.12 350 12:40 28.08.2021
2481 Clouds 16 1018 94 10000 3.6 340 11:51 28.08.2021
2482 Clouds 15 1017 96 10000 4.12 340 10:29 28.08.2021
2483 Mist 14 1017 98 2900 2.06 300 08:36 28.08.2021
2484 Clouds 14 1018 95 6000 1.54 320 06:23 28.08.2021
2485 Clouds 15 1017 94 10000 1.03 330 22:26 27.08.2021
2486 Clouds 15 1017 92 10000 2.06 340 20:56 27.08.2021
2487 Clouds 15 1016 90 10000 4.63 300 19:59 27.08.2021
2488 Clouds 16 1016 87 10000 4.63 300 18:46 27.08.2021
2489 Clouds 16 1016 86 10000 5.66 310 18:28 27.08.2021
2490 Clouds 17 1016 86 10000 7.2 290 16:49 27.08.2021
2491 Clouds 17 1016 82 10000 5.66 300 15:21 27.08.2021
2492 Clouds 18 1016 84 10000 3.6 330 14:38 27.08.2021
2493 Rain 17 1017 85 10000 4.63 300 12:28 27.08.2021
2494 Clouds 15 1017 87 10000 5.14 310 11:24 27.08.2021
2495 Clouds 15 1017 87 10000 5.14 310 10:41 27.08.2021
2496 Clouds 13 1017 93 10000 3.09 320 09:30 27.08.2021
2497 Clouds 13 1017 94 10000 3.09 310 08:41 27.08.2021
2498 Clouds 12 1016 95 10000 2.06 330 05:53 27.08.2021
2499 Clear 12 1016 93 10000 2.57 340 02:44 27.08.2021
2500 Clouds 13 1016 93 10000 2.06 330 00:31 27.08.2021
2501 Clouds 15 1015 95 10000 2.06 330 22:29 26.08.2021
2502 Clouds 15 1015 93 10000 2.57 320 21:57 26.08.2021
2503 Rain 16 1014 91 10000 3.6 340 20:18 26.08.2021
2504 Rain 18 1013 68 10000 6.17 290 18:49 26.08.2021
2505 Clouds 19 1014 68 10000 6.17 290 17:34 26.08.2021
2506 Clouds 19 1014 70 10000 4.63 320 16:32 26.08.2021
2507 Clouds 18 1014 70 10000 5.14 300 15:53 26.08.2021
2508 Clouds 17 1015 82 10000 4.21 301 13:33 26.08.2021
2509 Clouds 16 1015 86 10000 4.12 320 12:49 26.08.2021
2510 Rain 15 1015 88 9000 2.06 360 11:56 26.08.2021
2511 Clouds 15 1015 85 10000 2.06 320 09:43 26.08.2021
2512 Clouds 14 1014 89 10000 2.06 320 08:33 26.08.2021
2513 Clouds 16 1017 79 10000 4.63 320 01:30 26.08.2021
2514 Clear 17 1017 72 10000 2.57 330 22:48 25.08.2021
2515 Clear 17 1017 70 10000 3.09 320 22:29 25.08.2021
2516 Clear 19 1018 62 10000 2.57 320 21:25 25.08.2021
2517 Clear 20 1018 57 10000 2.57 330 20:44 25.08.2021
2518 Clear 21 1018 53 10000 3.09 340 20:25 25.08.2021
2519 Clear 22 1019 46 10000 4.12 340 18:32 25.08.2021
2520 Clear 23 1019 45 10000 4.63 330 17:19 25.08.2021
2521 Clear 23 1020 45 10000 2.06 0 15:43 25.08.2021
2522 Clouds 22 1021 46 10000 2.06 0 14:47 25.08.2021
2523 Clouds 22 1022 48 10000 3.09 340 14:18 25.08.2021
2524 Clouds 21 1023 53 10000 1.03 0 12:55 25.08.2021
2525 Clouds 19 1024 62 10000 1.03 0 11:26 25.08.2021
2526 Clear 17 1024 71 10000 0.51 10 10:30 25.08.2021
2527 Clear 16 1024 72 10000 0.51 0 09:51 25.08.2021
2528 Clear 13 1024 88 10000 0.51 0 08:41 25.08.2021
2529 Clear 10 1024 92 10000 1.54 50 07:44 25.08.2021
2530 Clear 11 1025 83 10000 1.03 0 03:28 25.08.2021
2531 Clear 14 1026 73 10000 3.09 50 23:42 24.08.2021
2532 Clear 17 1026 69 10000 2.06 50 21:48 24.08.2021
2533 Clear 18 1025 60 10000 2.57 40 20:46 24.08.2021
2534 Clear 20 1025 55 10000 4.12 30 19:45 24.08.2021
2535 Clear 22 1025 52 10000 4.63 10 17:58 24.08.2021
2536 Clear 23 1025 50 10000 3.09 40 17:27 24.08.2021
2537 Clear 22 1025 47 10000 2.57 0 16:41 24.08.2021
2538 Clear 22 1026 48 10000 3.6 60 14:28 24.08.2021
2539 Clouds 21 1026 47 10000 5.14 40 13:24 24.08.2021
2540 Clouds 20 1027 51 10000 5.14 50 11:46 24.08.2021
2541 Clear 18 1027 64 10000 4.12 30 10:48 24.08.2021
2542 Clear 18 1027 67 10000 3.6 20 10:26 24.08.2021
2543 Clear 14 1027 84 10000 0.51 0 08:50 24.08.2021
2544 Clouds 12 1026 91 10000 1.54 80 06:51 24.08.2021
2545 Clear 13 1026 89 10000 3.09 60 04:54 24.08.2021
2546 Clear 14 1025 92 10000 1.03 0 00:47 24.08.2021
2547 Clear 16 1025 87 10000 1.54 50 22:52 23.08.2021
2548 Clear 17 1025 85 10000 0.51 40 22:21 23.08.2021
2549 Clouds 19 1024 77 10000 1.03 60 20:39 23.08.2021
2550 Clouds 21 1023 71 10000 2.06 40 19:19 23.08.2021
2551 Clouds 21 1023 72 10000 4.63 30 16:41 23.08.2021
2552 Clouds 20 1022 73 10000 4.63 20 14:49 23.08.2021
2553 Clouds 19 1022 78 10000 6.17 30 13:23 23.08.2021
2554 Clouds 18 1022 87 10000 2.57 10 12:19 23.08.2021
2555 Clouds 18 1021 87 10000 3.09 320 10:39 23.08.2021
2556 Clouds 18 1021 87 10000 2.06 330 09:48 23.08.2021
2557 Clouds 17 1020 96 10000 1.54 40 08:33 23.08.2021
2558 Clouds 16 1020 93 10000 2.06 100 06:51 23.08.2021
2559 Clouds 16 1020 93 10000 2.06 100 06:33 23.08.2021
2560 Clouds 17 1019 89 10000 2.06 240 00:55 23.08.2021
2561 Clouds 18 1018 84 10000 4.12 270 22:46 22.08.2021
2562 Clouds 18 1018 84 10000 5.14 270 22:28 22.08.2021
2563 Clouds 19 1016 78 10000 6.17 290 20:23 22.08.2021
2564 Clouds 20 1016 72 10000 4.63 270 19:46 22.08.2021
2565 Clouds 21 1016 67 10000 6.69 280 17:26 22.08.2021
2566 Clouds 22 1015 62 10000 6.69 250 15:32 22.08.2021
2567 Clouds 21 1016 62 10000 5.66 260 14:51 22.08.2021
2568 Clouds 21 1016 69 10000 4.12 250 13:37 22.08.2021
2569 Clouds 21 1016 81 10000 3.6 150 13:18 22.08.2021
2570 Clouds 20 1016 83 10000 1.54 120 12:28 22.08.2021
2571 Clouds 19 1016 90 10000 4.83 247 11:43 22.08.2021
2572 Rain 19 1016 84 10000 2.06 210 10:43 22.08.2021
2573 Clouds 18 1016 88 10000 2.06 260 08:36 22.08.2021
2574 Clouds 18 1015 95 6000 1.03 0 04:58 22.08.2021
2575 Rain 19 1015 88 10000 0.51 0 00:32 22.08.2021
2576 Clear 21 1015 76 10000 1.03 0 22:35 21.08.2021
2577 Clear 23 1016 71 10000 0.51 0 20:56 21.08.2021
2578 Clear 26 1016 57 10000 1.54 110 18:46 21.08.2021
2579 Clouds 26 1016 54 10000 2.06 110 17:59 21.08.2021
2580 Clouds 26 1017 50 10000 2.06 130 16:56 21.08.2021
2581 Clouds 26 1017 50 10000 2.57 110 16:29 21.08.2021
2582 Clouds 26 1017 53 10000 3.09 120 15:37 21.08.2021
2583 Clouds 26 1017 52 10000 2.57 120 14:54 21.08.2021
2584 Clouds 25 1018 58 10000 2.57 130 13:34 21.08.2021
2585 Clouds 24 1018 62 10000 2.57 130 12:38 21.08.2021
2586 Clear 17 1019 92 10000 1.03 0 09:32 21.08.2021
2587 Clear 13 1018 95 10000 1.03 0 06:20 21.08.2021
2588 Clear 16 1019 89 10000 0.51 0 23:50 20.08.2021
2589 Clouds 19 1018 81 10000 0.65 238 21:54 20.08.2021
2590 Clouds 22 1017 66 10000 4.12 300 18:31 20.08.2021
2591 Clouds 22 1017 66 10000 2.57 240 16:29 20.08.2021
2592 Clouds 21 1017 76 10000 1.03 0 13:54 20.08.2021
2593 Clouds 19 1017 78 10000 1.03 0 11:51 20.08.2021
2594 Clouds 19 1017 77 10000 1.03 0 11:25 20.08.2021
2595 Clouds 18 1017 84 10000 2.06 180 09:43 20.08.2021
2596 Clouds 17 1017 86 10000 1.54 180 08:54 20.08.2021
2597 Clouds 16 1017 86 10000 1.54 180 08:35 20.08.2021
2598 Clouds 15 1016 91 10000 2.57 230 04:36 20.08.2021
2599 Clouds 15 1016 89 10000 2.57 230 04:18 20.08.2021
2600 Clouds 17 1015 87 10000 2.57 160 23:26 19.08.2021
2601 Clouds 17 1015 86 10000 2.06 150 22:37 19.08.2021
2602 Clouds 18 1015 82 10000 2.06 190 21:33 19.08.2021
2603 Clouds 18 1015 76 10000 4.63 290 19:55 19.08.2021
2604 Clouds 20 1015 73 10000 4.12 280 17:29 19.08.2021
2605 Clouds 20 1015 71 10000 4.12 270 16:41 19.08.2021
2606 Clouds 20 1015 76 10000 6.17 270 14:25 19.08.2021
2607 Clouds 19 1015 80 10000 3.09 280 12:40 19.08.2021
2608 Clouds 19 1015 79 10000 3.09 280 12:18 19.08.2021
2609 Clouds 18 1015 85 10000 4.63 250 10:47 19.08.2021
2610 Clouds 18 1015 85 10000 4.63 250 10:47 19.08.2021
2611 Clouds 17 1014 88 10000 4.12 250 09:48 19.08.2021
2612 Clouds 17 1014 88 10000 4.12 260 09:26 19.08.2021
2613 Clouds 17 1014 89 10000 3.09 240 08:24 19.08.2021
2614 Clouds 17 1014 89 10000 3.09 230 03:34 19.08.2021
2615 Drizzle 17 1015 88 10000 3.09 220 01:58 19.08.2021
2616 Drizzle 17 1015 88 10000 3.09 220 01:58 19.08.2021
2617 Clouds 17 1015 84 10000 2.57 220 23:21 18.08.2021
2618 Clouds 17 1015 82 10000 4.12 240 22:25 18.08.2021
2619 Clouds 18 1015 78 10000 4.63 250 20:41 18.08.2021
2620 Clouds 18 1015 78 10000 3.09 250 20:20 18.08.2021
2621 Clouds 19 1015 75 10000 5.14 240 18:58 18.08.2021
2622 Clouds 19 1015 76 10000 4.63 250 18:33 18.08.2021
2623 Clouds 19 1016 81 10000 4.63 240 16:52 18.08.2021
2624 Clouds 19 1016 79 10000 2.06 280 15:40 18.08.2021
2625 Clouds 19 1016 82 10000 2.06 310 15:21 18.08.2021
2626 Clouds 17 1017 91 10000 2.06 290 12:50 18.08.2021
2627 Clouds 17 1017 92 4000 3.09 270 12:27 18.08.2021
2628 Drizzle 17 1017 90 7000 3.09 230 11:37 18.08.2021
2629 Clouds 15 1016 95 10000 2.06 310 07:53 18.08.2021
2630 Drizzle 14 1017 94 10000 3.09 250 01:29 18.08.2021
2631 Clouds 14 1017 93 10000 3.34 260 22:39 17.08.2021
2632 Drizzle 14 1017 95 6000 2.57 180 21:46 17.08.2021
2633 Drizzle 14 1017 94 10000 2.06 150 21:22 17.08.2021
2634 Clouds 14 1017 89 10000 3.6 230 19:20 17.08.2021
2635 Rain 14 1018 88 10000 6.17 270 17:47 17.08.2021
2636 Rain 14 1018 86 10000 6.69 280 17:25 17.08.2021
2637 Rain 16 1018 70 10000 6.17 260 15:44 17.08.2021
2638 Rain 17 1018 70 10000 6.17 280 14:47 17.08.2021
2639 Clouds 17 1019 70 10000 9.77 260 12:44 17.08.2021
2640 Clouds 15 1019 87 10000 5.14 240 09:42 17.08.2021
2641 Clouds 14 1019 89 10000 2.57 230 09:18 17.08.2021
2642 Clouds 12 1018 90 10000 3.09 240 07:24 17.08.2021
2643 Clouds 13 1018 89 10000 6.17 270 23:25 16.08.2021
2644 Clouds 13 1017 89 10000 7.2 260 22:54 16.08.2021
2645 Clouds 13 1017 89 10000 5.66 260 22:35 16.08.2021
2646 Clouds 13 1017 89 10000 5.66 260 21:47 16.08.2021
2647 Clouds 14 1016 89 10000 5.66 270 20:52 16.08.2021
2648 Clouds 14 1015 90 10000 6.17 290 19:29 16.08.2021
2649 Rain 14 1015 86 10000 6.17 300 18:46 16.08.2021
2650 Clouds 15 1014 83 10000 8.75 300 17:55 16.08.2021
2651 Clouds 16 1013 85 10000 6.17 260 16:51 16.08.2021
2652 Drizzle 16 1013 92 5000 9.26 280 15:26 16.08.2021
2653 Rain 17 1012 85 10000 8.23 300 14:21 16.08.2021
2654 Rain 19 1011 71 10000 8.75 260 13:21 16.08.2021
2655 Clouds 20 1011 65 10000 8.23 260 12:28 16.08.2021
2656 Clouds 19 1011 73 10000 6.69 230 10:36 16.08.2021
2657 Clouds 17 1011 79 10000 6.69 240 08:43 16.08.2021
2658 Clouds 16 1011 79 10000 5.66 240 07:30 16.08.2021
2659 Clouds 16 1011 75 10000 4.63 240 06:21 16.08.2021
2660 Clear 19 1011 76 10000 4.63 320 01:28 16.08.2021
2661 Clouds 23 1010 63 10000 1.54 140 21:37 15.08.2021
2662 Clear 26 1011 53 10000 2.06 220 20:27 15.08.2021
2663 Clear 27 1011 47 10000 3.09 260 18:42 15.08.2021
2664 Clear 28 1012 44 10000 4.12 310 17:50 15.08.2021
2665 Clear 28 1012 43 10000 4.63 270 17:23 15.08.2021
2666 Clear 28 1013 43 10000 3.09 290 15:58 15.08.2021
2667 Clear 27 1014 47 10000 3.6 310 14:42 15.08.2021
2668 Clear 26 1014 53 10000 1.54 260 13:38 15.08.2021
2669 Clear 23 1015 70 10000 2.06 150 10:54 15.08.2021
2670 Clear 18 1016 80 10000 1.54 130 08:45 15.08.2021
2671 Clear 16 1019 86 10000 1.03 60 01:23 15.08.2021
2672 Clear 17 1019 83 10000 1.03 60 00:35 15.08.2021
2673 Clear 21 1019 68 10000 1.03 40 21:40 14.08.2021
2674 Clear 23 1019 55 10000 2.57 340 20:29 14.08.2021
2675 Clear 24 1019 51 10000 3.09 330 19:43 14.08.2021
2676 Clear 26 1019 45 10000 4.12 340 18:38 14.08.2021
2677 Clear 26 1019 43 10000 4.63 320 16:51 14.08.2021
2678 Clear 26 1020 43 10000 4.12 310 15:37 14.08.2021
2679 Clear 25 1020 46 10000 2.06 280 14:24 14.08.2021
2680 Clouds 23 1021 60 10000 2.06 250 11:57 14.08.2021
2681 Clear 20 1022 75 10000 1.54 0 10:26 14.08.2021
2682 Clear 14 1022 95 10000 0.51 0 07:39 14.08.2021
2683 Clear 17 1022 83 10000 1.03 0 23:53 13.08.2021
2684 Clear 19 1022 75 10000 1.03 0 22:18 13.08.2021
2685 Clear 19 1022 75 10000 1.03 0 22:18 13.08.2021
2686 Clear 23 1021 66 10000 3.09 330 20:27 13.08.2021
2687 Clear 25 1021 57 10000 6.17 300 18:47 13.08.2021
2688 Clouds 25 1022 56 10000 5.66 300 17:42 13.08.2021
2689 Clouds 25 1022 57 10000 5.66 280 16:19 13.08.2021
2690 Clouds 23 1022 75 10000 4.63 310 12:18 13.08.2021
2691 Clear 22 1021 76 10000 3.6 280 11:19 13.08.2021
2692 Clear 21 1021 79 10000 1.03 0 09:40 13.08.2021
2693 Clear 19 1020 87 10000 1.03 0 08:36 13.08.2021
2694 Clouds 17 1019 92 10000 1.03 0 07:18 13.08.2021
2695 Clear 17 1020 91 10000 1.03 0 04:59 13.08.2021
2696 Clear 21 1020 78 10000 1.03 0 22:56 12.08.2021
2697 Clear 23 1019 70 10000 2.57 60 21:20 12.08.2021
2698 Clear 25 1018 61 10000 2.06 80 20:22 12.08.2021
2699 Clear 25 1018 56 10000 1.54 50 19:42 12.08.2021
2700 Clouds 27 1019 52 10000 1.54 70 17:51 12.08.2021
2701 Clear 27 1019 47 10000 1.54 0 16:29 12.08.2021
2702 Clear 27 1019 48 10000 1.54 0 16:29 12.08.2021
2703 Clear 27 1019 48 10000 1.54 0 16:29 12.08.2021
2704 Clear 26 1020 54 10000 0.51 0 14:52 12.08.2021
2705 Clouds 24 1020 57 10000 1.03 0 12:59 12.08.2021
2706 Clear 22 1020 78 10000 1.03 0 10:49 12.08.2021
2707 Clear 16 1020 93 10000 1.03 0 07:56 12.08.2021
2708 Clouds 16 1020 91 10000 1.54 60 01:52 12.08.2021
2709 Clouds 19 1020 84 10000 1.54 60 22:54 11.08.2021
2710 Clouds 22 1019 75 10000 1.03 50 20:45 11.08.2021
2711 Clouds 25 1019 57 10000 1.54 30 18:29 11.08.2021
2712 Clouds 25 1019 59 10000 1.54 30 16:30 11.08.2021
2713 Clouds 24 1020 60 10000 1.54 0 15:20 11.08.2021
2714 Clouds 24 1020 63 10000 1.03 0 14:22 11.08.2021
2715 Clouds 23 1020 64 10000 1.03 0 14:22 11.08.2021
2716 Clouds 22 1020 73 10000 1.54 250 12:31 11.08.2021
2717 Clouds 21 1020 75 10000 1.54 0 11:47 11.08.2021
2718 Clouds 20 1020 80 10000 1.54 0 11:22 11.08.2021
2719 Clouds 19 1020 87 10000 1.54 120 10:20 11.08.2021
2720 Fog 15 1019 96 4000 1.03 0 08:31 11.08.2021
2721 Clouds 17 1018 94 10000 1.03 0 00:33 11.08.2021
2722 Clouds 17 1018 94 10000 1.54 150 22:32 10.08.2021
2723 Clouds 18 1017 93 10000 1.54 340 21:33 10.08.2021
2724 Rain 18 1016 89 10000 2.06 10 20:36 10.08.2021
2725 Thunderstorm 20 1016 81 8000 3.09 190 18:59 10.08.2021
2726 Clouds 23 1016 59 10000 3.6 300 16:49 10.08.2021
2727 Clouds 23 1016 65 10000 2.06 290 15:22 10.08.2021
2728 Clouds 21 1017 82 10000 1.03 0 13:29 10.08.2021
2729 Clouds 19 1017 83 10000 2.06 210 10:47 10.08.2021
2730 Clouds 15 1017 94 10000 3.09 150 07:42 10.08.2021
2731 Clear 14 1017 93 10000 1.54 60 04:59 10.08.2021
2732 Rain 15 1017 88 10000 0.51 0 23:59 09.08.2021
2733 Clear 15 1017 89 10000 1.03 0 22:33 09.08.2021
2734 Clear 15 1017 89 10000 3.09 90 21:38 09.08.2021
2735 Clouds 16 1017 82 10000 4.12 10 20:19 09.08.2021
2736 Clouds 20 1017 74 10000 1.03 0 17:57 09.08.2021
2737 Rain 21 1017 52 10000 5.66 220 15:35 09.08.2021
2738 Clouds 21 1017 53 10000 7.2 220 14:36 09.08.2021
2739 Clouds 21 1017 56 10000 6.69 220 13:29 09.08.2021
2740 Clouds 20 1016 65 10000 6.69 210 11:47 09.08.2021
2741 Clear 16 1016 80 10000 3.6 170 09:27 09.08.2021
2742 Clear 15 1016 82 10000 3.09 140 07:59 09.08.2021
2743 Clouds 16 1014 75 10000 3.09 200 21:32 08.08.2021
2744 Clouds 18 1013 62 10000 3.6 250 20:36 08.08.2021
2745 Clouds 19 1012 64 10000 3.6 180 17:35 08.08.2021
2746 Clouds 19 1011 70 10000 6.17 240 15:46 08.08.2021
2747 Clouds 21 1011 56 10000 5.66 210 14:34 08.08.2021
2748 Clouds 19 1011 58 10000 7.2 240 12:46 08.08.2021
2749 Clouds 18 1009 67 10000 6.17 220 10:36 08.08.2021
2750 Clouds 15 1007 78 10000 3.09 180 06:41 08.08.2021
2751 Clear 16 1005 82 10000 4.12 150 00:53 08.08.2021
2752 Clear 16 1004 82 10000 2.06 130 00:24 08.08.2021
2753 Clouds 18 1003 82 10000 4.12 150 21:47 07.08.2021
2754 Clouds 18 1003 82 10000 4.12 150 21:47 07.08.2021
2755 Clouds 18 1003 82 10000 4.12 150 21:47 07.08.2021
2756 Rain 18 1003 80 10000 5.14 160 21:19 07.08.2021
2757 Clear 22 1002 54 10000 4.12 170 18:22 07.08.2021
2758 Clouds 23 1002 48 10000 5.14 190 16:52 07.08.2021
2759 Clouds 23 1002 56 10000 3.6 200 15:37 07.08.2021
2760 Clouds 20 1003 71 10000 4.93 211 13:53 07.08.2021
2761 Clouds 20 1004 69 10000 4.63 180 11:37 07.08.2021
2762 Clouds 16 1005 85 10000 1.54 130 07:52 07.08.2021
2763 Clouds 15 1005 85 10000 3.6 0 04:45 07.08.2021
2764 Clouds 17 1006 79 10000 2.06 180 23:21 06.08.2021
2765 Clouds 19 1006 69 10000 4.12 210 20:39 06.08.2021
2766 Clouds 20 1005 66 10000 5.14 210 20:18 06.08.2021
2767 Clouds 20 1005 65 10000 6.69 210 19:45 06.08.2021
2768 Clouds 22 1005 59 10000 6.17 220 17:51 06.08.2021
2769 Clouds 20 1004 79 10000 1.54 150 13:33 06.08.2021
2770 Clouds 18 1001 93 10000 4.63 160 09:57 06.08.2021
2771 Clouds 17 1000 95 10000 0.45 356 08:38 06.08.2021
2772 Clouds 18 1005 88 10000 2.57 130 00:35 06.08.2021
2773 Clouds 18 1006 83 10000 3.09 130 23:18 05.08.2021
2774 Clouds 20 1003 70 10000 2.57 120 21:30 05.08.2021
2775 Clouds 22 1006 62 10000 3.6 140 19:53 05.08.2021
2776 Clouds 23 1004 64 10000 0.45 300 18:26 05.08.2021
2777 Clouds 24 1008 54 10000 1.54 0 15:44 05.08.2021
2778 Clouds 22 1009 64 10000 1.54 0 12:49 05.08.2021
2779 Clouds 17 1006 90 10000 0.45 287 08:52 05.08.2021
2780 Clear 16 1007 93 10000 1.03 0 08:19 05.08.2021
2781 Clouds 16 1012 92 10000 1.07 138 02:51 05.08.2021
2782 Clear 17 1012 92 10000 1.03 0 22:41 04.08.2021
2783 Clouds 18 1012 85 10000 2.57 10 21:26 04.08.2021
2784 Clouds 21 1011 65 10000 1.54 130 19:37 04.08.2021
2785 Clouds 22 1009 54 10000 2.06 350 17:23 04.08.2021
2786 Clouds 22 1013 58 10000 2.06 270 14:46 04.08.2021
2787 Clouds 20 1014 73 10000 2.06 40 12:23 04.08.2021
2788 Mist 13 1011 96 4600 2.06 170 07:49 04.08.2021
2789 Clouds 17 1009 90 10000 1.03 0 21:18 03.08.2021
2790 Clouds 17 1009 89 10000 1.03 0 20:29 03.08.2021
2791 Rain 18 1009 85 10000 3.09 140 18:47 03.08.2021
2792 Rain 18 1010 85 10000 1.03 0 16:59 03.08.2021
2793 Clouds 18 1010 88 10000 0.89 273 13:57 03.08.2021
2794 Clouds 16 1011 88 10000 1.03 0 10:58 03.08.2021
2795 Clouds 15 1011 86 10000 1.54 80 09:50 03.08.2021
2796 Clear 14 1010 81 10000 0.78 234 22:58 02.08.2021
2797 Clouds 19 1014 62 10000 3.09 320 16:40 02.08.2021
2798 Clouds 19 1014 70 10000 3.09 330 15:35 02.08.2021
2799 Clouds 17 1014 79 10000 2.57 310 12:40 02.08.2021
2800 Clouds 17 1011 85 10000 2.57 350 11:57 02.08.2021
2801 Clouds 16 1014 90 8000 2.06 250 10:26 02.08.2021
2802 Clouds 15 1013 91 10000 2.06 200 07:40 02.08.2021
2803 Clouds 19 1008 78 10000 0.45 270 19:33 01.08.2021
2804 Rain 19 1006 83 10000 4.49 281 17:45 01.08.2021
2805 Clouds 19 1010 68 10000 3.6 260 11:39 01.08.2021
2806 Clouds 18 1010 72 10000 2.06 240 10:56 01.08.2021
2807 Clouds 15 1010 93 10000 1.03 0 03:49 01.08.2021
2808 Clouds 16 1010 85 10000 1.54 150 00:34 01.08.2021
2809 Clear 17 1010 75 10000 2.57 200 22:36 31.07.2021
2810 Clouds 21 1009 59 10000 2.57 260 19:28 31.07.2021
2811 Clouds 21 1010 57 10000 5.66 280 16:37 31.07.2021
2812 Clouds 21 1007 56 10000 5.66 220 15:27 31.07.2021
2813 Clouds 19 1009 68 10000 7.72 250 10:59 31.07.2021
2814 Clouds 17 1008 68 10000 6.17 230 03:31 31.07.2021
2815 Clouds 18 1008 75 10000 2.06 240 22:27 30.07.2021
2816 Clear 21 1006 53 10000 7.2 210 20:23 30.07.2021
2817 Clear 25 1008 45 10000 5.66 200 14:19 30.07.2021
2818 Clear 21 1012 51 10000 6.69 250 19:57 29.07.2021
2819 Clouds 16 1009 81 10000 3.6 220 08:18 29.07.2021
2820 Clouds 16 1009 84 10000 3.6 270 04:51 29.07.2021
2821 Clouds 19 1012 63 10000 3.6 220 22:38 28.07.2021
2822 Clear 23 1008 48 10000 0.45 122 17:53 28.07.2021
2823 Clouds 23 1011 53 10000 7.72 240 16:54 28.07.2021
2824 Clouds 18 1011 83 10000 4.63 140 09:42 28.07.2021
2825 Clear 17 1009 94 10000 1.54 110 23:50 27.07.2021
2826 Clouds 17 1012 92 10000 2.06 130 21:33 27.07.2021
2827 Clouds 24 1011 54 10000 5.14 230 14:54 27.07.2021
2828 Clouds 25 1012 55 10000 3.6 230 14:30 27.07.2021
2829 Clouds 20 1010 77 10000 2.57 190 10:20 27.07.2021
2830 Clouds 18 1012 91 10000 2.06 170 01:53 27.07.2021
2831 Clouds 25 1010 52 10000 4.63 200 15:34 26.07.2021
2832 Clouds 21 1011 73 10000 4.63 210 10:38 26.07.2021
2833 Clouds 22 1009 73 10000 3.6 150 20:58 25.07.2021
2834 Clouds 23 1008 67 10000 4.12 140 20:37 25.07.2021
2835 Clouds 26 1005 48 10000 0.45 107 17:22 25.07.2021
2836 Clouds 25 1009 60 10000 1.03 0 13:33 25.07.2021
2837 Clear 18 1006 94 10000 3.6 130 08:21 25.07.2021
2838 Clear 17 1006 95 10000 2.57 120 07:52 25.07.2021
2839 Clear 20 1008 92 10000 2.06 140 20:22 24.07.2021
2840 Clouds 20 1008 91 10000 2.06 110 19:36 24.07.2021
2841 Clear 20 1009 69 10000 2.57 150 09:49 24.07.2021
2842 Clear 27 1015 43 10000 1.03 0 17:35 23.07.2021
2843 Clouds 25 1016 51 10000 1.54 0 14:35 23.07.2021
2844 Clouds 23 1017 60 10000 2.06 0 12:40 23.07.2021
2845 Clear 19 1019 76 10000 2.06 360 22:50 22.07.2021
2846 Clear 25 1021 48 10000 1.54 0 14:58 22.07.2021
2847 Clouds 23 1022 63 10000 1.03 0 11:19 22.07.2021
2848 Clear 17 1020 82 10000 1.03 0 08:26 22.07.2021
2849 Clear 19 1022 65 10000 1.54 40 22:33 21.07.2021
2850 Clear 21 1022 61 10000 2.57 20 21:34 21.07.2021
2851 Clear 24 1022 47 10000 2.57 350 19:27 21.07.2021
2852 Clear 21 1023 53 10000 2.06 70 10:37 21.07.2021
2853 Clear 18 1021 69 10000 1.03 0 09:19 21.07.2021
2854 Clear 18 1021 69 10000 1.03 0 09:19 21.07.2021
2855 Clear 12 1022 89 10000 0.51 0 05:41 21.07.2021
2856 Clear 19 1021 62 10000 2.06 20 21:47 20.07.2021
2857 Clouds 23 1020 49 10000 2.57 360 16:36 20.07.2021
2858 Clouds 23 1020 52 10000 1.54 340 15:27 20.07.2021
2859 Clouds 19 1021 70 10000 1.03 0 11:22 20.07.2021
2860 Clear 14 1017 93 10000 0.51 0 07:45 20.07.2021
2861 Clear 13 1020 91 10000 1.03 0 03:19 20.07.2021
2862 Clouds 22 1020 61 10000 2.57 340 18:37 19.07.2021
2863 Clouds 20 1022 65 10000 3.6 360 12:50 19.07.2021
2864 Clouds 16 1019 90 10000 1.03 0 07:29 19.07.2021
2865 Clear 27 1021 51 10000 5.14 330 17:21 18.07.2021
2866 Clouds 22 1024 72 10000 2.06 310 10:53 18.07.2021
2867 Clear 19 1024 71 10000 2.57 360 23:36 17.07.2021
2868 Clear 21 1023 67 10000 2.57 340 22:18 17.07.2021
2869 Clouds 22 1023 60 10000 3.6 340 21:41 17.07.2021
2870 Clouds 27 1020 50 10000 0.45 286 17:32 17.07.2021
2871 Clouds 19 1022 79 10000 3.6 340 11:31 17.07.2021
2872 Clouds 17 1024 89 10000 1.54 350 04:48 17.07.2021
2873 Clouds 20 1020 69 10000 4.12 340 17:41 16.07.2021
2874 Clouds 18 1022 82 10000 4.12 340 13:19 16.07.2021
2875 Clouds 17 1017 89 10000 0.45 94 07:25 16.07.2021
2876 Clouds 19 1017 89 10000 4.12 330 22:52 15.07.2021
2877 Clouds 22 1011 70 10000 1.03 0 13:51 15.07.2021
2878 Clouds 18 1012 89 10000 0.51 0 09:52 15.07.2021
2879 Clouds 17 1007 97 10000 2.06 90 00:32 15.07.2021
2880 Rain 18 1005 98 3500 3.09 140 16:57 14.07.2021
2881 Rain 18 1006 97 6000 1.03 0 13:50 14.07.2021
2882 Rain 18 1006 96 10000 1.03 50 05:45 14.07.2021
2883 Clouds 21 1008 86 10000 2.06 360 21:22 13.07.2021
2884 Clouds 21 1008 80 10000 3.09 20 19:54 13.07.2021
2885 Clouds 22 1008 79 10000 3.09 10 19:27 13.07.2021
2886 Clouds 22 1008 79 10000 3.09 10 19:27 13.07.2021
2887 Clouds 21 1008 80 10000 3.09 50 18:45 13.07.2021
2888 Clouds 21 1008 83 10000 2.06 350 18:25 13.07.2021
2889 Clouds 22 1008 84 10000 1.54 340 17:40 13.07.2021
2890 Clouds 22 1008 84 10000 1.54 340 17:40 13.07.2021
2891 Clouds 18 1006 96 7000 3.6 330 09:51 13.07.2021
2892 Rain 18 1006 96 3500 2.57 350 07:44 13.07.2021
2893 Clouds 23 1009 53 10000 3.6 150 19:59 12.07.2021
2894 Clouds 24 1010 59 10000 2.57 130 16:45 12.07.2021
2895 Clear 21 1012 76 10000 2.57 110 09:58 12.07.2021
2896 Clouds 20 1015 82 10000 0.51 0 21:59 11.07.2021
2897 Clouds 23 1012 52 10000 1.54 70 19:48 11.07.2021
2898 Clouds 16 1013 97 10000 0.51 0 04:42 11.07.2021
2899 Rain 16 1013 91 10000 6.69 270 22:30 10.07.2021
2900 Clouds 21 1018 73 10000 2.06 140 11:37 10.07.2021
2901 Clear 16 1016 95 10000 1.03 50 07:24 10.07.2021
2902 Clouds 17 1021 89 10000 1.03 0 22:39 09.07.2021
2903 Clouds 22 1020 71 10000 3.6 70 18:20 09.07.2021
2904 Clouds 22 1021 70 10000 3.6 290 14:48 09.07.2021
2905 Clouds 17 1018 96 6000 2.57 320 07:36 09.07.2021
2906 Clear 17 1018 95 10000 1.54 130 23:49 08.07.2021
2907 Clear 17 1018 95 10000 2.57 240 22:30 08.07.2021
2908 Rain 18 1018 91 10000 1.54 60 18:56 08.07.2021
2909 Rain 19 1018 86 10000 2.57 190 17:37 08.07.2021
2910 Clouds 23 1020 61 10000 1.03 0 13:31 08.07.2021
2911 Clouds 23 1020 64 10000 2.57 340 12:41 08.07.2021
2912 Clouds 22 1020 67 10000 1.54 310 11:30 08.07.2021
2913 Clear 20 1017 73 10000 1.54 160 09:51 08.07.2021
2914 Clear 15 1016 90 10000 0.51 0 04:42 08.07.2021
2915 Clear 17 1019 81 10000 0.51 0 00:34 08.07.2021
2916 Clear 20 1018 71 10000 1.54 50 22:27 07.07.2021
2917 Clouds 21 1017 63 10000 1.54 40 21:55 07.07.2021
2918 Clouds 21 1017 60 10000 2.57 320 21:37 07.07.2021
2919 Clouds 21 1017 60 10000 2.57 320 21:18 07.07.2021
2920 Clouds 23 1016 52 10000 1.54 180 19:56 07.07.2021
2921 Clouds 23 1013 54 10000 1.03 70 19:28 07.07.2021
2922 Clouds 24 1016 52 10000 2.57 240 17:36 07.07.2021
2923 Clear 24 1016 47 10000 4.12 230 15:30 07.07.2021
2924 Clouds 23 1015 56 10000 5.14 210 12:25 07.07.2021
2925 Clear 16 1011 85 10000 0.45 242 07:56 07.07.2021
2926 Clear 15 1011 88 10000 2.57 120 06:43 07.07.2021
2927 Clouds 14 1010 88 10000 1.54 90 05:42 07.07.2021
2928 Clear 19 1010 56 10000 3.6 210 21:29 06.07.2021
2929 Clouds 21 1010 51 10000 5.66 220 19:30 06.07.2021
2930 Clouds 22 1009 52 10000 6.69 200 18:47 06.07.2021
2931 Clouds 22 1009 52 10000 6.17 200 18:27 06.07.2021
2932 Clouds 23 1007 60 10000 7.72 210 13:46 06.07.2021
2933 Clouds 20 1004 81 10000 0.89 92 12:34 06.07.2021
2934 Rain 18 1002 96 10000 0.45 67 09:41 06.07.2021
2935 Rain 18 1004 93 10000 3.6 150 08:34 06.07.2021
2936 Rain 18 1005 86 10000 6.17 130 06:45 06.07.2021
2937 Clouds 18 1007 89 10000 3.6 140 01:41 06.07.2021
2938 Clouds 19 1005 91 10000 3.6 150 22:43 05.07.2021
2939 Clouds 20 1008 80 10000 4.12 130 18:52 05.07.2021
2940 Clouds 19 1009 64 10000 3.09 160 15:45 05.07.2021
2941 Rain 15 1007 96 10000 5.66 280 07:26 05.07.2021
2942 Clouds 16 1006 96 10000 2.06 120 05:46 05.07.2021
2943 Clouds 15 1006 96 10000 1.54 110 04:40 05.07.2021
2944 Clear 16 1008 94 10000 2.06 120 23:19 04.07.2021
2945 Clouds 18 1007 88 10000 2.06 150 19:55 04.07.2021
2946 Rain 16 1010 100 9000 5.66 310 16:51 04.07.2021
2947 Clouds 22 1004 75 6189 2.55 192 13:27 04.07.2021
2948 Clouds 21 1011 77 10000 1.54 120 09:25 04.07.2021
2949 Rain 19 1008 90 10000 2.77 312 23:34 03.07.2021
2950 Clouds 20 1008 89 10000 2.77 312 22:40 03.07.2021
2951 Clear 27 1014 45 10000 2.06 0 15:41 03.07.2021
2952 Clouds 26 1015 50 10000 2.57 180 12:39 03.07.2021
2953 Clear 21 1013 68 10000 2.57 120 09:41 03.07.2021
2954 Clear 20 1014 69 10000 2.57 140 09:20 03.07.2021
2955 Clear 18 1013 75 10000 1.54 120 08:44 03.07.2021
2956 Clouds 23 1015 57 10000 0.45 90 18:50 02.07.2021
2957 Clouds 13 1014 97 10000 1.03 0 07:42 02.07.2021
2958 Clouds 12 1014 97 10000 1.03 0 06:40 02.07.2021
2959 Clouds 14 1015 95 8000 1.03 0 23:37 01.07.2021
2960 Drizzle 14 1017 94 8000 1.54 340 22:30 01.07.2021
2961 Drizzle 14 1017 94 8000 1.54 340 22:30 01.07.2021
2962 Drizzle 14 1017 94 8000 1.54 340 22:30 01.07.2021
2963 Drizzle 14 1017 92 8000 2.57 290 21:34 01.07.2021
2964 Clouds 14 1017 90 10000 4.12 280 19:38 01.07.2021
2965 Clouds 14 1017 90 10000 4.12 270 19:18 01.07.2021
2966 Clouds 15 1017 91 10000 4.12 260 18:46 01.07.2021
2967 Clouds 15 1017 90 9000 4.63 250 17:33 01.07.2021
2968 Clouds 15 1016 84 10000 5.66 290 15:51 01.07.2021
2969 Clouds 15 1016 83 10000 6.17 280 15:22 01.07.2021
2970 Clouds 15 1015 83 10000 6.69 280 11:48 01.07.2021
2971 Clouds 14 1015 88 10000 5.66 280 09:34 01.07.2021
2972 Drizzle 15 1014 93 10000 5.66 310 23:26 30.06.2021
2973 Clouds 15 1013 92 10000 4.12 270 22:26 30.06.2021
2974 Clouds 15 1013 92 8000 4.12 290 21:56 30.06.2021
2975 Clouds 16 1013 84 10000 5.66 280 20:59 30.06.2021
2976 Clouds 16 1012 82 10000 6.17 280 20:20 30.06.2021
2977 Clouds 17 1012 72 10000 5.66 280 16:45 30.06.2021
2978 Clouds 18 1011 75 10000 5.14 270 13:25 30.06.2021
2979 Clouds 17 1011 90 10000 3.09 210 10:27 30.06.2021
2980 Rain 16 1011 95 10000 4.63 260 00:31 30.06.2021
2981 Rain 18 1011 89 10000 2.57 180 19:47 29.06.2021
2982 Clouds 23 1010 58 10000 3.09 330 17:47 29.06.2021
2983 Clouds 24 1010 57 10000 3.6 310 17:28 29.06.2021
2984 Clouds 25 1010 54 10000 3.09 330 15:51 29.06.2021
2985 Clouds 25 1010 54 10000 3.09 330 15:51 29.06.2021
2986 Clouds 25 1010 54 10000 3.09 330 15:51 29.06.2021
2987 Clouds 25 1011 55 10000 2.06 0 14:55 29.06.2021
2988 Clouds 24 1011 63 10000 1.54 0 13:26 29.06.2021
2989 Clouds 18 1012 88 10000 2.06 160 05:25 29.06.2021
2990 Rain 21 1013 77 10000 1.54 40 23:26 28.06.2021
2991 Clouds 23 1013 68 10000 3.09 320 21:31 28.06.2021
2992 Clouds 26 1012 50 10000 5.66 300 18:44 28.06.2021
2993 Clouds 28 1013 51 10000 7.72 230 17:20 28.06.2021
2994 Clouds 28 1013 57 10000 2.57 100 14:32 28.06.2021
2995 Clear 26 1014 60 10000 4.63 150 12:24 28.06.2021
2996 Clouds 19 1015 89 10000 2.06 40 23:55 27.06.2021
2997 Rain 19 1014 85 10000 1.54 330 22:51 27.06.2021
2998 Clear 21 1013 69 10000 1.54 100 19:45 27.06.2021
2999 Rain 21 1014 77 10000 1.75 145 18:56 27.06.2021
3000 Clear 28 1014 46 10000 5.14 130 15:40 27.06.2021
3001 Clear 25 1016 57 10000 3.09 110 11:23 27.06.2021
3002 Clear 17 1017 79 10000 0.51 0 01:38 27.06.2021
3003 Clear 21 1017 63 10000 1.03 80 22:36 26.06.2021
3004 Clear 24 1017 49 10000 1.03 70 20:55 26.06.2021
3005 Clear 25 1016 43 10000 1.03 0 20:35 26.06.2021
3006 Clear 26 1017 40 10000 1.54 220 16:33 26.06.2021
3007 Clear 25 1018 44 10000 2.06 0 14:48 26.06.2021
3008 Clouds 24 1019 49 10000 2.06 0 12:27 26.06.2021
3009 Clear 15 1019 82 10000 1.54 100 07:46 26.06.2021
3010 Clear 17 1018 68 10000 2.06 360 23:29 25.06.2021
3011 Clear 21 1017 54 10000 1.54 110 20:39 25.06.2021
3012 Clear 23 1017 41 10000 2.57 340 19:31 25.06.2021
3013 Clear 24 1017 41 10000 1.54 0 17:43 25.06.2021
3014 Clear 24 1017 37 10000 3.09 220 16:43 25.06.2021
3015 Clear 22 1018 45 10000 2.06 0 14:22 25.06.2021
3016 Clouds 20 1019 57 10000 4.63 280 10:49 25.06.2021
3017 Clouds 15 1019 90 9000 0.51 0 07:58 25.06.2021
3018 Clouds 14 1019 90 9000 0.51 0 07:19 25.06.2021
3019 Clear 14 1019 85 10000 1.54 330 03:46 25.06.2021
3020 Clouds 18 1018 75 10000 2.57 360 21:49 24.06.2021
3021 Clouds 19 1018 74 10000 2.06 340 20:59 24.06.2021
3022 Clouds 19 1018 64 10000 3.6 10 20:39 24.06.2021
3023 Clouds 20 1018 68 10000 2.57 160 18:43 24.06.2021
3024 Clouds 20 1018 73 10000 2.57 350 15:29 24.06.2021
3025 Clouds 20 1018 71 10000 2.57 10 14:55 24.06.2021
3026 Clouds 20 1018 68 10000 4.12 30 14:25 24.06.2021
3027 Clouds 17 1019 82 10000 2.06 310 10:57 24.06.2021
3028 Clouds 16 1019 86 10000 1.54 310 09:27 24.06.2021
3029 Clouds 15 1019 90 10000 1.54 340 08:22 24.06.2021
3030 Clouds 15 1020 90 10000 0.51 0 02:50 24.06.2021
3031 Clouds 17 1019 79 10000 2.57 350 22:36 23.06.2021
3032 Clouds 18 1019 75 10000 2.57 350 21:44 23.06.2021
3033 Clouds 19 1019 69 10000 2.57 350 20:38 23.06.2021
3034 Clouds 20 1019 65 10000 4.12 320 18:35 23.06.2021
3035 Clouds 20 1020 68 10000 3.09 310 17:32 23.06.2021
3036 Clouds 19 1020 74 10000 3.6 320 15:47 23.06.2021
3037 Clouds 18 1020 71 10000 2.06 280 12:58 23.06.2021
3038 Clouds 16 1020 84 10000 2.06 310 11:59 23.06.2021
3039 Clouds 15 1020 89 10000 3.09 320 09:55 23.06.2021
3040 Clouds 15 1019 94 7000 1.54 310 08:49 23.06.2021
3041 Mist 14 1019 93 5000 2.06 320 07:52 23.06.2021
3042 Mist 14 1019 94 4500 1.03 0 06:58 23.06.2021
3043 Clouds 14 1018 94 10000 1.54 340 04:34 23.06.2021
3044 Clouds 14 1018 95 10000 2.57 330 00:44 23.06.2021
3045 Clouds 14 1018 95 10000 1.54 310 23:56 22.06.2021
3046 Clouds 14 1017 94 10000 1.54 30 22:46 22.06.2021
3047 Clouds 14 1017 94 10000 1.54 20 22:24 22.06.2021
3048 Clouds 14 1017 95 10000 2.06 360 21:39 22.06.2021
3049 Rain 15 1016 88 10000 2.06 360 19:45 22.06.2021
3050 Rain 15 1016 88 10000 2.57 40 18:54 22.06.2021
3051 Rain 15 1016 88 10000 1.03 0 18:24 22.06.2021
3052 Rain 16 1015 85 9000 2.06 340 17:22 22.06.2021
3053 Rain 16 1015 87 10000 2.57 340 16:32 22.06.2021
3054 Rain 17 1015 75 10000 2.57 350 14:38 22.06.2021
3055 Rain 16 1015 77 10000 1.54 30 13:50 22.06.2021
3056 Clouds 16 1015 72 10000 4.12 50 12:54 22.06.2021
3057 Clouds 16 1015 77 10000 4.63 30 11:20 22.06.2021
3058 Clouds 14 1015 83 10000 3.09 30 09:57 22.06.2021
3059 Clouds 14 1014 82 10000 3.09 30 06:46 22.06.2021
3060 Clouds 16 1013 79 10000 2.57 20 00:45 22.06.2021
3061 Clouds 16 1013 78 10000 3.6 10 23:23 21.06.2021
3062 Clouds 17 1012 78 10000 2.06 350 22:21 21.06.2021
3063 Clouds 17 1012 75 10000 3.6 20 21:18 21.06.2021
3064 Clouds 17 1011 77 10000 3.09 10 20:31 21.06.2021
3065 Clouds 17 1011 79 10000 3.09 350 19:53 21.06.2021
3066 Clouds 18 1011 76 10000 4.12 360 18:57 21.06.2021
3067 Clouds 18 1011 80 10000 3.6 320 17:24 21.06.2021
3068 Clouds 17 1011 81 10000 4.12 290 16:41 21.06.2021
3069 Clouds 17 1010 82 10000 6.17 300 16:23 21.06.2021
3070 Clouds 17 1010 82 10000 5.66 290 15:43 21.06.2021
3071 Clouds 17 1008 82 10000 6.69 260 14:18 21.06.2021
3072 Clouds 18 1007 80 10000 6.69 280 13:33 21.06.2021
3073 Clouds 18 1006 84 10000 7.72 280 12:36 21.06.2021
3074 Clouds 18 1005 82 10000 6.69 260 11:49 21.06.2021
3075 Clouds 19 1005 87 10000 3.6 190 10:30 21.06.2021
3076 Clouds 18 1004 92 10000 4.12 160 09:29 21.06.2021
3077 Clouds 19 1004 88 10000 3.09 130 08:21 21.06.2021
3078 Clouds 18 1004 93 10000 2.06 130 07:20 21.06.2021
3079 Clouds 20 1006 72 10000 2.92 116 00:42 21.06.2021
3080 Rain 22 1005 65 10000 3.6 40 23:35 20.06.2021
3081 Clouds 23 1006 64 10000 2.06 50 22:58 20.06.2021
3082 Clouds 23 1006 62 10000 1.54 30 22:18 20.06.2021
3083 Clear 24 1006 60 10000 2.06 50 21:28 20.06.2021
3084 Clear 25 1006 55 10000 2.06 30 19:42 20.06.2021
3085 Clear 26 1007 52 10000 2.06 360 19:23 20.06.2021
3086 Clear 27 1008 45 10000 1.03 0 18:21 20.06.2021
3087 Clear 27 1008 47 10000 1.03 10 16:51 20.06.2021
3088 Clear 27 1009 47 10000 3.09 220 15:55 20.06.2021
3089 Clear 27 1009 50 10000 3.09 220 15:33 20.06.2021
3090 Clear 27 1009 48 10000 3.6 210 14:48 20.06.2021
3091 Clear 26 1009 48 10000 5.14 190 13:51 20.06.2021
3092 Clouds 25 1010 52 10000 6.17 230 12:58 20.06.2021
3093 Clouds 24 1010 56 10000 5.66 230 11:46 20.06.2021
3094 Clouds 23 1010 60 10000 5.66 230 10:46 20.06.2021
3095 Clouds 22 1010 67 10000 4.63 210 09:47 20.06.2021
3096 Clouds 20 1009 82 10000 3.09 190 07:47 20.06.2021
3097 Rain 21 1008 88 2000 4.12 110 00:31 20.06.2021
3098 Rain 23 1009 84 6500 2.08 129 23:20 19.06.2021
3099 Clear 26 1009 58 10000 2.57 70 21:59 19.06.2021
3100 Clouds 26 1009 59 10000 1.25 41 21:39 19.06.2021
3101 Clear 30 1011 42 10000 2.06 40 18:56 19.06.2021
3102 Clear 30 1011 43 10000 2.57 50 18:25 19.06.2021
3103 Clear 31 1012 40 10000 1.54 0 17:27 19.06.2021
3104 Clear 30 1012 40 10000 2.57 50 16:51 19.06.2021
3105 Clear 30 1013 43 10000 1.54 0 15:42 19.06.2021
3106 Clear 29 1013 45 10000 2.06 0 13:45 19.06.2021
3107 Clear 28 1014 47 10000 1.54 0 12:40 19.06.2021
3108 Clouds 26 1015 57 10000 2.06 200 11:18 19.06.2021
3109 Clouds 25 1015 61 10000 2.57 290 10:36 19.06.2021
3110 Clouds 24 1015 62 10000 2.57 290 10:18 19.06.2021
3111 Clouds 23 1015 66 10000 1.54 220 08:33 19.06.2021
3112 Clear 22 1015 71 10000 1.03 0 07:40 19.06.2021
3113 Clear 20 1014 76 10000 0.51 140 05:42 19.06.2021
3114 Clear 24 1013 60 10000 0.51 0 00:25 19.06.2021
3115 Clear 25 1012 57 10000 2.06 150 23:58 18.06.2021
3116 Clear 27 1012 47 10000 2.57 160 22:58 18.06.2021
3117 Clear 27 1012 47 10000 3.09 180 22:36 18.06.2021
3118 Clear 28 1011 44 10000 3.6 190 21:53 18.06.2021
3119 Clear 29 1011 39 10000 5.14 210 21:27 18.06.2021
3120 Clear 30 1011 40 10000 3.6 190 20:35 18.06.2021
3121 Clear 32 1011 33 10000 5.66 160 18:57 18.06.2021
3122 Clear 32 1011 35 10000 5.14 160 18:20 18.06.2021
3123 Clear 33 1012 32 10000 3.09 160 16:52 18.06.2021
3124 Clouds 33 1012 32 10000 3.09 130 15:54 18.06.2021
3125 Clear 33 1012 35 10000 3.6 150 14:55 18.06.2021
3126 Clear 32 1012 34 10000 3.09 140 14:25 18.06.2021
3127 Clear 31 1013 47 10000 2.06 70 13:30 18.06.2021
3128 Clear 30 1013 51 10000 2.06 100 12:44 18.06.2021
3129 Clouds 29 1013 55 10000 1.03 0 11:55 18.06.2021
3130 Clouds 27 1013 62 10000 1.03 0 11:20 18.06.2021
3131 Clear 27 1013 61 10000 2.57 340 10:51 18.06.2021
3132 Clouds 26 1013 66 10000 1.37 171 10:20 18.06.2021
3133 Clear 25 1013 67 10000 2.06 160 09:29 18.06.2021
3134 Clear 25 1013 65 10000 3.09 160 08:43 18.06.2021
3135 Clear 23 1013 78 10000 3.09 130 07:52 18.06.2021
3136 Clear 23 1013 77 10000 1.03 0 07:21 18.06.2021
3137 Clear 24 1013 69 10000 0.51 0 00:41 18.06.2021
3138 Clear 25 1012 65 10000 2.06 360 23:41 17.06.2021
3139 Clear 26 1012 64 10000 1.54 10 22:49 17.06.2021
3140 Clear 27 1012 58 10000 0.51 0 22:23 17.06.2021
3141 Clear 29 1011 53 10000 1.03 0 21:38 17.06.2021
3142 Clear 30 1011 47 10000 2.57 0 20:49 17.06.2021
3143 Clear 31 1010 47 10000 3.14 258 20:23 17.06.2021
3144 Clear 31 1010 50 10000 3.14 258 19:46 17.06.2021
3145 Clear 33 1011 38 10000 3.09 170 18:40 17.06.2021
3146 Clear 34 1011 35 10000 3.6 220 17:43 17.06.2021
3147 Clear 34 1010 36 10000 4.12 210 17:19 17.06.2021
3148 Clear 34 1010 37 10000 3.6 200 16:25 17.06.2021
3149 Clear 34 1011 36 10000 5.14 150 14:58 17.06.2021
3150 Clear 33 1011 35 10000 6.17 140 13:59 17.06.2021
3151 Clear 33 1011 39 10000 4.12 100 12:53 17.06.2021
3152 Clear 32 1011 41 10000 3.09 130 12:24 17.06.2021
3153 Clear 30 1011 47 10000 4.12 140 10:57 17.06.2021
3154 Clear 29 1012 50 10000 4.12 140 10:35 17.06.2021
3155 Clear 28 1012 52 10000 4.63 150 09:57 17.06.2021
3156 Clear 26 1011 55 10000 5.14 140 09:35 17.06.2021
3157 Clear 24 1011 59 10000 4.12 120 08:23 17.06.2021
3158 Clear 21 1011 64 10000 2.57 110 06:56 17.06.2021
3159 Clear 21 1011 66 10000 2.57 110 04:31 17.06.2021
3160 Clear 23 1012 64 10000 1.54 100 00:18 17.06.2021
3161 Clear 24 1012 58 10000 2.06 120 23:36 16.06.2021
3162 Clear 25 1011 50 10000 2.57 120 22:40 16.06.2021
3163 Clear 27 1011 44 10000 2.06 100 21:48 16.06.2021
3164 Clear 28 1011 48 10000 2.06 110 21:26 16.06.2021
3165 Clear 30 1011 37 10000 2.57 130 20:57 16.06.2021
3166 Clear 30 1011 33 10000 3.09 130 20:22 16.06.2021
3167 Clear 31 1011 39 10000 2.57 150 19:46 16.06.2021
3168 Clear 31 1011 40 10000 3.09 140 19:20 16.06.2021
3169 Clear 31 1011 38 10000 4.12 130 18:44 16.06.2021
3170 Clear 32 1012 37 10000 3.6 150 17:56 16.06.2021
3171 Clear 32 1012 36 10000 5.14 180 17:28 16.06.2021
3172 Clear 32 1012 36 10000 4.63 160 16:45 16.06.2021
3173 Clear 32 1012 36 10000 4.63 160 16:45 16.06.2021
3174 Clear 32 1012 35 10000 6.17 170 16:23 16.06.2021
3175 Clear 32 1012 38 10000 3.6 170 15:44 16.06.2021
3176 Clear 32 1013 38 10000 4.63 170 15:23 16.06.2021
3177 Clear 31 1013 39 10000 4.63 170 14:42 16.06.2021
3178 Clear 31 1013 41 10000 4.63 170 14:23 16.06.2021
3179 Clear 30 1013 44 10000 3.6 150 13:43 16.06.2021
3180 Clear 29 1014 47 10000 3.6 150 13:21 16.06.2021
3181 Clouds 28 1014 54 10000 3.09 130 12:35 16.06.2021
3182 Clear 27 1014 56 10000 3.09 150 11:59 16.06.2021
3183 Clear 26 1014 57 10000 3.6 130 11:28 16.06.2021
3184 Clear 25 1015 60 10000 3.09 140 10:43 16.06.2021
3185 Clear 23 1015 63 10000 2.57 140 09:50 16.06.2021
3186 Clear 22 1015 65 10000 2.06 110 09:23 16.06.2021
3187 Clear 20 1016 68 10000 1.54 110 08:19 16.06.2021
3188 Clear 18 1016 73 10000 0.51 0 07:38 16.06.2021
3189 Clear 18 1017 70 10000 1.03 160 02:59 16.06.2021
3190 Clear 18 1017 67 10000 1.03 0 01:43 16.06.2021
3191 Clear 19 1018 64 10000 2.06 40 23:44 15.06.2021
3192 Clear 20 1018 63 10000 1.54 40 23:20 15.06.2021
3193 Clear 20 1018 60 10000 2.57 30 22:41 15.06.2021
3194 Clear 20 1018 61 10000 2.57 30 22:41 15.06.2021
3195 Clear 21 1018 57 10000 2.06 10 22:21 15.06.2021
3196 Clear 24 1018 50 10000 3.09 20 20:56 15.06.2021
3197 Clear 25 1018 48 10000 2.57 0 19:58 15.06.2021
3198 Clear 26 1018 47 10000 3.09 340 19:23 15.06.2021
3199 Clear 26 1018 46 10000 4.63 330 17:47 15.06.2021
3200 Clear 26 1019 46 10000 3.6 360 16:43 15.06.2021
3201 Clouds 26 1019 48 10000 4.12 10 15:42 15.06.2021
3202 Clouds 26 1019 50 10000 4.12 350 14:57 15.06.2021
3203 Clouds 26 1019 50 10000 4.12 350 14:38 15.06.2021
3204 Clear 25 1019 52 10000 2.57 340 13:37 15.06.2021
3205 Clear 25 1020 56 10000 3.6 320 12:51 15.06.2021
3206 Clouds 24 1020 56 10000 3.6 330 12:19 15.06.2021
3207 Clear 24 1020 60 10000 4.63 330 11:35 15.06.2021
3208 Clear 23 1020 62 10000 2.57 320 10:56 15.06.2021
3209 Clear 23 1020 63 10000 2.57 320 10:36 15.06.2021
3210 Clear 21 1020 70 10000 1.03 0 09:59 15.06.2021
3211 Clear 19 1020 79 10000 2.06 330 08:49 15.06.2021
3212 Clear 19 1020 80 10000 1.03 0 08:20 15.06.2021
3213 Clouds 16 1020 84 10000 1.73 349 06:58 15.06.2021
3214 Clear 15 1019 87 10000 1.54 70 05:59 15.06.2021
3215 Clear 17 1018 77 10000 0.51 0 02:54 15.06.2021
3216 Clear 19 1018 71 10000 1.03 0 00:39 15.06.2021
3217 Clear 21 1018 65 10000 1.03 0 23:34 14.06.2021
3218 Clear 21 1018 59 10000 1.03 0 22:51 14.06.2021
3219 Clear 22 1018 55 10000 0.51 0 22:22 14.06.2021
3220 Clear 23 1018 52 10000 1.03 60 21:58 14.06.2021
3221 Clear 24 1018 55 10000 1.03 60 21:37 14.06.2021
3222 Clear 26 1018 44 10000 1.54 20 21:19 14.06.2021
3223 Clear 27 1018 40 10000 2.06 350 20:43 14.06.2021
3224 Clear 28 1012 31 10000 0.45 247 19:49 14.06.2021
3225 Clear 29 1012 31 10000 0.45 247 19:29 14.06.2021
3226 Clear 29 1012 30 10000 2.57 340 18:47 14.06.2021
3227 Clear 29 1012 30 10000 1.54 0 18:22 14.06.2021
3228 Clear 29 1013 29 10000 0.45 201 17:39 14.06.2021
3229 Clear 29 1019 32 10000 3.09 320 17:20 14.06.2021
3230 Clear 29 1019 33 10000 2.57 250 16:18 14.06.2021
3231 Clear 28 1020 32 10000 1.54 0 15:47 14.06.2021
3232 Clear 28 1020 33 10000 2.57 220 14:54 14.06.2021
3233 Clear 28 1020 32 10000 2.57 220 14:34 14.06.2021
3234 Clear 27 1021 40 10000 3.09 140 13:29 14.06.2021
3235 Clear 26 1021 41 10000 3.6 140 12:51 14.06.2021
3236 Clear 26 1021 42 10000 5.14 150 12:22 14.06.2021
3237 Clear 25 1016 39 10000 0.45 30 11:38 14.06.2021
3238 Clear 23 1022 52 10000 3.09 150 10:47 14.06.2021
3239 Clear 20 1023 56 10000 3.09 130 09:27 14.06.2021
3240 Clear 19 1023 60 10000 3.09 140 08:59 14.06.2021
3241 Clear 17 1023 65 10000 1.54 130 08:22 14.06.2021
3242 Clear 15 1023 69 10000 2.57 120 07:41 14.06.2021
3243 Clear 12 1023 78 10000 2.06 100 05:50 14.06.2021
3244 Clear 13 1024 75 10000 0.51 0 04:30 14.06.2021
3245 Clear 15 1024 72 10000 2.06 0 00:42 14.06.2021
3246 Clear 17 1025 66 10000 2.06 70 23:28 13.06.2021
3247 Clear 16 1025 63 10000 1.03 70 22:49 13.06.2021
3248 Clear 17 1025 63 10000 1.03 60 22:22 13.06.2021
3249 Clear 20 1025 56 10000 1.03 0 21:59 13.06.2021
3250 Clear 20 1025 56 10000 1.03 0 21:37 13.06.2021
3251 Clear 22 1025 40 10000 2.57 320 20:53 13.06.2021
3252 Clear 23 1025 38 10000 2.06 320 20:31 13.06.2021
3253 Clear 23 1025 36 10000 1.03 0 19:58 13.06.2021
3254 Clear 23 1025 36 10000 1.03 0 19:39 13.06.2021
3255 Clear 24 1026 36 10000 1.54 0 18:59 13.06.2021
3256 Clear 24 1026 34 10000 1.03 0 18:30 13.06.2021
3257 Clear 23 1026 39 10000 1.54 280 17:48 13.06.2021
3258 Clear 23 1026 41 10000 3.6 310 16:46 13.06.2021
3259 Clear 22 1027 43 10000 4.12 310 15:42 13.06.2021
3260 Clear 22 1027 45 10000 2.06 0 14:57 13.06.2021
3261 Clear 21 1027 47 10000 2.57 0 14:27 13.06.2021
3262 Clear 20 1028 49 10000 2.06 0 13:41 13.06.2021
3263 Clear 20 1028 48 10000 2.06 0 13:21 13.06.2021
3264 Clear 19 1028 51 10000 1.54 0 12:45 13.06.2021
3265 Clouds 19 1028 53 10000 1.54 0 11:53 13.06.2021
3266 Clouds 18 1028 55 10000 1.03 0 11:27 13.06.2021
3267 Clouds 17 1028 61 10000 1.54 310 10:46 13.06.2021
3268 Clouds 17 1028 60 10000 1.03 0 10:19 13.06.2021
3269 Clouds 16 1028 64 10000 1.54 0 09:43 13.06.2021
3270 Clouds 15 1028 65 10000 0.51 0 09:23 13.06.2021
3271 Clouds 15 1028 71 10000 1.03 0 08:44 13.06.2021
3272 Clouds 14 1027 75 10000 1.03 0 08:25 13.06.2021
3273 Clear 10 1027 91 10000 0 0 06:51 13.06.2021
3274 Clouds 13 1025 77 10000 2.06 350 01:21 13.06.2021
3275 Clear 16 1024 64 10000 4.12 340 23:22 12.06.2021
3276 Clear 17 1023 63 10000 3.6 330 22:35 12.06.2021
3277 Clear 18 1022 55 10000 5.14 330 21:53 12.06.2021
3278 Clear 19 1022 56 10000 6.17 320 21:34 12.06.2021
3279 Clear 20 1022 49 10000 6.17 320 20:43 12.06.2021
3280 Clear 21 1022 49 10000 8.75 310 20:19 12.06.2021
3281 Clear 22 1021 48 10000 7.2 320 19:28 12.06.2021
3282 Clear 22 1021 49 10000 8.23 310 18:37 12.06.2021
3283 Clouds 23 1021 50 10000 7.72 310 17:58 12.06.2021
3284 Clouds 22 1021 52 10000 7.72 310 17:19 12.06.2021
3285 Clouds 22 1021 57 10000 6.17 310 16:37 12.06.2021
3286 Clouds 21 1020 65 10000 7.72 280 15:37 12.06.2021
3287 Clouds 21 1020 69 10000 6.17 280 14:42 12.06.2021
3288 Clouds 21 1021 70 10000 6.17 290 14:23 12.06.2021
3289 Clouds 20 1020 78 10000 5.66 280 12:58 12.06.2021
3290 Clouds 20 1020 78 10000 5.66 280 12:39 12.06.2021
3291 Clouds 20 1020 79 10000 6.69 280 12:21 12.06.2021
3292 Clouds 20 1020 76 10000 7.2 310 11:21 12.06.2021
3293 Clouds 20 1019 76 10000 5.66 280 10:30 12.06.2021
3294 Clouds 20 1019 75 10000 6.17 270 09:54 12.06.2021
3295 Clouds 20 1019 77 10000 3.6 240 09:35 12.06.2021
3296 Clouds 19 1019 82 10000 3.6 250 08:23 12.06.2021
3297 Clouds 18 1019 89 10000 1.03 140 06:25 12.06.2021
3298 Clear 19 1019 78 10000 2.06 350 01:46 12.06.2021
3299 Clear 21 1019 72 10000 0.51 0 23:21 11.06.2021
3300 Clear 22 1018 68 10000 1.03 0 22:22 11.06.2021
3301 Clear 23 1018 60 10000 2.57 340 21:48 11.06.2021
3302 Clear 23 1018 60 10000 3.09 330 21:28 11.06.2021
3303 Clear 25 1018 54 10000 3.09 330 20:37 11.06.2021
3304 Clear 26 1018 49 10000 4.63 320 19:52 11.06.2021
3305 Clear 27 1018 47 10000 6.17 300 18:48 11.06.2021
3306 Clear 27 1018 46 10000 4.12 320 18:18 11.06.2021
3307 Clear 27 1018 49 10000 3.6 280 16:47 11.06.2021
3308 Clouds 27 1018 50 10000 4.12 310 16:29 11.06.2021
3309 Clouds 26 1019 52 10000 4.12 280 15:23 11.06.2021
3310 Clouds 26 1019 54 10000 3.6 300 14:32 11.06.2021
3311 Clouds 25 1020 56 10000 3.6 330 13:24 11.06.2021
3312 Clouds 24 1020 59 10000 2.57 320 12:27 11.06.2021
3313 Clear 24 1020 63 10000 1.03 0 11:32 11.06.2021
3314 Clear 22 1020 73 10000 1.03 0 10:34 11.06.2021
3315 Clear 21 1020 75 10000 0.51 0 09:31 11.06.2021
3316 Clear 19 1029 78 10000 2.06 140 08:35 11.06.2021
3317 Clear 17 1020 87 10000 0.51 0 07:35 11.06.2021
3318 Clear 17 1020 82 10000 2.06 60 02:54 11.06.2021
3319 Clear 20 1019 65 10000 1.54 60 23:33 10.06.2021
3320 Clear 20 1019 61 10000 0.51 0 22:42 10.06.2021
3321 Clear 23 1019 64 10000 0.51 0 21:52 10.06.2021
3322 Clear 24 1019 49 10000 1.54 350 21:21 10.06.2021
3323 Clear 25 1019 50 10000 2.06 360 20:45 10.06.2021
3324 Clear 27 1029 40 10000 2.57 350 19:32 10.06.2021
3325 Clear 27 1029 40 10000 2.06 20 18:57 10.06.2021
3326 Clear 27 1020 39 10000 2.57 350 18:28 10.06.2021
3327 Clear 27 1020 39 10000 3.09 320 17:46 10.06.2021
3328 Clear 27 1020 41 10000 4.12 300 16:49 10.06.2021
3329 Clouds 27 1019 42 10000 3.37 289 16:31 10.06.2021
3330 Clear 26 1021 41 10000 3.6 350 15:19 10.06.2021
3331 Clear 25 1022 47 10000 3.01 297 13:23 10.06.2021
3332 Clear 25 1022 47 10000 2.39 295 12:26 10.06.2021
3333 Clear 24 1022 49 10000 1.44 291 11:25 10.06.2021
3334 Clear 22 1032 55 10000 0.78 294 09:43 10.06.2021
3335 Clouds 15 1031 83 10000 1 278 06:30 10.06.2021
3336 Clear 19 1021 76 10000 0.92 344 00:25 10.06.2021
3337 Clear 19 1021 75 10000 0.92 344 23:43 09.06.2021
3338 Clouds 21 1021 68 10000 1.64 1 22:28 09.06.2021
3339 Clouds 22 1020 66 10000 1.64 1 21:43 09.06.2021
3340 Clouds 23 1020 53 10000 2.62 339 21:23 09.06.2021
3341 Clouds 24 1020 56 10000 2.63 339 20:36 09.06.2021
3342 Clouds 25 1020 50 10000 3.12 324 19:49 09.06.2021
3343 Clouds 26 1020 47 10000 3.78 315 19:18 09.06.2021
3344 Clouds 26 1021 48 10000 4.32 297 15:58 09.06.2021
3345 Clouds 26 1021 50 10000 4.07 307 15:32 09.06.2021
3346 Clouds 25 1021 52 10000 4.08 297 14:34 09.06.2021
3347 Clouds 25 1022 54 10000 3.44 294 13:33 09.06.2021
3348 Clouds 24 1022 58 10000 3.44 294 12:54 09.06.2021
3349 Clouds 24 1022 60 10000 2.85 299 12:35 09.06.2021
3350 Clouds 23 1022 67 10000 2.37 306 10:56 09.06.2021
3351 Clear 20 1022 75 10000 1.33 289 09:28 09.06.2021
3352 Clear 19 1031 75 10000 0.45 96 08:45 09.06.2021
3353 Clear 14 1032 92 10000 0.47 254 06:47 09.06.2021
3354 Clear 15 1031 88 10000 0.35 265 03:44 09.06.2021
3355 Clear 18 1021 75 10000 1.34 4 22:55 08.06.2021
3356 Clear 18 1021 75 10000 1.35 4 22:55 08.06.2021
3357 Clear 19 1021 73 10000 1.65 3 22:34 08.06.2021
3358 Clear 21 1021 62 10000 2.14 4 21:18 08.06.2021
3359 Clouds 23 1021 52 10000 3.2 13 19:42 08.06.2021
3360 Clouds 24 1021 53 10000 4 7 17:53 08.06.2021
3361 Clouds 25 1031 49 10000 3.94 358 17:34 08.06.2021
3362 Clouds 23 1022 56 10000 2.99 344 15:29 08.06.2021
3363 Clouds 22 1023 62 10000 1.83 323 13:33 08.06.2021
3364 Clouds 22 1023 62 10000 1.83 323 13:33 08.06.2021
3365 Clouds 21 1023 67 10000 1.78 325 11:54 08.06.2021
3366 Clouds 16 1023 90 10000 0.76 352 08:19 08.06.2021
3367 Clouds 15 1022 90 10000 0.69 20 04:26 08.06.2021
3368 Clouds 16 1023 81 10000 1.13 30 23:53 07.06.2021
3369 Clouds 19 1022 68 10000 1.43 62 20:42 07.06.2021
3370 Clouds 21 1032 64 10000 2.04 31 18:56 07.06.2021
3371 Clouds 21 1032 63 10000 2.62 9 16:25 07.06.2021
3372 Clouds 20 1023 64 10000 2.98 6 14:35 07.06.2021
3373 Clouds 19 1023 77 10000 1.93 10 11:57 07.06.2021
3374 Clouds 18 1032 77 10000 0.45 107 10:36 07.06.2021
3375 Clouds 17 1023 84 10000 2.29 13 09:59 07.06.2021
3376 Clouds 16 1023 82 10000 2.4 7 09:26 07.06.2021
3377 Clouds 16 1033 94 9000 2.18 342 07:44 07.06.2021
3378 Clouds 17 1023 89 10000 1.68 9 23:22 06.06.2021
3379 Clouds 18 1032 83 10000 1.7 354 21:20 06.06.2021
3380 Clouds 18 1032 79 10000 3.84 349 19:35 06.06.2021
3381 Clouds 18 1032 79 10000 3.75 327 17:36 06.06.2021
3382 Clouds 17 1023 82 9000 3.71 321 15:37 06.06.2021
3383 Mist 16 1034 92 4000 2.84 314 12:42 06.06.2021
3384 Drizzle 15 1032 93 2200 0.89 329 11:51 06.06.2021
3385 Drizzle 15 1033 95 2000 2.72 300 10:27 06.06.2021
3386 Drizzle 15 1033 95 2200 0.45 251 09:57 06.06.2021
3387 Drizzle 14 1032 95 2500 2.42 306 09:27 06.06.2021
3388 Drizzle 14 1033 95 3500 0.45 275 08:53 06.06.2021
3389 Drizzle 14 1023 94 6000 2.7 307 06:24 06.06.2021
3390 Mist 16 1032 90 4500 0.89 267 23:23 05.06.2021
3391 Mist 17 1032 90 4500 0.45 268 22:28 05.06.2021
3392 Clouds 17 1031 91 6000 3.45 280 20:51 05.06.2021
3393 Mist 17 1030 91 5000 0.45 269 19:41 05.06.2021
3394 Mist 17 1031 90 5000 3.39 287 18:21 05.06.2021
3395 Clouds 19 1020 82 10000 3.86 268 15:57 05.06.2021
3396 Clouds 19 1020 82 10000 3.91 272 14:58 05.06.2021
3397 Clouds 19 1020 85 10000 2.98 267 12:43 05.06.2021
3398 Clouds 19 1020 84 10000 2.69 272 11:36 05.06.2021
3399 Clouds 18 1029 94 10000 2.89 259 09:25 05.06.2021
3400 Clouds 17 1029 97 8000 2.85 254 07:53 05.06.2021
3401 Clouds 17 1029 95 10000 1.36 103 23:56 04.06.2021
3402 Rain 18 1029 95 10000 1.28 81 22:23 04.06.2021
3403 Rain 18 1030 92 9000 1.38 55 21:32 04.06.2021
3404 Rain 21 1028 72 10000 0.45 89 20:25 04.06.2021
3405 Clouds 25 1028 59 10000 1.6 21 18:40 04.06.2021
3406 Clouds 26 1035 66 10000 1.55 16 17:53 04.06.2021
3407 Clouds 26 1019 55 10000 1.79 40 15:56 04.06.2021
3408 Clouds 25 1021 59 10000 0.71 10 12:55 04.06.2021
3409 Clouds 24 1021 70 10000 0.51 6 11:28 04.06.2021
3410 Clouds 19 1030 92 10000 0.22 122 08:24 04.06.2021
3411 Clouds 17 1037 95 10000 0.31 113 06:32 04.06.2021
3412 Clear 19 1020 91 10000 1.84 153 23:58 03.06.2021
3413 Clear 20 1020 88 10000 1.8 164 21:59 03.06.2021
3414 Clouds 22 1029 79 10000 2.01 233 20:35 03.06.2021
3415 Clouds 22 1029 75 10000 2.01 234 19:53 03.06.2021
3416 Clouds 24 1029 69 10000 2.71 254 18:27 03.06.2021
3417 Clouds 24 1029 61 10000 0.45 321 17:20 03.06.2021
3418 Clouds 24 1020 72 10000 1.76 217 15:19 03.06.2021
3419 Rain 21 1020 86 10000 3.33 247 12:59 03.06.2021
3420 Rain 22 1029 68 10000 2.76 166 10:25 03.06.2021
3421 Clouds 21 1029 69 10000 2.76 166 09:51 03.06.2021
3422 Rain 20 1019 72 10000 2.06 130 08:40 03.06.2021
3423 Clouds 20 1017 62 10000 2.2 128 00:25 03.06.2021
3424 Clouds 22 1016 40 10000 2.08 135 22:57 02.06.2021
3425 Clouds 24 1015 31 10000 3.02 145 21:35 02.06.2021
3426 Clear 26 1015 29 10000 3.02 145 20:53 02.06.2021
3427 Clear 26 1015 27 10000 3.59 154 20:23 02.06.2021
3428 Clear 28 1031 22 10000 0.89 315 18:29 02.06.2021
3429 Clear 29 1031 21 10000 0.45 265 16:36 02.06.2021
3430 Clear 27 1014 30 10000 3.49 150 14:32 02.06.2021
3431 Clear 26 1015 31 10000 3.46 145 12:42 02.06.2021
3432 Clear 24 1015 42 10000 2.52 136 10:56 02.06.2021
3433 Clear 23 1015 46 10000 2.51 136 10:38 02.06.2021
3434 Clear 21 1032 48 10000 0.89 299 09:49 02.06.2021
3435 Clear 19 1032 57 10000 1.74 135 08:56 02.06.2021
3436 Clear 17 1032 59 10000 1.83 134 08:18 02.06.2021
3437 Clear 13 1032 70 10000 1.59 129 04:43 02.06.2021
3438 Clear 13 1015 70 10000 1.66 138 03:33 02.06.2021
3439 Clear 19 1015 42 10000 2.31 108 22:29 01.06.2021
3440 Clear 22 1015 33 10000 2.23 121 21:31 01.06.2021
3441 Clear 24 1015 33 10000 2.76 138 20:23 01.06.2021
3442 Clear 26 1031 23 10000 3.99 128 17:38 01.06.2021
3443 Clear 26 1032 25 10000 0.45 298 16:30 01.06.2021
3444 Clear 25 1017 31 10000 3.67 126 14:20 01.06.2021
3445 Clear 24 1017 34 10000 3.67 124 12:51 01.06.2021
3446 Clear 22 1017 37 10000 3.65 121 11:52 01.06.2021
3447 Clear 22 1018 37 10000 3.4 120 11:21 01.06.2021
3448 Clear 20 1018 45 10000 3.02 124 10:36 01.06.2021
3449 Clear 19 1036 45 10000 3.02 124 09:39 01.06.2021
3450 Clear 16 1019 61 10000 2.8 118 08:37 01.06.2021
3451 Clear 11 1036 65 10000 1.99 119 05:47 01.06.2021
3452 Clear 16 1020 60 10000 2.61 111 23:45 31.05.2021
3453 Clear 17 1020 60 10000 2.6 116 23:24 31.05.2021
3454 Clear 17 1020 59 10000 2.6 116 23:24 31.05.2021
3455 Clear 18 1020 51 10000 2.61 116 22:44 31.05.2021
3456 Clear 21 1020 39 10000 2.62 107 21:36 31.05.2021
3457 Clouds 23 1019 38 10000 2.27 59 20:25 31.05.2021
3458 Clear 23 1019 35 10000 2.27 59 19:35 31.05.2021
3459 Clear 24 1019 35 10000 1.24 61 18:20 31.05.2021
3460 Clear 24 1019 33 10000 1.04 64 17:25 31.05.2021
3461 Clear 24 1019 38 10000 0.73 46 16:25 31.05.2021
3462 Clear 23 1021 40 10000 2.06 0 14:42 31.05.2021
3463 Clear 22 1021 44 10000 1.53 67 13:24 31.05.2021
3464 Clear 21 1021 48 10000 1.52 66 12:39 31.05.2021
3465 Clear 21 1022 47 10000 1.2 71 11:54 31.05.2021
3466 Clouds 20 1022 49 10000 0.95 74 11:19 31.05.2021
3467 Clear 18 1040 57 10000 0.45 285 09:53 31.05.2021
3468 Clear 16 1040 62 10000 0.83 115 08:55 31.05.2021
3469 Clear 14 1040 69 10000 0.45 80 08:18 31.05.2021
3470 Clear 13 1024 79 10000 0.93 126 07:37 31.05.2021
3471 Clear 10 1040 80 10000 1.03 114 04:55 31.05.2021
3472 Clear 15 1025 55 10000 2.37 72 23:26 30.05.2021
3473 Clear 16 1025 55 10000 2.37 72 22:51 30.05.2021
3474 Clear 17 1025 51 10000 2.57 65 22:28 30.05.2021
3475 Clear 18 1025 45 10000 2.59 65 21:44 30.05.2021
3476 Clear 21 1023 37 10000 2.57 60 21:20 30.05.2021
3477 Clear 21 1024 35 10000 3.15 64 20:44 30.05.2021
3478 Clear 21 1024 39 10000 3.92 56 20:22 30.05.2021
3479 Clouds 22 1024 37 10000 3.92 56 19:31 30.05.2021
3480 Clear 23 1024 34 10000 4.69 41 18:35 30.05.2021
3481 Clear 23 1024 34 10000 4.04 39 17:26 30.05.2021
3482 Clear 23 1024 36 10000 4.04 39 16:48 30.05.2021
3483 Clear 22 1024 36 10000 2.78 29 16:29 30.05.2021
3484 Clear 22 1024 36 10000 2.78 29 15:46 30.05.2021
3485 Clear 21 1026 40 10000 1.46 100 13:49 30.05.2021
3486 Clear 20 1026 41 10000 1.92 117 12:55 30.05.2021
3487 Clear 19 1027 46 10000 2.14 120 11:40 30.05.2021
3488 Clear 17 1027 53 10000 2.13 117 10:53 30.05.2021
3489 Clear 17 1027 58 10000 2.01 111 10:31 30.05.2021
3490 Clear 15 1027 66 10000 2.01 111 09:52 30.05.2021
3491 Clear 15 1027 66 10000 2.01 111 09:34 30.05.2021
3492 Clear 13 1028 76 10000 1.85 113 08:46 30.05.2021
3493 Clear 8 1044 92 10000 1.58 108 06:40 30.05.2021
3494 Clear 8 1027 86 10000 1.3 88 03:54 30.05.2021
3495 Clear 11 1028 78 10000 1.51 75 00:32 30.05.2021
3496 Clear 13 1028 67 10000 2.06 59 22:50 29.05.2021
3497 Clear 14 1027 58 10000 2.69 40 22:23 29.05.2021
3498 Clear 15 1027 55 10000 2.69 40 21:46 29.05.2021
3499 Clear 17 1027 48 10000 3.66 31 21:18 29.05.2021
3500 Clear 18 1026 45 10000 3.81 32 20:41 29.05.2021
3501 Clear 18 1026 41 10000 4.36 26 20:20 29.05.2021
3502 Clear 19 1025 46 10000 4.69 21 19:21 29.05.2021
3503 Clear 19 1025 46 10000 4.73 18 17:52 29.05.2021
3504 Clear 20 1042 44 10000 0.89 57 16:53 29.05.2021
3505 Clear 19 1024 49 10000 4.2 11 15:46 29.05.2021
3506 Clear 19 1025 51 10000 3.68 12 14:45 29.05.2021
3507 Clear 19 1025 51 10000 3.81 9 13:41 29.05.2021
3508 Clouds 19 1025 52 10000 3.65 2 12:46 29.05.2021
3509 Clouds 18 1025 53 10000 3.05 358 12:26 29.05.2021
3510 Clouds 18 1025 53 10000 3.05 358 11:46 29.05.2021
3511 Clouds 17 1025 55 10000 2.49 0 11:23 29.05.2021
3512 Clear 17 1025 61 10000 2.48 0 10:48 29.05.2021
3513 Clear 16 1042 64 10000 1.95 2 09:47 29.05.2021
3514 Clear 14 1042 70 10000 1.34 13 09:21 29.05.2021
3515 Clear 13 1042 75 10000 1.33 9 08:41 29.05.2021
3516 Clear 8 1041 91 10000 0.3 112 06:59 29.05.2021
3517 Clear 7 1041 89 10000 0.79 82 05:52 29.05.2021
3518 Clear 11 1024 76 10000 1.72 57 00:28 29.05.2021
3519 Clear 12 1024 69 10000 2.32 46 23:18 28.05.2021
3520 Clear 15 1023 52 10000 2.49 37 21:45 28.05.2021
3521 Clear 16 1022 46 10000 2.11 26 21:23 28.05.2021
3522 Clear 18 1022 44 10000 3.44 24 20:25 28.05.2021
3523 Clear 19 1022 37 10000 3.43 24 19:44 28.05.2021
3524 Clear 19 1022 39 10000 3.44 16 19:25 28.05.2021
3525 Clear 19 1022 40 10000 3.43 16 18:40 28.05.2021
3526 Clear 19 1039 39 10000 0.45 275 18:21 28.05.2021
3527 Clear 19 1022 43 10000 3.21 13 17:19 28.05.2021
3528 Clear 19 1022 47 10000 2.9 18 16:26 28.05.2021
3529 Clear 19 1022 48 10000 2.91 18 15:40 28.05.2021
3530 Clouds 18 1023 50 10000 2.09 20 14:51 28.05.2021
3531 Clouds 17 1023 54 10000 2.01 20 14:31 28.05.2021
3532 Clouds 17 1023 57 10000 2.04 25 13:45 28.05.2021
3533 Clouds 16 1023 61 10000 1.74 22 12:55 28.05.2021
3534 Clouds 15 1024 64 10000 1.33 33 12:22 28.05.2021
3535 Clouds 15 1024 70 10000 1.2 43 11:31 28.05.2021
3536 Clouds 13 1024 74 10000 1.19 43 10:48 28.05.2021
3537 Clouds 12 1025 76 10000 1.22 52 10:23 28.05.2021
3538 Clouds 11 1025 83 10000 1.1 32 09:29 28.05.2021
3539 Clouds 10 1025 91 10000 0.66 27 08:46 28.05.2021
3540 Clouds 10 1025 92 3500 0.27 18 08:23 28.05.2021
3541 Clouds 8 1025 95 4000 0.27 17 07:37 28.05.2021
3542 Clouds 8 1041 97 5000 0.2 227 06:50 28.05.2021
3543 Clouds 7 1024 96 9000 0.19 261 05:52 28.05.2021
3544 Clouds 8 1023 93 10000 1.4 300 03:31 28.05.2021
3545 Clouds 10 1022 92 10000 2.06 300 23:42 27.05.2021
3546 Clouds 10 1022 91 10000 2.06 300 23:42 27.05.2021
3547 Clouds 10 1022 91 10000 2.37 310 22:45 27.05.2021
3548 Clouds 11 1038 91 10000 0.45 281 22:20 27.05.2021
3549 Clouds 11 1038 90 10000 2.74 304 21:43 27.05.2021
3550 Clouds 11 1038 89 10000 3.44 300 21:24 27.05.2021
3551 Clouds 11 1038 86 10000 3.43 300 20:46 27.05.2021
3552 Clouds 12 1037 88 10000 0.45 278 20:18 27.05.2021
3553 Clouds 12 1037 83 10000 0.89 279 19:30 27.05.2021
3554 Clouds 12 1037 79 10000 0.89 271 18:41 27.05.2021
3555 Clouds 13 1036 78 10000 0.45 268 18:20 27.05.2021
3556 Clouds 13 1036 76 10000 1.79 271 17:25 27.05.2021
3557 Clouds 13 1036 79 10000 4.96 314 16:50 27.05.2021
3558 Clouds 13 1036 84 10000 0.89 56 16:31 27.05.2021
3559 Clouds 13 1035 90 10000 0.45 270 15:42 27.05.2021
3560 Rain 12 1035 91 10000 4.3 288 15:18 27.05.2021
3561 Rain 12 1035 90 10000 4.03 280 14:31 27.05.2021
3562 Rain 12 1035 90 10000 0.45 270 13:54 27.05.2021
3563 Rain 11 1034 90 9000 4.7 278 13:22 27.05.2021
3564 Rain 11 1035 90 9000 0.89 264 12:59 27.05.2021
3565 Rain 11 1035 90 9000 0.89 290 12:41 27.05.2021
3566 Rain 11 1034 89 10000 0.89 270 12:22 27.05.2021
3567 Rain 11 1034 90 9000 0.45 274 11:46 27.05.2021
3568 Rain 11 1034 90 10000 0.89 283 10:54 27.05.2021
3569 Rain 11 1033 89 10000 5.42 267 10:29 27.05.2021
3570 Rain 11 1033 89 10000 0.45 281 09:54 27.05.2021
3571 Rain 11 1033 88 10000 0.89 274 08:53 27.05.2021
3572 Rain 11 1033 87 10000 5.21 259 08:26 27.05.2021
3573 Clouds 11 1032 87 10000 0.89 277 06:48 27.05.2021
3574 Clouds 11 1015 82 10000 4.45 258 02:46 27.05.2021
3575 Clouds 11 1031 83 10000 0.45 102 00:36 27.05.2021
3576 Clouds 11 1031 81 10000 0.89 154 23:34 26.05.2021
3577 Clouds 11 1014 83 10000 4 245 22:56 26.05.2021
3578 Clouds 11 1014 82 10000 4 245 22:38 26.05.2021
3579 Clouds 11 1014 81 10000 3.39 244 22:18 26.05.2021
3580 Clouds 12 1013 77 10000 4.02 259 21:38 26.05.2021
3581 Clouds 12 1013 78 10000 4.02 259 21:19 26.05.2021
3582 Clouds 12 1013 79 10000 4.02 259 20:43 26.05.2021
3583 Clouds 12 1013 77 10000 5.13 271 20:22 26.05.2021
3584 Clouds 13 1013 80 10000 5.13 271 19:45 26.05.2021
3585 Clouds 13 1029 79 10000 0.45 269 19:21 26.05.2021
3586 Clouds 13 1029 80 10000 0.45 270 18:47 26.05.2021
3587 Rain 13 1029 72 10000 0.89 271 17:59 26.05.2021
3588 Rain 13 1029 71 10000 1.79 293 16:57 26.05.2021
3589 Rain 13 1028 68 10000 1.79 278 16:38 26.05.2021
3590 Clouds 13 1012 70 10000 4.71 262 16:19 26.05.2021
3591 Clouds 14 1012 78 10000 4.71 262 15:44 26.05.2021
3592 Clouds 13 1012 84 10000 4.62 257 15:24 26.05.2021
3593 Clouds 13 1012 85 10000 4.62 257 14:46 26.05.2021
3594 Rain 12 1012 87 10000 2.58 226 14:21 26.05.2021
3595 Rain 12 1012 86 9000 2.59 226 13:50 26.05.2021
3596 Rain 12 1011 79 10000 1.36 201 12:59 26.05.2021
3597 Rain 12 1011 78 10000 1.61 173 12:29 26.05.2021
3598 Clouds 11 1011 82 10000 1.57 172 11:42 26.05.2021
3599 Clouds 11 1012 82 10000 1.83 171 11:23 26.05.2021
3600 Clouds 11 1012 81 10000 2.02 174 10:40 26.05.2021
3601 Clouds 11 1012 81 10000 2.01 173 10:21 26.05.2021
3602 Clouds 10 1012 86 10000 2.02 174 09:50 26.05.2021
3603 Clouds 10 1013 87 10000 2.45 184 09:28 26.05.2021
3604 Clouds 10 1029 90 10000 2.2 172 08:49 26.05.2021
3605 Clouds 9 1013 93 10000 2.84 188 07:38 26.05.2021
3606 Clouds 9 1030 93 10000 3.55 197 06:43 26.05.2021
3607 Rain 9 1030 93 10000 3.13 214 05:27 26.05.2021
3608 Rain 9 1030 93 10000 3.13 214 05:27 26.05.2021
3609 Clouds 9 1015 90 10000 3.59 225 00:23 26.05.2021
3610 Clouds 10 1032 90 10000 3.59 225 23:32 25.05.2021
3611 Clouds 9 1033 90 10000 3.9 228 22:50 25.05.2021
3612 Clear 10 1032 89 10000 3.67 226 21:56 25.05.2021
3613 Clear 10 1032 89 10000 4.12 240 21:30 25.05.2021
3614 Clouds 10 1015 87 10000 4.63 240 20:53 25.05.2021
3615 Clouds 10 1032 90 10000 3.9 244 20:33 25.05.2021
3616 Rain 10 1032 88 10000 4.18 244 19:41 25.05.2021
3617 Rain 11 1032 82 10000 0.89 90 19:22 25.05.2021
3618 Rain 11 1032 83 10000 4.99 243 18:47 25.05.2021
3619 Rain 11 1032 86 10000 6 233 18:25 25.05.2021
3620 Rain 11 1032 82 10000 0.45 270 17:35 25.05.2021
3621 Clouds 11 1033 82 10000 6.89 239 16:40 25.05.2021
3622 Clouds 11 1033 81 10000 7.09 249 16:21 25.05.2021
3623 Rain 11 1032 84 10000 0.45 273 15:43 25.05.2021
3624 Rain 11 1032 82 10000 1.34 268 15:18 25.05.2021
3625 Rain 11 1032 82 10000 1.34 268 15:18 25.05.2021
3626 Rain 11 1032 82 10000 1.34 268 15:18 25.05.2021
3627 Rain 12 1014 66 10000 7.08 252 14:48 25.05.2021
3628 Rain 13 1014 70 10000 6.6 261 14:26 25.05.2021
3629 Clouds 12 1031 71 10000 0.45 274 13:52 25.05.2021
3630 Clouds 12 1031 75 10000 0.45 274 13:25 25.05.2021
3631 Clouds 11 1031 75 10000 7.38 264 12:45 25.05.2021
3632 Rain 11 1030 76 10000 2.68 285 12:24 25.05.2021
3633 Clouds 10 1013 80 10000 7.06 258 11:41 25.05.2021
3634 Clouds 10 1013 83 10000 5.86 257 11:18 25.05.2021
3635 Clouds 9 1013 88 10000 5.85 257 10:34 25.05.2021
3636 Rain 9 1012 85 10000 4.1 223 09:48 25.05.2021
3637 Rain 9 1028 83 10000 4.34 214 08:40 25.05.2021
3638 Rain 9 1012 82 10000 4.38 212 07:50 25.05.2021
3639 Clouds 8 1011 88 10000 4.28 202 06:47 25.05.2021
3640 Clouds 9 1010 89 10000 2.66 219 03:31 25.05.2021
3641 Clouds 10 1010 90 10000 4.55 199 00:36 25.05.2021
3642 Rain 11 1026 70 10000 0.45 38 23:30 24.05.2021
3643 Clouds 11 1026 71 10000 2.71 236 22:48 24.05.2021
3644 Clouds 11 1026 66 10000 0.45 310 22:30 24.05.2021
3645 Rain 12 1009 90 10000 5.3 204 21:48 24.05.2021
3646 Clouds 13 1008 71 10000 5.66 160 21:20 24.05.2021
3647 Clouds 14 1008 77 10000 4.63 181 20:47 24.05.2021
3648 Clouds 15 1008 77 10000 4.58 178 20:20 24.05.2021
3649 Clouds 15 1008 77 10000 4.58 178 19:47 24.05.2021
3650 Clouds 15 1009 80 10000 4.7 181 19:28 24.05.2021
3651 Clouds 15 1009 80 10000 4.69 181 18:54 24.05.2021
3652 Clouds 15 1009 79 10000 4.86 184 18:29 24.05.2021
3653 Clouds 15 1009 79 10000 4.86 184 17:47 24.05.2021
3654 Clouds 15 1009 79 10000 5.18 189 17:22 24.05.2021
3655 Clouds 15 1009 79 10000 5.18 189 16:46 24.05.2021
3656 Rain 14 1009 73 10000 4.84 185 15:51 24.05.2021
3657 Rain 14 1009 79 10000 4.53 194 15:22 24.05.2021
3658 Rain 14 1009 73 10000 5.11 194 14:40 24.05.2021
3659 Rain 15 1009 72 10000 6.55 201 13:56 24.05.2021
3660 Rain 16 1025 44 10000 0.89 58 13:27 24.05.2021
3661 Rain 16 1025 44 10000 0.89 58 13:27 24.05.2021
3662 Rain 17 1025 38 10000 7.59 209 12:57 24.05.2021
3663 Rain 17 1025 39 10000 0.45 341 12:29 24.05.2021
3664 Clear 17 1025 38 10000 0.45 335 11:50 24.05.2021
3665 Clear 17 1026 42 10000 5.84 188 11:24 24.05.2021
3666 Clear 17 1026 44 10000 0.89 312 10:51 24.05.2021
3667 Clear 16 1010 59 10000 4.93 179 10:20 24.05.2021
3668 Clear 16 1010 51 10000 7.2 160 09:35 24.05.2021
3669 Clear 15 1027 60 10000 0.89 19 08:59 24.05.2021
3670 Clear 14 1027 60 10000 0.89 19 08:36 24.05.2021
3671 Clear 11 1011 80 10000 3.56 139 06:57 24.05.2021
3672 Clear 10 1013 85 10000 3.65 148 04:27 24.05.2021
3673 Clear 10 1013 86 10000 3.42 142 03:23 24.05.2021
3674 Clear 11 1014 84 10000 2.92 144 00:44 24.05.2021
3675 Clear 11 1014 83 10000 3.11 150 23:43 23.05.2021
3676 Clear 11 1015 85 10000 3.06 156 23:20 23.05.2021
3677 Clear 12 1015 85 10000 3.06 156 22:35 23.05.2021
3678 Clear 13 1015 83 10000 3.03 167 21:56 23.05.2021
3679 Clear 14 1015 74 10000 2.81 173 21:22 23.05.2021
3680 Clear 14 1015 74 10000 2.81 173 20:56 23.05.2021
3681 Clear 15 1015 70 10000 2.39 216 20:34 23.05.2021
3682 Clear 16 1015 70 10000 2.36 216 19:51 23.05.2021
3683 Clear 16 1015 64 10000 2.81 254 19:32 23.05.2021
3684 Clear 16 1015 64 10000 2.81 255 18:37 23.05.2021
3685 Clear 16 1014 55 10000 3.65 262 17:52 23.05.2021
3686 Clear 16 1020 32 10000 1.34 242 17:34 23.05.2021
3687 Clear 16 1020 32 10000 1.34 242 16:54 23.05.2021
3688 Clear 16 1020 32 10000 1.79 146 16:26 23.05.2021
3689 Clear 16 1021 34 10000 0.89 126 15:59 23.05.2021
3690 Clear 16 1021 32 10000 0.89 284 15:41 23.05.2021
3691 Clouds 16 1015 48 10000 5.66 250 15:22 23.05.2021
3692 Clear 15 1021 36 10000 1.34 219 14:49 23.05.2021
3693 Clear 15 1021 37 10000 1.79 173 14:24 23.05.2021
3694 Clear 14 1021 38 10000 2.24 284 13:30 23.05.2021
3695 Clear 14 1021 38 10000 2.24 317 12:35 23.05.2021
3696 Clouds 14 1020 39 10000 1.79 207 11:59 23.05.2021
3697 Clouds 13 1020 40 10000 1.79 355 11:28 23.05.2021
3698 Clouds 13 1020 43 10000 1.79 135 10:44 23.05.2021
3699 Clouds 12 1020 44 10000 1.34 159 10:24 23.05.2021
3700 Clouds 12 1025 53 10000 0.89 196 09:51 23.05.2021
3701 Clouds 10 1024 68 10000 1.34 249 08:39 23.05.2021
3702 Rain 10 1024 76 10000 1.34 249 07:47 23.05.2021
3703 Rain 10 1023 76 10000 1.34 277 07:29 23.05.2021
3704 Rain 9 1022 75 10000 0.45 326 05:56 23.05.2021
3705 Clear 10 1016 60 10000 3.14 204 01:40 23.05.2021
3706 Clouds 10 1010 95 10000 2.84 185 00:18 23.05.2021
3707 Clouds 10 1010 95 10000 2.83 185 00:18 23.05.2021
3708 Clouds 10 1009 95 10000 2.52 189 23:24 22.05.2021
3709 Clouds 10 1009 95 10000 2.52 189 22:50 22.05.2021
3710 Clouds 10 1015 60 10000 2.52 189 22:32 22.05.2021
3711 Clouds 11 1014 60 10000 2.3 202 21:48 22.05.2021
3712 Clouds 11 1014 58 10000 0.45 159 21:26 22.05.2021
3713 Clouds 12 1020 64 10000 3.17 236 20:54 22.05.2021
3714 Rain 12 1019 64 10000 1.34 301 20:26 22.05.2021
3715 Rain 12 1014 59 10000 0.45 147 19:41 22.05.2021
3716 Rain 12 1014 58 10000 0.89 355 19:23 22.05.2021
3717 Rain 12 1008 86 10000 4.82 256 18:47 22.05.2021
3718 Clouds 12 1025 70 10000 6.33 258 17:58 22.05.2021
3719 Rain 12 1007 82 10000 6.35 258 17:38 22.05.2021
3720 Clouds 13 1024 66 10000 0.45 35 16:55 22.05.2021
3721 Rain 13 1007 82 10000 6.36 246 15:59 22.05.2021
3722 Clouds 13 1007 82 10000 6.34 246 15:34 22.05.2021
3723 Clouds 13 1007 86 10000 7.1 241 14:51 22.05.2021
3724 Clouds 13 1006 75 10000 7.86 242 14:25 22.05.2021
3725 Clouds 13 1006 75 10000 7.86 242 13:49 22.05.2021
3726 Clouds 12 1005 72 10000 7.5 235 13:20 22.05.2021
3727 Clouds 12 1021 68 10000 0.89 318 12:30 22.05.2021
3728 Clouds 12 1021 68 10000 0.89 318 12:30 22.05.2021
3729 Rain 12 1021 69 10000 7.71 230 11:53 22.05.2021
3730 Rain 11 1005 72 10000 7.59 224 10:58 22.05.2021
3731 Rain 11 1004 71 10000 7.37 218 10:36 22.05.2021
3732 Rain 11 1020 69 10000 0.45 141 09:46 22.05.2021
3733 Clouds 11 1004 76 10000 6.56 210 08:36 22.05.2021
3734 Clouds 11 1020 69 10000 0.89 322 07:49 22.05.2021
3735 Clouds 11 1020 69 10000 1.34 200 07:49 22.05.2021
3736 Clouds 11 1020 69 10000 1.34 200 07:49 22.05.2021
3737 Clouds 10 1020 72 10000 0.89 346 06:48 22.05.2021
3738 Clear 9 1020 76 10000 0.45 72 04:44 22.05.2021
3739 Clouds 10 1020 71 10000 4.34 207 00:50 22.05.2021
3740 Clouds 11 1020 67 10000 0.89 26 23:35 21.05.2021
3741 Clouds 11 1020 82 10000 3.48 198 22:38 21.05.2021
3742 Clouds 11 1020 84 10000 4.19 214 22:20 21.05.2021
3743 Clouds 11 1020 78 10000 4.19 214 21:41 21.05.2021
3744 Clouds 12 1020 72 10000 4.72 221 21:19 21.05.2021
3745 Rain 13 1003 81 10000 4.83 218 20:46 21.05.2021
3746 Clouds 14 1004 72 10000 5.58 228 20:25 21.05.2021
3747 Clouds 15 1004 72 10000 5.58 228 19:40 21.05.2021
3748 Rain 16 1021 45 10000 5.58 234 19:22 21.05.2021
3749 Rain 17 1020 32 10000 0.89 344 18:37 21.05.2021
3750 Clear 17 1004 58 10000 6.25 243 17:56 21.05.2021
3751 Clear 18 1004 58 10000 6.24 243 17:36 21.05.2021
3752 Clear 18 1004 49 10000 6.72 251 16:53 21.05.2021
3753 Clear 18 1005 55 10000 7.23 244 16:26 21.05.2021
3754 Clear 18 1005 55 10000 7.23 244 15:48 21.05.2021
3755 Clear 17 1005 49 10000 7.5 251 15:30 21.05.2021
3756 Clear 18 1005 46 10000 7.18 251 14:55 21.05.2021
3757 Clear 18 1005 46 10000 7.18 251 14:35 21.05.2021
3758 Clear 17 1006 43 10000 7.49 247 13:41 21.05.2021
3759 Clear 17 1006 43 10000 7.49 247 13:20 21.05.2021
3760 Clear 16 1006 45 10000 6.99 246 12:22 21.05.2021
3761 Clear 16 1006 45 10000 6.99 246 11:37 21.05.2021
3762 Clouds 15 1007 49 10000 6.98 240 11:18 21.05.2021
3763 Clouds 15 1007 49 10000 7 240 10:42 21.05.2021
3764 Clouds 15 1006 53 10000 6.37 235 09:38 21.05.2021
3765 Clouds 14 1007 59 10000 5.67 230 09:20 21.05.2021
3766 Clouds 13 1007 69 10000 4.75 222 08:29 21.05.2021
3767 Clouds 13 1007 69 10000 4.75 222 07:50 21.05.2021
3768 Clouds 13 1024 64 10000 3.98 213 06:50 21.05.2021
3769 Clear 14 1026 62 10000 4.91 191 03:30 21.05.2021
3770 Clear 14 1013 59 10000 4.63 181 00:31 21.05.2021
3771 Clouds 14 1013 59 10000 4.62 180 23:52 20.05.2021
3772 Clear 14 1014 59 10000 4.5 180 23:24 20.05.2021
3773 Clear 14 1014 59 10000 4.5 180 23:24 20.05.2021
3774 Clouds 14 1014 59 10000 4.5 180 22:55 20.05.2021
3775 Rain 14 1015 61 10000 3.98 184 22:32 20.05.2021
3776 Clear 15 1015 61 10000 3.98 184 21:55 20.05.2021
3777 Clear 15 1015 61 10000 3.99 184 21:55 20.05.2021
3778 Clear 15 1015 61 10000 3.99 184 21:55 20.05.2021
3779 Clear 15 1015 51 10000 4.12 180 21:24 20.05.2021
3780 Clear 15 1015 61 10000 3.92 208 20:58 20.05.2021
3781 Clear 15 1016 60 10000 3.91 211 20:32 20.05.2021
3782 Clear 16 1016 60 10000 3.91 211 19:51 20.05.2021
3783 Clear 16 1017 63 10000 3.15 225 19:28 20.05.2021
3784 Clear 16 1017 63 10000 3.15 225 18:43 20.05.2021
3785 Clear 17 1017 57 10000 2.61 239 18:25 20.05.2021
3786 Clear 17 1017 57 10000 2.61 239 17:46 20.05.2021
3787 Clear 17 1017 56 10000 2 245 17:28 20.05.2021
3788 Clear 17 1017 56 10000 2 245 16:39 20.05.2021
3789 Clear 18 1034 34 10000 2.69 224 16:19 20.05.2021
3790 Clouds 17 1018 50 10000 2.7 223 15:40 20.05.2021
3791 Clouds 17 1018 50 10000 2.69 224 15:40 20.05.2021
3792 Clouds 18 1019 46 10000 1.96 226 15:21 20.05.2021
3793 Clouds 18 1019 46 10000 1.96 226 15:21 20.05.2021
3794 Clouds 18 1020 47 10000 1.81 228 14:26 20.05.2021
3795 Clouds 17 1020 47 10000 1.8 228 13:59 20.05.2021
3796 Clouds 17 1020 47 10000 1.83 228 13:35 20.05.2021
3797 Clouds 15 1021 53 10000 1.78 212 12:49 20.05.2021
3798 Clouds 14 1021 61 10000 1.66 207 12:20 20.05.2021
3799 Clouds 14 1021 61 10000 1.66 207 11:56 20.05.2021
3800 Clouds 13 1022 73 10000 1.79 223 11:21 20.05.2021
3801 Clouds 13 1022 73 10000 1.78 223 10:49 20.05.2021
3802 Clouds 12 1039 72 10000 0.45 270 10:28 20.05.2021
3803 Clouds 12 1038 77 10000 1.41 235 09:52 20.05.2021
3804 Clouds 11 1038 81 9000 1.43 257 09:27 20.05.2021
3805 Clouds 10 1023 84 8000 1.42 257 08:58 20.05.2021
3806 Clouds 10 1023 84 8000 1.43 257 08:39 20.05.2021
3807 Clouds 10 1038 89 8000 0.45 275 08:20 20.05.2021
3808 Clouds 10 1038 89 8000 0.45 275 07:45 20.05.2021
3809 Clouds 9 1022 96 10000 1.43 260 06:55 20.05.2021
3810 Clouds 9 1022 96 10000 1.43 260 06:36 20.05.2021
3811 Clouds 8 1021 98 10000 1.41 254 05:22 20.05.2021
3812 Clouds 9 1020 97 10000 1.63 261 03:24 20.05.2021
3813 Clouds 10 1020 95 10000 1.63 259 00:43 20.05.2021
3814 Clouds 10 1019 94 10000 1.53 273 23:56 19.05.2021
3815 Clouds 10 1019 92 10000 1.47 286 23:25 19.05.2021
3816 Rain 10 1019 92 10000 1.47 286 22:57 19.05.2021
3817 Rain 11 1019 92 10000 1.48 285 22:38 19.05.2021
3818 Clouds 11 1018 90 10000 1.65 288 22:18 19.05.2021
3819 Clouds 11 1018 90 10000 1.65 287 21:41 19.05.2021
3820 Clear 12 1017 87 10000 1.68 292 21:21 19.05.2021
3821 Clear 12 1018 82 10000 1.46 285 20:57 19.05.2021
3822 Clouds 12 1017 76 10000 1.9 283 20:24 19.05.2021
3823 Clouds 13 1017 76 10000 1.89 282 19:49 19.05.2021
3824 Clouds 13 1034 68 10000 2.64 276 19:25 19.05.2021
3825 Clouds 13 1033 71 10000 2.63 276 18:49 19.05.2021
3826 Rain 14 1033 67 10000 3.25 267 18:28 19.05.2021
3827 Clouds 13 1017 66 10000 3.25 267 17:48 19.05.2021
3828 Clouds 14 1016 65 10000 4.03 254 17:21 19.05.2021
3829 Clouds 14 1016 65 10000 4.03 254 16:41 19.05.2021
3830 Clouds 14 1017 71 10000 3.45 265 16:21 19.05.2021
3831 Clouds 15 1017 71 10000 3.45 265 15:45 19.05.2021
3832 Clouds 15 1017 76 10000 5.06 274 14:58 19.05.2021
3833 Clouds 16 1017 68 10000 5.04 266 14:40 19.05.2021
3834 Clouds 15 1016 59 10000 4.42 270 13:54 19.05.2021
3835 Clouds 15 1017 60 10000 4.23 277 13:36 19.05.2021
3836 Clouds 15 1017 60 10000 4.23 277 12:46 19.05.2021
3837 Clouds 14 1017 67 10000 4.71 265 12:24 19.05.2021
3838 Clouds 14 1017 67 10000 4.7 265 11:59 19.05.2021
3839 Clouds 14 1017 67 10000 4.71 265 11:41 19.05.2021
3840 Clouds 14 1034 54 10000 1.34 270 11:22 19.05.2021
3841 Clouds 14 1034 54 10000 1.34 270 11:22 19.05.2021
3842 Clouds 14 1017 64 10000 4.08 262 10:54 19.05.2021
3843 Clouds 13 1017 64 10000 4.08 262 10:35 19.05.2021
3844 Clouds 12 1017 64 10000 2.93 251 09:51 19.05.2021
3845 Clouds 11 1017 72 10000 2.37 243 09:23 19.05.2021
3846 Clouds 11 1017 73 10000 2.23 231 09:23 19.05.2021
3847 Clouds 11 1017 73 10000 2.23 231 08:51 19.05.2021
3848 Clouds 10 1017 73 10000 2.23 231 08:33 19.05.2021
3849 Clouds 9 1017 83 10000 1.81 210 07:48 19.05.2021
3850 Clouds 8 1017 90 10000 1.57 186 06:49 19.05.2021
3851 Clouds 8 1017 92 10000 1.5 183 05:52 19.05.2021
3852 Clouds 8 1016 93 10000 1.19 212 03:43 19.05.2021
3853 Clouds 9 1016 93 10000 1.27 238 00:48 19.05.2021
3854 Clouds 9 1033 92 10000 1.14 249 00:29 19.05.2021
3855 Clouds 10 1032 89 10000 0.89 297 23:29 18.05.2021
3856 Clouds 10 1032 85 10000 0.89 297 22:54 18.05.2021
3857 Clouds 10 1015 89 10000 1.41 332 22:27 18.05.2021
3858 Clouds 11 1015 89 10000 1.41 332 21:55 18.05.2021
3859 Clouds 11 1015 89 10000 1.05 292 21:36 18.05.2021
3860 Clouds 12 1015 86 10000 1.45 288 20:51 18.05.2021
3861 Clouds 12 1014 84 10000 1.88 286 20:20 18.05.2021
3862 Clouds 13 1014 84 10000 1.89 286 19:59 18.05.2021
3863 Clouds 13 1014 84 10000 1.89 286 19:40 18.05.2021
3864 Clouds 13 1013 80 10000 2.58 290 19:18 18.05.2021
3865 Clouds 13 1030 78 10000 2.58 290 18:42 18.05.2021
3866 Rain 13 1030 78 10000 3.15 271 18:23 18.05.2021
3867 Rain 14 1013 76 10000 3.16 271 17:41 18.05.2021
3868 Rain 14 1013 70 10000 3.59 264 16:57 18.05.2021
3869 Clouds 14 1013 73 10000 3.58 254 16:29 18.05.2021
3870 Rain 14 1013 73 10000 3.58 254 15:54 18.05.2021
3871 Clouds 14 1014 84 10000 3.97 251 15:34 18.05.2021
3872 Clouds 14 1014 84 10000 3.97 251 14:54 18.05.2021
3873 Clouds 14 1014 88 10000 4.01 253 14:25 18.05.2021
3874 Clouds 13 1013 88 10000 4.11 262 13:28 18.05.2021
3875 Clouds 13 1013 88 10000 3.7 253 12:33 18.05.2021
3876 Clouds 12 1013 88 10000 3.7 253 11:53 18.05.2021
3877 Clouds 12 1013 94 10000 3.56 242 11:33 18.05.2021
3878 Rain 12 1013 94 10000 3.55 242 10:50 18.05.2021
3879 Clouds 11 1013 95 10000 3.74 235 10:29 18.05.2021
3880 Clouds 11 1013 95 10000 3.75 235 09:52 18.05.2021
3881 Clouds 11 1013 95 10000 3.74 235 09:32 18.05.2021
3882 Rain 11 1012 76 10000 3.6 210 08:36 18.05.2021
3883 Rain 11 1012 76 10000 3.6 210 08:18 18.05.2021
3884 Clouds 10 1011 87 10000 3.09 220 07:37 18.05.2021
3885 Clouds 10 1011 81 10000 2.57 230 06:21 18.05.2021
3886 Clouds 9 1010 87 10000 1.54 150 02:28 18.05.2021
3887 Clouds 9 1010 87 10000 1.03 0 01:46 18.05.2021
3888 Clear 8 1010 87 10000 1.03 0 00:40 18.05.2021
3889 Clear 8 1010 87 10000 1.03 0 00:22 18.05.2021
3890 Clear 9 1009 87 10000 0.51 0 23:38 17.05.2021
3891 Clouds 10 1009 87 10000 1.03 0 23:20 17.05.2021
3892 Clouds 10 1009 81 10000 1.54 340 22:41 17.05.2021
3893 Clouds 11 1009 66 10000 4.63 290 22:21 17.05.2021
3894 Clouds 11 1009 66 10000 4.63 290 22:21 17.05.2021
3895 Clouds 12 1008 66 10000 5.66 280 21:50 17.05.2021
3896 Clouds 12 1008 62 10000 7.2 290 21:20 17.05.2021
3897 Clouds 13 1007 62 10000 8.23 280 20:40 17.05.2021
3898 Clouds 13 1007 62 10000 8.23 280 20:40 17.05.2021
3899 Clouds 13 1007 82 10000 2.57 330 20:20 17.05.2021
3900 Clouds 13 1006 82 10000 2.57 360 19:44 17.05.2021
3901 Clouds 13 1006 76 10000 2.57 360 19:26 17.05.2021
3902 Clouds 13 1006 76 10000 5.14 330 18:48 17.05.2021
3903 Clouds 13 1006 72 10000 8.23 280 18:30 17.05.2021
3904 Clouds 14 1005 77 10000 9.77 260 17:48 17.05.2021
3905 Clouds 14 1004 77 10000 9.26 260 17:28 17.05.2021
3906 Clouds 14 1005 87 10000 7.72 250 16:56 17.05.2021
3907 Clouds 13 1004 87 10000 7.2 260 16:21 17.05.2021
3908 Rain 13 1004 67 10000 9.26 250 15:36 17.05.2021
3909 Rain 13 1004 67 10000 9.26 250 15:18 17.05.2021
3910 Clouds 12 1004 71 10000 5.14 230 14:43 17.05.2021
3911 Clouds 12 1004 67 10000 9.26 240 14:24 17.05.2021
3912 Rain 13 1003 67 10000 7.72 250 13:44 17.05.2021
3913 Rain 13 1003 67 10000 2.57 260 12:42 17.05.2021
3914 Clouds 15 1003 77 10000 2.57 260 12:23 17.05.2021
3915 Clouds 13 1003 87 10000 5.66 260 11:47 17.05.2021
3916 Rain 13 1003 67 10000 5.14 220 11:22 17.05.2021
3917 Clouds 13 1003 62 10000 7.2 230 10:51 17.05.2021
3918 Clouds 13 1003 76 10000 3.6 200 10:29 17.05.2021
3919 Clouds 13 1003 76 10000 4.12 190 09:51 17.05.2021
3920 Clouds 12 1003 87 10000 3.09 160 08:48 17.05.2021
3921 Clouds 11 1003 93 10000 3.09 170 08:18 17.05.2021
3922 Clouds 11 1002 87 10000 3.6 160 07:28 17.05.2021
3923 Clouds 10 1002 93 10000 3.6 160 06:34 17.05.2021
3924 Clouds 10 1002 93 10000 2.06 150 04:29 17.05.2021
3925 Rain 9 1002 93 10000 3.09 150 02:57 17.05.2021
3926 Clear 9 1002 93 10000 1.03 0 01:27 17.05.2021
3927 Clear 9 1002 93 10000 1.54 120 00:31 17.05.2021
3928 Clouds 9 1001 93 10000 1.03 0 23:29 16.05.2021
3929 Clouds 10 1001 93 10000 1.54 120 22:51 16.05.2021
3930 Clouds 10 1001 93 10000 2.57 120 22:29 16.05.2021
3931 Clouds 11 1001 87 10000 3.09 160 21:50 16.05.2021
3932 Clouds 11 1001 82 10000 1.54 120 21:32 16.05.2021
3933 Clouds 12 1001 87 10000 3.09 180 20:52 16.05.2021
3934 Clouds 13 1000 82 10000 4.63 200 20:29 16.05.2021
3935 Clouds 13 1000 82 10000 4.12 150 19:59 16.05.2021
3936 Rain 14 1000 71 10000 5.14 160 19:38 16.05.2021
3937 Rain 14 1000 71 10000 5.14 160 19:18 16.05.2021
3938 Clouds 15 1001 67 10000 5.14 170 18:41 16.05.2021
3939 Clouds 15 1001 71 10000 4.12 160 18:22 16.05.2021
3940 Clouds 15 1001 82 10000 5.14 160 17:48 16.05.2021
3941 Clouds 15 1001 82 10000 4.12 180 17:29 16.05.2021
3942 Clouds 15 1001 77 10000 2.06 200 16:59 16.05.2021
3943 Clouds 14 1001 87 10000 3.6 220 16:40 16.05.2021
3944 Clouds 15 1001 87 10000 3.6 220 16:19 16.05.2021
3945 Clouds 15 1001 58 10000 5.14 240 15:45 16.05.2021
3946 Rain 16 1001 55 10000 6.17 250 15:21 16.05.2021
3947 Clouds 16 1001 51 10000 7.2 250 14:46 16.05.2021
3948 Clouds 16 1001 55 10000 3.6 240 14:19 16.05.2021
3949 Rain 16 1002 59 10000 3.6 260 13:52 16.05.2021
3950 Clouds 16 1002 63 10000 2.06 0 13:21 16.05.2021
3951 Clouds 15 1003 71 10000 2.06 260 12:53 16.05.2021
3952 Clouds 14 1003 71 10000 2.06 260 12:33 16.05.2021
3953 Clouds 13 1003 67 10000 2.06 0 11:59 16.05.2021
3954 Clouds 13 1003 71 10000 1.03 0 11:34 16.05.2021
3955 Clouds 12 1003 87 10000 3.6 180 10:53 16.05.2021
3956 Clouds 11 1003 81 10000 1.54 180 10:33 16.05.2021
3957 Clouds 11 1003 87 10000 3.6 180 10:33 16.05.2021
3958 Rain 11 1003 81 10000 1.54 180 09:54 16.05.2021
3959 Clouds 10 1003 93 10000 2.06 200 09:28 16.05.2021
3960 Rain 10 1003 87 10000 5.14 190 08:54 16.05.2021
3961 Rain 10 1003 81 10000 4.12 170 08:27 16.05.2021
3962 Clouds 9 1003 87 10000 3.6 170 07:33 16.05.2021
3963 Clouds 9 1003 87 10000 3.6 170 07:33 16.05.2021
3964 Clouds 9 1003 87 10000 3.6 170 07:33 16.05.2021
3965 Clouds 9 1002 93 10000 3.6 160 06:59 16.05.2021
3966 Clear 8 1003 87 10000 3.6 160 04:43 16.05.2021
3967 Clouds 10 1002 76 10000 3.6 210 00:47 16.05.2021
3968 Clear 11 1002 71 10000 4.12 200 23:56 15.05.2021
3969 Clouds 10 1002 71 10000 3.6 210 23:22 15.05.2021
3970 Clear 11 1002 71 10000 4.12 200 22:49 15.05.2021
3971 Clouds 11 1002 76 10000 4.12 180 22:23 15.05.2021
3972 Clouds 12 1001 76 10000 3.6 180 21:41 15.05.2021
3973 Clouds 12 1001 71 10000 4.63 190 21:21 15.05.2021
3974 Clouds 13 1001 67 10000 4.12 190 20:38 15.05.2021
3975 Clouds 13 1001 71 10000 3.6 170 20:19 15.05.2021
3976 Clouds 13 1001 76 10000 4.12 150 19:38 15.05.2021
3977 Clouds 13 1002 82 10000 3.6 150 18:45 15.05.2021
3978 Rain 12 1002 82 10000 2.06 120 18:20 15.05.2021
3979 Clouds 12 1003 87 10000 5.66 180 17:26 15.05.2021
3980 Rain 12 1003 82 10000 4.12 140 16:48 15.05.2021
3981 Rain 13 1003 87 10000 5.14 150 16:26 15.05.2021
3982 Rain 13 1003 76 10000 5.14 150 15:58 15.05.2021
3983 Rain 14 1003 67 10000 6.17 160 15:20 15.05.2021
3984 Clouds 13 1004 76 10000 4.63 140 14:30 15.05.2021
3985 Clouds 12 1005 87 10000 4.63 170 13:56 15.05.2021
3986 Clouds 13 1005 87 10000 5.14 200 13:31 15.05.2021
3987 Rain 12 1005 76 10000 7.72 210 12:40 15.05.2021
3988 Clouds 13 1005 67 10000 3.09 190 11:52 15.05.2021
3989 Clouds 13 1006 71 10000 5.14 190 10:58 15.05.2021
3990 Clouds 12 1006 76 10000 4.63 190 10:27 15.05.2021
3991 Clouds 11 1006 87 10000 3.6 170 09:30 15.05.2021
3992 Clouds 10 1006 87 10000 3.6 160 08:34 15.05.2021
3993 Clouds 10 1006 93 10000 2.57 150 07:46 15.05.2021
3994 Clouds 9 1006 87 10000 2.06 130 07:22 15.05.2021
3995 Clouds 10 1006 87 10000 2.06 130 06:50 15.05.2021
3996 Clear 9 1006 87 10000 3.09 150 05:37 15.05.2021
3997 Clear 10 1007 87 10000 2.06 150 03:26 15.05.2021
3998 Clouds 11 1008 93 10000 2.06 130 00:18 15.05.2021
3999 Clouds 11 1008 87 10000 2.06 140 23:29 14.05.2021
4000 Clouds 12 1008 93 10000 3.09 140 22:28 14.05.2021
4001 Clouds 12 1008 87 10000 2.06 140 21:56 14.05.2021
4002 Clouds 12 1008 93 10000 3.09 160 21:28 14.05.2021
4003 Clouds 13 1008 87 10000 3.6 150 20:49 14.05.2021
4004 Clouds 13 1008 87 10000 3.6 190 20:26 14.05.2021
4005 Rain 14 1008 87 10000 4.63 160 19:42 14.05.2021
4006 Rain 14 1008 82 10000 3.6 220 19:22 14.05.2021
4007 Clouds 15 1008 67 10000 2.06 170 18:46 14.05.2021
4008 Clouds 15 1008 72 10000 3.09 160 18:24 14.05.2021
4009 Rain 15 1007 76 10000 5.14 140 17:41 14.05.2021
4010 Rain 16 1008 67 10000 5.14 210 17:21 14.05.2021
4011 Rain 17 1007 48 10000 3.09 310 16:44 14.05.2021
4012 Clouds 17 1007 42 10000 2.57 320 16:25 14.05.2021
4013 Clouds 16 1007 51 10000 4.63 330 15:31 14.05.2021
4014 Clouds 17 1007 55 10000 4.63 350 14:41 14.05.2021
4015 Clouds 16 1007 62 10000 7.2 260 13:55 14.05.2021
4016 Clouds 16 1007 48 10000 4.12 230 13:31 14.05.2021
4017 Clouds 17 1007 51 10000 2.57 0 12:51 14.05.2021
4018 Clouds 16 1007 51 10000 1.54 0 12:29 14.05.2021
4019 Clouds 16 1008 55 10000 1.54 0 11:41 14.05.2021
4020 Clouds 15 1008 58 10000 1.54 0 11:20 14.05.2021
4021 Clouds 14 1008 62 10000 1.54 260 10:37 14.05.2021
4022 Clear 13 1008 62 10000 2.06 210 09:52 14.05.2021
4023 Clear 14 1008 66 10000 1.54 230 09:30 14.05.2021
4024 Clear 12 1007 76 10000 1.54 180 08:48 14.05.2021
4025 Clear 10 1007 87 10000 0.51 0 07:53 14.05.2021
4026 Clouds 9 1007 93 10000 0.51 150 06:47 14.05.2021
4027 Clouds 10 1007 93 10000 0.51 0 03:57 14.05.2021
4028 Clear 11 1007 93 10000 0.51 0 02:31 14.05.2021
4029 Clear 11 1007 81 10000 0.51 0 00:37 14.05.2021
4030 Clear 12 1008 82 10000 2.06 230 23:48 13.05.2021
4031 Clouds 12 1008 76 10000 1.54 320 23:21 13.05.2021
4032 Clear 12 1008 76 10000 2.57 290 22:49 13.05.2021
4033 Clouds 13 1008 67 10000 2.57 290 22:30 13.05.2021
4034 Clear 13 1007 92 10000 1.96 301 21:50 13.05.2021
4035 Clear 13 1007 92 10000 1.96 301 21:50 13.05.2021
4036 Clear 13 1024 65 10000 2.61 285 21:29 13.05.2021
4037 Clouds 13 1007 90 10000 2.72 292 20:53 13.05.2021
4038 Clouds 13 1007 90 10000 2.71 292 20:35 13.05.2021
4039 Clouds 14 1007 91 10000 3.39 276 19:46 13.05.2021
4040 Clouds 14 1007 91 10000 4.02 260 19:23 13.05.2021
4041 Clouds 15 1007 91 10000 4.02 260 18:56 13.05.2021
4042 Rain 15 1006 89 10000 4.87 253 18:37 13.05.2021
4043 Rain 16 1006 89 10000 4.91 253 18:18 13.05.2021
4044 Rain 17 1006 89 10000 4.87 253 17:40 13.05.2021
4045 Rain 18 1006 66 10000 5.07 258 17:21 13.05.2021
4046 Clear 19 1005 45 10000 2.11 294 16:37 13.05.2021
4047 Clear 20 1005 45 10000 2.11 294 16:19 13.05.2021
4048 Clouds 20 1005 45 10000 2.11 294 15:46 13.05.2021
4049 Clear 20 1005 39 10000 2.14 313 15:23 13.05.2021
4050 Clear 20 1005 39 10000 1.44 328 14:56 13.05.2021
4051 Clear 20 1006 41 10000 1.12 331 14:36 13.05.2021
4052 Clear 20 1006 41 10000 1.11 331 14:18 13.05.2021
4053 Clear 19 1006 41 10000 1.12 331 13:40 13.05.2021
4054 Clouds 19 1006 44 10000 0.91 340 13:21 13.05.2021
4055 Clear 19 1006 44 10000 0.91 340 12:40 13.05.2021
4056 Clouds 18 1007 53 10000 0.49 302 11:59 13.05.2021
4057 Clouds 17 1007 62 10000 0.78 213 11:36 13.05.2021
4058 Clouds 17 1007 62 10000 0.78 213 10:55 13.05.2021
4059 Clouds 15 1007 62 10000 0.78 213 10:36 13.05.2021
4060 Clouds 14 1008 72 10000 1.24 162 09:51 13.05.2021
4061 Clear 13 1008 82 10000 1.54 140 09:29 13.05.2021
4062 Clear 10 1009 82 10000 1.68 129 08:38 13.05.2021
4063 Clear 10 1025 90 10000 1.4 135 08:19 13.05.2021
4064 Clouds 7 1025 99 10000 1.32 132 07:20 13.05.2021
4065 Clouds 6 1026 99 10000 1.34 144 05:52 13.05.2021
4066 Clear 8 1026 96 10000 0.93 174 02:39 13.05.2021
4067 Clear 10 1027 90 10000 1.01 186 00:52 13.05.2021
4068 Clear 10 1011 92 10000 0.46 214 23:43 12.05.2021
4069 Clouds 11 1011 90 10000 0.6 289 22:57 12.05.2021
4070 Clear 11 1028 86 10000 0.98 293 22:23 12.05.2021
4071 Clear 12 1027 86 10000 0.98 293 21:55 12.05.2021
4072 Clear 12 1027 84 10000 1.01 295 21:18 12.05.2021
4073 Clear 13 1027 82 10000 1 295 20:48 12.05.2021
4074 Rain 13 1027 77 10000 0.89 90 19:52 12.05.2021
4075 Rain 15 1027 58 10000 0.89 268 19:20 12.05.2021
4076 Clouds 15 1010 73 10000 0.94 273 18:28 12.05.2021
4077 Clouds 16 1010 73 10000 0.94 273 17:55 12.05.2021
4078 Clouds 16 1010 73 10000 0.95 273 17:35 12.05.2021
4079 Clouds 17 1010 66 10000 1.62 263 16:53 12.05.2021
4080 Clouds 17 1010 58 10000 2.28 270 16:28 12.05.2021
4081 Clouds 17 1010 58 10000 2.29 270 15:44 12.05.2021
4082 Clouds 18 1011 59 10000 4.12 310 15:20 12.05.2021
4083 Rain 16 1011 63 10000 5.14 310 14:39 12.05.2021
4084 Rain 16 1011 55 10000 1.54 40 13:59 12.05.2021
4085 Rain 17 1011 55 10000 1.54 40 13:39 12.05.2021
4086 Clouds 16 1011 55 10000 1.54 80 12:43 12.05.2021
4087 Clouds 16 1011 63 10000 2.06 310 12:24 12.05.2021
4088 Clouds 15 1012 67 10000 2.06 280 11:36 12.05.2021
4089 Clouds 14 1012 72 10000 2.57 270 10:59 12.05.2021
4090 Clouds 14 1012 72 10000 2.57 290 10:32 12.05.2021
4091 Clouds 13 1012 76 10000 2.57 280 09:48 12.05.2021
4092 Clouds 13 1012 82 10000 3.09 270 09:28 12.05.2021
4093 Clouds 12 1012 87 10000 1.03 0 08:55 12.05.2021
4094 Clouds 12 1011 93 10000 1.03 0 08:33 12.05.2021
4095 Clear 12 1011 93 10000 1.03 80 07:59 12.05.2021
4096 Clouds 11 1011 93 10000 1.03 0 06:31 12.05.2021
4097 Clear 12 1011 93 10000 1.03 0 02:27 12.05.2021
4098 Clouds 13 1010 87 10000 2.06 240 00:39 12.05.2021
4099 Rain 13 1010 94 10000 2.57 240 23:49 11.05.2021
4100 Rain 13 1010 82 10000 3.6 290 23:29 11.05.2021
4101 Clouds 14 1010 82 10000 3.6 290 22:59 11.05.2021
4102 Rain 14 1010 88 10000 4.12 270 22:41 11.05.2021
4103 Clouds 14 1010 94 10000 2.57 260 22:18 11.05.2021
4104 Clouds 14 1010 94 10000 2.57 260 22:18 11.05.2021
4105 Clouds 14 1009 88 10000 3.6 280 21:47 11.05.2021
4106 Clouds 14 1009 88 10000 3.6 280 21:47 11.05.2021
4107 Clouds 14 1009 88 10000 3.6 280 21:28 11.05.2021
4108 Clouds 15 1009 94 10000 1.86 290 20:46 11.05.2021
4109 Clouds 15 1009 94 10000 2.7 283 20:26 11.05.2021
4110 Clouds 14 1008 88 10000 1.03 0 19:45 11.05.2021
4111 Clouds 15 1008 94 10000 2.06 350 19:23 11.05.2021
4112 Clouds 15 1008 88 10000 3.6 320 18:50 11.05.2021
4113 Clouds 15 1008 88 10000 3.6 320 18:28 11.05.2021
4114 Clouds 15 1008 82 10000 4.12 280 17:45 11.05.2021
4115 Clouds 15 1007 77 10000 2.57 240 17:23 11.05.2021
4116 Clouds 15 1007 72 10000 3.09 190 16:59 11.05.2021
4117 Rain 15 1008 77 10000 3.09 170 16:28 11.05.2021
4118 Rain 16 1008 72 10000 3.6 170 15:46 11.05.2021
4119 Rain 16 1007 77 10000 3.6 160 15:20 11.05.2021
4120 Rain 16 1007 82 10000 2.06 110 14:44 11.05.2021
4121 Rain 16 1008 77 10000 2.57 140 14:25 11.05.2021
4122 Rain 17 1007 77 10000 1.54 160 13:58 11.05.2021
4123 Clouds 16 1007 72 10000 1.03 0 13:38 11.05.2021
4124 Clouds 16 1007 72 10000 1.03 0 13:19 11.05.2021
4125 Clouds 16 1007 82 10000 1.03 0 12:49 11.05.2021
4126 Rain 16 1007 82 10000 1.03 0 12:20 11.05.2021
4127 Clouds 15 1007 82 10000 1.03 0 11:42 11.05.2021
4128 Rain 15 1007 82 10000 0.51 0 11:20 11.05.2021
4129 Clouds 15 1008 82 10000 2.06 70 10:45 11.05.2021
4130 Clouds 15 1008 82 10000 1.54 20 10:21 11.05.2021
4131 Clouds 14 1008 88 10000 1.03 0 09:47 11.05.2021
4132 Clouds 14 1008 88 10000 0.51 0 09:29 11.05.2021
4133 Clouds 14 1009 88 10000 1.03 0 08:52 11.05.2021
4134 Clouds 14 1009 88 10000 1.03 0 08:32 11.05.2021
4135 Clouds 14 1008 94 10000 1.03 0 07:55 11.05.2021
4136 Clouds 14 1008 94 10000 1.03 140 07:31 11.05.2021
4137 Clouds 14 1009 94 10000 1.54 140 06:21 11.05.2021
4138 Clouds 14 1009 94 10000 1.54 140 06:21 11.05.2021
4139 Rain 15 1009 82 10000 1.54 90 01:36 11.05.2021
4140 Rain 15 1009 72 10000 2.57 130 00:39 11.05.2021
4141 Rain 16 1009 72 10000 2.57 130 00:19 11.05.2021
4142 Clear 16 1009 72 10000 2.06 170 23:23 10.05.2021
4143 Clear 16 1009 63 10000 3.09 180 22:50 10.05.2021
4144 Clear 17 1009 63 10000 4.63 160 22:26 10.05.2021
4145 Clouds 17 1008 63 10000 3.6 160 21:54 10.05.2021
4146 Rain 17 1009 59 10000 3.6 160 21:29 10.05.2021
4147 Clouds 17 1009 59 10000 3.09 180 20:47 10.05.2021
4148 Clear 18 1009 59 10000 3.6 190 20:28 10.05.2021
4149 Rain 18 1008 55 10000 4.63 190 19:59 10.05.2021
4150 Clear 19 1008 55 10000 4.63 190 19:39 10.05.2021
4151 Clouds 19 1008 55 10000 4.12 190 19:19 10.05.2021
4152 Clouds 19 1008 55 10000 4.63 210 18:50 10.05.2021
4153 Clouds 20 1008 55 10000 5.14 210 18:20 10.05.2021
4154 Clouds 20 1008 55 10000 3.09 230 17:42 10.05.2021
4155 Clouds 20 1008 63 10000 2.57 280 17:20 10.05.2021
4156 Clouds 19 1008 49 10000 6.17 200 16:28 10.05.2021
4157 Clouds 19 1008 49 10000 5.66 200 15:59 10.05.2021
4158 Clouds 18 1008 55 10000 5.14 210 15:32 10.05.2021
4159 Clouds 20 1008 52 10000 5.14 210 14:56 10.05.2021
4160 Clouds 20 1008 52 10000 5.14 210 14:34 10.05.2021
4161 Clouds 20 1007 52 10000 7.2 200 13:58 10.05.2021
4162 Clouds 20 1007 55 10000 7.72 220 13:26 10.05.2021
4163 Rain 20 1007 55 10000 6.17 210 12:44 10.05.2021
4164 Rain 19 1006 55 10000 6.69 210 12:22 10.05.2021
4165 Rain 19 1006 55 10000 7.2 220 11:38 10.05.2021
4166 Clouds 20 1005 52 10000 7.2 230 11:20 10.05.2021
4167 Clouds 20 1005 52 10000 7.2 230 11:20 10.05.2021
4168 Clouds 20 1005 56 10000 5.66 190 10:46 10.05.2021
4169 Clouds 20 1005 56 10000 5.66 190 10:46 10.05.2021
4170 Clouds 20 1004 59 10000 6.69 190 10:25 10.05.2021
4171 Clouds 21 1004 52 10000 7.72 160 09:43 10.05.2021
4172 Clouds 19 1004 55 10000 7.2 170 09:18 10.05.2021
4173 Clouds 19 1004 55 10000 8.75 190 08:33 10.05.2021
4174 Clouds 20 1003 52 10000 9.77 190 07:55 10.05.2021
4175 Clouds 20 1003 52 10000 9.77 190 07:34 10.05.2021
4176 Clouds 20 1002 46 10000 6.69 180 06:50 10.05.2021
4177 Clear 20 1001 45 10000 2.57 180 05:36 10.05.2021
4178 Clear 20 1002 43 10000 3.09 160 00:53 10.05.2021
4179 Rain 21 1002 40 10000 2.57 130 23:52 09.05.2021
4180 Clear 22 1002 37 10000 4.63 170 22:41 09.05.2021
4181 Clear 23 1002 35 10000 5.66 180 22:20 09.05.2021
4182 Clear 23 1002 33 10000 5.66 190 21:48 09.05.2021
4183 Clear 24 1001 29 10000 7.2 200 21:19 09.05.2021
4184 Clear 24 1001 27 10000 7.2 180 20:41 09.05.2021
4185 Clear 25 1001 31 10000 7.72 180 19:57 09.05.2021
4186 Clear 25 1001 31 10000 7.72 180 19:36 09.05.2021
4187 Clear 26 1002 32 10000 8.75 180 19:18 09.05.2021
4188 Clear 26 1002 32 10000 7.2 190 18:40 09.05.2021
4189 Clear 27 1001 32 10000 8.23 200 18:20 09.05.2021
4190 Clear 27 1002 32 10000 8.75 180 17:32 09.05.2021
4191 Clear 27 1002 30 10000 8.23 190 16:39 09.05.2021
4192 Clear 27 1002 32 10000 8.75 160 16:21 09.05.2021
4193 Clear 27 1003 32 10000 9.77 170 15:23 09.05.2021
4194 Clear 27 1003 34 10000 11.83 160 14:52 09.05.2021
4195 Clear 26 1004 36 10000 10.8 160 13:57 09.05.2021
4196 Clear 26 1004 36 10000 10.8 160 13:37 09.05.2021
4197 Clear 25 1004 41 10000 9.26 150 12:47 09.05.2021
4198 Clear 25 1004 41 10000 9.26 150 12:47 09.05.2021
4199 Clouds 23 1005 43 10000 9.77 140 12:23 09.05.2021
4200 Clouds 21 1006 49 10000 8.75 140 11:23 09.05.2021
4201 Clear 20 1006 52 10000 6.69 130 10:53 09.05.2021
4202 Clear 19 1006 52 10000 5.66 120 10:32 09.05.2021
4203 Clear 18 1006 52 10000 7.2 140 09:42 09.05.2021
4204 Clear 17 1007 55 10000 5.14 130 09:20 09.05.2021
4205 Clear 16 1007 55 10000 4.63 120 08:48 09.05.2021
4206 Clear 15 1007 58 10000 3.6 120 08:24 09.05.2021
4207 Clear 13 1007 62 10000 3.09 110 07:40 09.05.2021
4208 Clear 12 1007 71 10000 4.12 120 06:41 09.05.2021
4209 Clear 12 1008 67 10000 3.6 120 04:42 09.05.2021
4210 Clear 14 1010 58 10000 4.12 130 00:31 09.05.2021
4211 Clear 14 1010 62 10000 4.12 140 23:33 08.05.2021
4212 Clouds 14 1010 58 10000 3.09 140 22:56 08.05.2021
4213 Clouds 15 1010 63 10000 3.09 140 22:25 08.05.2021
4214 Clear 16 1010 59 10000 3.6 140 21:53 08.05.2021
4215 Clear 16 1010 59 10000 3.09 180 21:23 08.05.2021
4216 Clear 16 1010 55 10000 3.6 170 20:59 08.05.2021
4217 Clear 16 1010 55 10000 3.6 170 20:37 08.05.2021
4218 Clear 17 1010 51 10000 5.14 180 19:45 08.05.2021
4219 Clouds 18 1010 45 10000 5.14 170 19:22 08.05.2021
4220 Clouds 18 1011 45 10000 5.66 170 18:51 08.05.2021
4221 Clouds 18 1011 42 10000 6.69 160 18:26 08.05.2021
4222 Clouds 16 1011 44 10000 6.69 160 17:46 08.05.2021
4223 Rain 15 1012 44 10000 6.17 150 16:49 08.05.2021
4224 Clouds 15 1013 47 10000 5.14 150 16:28 08.05.2021
4225 Clouds 14 1013 47 10000 6.69 150 15:45 08.05.2021
4226 Rain 14 1013 41 10000 7.72 160 15:23 08.05.2021
4227 Rain 16 1014 41 10000 6.69 160 14:40 08.05.2021
4228 Rain 16 1014 47 10000 8.23 170 14:19 08.05.2021
4229 Rain 16 1015 36 10000 8.23 170 13:28 08.05.2021
4230 Rain 16 1015 33 10000 8.75 150 12:42 08.05.2021
4231 Clear 16 1016 36 10000 7.2 170 12:24 08.05.2021
4232 Clear 15 1016 38 10000 6.69 180 11:39 08.05.2021
4233 Clear 13 1017 50 10000 4.12 150 10:58 08.05.2021
4234 Clear 12 1017 50 10000 4.12 150 10:38 08.05.2021
4235 Clear 12 1017 54 10000 4.12 150 10:19 08.05.2021
4236 Clear 11 1017 57 10000 3.6 150 09:46 08.05.2021
4237 Clear 9 1017 57 10000 3.09 140 09:26 08.05.2021
4238 Clear 6 1017 65 10000 3.6 130 08:24 08.05.2021
4239 Clear 6 1017 75 10000 1.54 120 07:40 08.05.2021
4240 Clear 6 1017 75 10000 1.54 120 07:40 08.05.2021
4241 Clear 3 1017 80 10000 1.03 0 06:50 08.05.2021
4242 Clear 3 1018 100 10000 1.03 0 04:50 08.05.2021
4243 Clear 4 1019 81 10000 0.51 0 01:46 08.05.2021
4244 Clear 5 1019 75 10000 0.51 0 00:44 08.05.2021
4245 Clear 5 1019 70 10000 1.03 0 00:21 08.05.2021
4246 Clear 6 1018 65 10000 3.09 140 23:28 07.05.2021
4247 Clear 7 1018 61 10000 2.57 150 22:46 07.05.2021
4248 Clear 8 1018 57 10000 2.06 160 21:56 07.05.2021
4249 Clear 11 1018 53 10000 1.54 170 21:32 07.05.2021
4250 Clear 12 1018 46 10000 2.57 240 20:58 07.05.2021
4251 Clear 12 1018 46 10000 2.57 240 20:40 07.05.2021
4252 Clear 12 1018 40 10000 3.6 250 20:18 07.05.2021
4253 Clear 12 1018 40 10000 3.6 250 20:18 07.05.2021
4254 Clouds 13 1018 40 10000 5.66 270 19:36 07.05.2021
4255 Clouds 13 1017 40 10000 5.14 250 18:59 07.05.2021
4256 Clouds 13 1018 43 10000 5.14 280 18:41 07.05.2021
4257 Clouds 13 1017 40 10000 5.14 250 18:41 07.05.2021
4258 Clouds 13 1018 43 10000 5.14 280 18:20 07.05.2021
4259 Clouds 12 1017 43 10000 4.12 280 17:23 07.05.2021
4260 Clouds 12 1017 46 10000 5.14 280 16:59 07.05.2021
4261 Clouds 12 1017 46 10000 5.14 280 16:36 07.05.2021
4262 Clouds 11 1017 53 10000 6.17 290 15:51 07.05.2021
4263 Clouds 10 1017 53 10000 6.69 280 15:32 07.05.2021
4264 Clouds 10 1016 53 10000 6.17 300 14:58 07.05.2021
4265 Clouds 9 1016 61 10000 6.69 300 14:32 07.05.2021
4266 Clouds 9 1016 66 10000 6.69 310 13:53 07.05.2021
4267 Clouds 8 1015 66 10000 5.66 340 13:21 07.05.2021
4268 Clouds 7 1015 81 10000 5.66 310 12:44 07.05.2021
4269 Clouds 7 1014 81 10000 3.6 330 12:25 07.05.2021
4270 Clouds 5 1013 87 10000 3.6 330 11:51 07.05.2021
4271 Clouds 5 1013 93 8000 8.75 310 11:26 07.05.2021
4272 Clouds 5 1012 87 10000 5.14 230 10:42 07.05.2021
4273 Rain 5 1011 93 10000 4.63 240 10:22 07.05.2021
4274 Clouds 6 1011 87 10000 5.14 250 09:46 07.05.2021
4275 Clouds 6 1010 87 8000 4.12 230 08:55 07.05.2021
4276 Rain 5 1011 93 8000 2.06 190 08:33 07.05.2021
4277 Clouds 5 1010 87 7000 2.57 250 07:19 07.05.2021
4278 Clouds 5 1010 93 8000 3.6 270 06:45 07.05.2021
4279 Clouds 5 1008 93 10000 1.54 320 03:45 07.05.2021
4280 Clouds 7 1006 87 10000 2.06 250 00:21 07.05.2021
4281 Clouds 8 1006 93 10000 2.06 240 22:52 06.05.2021
4282 Clouds 8 1006 93 10000 2.57 270 22:24 06.05.2021
4283 Rain 8 1005 87 10000 1.03 330 21:39 06.05.2021
4284 Rain 8 1004 81 10000 1.03 0 20:45 06.05.2021
4285 Rain 8 1004 87 10000 1.54 20 20:21 06.05.2021
4286 Rain 8 1004 81 10000 2.06 360 19:50 06.05.2021
4287 Rain 8 1004 87 10000 2.57 240 19:23 06.05.2021
4288 Rain 9 1004 76 10000 3.09 160 18:57 06.05.2021
4289 Rain 9 1004 76 10000 3.09 160 18:34 06.05.2021
4290 Rain 11 1004 62 10000 3.09 240 17:50 06.05.2021
4291 Rain 11 1004 46 10000 3.09 150 17:23 06.05.2021
4292 Rain 12 1004 47 10000 4.12 190 16:57 06.05.2021
4293 Rain 12 1004 47 10000 4.12 190 16:35 06.05.2021
4294 Rain 12 1004 47 10000 4.12 190 16:35 06.05.2021
4295 Rain 13 1004 41 10000 3.09 260 15:58 06.05.2021
4296 Rain 12 1005 37 10000 1.54 240 15:39 06.05.2021
4297 Clear 12 1005 37 10000 1.54 240 15:18 06.05.2021
4298 Clouds 12 1006 43 10000 3.09 270 14:25 06.05.2021
4299 Clouds 12 1006 46 10000 3.09 250 13:52 06.05.2021
4300 Clouds 12 1006 43 10000 3.6 230 13:23 06.05.2021
4301 Clouds 12 1007 47 10000 2.06 0 12:46 06.05.2021
4302 Clouds 12 1007 50 10000 3.6 220 12:23 06.05.2021
4303 Clouds 11 1007 54 10000 3.6 210 11:48 06.05.2021
4304 Clouds 10 1007 58 10000 4.63 260 11:21 06.05.2021
4305 Clouds 9 1008 57 10000 4.63 220 10:47 06.05.2021
4306 Clouds 9 1008 66 10000 3.6 230 10:27 06.05.2021
4307 Clouds 8 1008 71 10000 5.14 240 09:46 06.05.2021
4308 Clouds 8 1008 71 10000 4.12 240 09:27 06.05.2021
4309 Clouds 7 1008 75 10000 3.6 220 08:49 06.05.2021
4310 Clouds 6 1008 75 10000 4.12 210 08:23 06.05.2021
4311 Clouds 6 1008 81 10000 4.12 200 07:48 06.05.2021
4312 Clouds 6 1008 75 10000 3.6 190 07:19 06.05.2021
4313 Clouds 5 1008 87 10000 3.6 170 06:26 06.05.2021
4314 Clouds 4 1008 87 10000 4.12 170 05:49 06.05.2021
4315 Clear 4 1009 87 10000 3.09 180 04:33 06.05.2021
4316 Clouds 5 1009 81 10000 3.6 190 02:35 06.05.2021
4317 Clear 6 1010 75 10000 3.09 190 23:50 05.05.2021
4318 Clear 6 1010 70 10000 2.57 180 22:40 05.05.2021
4319 Clear 7 1010 70 10000 2.57 180 22:21 05.05.2021
4320 Clear 8 1010 65 10000 1.03 0 21:40 05.05.2021
4321 Clear 8 1009 57 10000 3.6 260 21:18 05.05.2021
4322 Clear 10 1009 61 10000 3.09 230 20:35 05.05.2021
4323 Clouds 9 1009 76 10000 8.75 260 19:44 05.05.2021
4324 Clouds 9 1009 76 10000 8.75 260 19:44 05.05.2021
4325 Clouds 10 1009 57 10000 8.23 290 19:26 05.05.2021
4326 Rain 10 1009 53 10000 6.17 290 18:44 05.05.2021
4327 Clouds 11 1009 53 10000 8.75 270 18:21 05.05.2021
4328 Clouds 11 1008 50 10000 7.2 310 17:50 05.05.2021
4329 Clouds 11 1008 53 10000 8.75 280 17:27 05.05.2021
4330 Clouds 11 1008 62 10000 7.2 260 16:52 05.05.2021
4331 Clouds 11 1008 76 10000 4.63 290 16:30 05.05.2021
4332 Clouds 9 1008 76 10000 9.26 250 15:52 05.05.2021
4333 Clouds 9 1007 61 10000 11.32 260 15:22 05.05.2021
4334 Clouds 11 1007 53 10000 9.77 270 14:43 05.05.2021
4335 Clouds 10 1007 58 10000 9.77 260 14:25 05.05.2021
4336 Clouds 9 1006 70 10000 11.83 260 13:43 05.05.2021
4337 Clouds 10 1006 58 10000 10.29 260 13:23 05.05.2021
4338 Clouds 8 1005 76 10000 9.26 270 12:30 05.05.2021
4339 Clouds 7 1005 87 10000 7.2 270 11:54 05.05.2021
4340 Clouds 6 1005 87 10000 7.2 270 11:36 05.05.2021
4341 Clouds 6 1004 81 10000 12.35 290 11:18 05.05.2021
4342 Rain 7 1004 76 10000 8.23 250 10:40 05.05.2021
4343 Clouds 6 1004 81 10000 8.23 240 09:53 05.05.2021
4344 Rain 7 1004 81 10000 9.26 250 09:26 05.05.2021
4345 Clouds 7 1003 81 10000 7.2 280 08:43 05.05.2021
4346 Clouds 7 1003 70 10000 7.72 250 08:24 05.05.2021
4347 Clouds 7 1003 70 10000 6.17 260 07:47 05.05.2021
4348 Clouds 7 1003 70 10000 5.66 250 07:22 05.05.2021
4349 Clouds 6 1002 75 10000 6.17 250 06:37 05.05.2021
4350 Rain 8 1003 81 10000 2.57 230 01:50 05.05.2021
4351 Clouds 8 1003 81 10000 3.09 260 00:22 05.05.2021
4352 Clouds 8 1003 76 10000 6.69 290 23:38 04.05.2021
4353 Clouds 8 1003 76 10000 5.66 290 22:53 04.05.2021
4354 Clouds 8 1003 71 10000 6.69 290 22:23 04.05.2021
4355 Clouds 8 1002 71 10000 5.66 280 21:59 04.05.2021
4356 Clouds 8 1002 71 10000 5.66 280 21:41 04.05.2021
4357 Clouds 9 1003 71 10000 9.77 300 21:18 04.05.2021
4358 Clouds 9 1002 62 10000 10.29 300 20:43 04.05.2021
4359 Clouds 11 1001 38 10000 11.32 260 20:23 04.05.2021
4360 Clouds 10 1001 38 10000 11.32 260 20:23 04.05.2021
4361 Clouds 12 1001 38 10000 12.86 270 19:43 04.05.2021
4362 Clouds 14 1001 35 10000 12.35 270 19:25 04.05.2021
4363 Clouds 14 1001 36 10000 13.38 260 18:52 04.05.2021
4364 Clouds 15 1001 36 10000 13.89 250 18:32 04.05.2021
4365 Clouds 15 1001 36 10000 14.92 260 17:50 04.05.2021
4366 Clouds 15 1001 54 10000 12.35 250 17:25 04.05.2021
4367 Clouds 15 1001 38 10000 13.89 260 16:47 04.05.2021
4368 Clouds 15 1000 36 10000 12.86 270 16:22 04.05.2021
4369 Clouds 15 1001 36 10000 13.38 260 15:46 04.05.2021
4370 Clouds 15 1000 41 10000 15.43 250 15:20 04.05.2021
4371 Clouds 14 1000 58 10000 10.29 240 14:29 04.05.2021
4372 Clouds 14 1000 58 10000 9.26 240 13:41 04.05.2021
4373 Clouds 12 999 58 10000 9.77 220 13:21 04.05.2021
4374 Clouds 12 1000 66 10000 9.77 210 12:53 04.05.2021
4375 Clouds 11 1000 66 10000 11.32 210 12:27 04.05.2021
4376 Clouds 11 1000 66 10000 9.77 210 11:45 04.05.2021
4377 Clouds 11 1001 66 10000 9.77 210 11:24 04.05.2021
4378 Clouds 10 1001 66 10000 9.26 200 10:44 04.05.2021
4379 Clouds 10 1001 71 10000 6.69 200 10:22 04.05.2021
4380 Clouds 10 1001 71 10000 7.2 190 09:41 04.05.2021
4381 Clouds 10 1001 66 10000 7.2 190 09:19 04.05.2021
4382 Clouds 9 1001 66 10000 7.72 190 08:48 04.05.2021
4383 Clouds 9 1001 66 10000 8.23 200 08:19 04.05.2021
4384 Clouds 9 1002 66 10000 8.75 200 07:46 04.05.2021
4385 Clouds 9 1002 66 10000 9.26 210 06:46 04.05.2021
4386 Clouds 9 1002 66 10000 7.72 210 06:20 04.05.2021
4387 Rain 12 1004 43 10000 6.69 170 03:57 04.05.2021
4388 Clear 12 1008 46 10000 5.66 140 01:42 04.05.2021
4389 Clear 12 1010 50 10000 5.66 150 00:18 04.05.2021
4390 Clear 11 1012 46 10000 4.63 170 23:31 03.05.2021
4391 Clear 11 1012 46 10000 4.63 170 22:41 03.05.2021
4392 Clear 11 1012 46 10000 4.63 170 22:41 03.05.2021
4393 Clear 12 1013 43 10000 4.12 170 22:23 03.05.2021
4394 Clear 12 1013 46 10000 3.6 180 21:43 03.05.2021
4395 Clear 12 1013 46 10000 3.09 180 21:24 03.05.2021
4396 Clear 13 1014 43 10000 3.6 190 20:52 03.05.2021
4397 Clear 13 1014 43 10000 3.6 190 20:34 03.05.2021
4398 Clear 14 1015 38 10000 4.63 220 19:53 03.05.2021
4399 Clear 14 1015 41 10000 7.72 240 19:32 03.05.2021
4400 Clear 14 1016 41 10000 5.66 240 18:41 03.05.2021
4401 Clear 14 1016 41 10000 5.66 240 18:41 03.05.2021
4402 Clear 14 1017 35 10000 5.66 230 17:57 03.05.2021
4403 Clear 14 1017 35 10000 5.66 230 17:34 03.05.2021
4404 Clear 15 1017 35 10000 5.66 240 16:52 03.05.2021
4405 Clouds 14 1018 35 10000 7.2 240 16:27 03.05.2021
4406 Clouds 14 1018 33 10000 7.72 220 15:50 03.05.2021
4407 Clouds 15 1018 33 10000 6.17 240 15:31 03.05.2021
4408 Clouds 14 1019 35 10000 2.57 200 14:38 03.05.2021
4409 Clouds 14 1019 38 10000 3.6 260 14:18 03.05.2021
4410 Clouds 14 1020 41 10000 4.63 260 13:38 03.05.2021
4411 Clouds 14 1020 41 10000 4.63 260 13:20 03.05.2021
4412 Clouds 13 1020 37 10000 4.12 260 12:39 03.05.2021
4413 Clear 13 1020 35 10000 3.09 240 12:19 03.05.2021
4414 Clouds 11 1021 46 10000 2.06 230 11:38 03.05.2021
4415 Clouds 11 1021 46 10000 2.06 230 11:19 03.05.2021
4416 Clouds 10 1021 43 10000 3.09 260 10:42 03.05.2021
4417 Clear 9 1022 53 10000 2.57 180 10:18 03.05.2021
4418 Clear 8 1022 65 10000 2.57 160 09:40 03.05.2021
4419 Clear 6 1022 75 10000 3.09 140 08:52 03.05.2021
4420 Clear 5 1022 81 10000 3.09 150 08:24 03.05.2021
4421 Clear 5 1022 87 10000 3.09 130 07:55 03.05.2021
4422 Clear 2 1022 93 10000 1.77 174 06:41 03.05.2021
4423 Clear 2 1022 93 10000 1.03 70 06:19 03.05.2021
4424 Clear 2 1022 86 10000 0.51 0 05:43 03.05.2021
4425 Clear 5 1021 81 10000 1.03 0 00:46 03.05.2021
4426 Clouds 6 1020 75 10000 1.03 0 23:57 02.05.2021
4427 Clouds 7 1020 70 10000 1.54 240 23:22 02.05.2021
4428 Clouds 6 1020 75 10000 1.54 200 22:41 02.05.2021
4429 Clear 8 1020 70 10000 2.06 230 22:19 02.05.2021
4430 Clouds 8 1020 70 10000 2.57 250 21:44 02.05.2021
4431 Clouds 9 1019 65 10000 3.6 260 21:24 02.05.2021
4432 Clouds 10 1019 50 10000 4.63 250 20:26 02.05.2021
4433 Rain 10 1019 53 10000 3.6 260 19:51 02.05.2021
4434 Clouds 11 1019 50 10000 4.63 270 19:23 02.05.2021
4435 Clouds 11 1019 46 10000 5.14 300 18:56 02.05.2021
4436 Clouds 11 1019 46 10000 5.14 300 18:38 02.05.2021
4437 Clouds 11 1019 46 10000 5.14 310 18:18 02.05.2021
4438 Rain 12 1019 43 10000 5.14 270 17:44 02.05.2021
4439 Clouds 12 1019 46 10000 6.17 290 17:25 02.05.2021
4440 Rain 11 1019 43 10000 6.17 290 16:47 02.05.2021
4441 Rain 11 1019 40 10000 5.14 280 16:28 02.05.2021
4442 Clouds 11 1019 43 10000 5.14 290 15:45 02.05.2021
4443 Clouds 11 1019 46 10000 5.66 320 15:24 02.05.2021
4444 Clouds 10 1019 46 10000 6.17 320 14:47 02.05.2021
4445 Clouds 10 1018 46 10000 7.2 300 14:28 02.05.2021
4446 Clouds 10 1018 43 10000 6.69 300 13:46 02.05.2021
4447 Clouds 10 1018 50 10000 7.2 290 13:24 02.05.2021
4448 Clouds 10 1018 53 10000 5.66 310 12:56 02.05.2021
4449 Clouds 10 1018 53 10000 5.66 310 12:38 02.05.2021
4450 Clouds 10 1018 53 10000 6.17 300 12:19 02.05.2021
4451 Clouds 9 1018 61 10000 5.66 310 11:41 02.05.2021
4452 Clouds 9 1018 61 10000 6.17 320 11:22 02.05.2021
4453 Clouds 8 1017 71 10000 5.14 310 10:22 02.05.2021
4454 Clouds 7 1017 75 10000 4.63 320 09:50 02.05.2021
4455 Clouds 7 1017 75 10000 5.66 310 09:30 02.05.2021
4456 Clouds 7 1017 76 10000 5.14 300 08:59 02.05.2021
4457 Clouds 7 1017 76 10000 5.14 300 08:38 02.05.2021
4458 Clouds 6 1016 81 10000 4.63 310 07:59 02.05.2021
4459 Clouds 6 1016 81 10000 3.6 320 07:26 02.05.2021
4460 Clouds 6 1015 81 10000 3.09 270 05:46 02.05.2021
4461 Clear 6 1014 81 10000 3.09 320 03:56 02.05.2021
4462 Clear 8 1013 61 10000 3.6 340 00:35 02.05.2021
4463 Clear 9 1013 57 10000 2.57 340 23:42 01.05.2021
4464 Clear 10 1013 57 10000 2.06 350 23:24 01.05.2021
4465 Clear 10 1013 53 10000 2.06 340 22:40 01.05.2021
4466 Clear 10 1013 53 10000 2.06 340 22:19 01.05.2021
4467 Clear 11 1013 46 10000 2.57 330 21:43 01.05.2021
4468 Clear 11 1012 46 10000 3.09 330 21:24 01.05.2021
4469 Clear 12 1012 43 10000 3.09 320 20:56 01.05.2021
4470 Clear 12 1012 43 10000 3.09 330 20:32 01.05.2021
4471 Clear 12 1012 37 10000 3.6 320 19:59 01.05.2021
4472 Clear 13 1012 38 10000 4.63 320 19:31 01.05.2021
4473 Clear 13 1012 35 10000 4.12 360 18:56 01.05.2021
4474 Clear 13 1012 35 10000 4.12 360 18:35 01.05.2021
4475 Clear 14 1012 38 10000 2.06 340 17:56 01.05.2021
4476 Clear 14 1012 38 10000 3.09 330 17:32 01.05.2021
4477 Clear 14 1012 35 10000 4.12 310 16:50 01.05.2021
4478 Clear 14 1012 35 10000 3.6 310 16:31 01.05.2021
4479 Clear 14 1012 38 10000 3.6 320 15:50 01.05.2021
4480 Clear 13 1013 41 10000 4.63 300 14:55 01.05.2021
4481 Clouds 12 1013 43 10000 3.6 300 13:55 01.05.2021
4482 Clouds 11 1014 46 10000 2.57 280 13:24 01.05.2021
4483 Clouds 12 1014 47 10000 2.57 0 12:45 01.05.2021
4484 Clouds 11 1014 50 10000 3.09 300 12:21 01.05.2021
4485 Clouds 10 1014 54 10000 2.06 280 11:46 01.05.2021
4486 Clouds 10 1014 61 10000 2.57 320 11:27 01.05.2021
4487 Clouds 9 1014 66 10000 2.06 280 10:56 01.05.2021
4488 Clouds 8 1014 71 10000 2.06 360 10:27 01.05.2021
4489 Clouds 8 1014 81 8000 2.57 330 09:41 01.05.2021
4490 Clouds 8 1014 81 6000 3.09 330 09:21 01.05.2021
4491 Mist 7 1014 93 3600 2.06 340 08:20 01.05.2021
4492 Mist 7 1014 93 3600 1.03 0 07:37 01.05.2021
4493 Clouds 6 1013 87 10000 2.57 310 05:48 01.05.2021
4494 Clouds 8 1014 87 10000 2.06 340 01:39 01.05.2021
4495 Clear 10 1013 71 10000 1.54 300 00:30 01.05.2021
4496 Rain 10 1013 66 10000 2.06 310 23:54 30.04.2021
4497 Clouds 10 1013 66 10000 1.03 0 22:48 30.04.2021
4498 Clouds 11 1013 66 10000 1.54 330 22:20 30.04.2021
4499 Clouds 11 1013 66 10000 1.03 0 21:48 30.04.2021
4500 Clouds 11 1012 58 10000 1.03 30 21:30 30.04.2021
4501 Clouds 11 1012 58 10000 1.54 50 20:55 30.04.2021
4502 Clouds 12 1012 58 10000 1.54 50 20:37 30.04.2021
4503 Clouds 12 1012 54 10000 2.06 50 19:52 30.04.2021
4504 Clouds 13 1012 47 10000 2.57 50 19:18 30.04.2021
4505 Clouds 13 1012 50 10000 2.57 50 18:40 30.04.2021
4506 Clouds 13 1012 47 10000 2.57 60 18:22 30.04.2021
4507 Clouds 13 1012 50 10000 3.09 30 17:46 30.04.2021
4508 Clouds 13 1012 50 10000 3.09 40 17:21 30.04.2021
4509 Clouds 13 1012 54 10000 2.57 0 16:45 30.04.2021
4510 Clouds 13 1012 54 10000 2.06 20 16:26 30.04.2021
4511 Clouds 13 1012 62 10000 1.54 340 15:41 30.04.2021
4512 Clouds 12 1013 66 10000 2.57 310 15:19 30.04.2021
4513 Clouds 11 1013 62 10000 1.03 0 14:45 30.04.2021
4514 Clouds 11 1013 66 10000 2.06 0 14:24 30.04.2021
4515 Clouds 11 1013 62 10000 2.57 300 13:47 30.04.2021
4516 Clouds 10 1013 66 10000 2.57 280 13:27 30.04.2021
4517 Clouds 9 1013 71 10000 1.54 320 12:43 30.04.2021
4518 Clouds 9 1014 71 10000 1.54 0 12:24 30.04.2021
4519 Clouds 8 1014 76 10000 2.06 230 11:24 30.04.2021
4520 Clouds 7 1013 76 10000 1.54 220 10:52 30.04.2021
4521 Clouds 7 1013 75 10000 1.54 190 10:34 30.04.2021
4522 Clouds 7 1013 75 10000 1.54 180 09:57 30.04.2021
4523 Clouds 7 1013 75 10000 1.03 0 09:28 30.04.2021
4524 Clouds 6 1013 75 10000 1.03 0 08:49 30.04.2021
4525 Clouds 6 1013 81 10000 1.54 230 07:45 30.04.2021
4526 Clouds 6 1013 81 10000 2.06 230 07:25 30.04.2021
4527 Clouds 6 1012 81 10000 2.06 230 06:51 30.04.2021
4528 Clouds 6 1012 81 10000 1.54 220 06:25 30.04.2021
4529 Clouds 6 1012 81 10000 3.09 250 05:27 30.04.2021
4530 Clear 6 1012 81 10000 3.6 280 02:56 30.04.2021
4531 Clear 6 1012 75 10000 3.6 270 01:42 30.04.2021
4532 Clouds 7 1011 70 10000 5.14 270 23:56 29.04.2021
4533 Clouds 7 1011 70 10000 7.2 270 23:25 29.04.2021
4534 Clouds 8 1011 66 10000 6.17 260 22:43 29.04.2021
4535 Clouds 8 1010 66 10000 6.69 270 22:22 29.04.2021
4536 Clouds 9 1010 66 10000 6.69 270 21:44 29.04.2021
4537 Clouds 9 1010 66 10000 6.17 270 21:25 29.04.2021
4538 Clouds 9 1010 66 10000 6.17 260 20:48 29.04.2021
4539 Clouds 9 1009 66 10000 6.17 270 20:29 29.04.2021
4540 Clouds 9 1009 66 10000 6.17 270 20:29 29.04.2021
4541 Clouds 9 1009 66 10000 6.17 270 19:59 29.04.2021
4542 Clouds 9 1009 66 10000 7.2 290 19:41 29.04.2021
4543 Clouds 9 1009 66 10000 7.2 290 19:41 29.04.2021
4544 Clouds 9 1009 66 10000 7.2 290 19:20 29.04.2021
4545 Clouds 9 1009 66 10000 7.72 280 18:42 29.04.2021
4546 Clouds 9 1009 61 10000 7.72 270 18:20 29.04.2021
4547 Clouds 9 1008 66 10000 7.72 270 17:45 29.04.2021
4548 Clouds 9 1008 71 10000 8.23 280 17:19 29.04.2021
4549 Clouds 9 1008 66 10000 10.29 270 16:43 29.04.2021
4550 Clouds 9 1007 66 10000 11.32 270 16:21 29.04.2021
4551 Clouds 10 1007 62 10000 9.77 260 15:43 29.04.2021
4552 Clouds 11 1006 62 10000 10.8 260 15:23 29.04.2021
4553 Clouds 12 1005 54 10000 10.8 260 14:45 29.04.2021
4554 Clouds 13 1005 62 10000 10.29 270 14:22 29.04.2021
4555 Clouds 12 1004 58 10000 12.86 270 13:44 29.04.2021
4556 Rain 15 1003 44 10000 7.72 240 13:21 29.04.2021
4557 Clouds 14 1003 47 10000 7.2 260 12:43 29.04.2021
4558 Clouds 14 1003 51 10000 6.17 270 12:20 29.04.2021
4559 Clouds 14 1003 54 10000 7.2 260 11:47 29.04.2021
4560 Clouds 14 1003 58 10000 7.72 260 11:23 29.04.2021
4561 Clouds 14 1003 51 10000 7.2 230 10:50 29.04.2021
4562 Clouds 13 1003 58 10000 7.2 240 10:29 29.04.2021
4563 Clouds 12 1003 62 10000 6.69 230 09:43 29.04.2021
4564 Clouds 12 1003 71 10000 3.6 240 09:22 29.04.2021
4565 Clear 12 1002 71 10000 3.6 230 08:49 29.04.2021
4566 Clear 12 1002 71 10000 3.6 220 08:27 29.04.2021
4567 Clear 11 1002 66 10000 2.57 210 07:47 29.04.2021
4568 Clear 12 1001 62 10000 3.09 190 06:50 29.04.2021
4569 Clear 12 1001 62 10000 3.09 200 05:27 29.04.2021
4570 Clear 13 1001 58 10000 4.63 140 00:52 29.04.2021
4571 Rain 13 1001 51 10000 4.63 140 23:45 28.04.2021
4572 Clear 14 1001 47 10000 5.66 140 23:18 28.04.2021
4573 Clear 15 1001 39 10000 7.2 150 22:37 28.04.2021
4574 Clear 15 1001 39 10000 7.2 150 22:19 28.04.2021
4575 Rain 17 1001 31 10000 6.69 160 21:38 28.04.2021
4576 Rain 16 1000 29 10000 2.57 180 21:20 28.04.2021
4577 Rain 19 1000 24 10000 3.09 0 20:41 28.04.2021
4578 Clear 18 1000 27 10000 1.54 90 20:22 28.04.2021
4579 Clouds 18 1000 29 10000 1.54 80 19:47 28.04.2021
4580 Rain 19 1000 26 10000 1.54 70 19:24 28.04.2021
4581 Clear 20 1000 24 10000 2.06 80 18:50 28.04.2021
4582 Clear 20 1001 22 10000 2.57 80 18:30 28.04.2021
4583 Clear 21 1001 22 10000 0.51 0 17:49 28.04.2021
4584 Clear 22 1001 22 10000 1.03 0 17:26 28.04.2021
4585 Clear 21 1001 28 10000 4.63 0 16:29 28.04.2021
4586 Clear 20 1002 26 10000 1.54 0 15:59 28.04.2021
4587 Clear 20 1002 26 10000 1.54 0 15:41 28.04.2021
4588 Clear 20 1002 26 10000 3.09 210 14:57 28.04.2021
4589 Clear 20 1002 26 10000 3.09 210 14:39 28.04.2021
4590 Clear 20 1003 28 10000 5.66 150 14:19 28.04.2021
4591 Clear 20 1003 24 10000 2.06 0 13:36 28.04.2021
4592 Clear 18 1003 25 10000 2.06 0 12:57 28.04.2021
4593 Clear 17 1004 29 10000 3.09 100 12:39 28.04.2021
4594 Clear 17 1004 34 10000 2.57 110 11:56 28.04.2021
4595 Clear 16 1004 33 10000 2.57 130 11:32 28.04.2021
4596 Clear 14 1004 38 10000 2.57 130 10:56 28.04.2021
4597 Clear 13 1004 38 10000 2.57 130 10:37 28.04.2021
4598 Clear 14 1005 41 10000 3.09 150 10:19 28.04.2021
4599 Clear 13 1005 43 10000 2.06 120 09:40 28.04.2021
4600 Clear 9 1005 46 10000 3.09 120 09:22 28.04.2021
4601 Clear 8 1005 49 10000 1.54 120 08:43 28.04.2021
4602 Clear 6 1005 70 10000 2.57 90 07:30 28.04.2021
4603 Clear 4 1005 75 10000 1.54 60 06:36 28.04.2021
4604 Clear 5 1005 75 10000 1.03 0 05:25 28.04.2021
4605 Clear 6 1006 53 10000 0.51 0 02:40 28.04.2021
4606 Clear 8 1006 49 10000 2.06 110 01:24 28.04.2021
4607 Clear 9 1006 46 10000 1.54 100 00:25 28.04.2021
4608 Clear 9 1006 43 10000 3.09 80 23:41 27.04.2021
4609 Clear 10 1006 37 10000 4.12 60 22:53 27.04.2021
4610 Clear 11 1006 37 10000 3.6 60 22:33 27.04.2021
4611 Clear 12 1006 37 10000 3.6 50 21:57 27.04.2021
4612 Clear 12 1006 37 10000 3.6 50 21:39 27.04.2021
4613 Clear 13 1006 37 10000 1.54 50 21:18 27.04.2021
4614 Clear 14 1006 29 10000 1.54 40 20:43 27.04.2021
4615 Clear 15 1006 25 10000 1.54 20 20:20 27.04.2021
4616 Clear 16 1006 27 10000 1.54 40 19:45 27.04.2021
4617 Clear 17 1006 25 10000 1.03 0 19:21 27.04.2021
4618 Clear 17 1006 23 10000 1.03 0 18:50 27.04.2021
4619 Clear 17 1007 25 10000 1.54 0 18:31 27.04.2021
4620 Clear 18 1007 23 10000 3.6 70 17:43 27.04.2021
4621 Clear 17 1007 23 10000 3.6 40 17:25 27.04.2021
4622 Clear 17 1007 27 10000 2.06 0 16:46 27.04.2021
4623 Clear 17 1008 27 10000 2.06 0 16:25 27.04.2021
4624 Clear 16 1008 25 10000 1.54 0 15:49 27.04.2021
4625 Clear 16 1008 25 10000 5.14 60 15:25 27.04.2021
4626 Clear 15 1009 26 10000 2.57 0 14:52 27.04.2021
4627 Clear 16 1009 26 10000 4.12 10 14:28 27.04.2021
4628 Clear 15 1009 25 10000 3.09 0 13:58 27.04.2021
4629 Clear 15 1009 25 10000 3.09 0 13:33 27.04.2021
4630 Clear 14 1010 28 10000 3.6 70 12:47 27.04.2021
4631 Clear 13 1011 33 10000 3.6 130 12:22 27.04.2021
4632 Clear 14 1011 33 10000 3.6 140 11:40 27.04.2021
4633 Clear 10 1011 35 10000 4.12 110 11:19 27.04.2021
4634 Clear 10 1011 37 10000 4.12 120 10:39 27.04.2021
4635 Clear 11 1011 34 10000 5.14 110 10:19 27.04.2021
4636 Clear 8 1012 37 10000 4.63 110 09:43 27.04.2021
4637 Clear 7 1012 42 10000 2.57 110 08:41 27.04.2021
4638 Clear 5 1012 56 10000 1.54 120 07:55 27.04.2021
4639 Clear 5 1012 60 10000 2.06 150 07:32 27.04.2021
4640 Clear 4 1012 60 10000 0.51 0 06:41 27.04.2021
4641 Clear 5 1012 52 10000 2.57 90 05:55 27.04.2021
4642 Clear 7 1012 45 10000 3.09 80 03:25 27.04.2021
4643 Clear 8 1013 45 10000 4.12 70 00:39 27.04.2021
4644 Clear 8 1014 40 10000 4.12 80 23:58 26.04.2021
4645 Clear 9 1014 40 10000 3.6 60 23:27 26.04.2021
4646 Clear 9 1014 40 10000 2.57 50 22:56 26.04.2021
4647 Clear 10 1014 37 10000 3.6 30 22:35 26.04.2021
4648 Clear 11 1014 35 10000 4.12 30 21:44 26.04.2021
4649 Clear 12 1014 32 10000 3.6 30 21:24 26.04.2021
4650 Clear 12 1014 33 10000 5.14 30 20:58 26.04.2021
4651 Clear 12 1014 33 10000 5.14 30 20:39 26.04.2021
4652 Clear 14 1013 26 10000 4.12 40 19:57 26.04.2021
4653 Clear 14 1013 26 10000 4.12 40 19:37 26.04.2021
4654 Clear 16 1014 21 10000 3.6 50 18:55 26.04.2021
4655 Clear 16 1014 21 10000 3.6 50 18:35 26.04.2021
4656 Clear 17 1015 23 10000 3.09 70 17:58 26.04.2021
4657 Clear 17 1015 25 10000 3.09 350 17:40 26.04.2021
4658 Clear 17 1015 25 10000 3.09 350 17:18 26.04.2021
4659 Clear 16 1016 26 10000 2.06 0 16:43 26.04.2021
4660 Clear 16 1016 26 10000 4.63 10 16:22 26.04.2021
4661 Clear 16 1017 26 10000 2.06 0 15:40 26.04.2021
4662 Clear 14 1017 26 10000 2.06 0 15:21 26.04.2021
4663 Clear 15 1018 26 10000 2.57 0 14:47 26.04.2021
4664 Clear 14 1018 26 10000 2.06 0 14:28 26.04.2021
4665 Clear 14 1019 30 10000 4.12 50 13:46 26.04.2021
4666 Clear 13 1019 30 10000 3.09 0 13:25 26.04.2021
4667 Clear 12 1020 30 10000 2.06 0 12:36 26.04.2021
4668 Clear 11 1020 32 10000 4.63 70 11:46 26.04.2021
4669 Clear 10 1021 34 10000 3.6 100 11:25 26.04.2021
4670 Clear 10 1021 32 10000 5.14 110 10:45 26.04.2021
4671 Clear 9 1021 37 10000 4.12 80 10:21 26.04.2021
4672 Clear 8 1021 43 10000 3.09 90 09:47 26.04.2021
4673 Clear 6 1021 49 10000 4.12 90 09:23 26.04.2021
4674 Clear 5 1021 52 10000 3.09 70 08:52 26.04.2021
4675 Clear 4 1021 60 10000 1.03 0 08:20 26.04.2021
4676 Clear 4 1021 75 10000 0.51 0 07:52 26.04.2021
4677 Clear 2 1021 80 10000 1.54 200 07:20 26.04.2021
4678 Clear 2 1021 75 10000 3.09 70 06:35 26.04.2021
4679 Clear 2 1022 86 10000 1.03 0 04:55 26.04.2021
4680 Clear 2 1022 80 10000 1.03 0 04:36 26.04.2021
4681 Clear 4 1023 75 10000 1.03 0 02:32 26.04.2021
4682 Clear 6 1023 65 10000 0.51 0 00:49 26.04.2021
4683 Clear 6 1023 65 10000 1.54 10 00:28 26.04.2021
4684 Clear 7 1023 56 10000 1.54 30 23:44 25.04.2021
4685 Clear 7 1023 56 10000 2.06 40 23:25 25.04.2021
4686 Clear 8 1023 53 10000 3.09 50 22:47 25.04.2021
4687 Clear 8 1023 57 10000 4.12 40 22:22 25.04.2021
4688 Clear 9 1024 53 10000 3.6 30 21:49 25.04.2021
4689 Clear 10 1023 49 10000 4.12 20 21:29 25.04.2021
4690 Clear 10 1023 46 10000 4.12 20 20:59 25.04.2021
4691 Clear 10 1023 46 10000 4.12 20 20:41 25.04.2021
4692 Clear 11 1023 43 10000 4.63 20 20:22 25.04.2021
4693 Clear 11 1023 40 10000 4.63 10 19:40 25.04.2021
4694 Clear 12 1023 37 10000 4.63 30 19:21 25.04.2021
4695 Clear 13 1024 37 10000 6.17 50 18:48 25.04.2021
4696 Clear 13 1024 38 10000 4.63 40 18:26 25.04.2021
4697 Clear 13 1024 37 10000 5.14 40 17:45 25.04.2021
4698 Clear 14 1024 35 10000 4.63 30 17:22 25.04.2021
4699 Clear 15 1024 38 10000 3.6 10 16:47 25.04.2021
4700 Clear 13 1024 41 10000 3.09 0 16:27 25.04.2021
4701 Clear 13 1025 37 10000 3.6 0 15:54 25.04.2021
4702 Clear 13 1025 40 10000 3.6 0 15:25 25.04.2021
4703 Clear 11 1025 40 10000 3.6 0 14:46 25.04.2021
4704 Clear 10 1025 43 10000 4.12 40 14:19 25.04.2021
4705 Clear 11 1026 46 10000 4.63 30 13:41 25.04.2021
4706 Clear 9 1026 46 10000 4.63 30 13:19 25.04.2021
4707 Clear 11 1026 43 10000 4.63 50 12:44 25.04.2021
4708 Clear 8 1026 49 10000 4.12 10 12:22 25.04.2021
4709 Clouds 9 1026 53 10000 5.14 40 11:39 25.04.2021
4710 Clouds 6 1027 57 10000 4.63 350 10:58 25.04.2021
4711 Clouds 6 1027 57 10000 4.63 350 10:40 25.04.2021
4712 Clouds 6 1027 56 10000 4.12 40 10:19 25.04.2021
4713 Clouds 7 1027 61 10000 5.66 30 09:45 25.04.2021
4714 Clouds 6 1026 60 10000 5.66 30 09:23 25.04.2021
4715 Clear 5 1026 75 10000 0.51 0 07:58 25.04.2021
4716 Clear 2 1026 80 10000 1.54 350 07:38 25.04.2021
4717 Clear 2 1026 80 10000 1.54 350 07:19 25.04.2021
4718 Clear 2 1025 86 10000 1.03 0 06:26 25.04.2021
4719 Clear 3 1025 75 10000 1.54 330 04:49 25.04.2021
4720 Clear 4 1025 65 10000 1.54 10 03:40 25.04.2021
4721 Clear 6 1025 61 10000 3.09 30 01:41 25.04.2021
4722 Clear 7 1025 61 10000 2.57 10 00:57 25.04.2021
4723 Clear 8 1025 65 10000 1.54 20 23:51 24.04.2021
4724 Clear 8 1025 65 10000 1.54 20 23:33 24.04.2021
4725 Clear 8 1025 65 10000 1.54 10 23:33 24.04.2021
4726 Clear 9 1025 61 10000 1.54 10 22:57 24.04.2021
4727 Clear 9 1025 53 10000 1.54 360 22:36 24.04.2021
4728 Clear 10 1025 50 10000 2.06 20 21:53 24.04.2021
4729 Clear 11 1024 50 10000 4.12 30 21:27 24.04.2021
4730 Clear 12 1024 47 10000 5.14 30 20:50 24.04.2021
4731 Clear 12 1024 47 10000 5.66 40 20:28 24.04.2021
4732 Clear 13 1024 44 10000 5.14 40 19:52 24.04.2021
4733 Clear 13 1024 38 10000 5.14 30 19:23 24.04.2021
4734 Clear 14 1024 38 10000 6.17 40 18:50 24.04.2021
4735 Clear 14 1023 38 10000 5.66 20 18:29 24.04.2021
4736 Clear 15 1024 36 10000 4.12 40 17:53 24.04.2021
4737 Clear 15 1024 41 10000 4.63 30 17:26 24.04.2021
4738 Clear 14 1024 36 10000 4.12 0 16:47 24.04.2021
4739 Clear 14 1024 38 10000 5.14 0 16:27 24.04.2021
4740 Clear 13 1025 38 10000 4.63 30 15:35 24.04.2021
4741 Clear 13 1025 38 10000 4.63 30 15:35 24.04.2021
4742 Clear 13 1025 38 10000 3.6 60 14:54 24.04.2021
4743 Clear 14 1025 41 10000 4.63 50 14:29 24.04.2021
4744 Clear 13 1025 43 10000 4.63 60 13:51 24.04.2021
4745 Clear 11 1026 43 10000 3.6 0 13:25 24.04.2021
4746 Clear 12 1026 43 10000 3.6 40 12:38 24.04.2021
4747 Clear 10 1026 46 10000 3.6 50 12:18 24.04.2021
4748 Clear 10 1026 46 10000 3.6 70 11:43 24.04.2021
4749 Clear 9 1027 49 10000 4.63 20 10:55 24.04.2021
4750 Clear 9 1027 49 10000 4.63 20 10:32 24.04.2021
4751 Clear 8 1027 57 10000 1.54 70 09:56 24.04.2021
4752 Clear 6 1027 65 10000 2.06 70 09:27 24.04.2021
4753 Clear 5 1027 86 10000 0.51 0 07:52 24.04.2021
4754 Clear 3 1027 93 10000 0.51 150 06:58 24.04.2021
4755 Clear 3 1027 86 10000 1.03 0 04:38 24.04.2021
4756 Clear 6 1027 70 10000 1.03 40 00:50 24.04.2021
4757 Clear 8 1027 61 10000 1.03 50 23:31 23.04.2021
4758 Clear 9 1027 61 10000 1.54 50 22:46 23.04.2021
4759 Clear 9 1027 53 10000 2.06 360 22:20 23.04.2021
4760 Clear 10 1027 53 10000 2.57 350 21:46 23.04.2021
4761 Clear 11 1026 50 10000 2.57 330 21:27 23.04.2021
4762 Clear 11 1026 46 10000 3.6 320 20:42 23.04.2021
4763 Clear 13 1026 41 10000 5.14 310 20:21 23.04.2021
4764 Clear 13 1026 35 10000 5.14 310 19:52 23.04.2021
4765 Clear 14 1026 35 10000 5.14 300 19:31 23.04.2021
4766 Clear 15 1026 33 10000 4.63 310 18:51 23.04.2021
4767 Clear 15 1026 33 10000 5.14 300 18:31 23.04.2021
4768 Clear 15 1027 36 10000 5.66 310 17:57 23.04.2021
4769 Clear 16 1027 36 10000 4.63 280 17:29 23.04.2021
4770 Clear 15 1027 38 10000 4.63 300 16:59 23.04.2021
4771 Clear 15 1027 38 10000 4.63 300 16:37 23.04.2021
4772 Clear 15 1028 38 10000 3.6 270 15:59 23.04.2021
4773 Clear 15 1028 41 10000 5.14 270 15:36 23.04.2021
4774 Clear 12 1028 41 10000 4.63 280 14:39 23.04.2021
4775 Clear 11 1028 44 10000 3.6 260 13:41 23.04.2021
4776 Clear 10 1028 43 10000 3.09 260 13:18 23.04.2021
4777 Clouds 9 1029 50 10000 2.57 0 12:31 23.04.2021
4778 Clouds 10 1029 50 10000 1.54 0 11:49 23.04.2021
4779 Clouds 8 1029 53 10000 1.54 0 11:30 23.04.2021
4780 Clouds 7 1029 57 10000 3.09 360 10:52 23.04.2021
4781 Clouds 7 1029 61 10000 2.06 0 10:27 23.04.2021
4782 Clouds 8 1029 61 10000 3.09 60 09:51 23.04.2021
4783 Clear 4 1029 70 10000 0.51 0 08:53 23.04.2021
4784 Clear 3 1029 87 10000 1.03 0 08:34 23.04.2021
4785 Clear 3 1029 86 10000 1.54 60 07:47 23.04.2021
4786 Clear 2 1028 86 10000 2.57 60 06:55 23.04.2021
4787 Clear 3 1027 86 10000 1.03 0 05:30 23.04.2021
4788 Clear 4 1027 87 10000 0.51 0 03:32 23.04.2021
4789 Clear 6 1027 75 10000 1.03 0 01:23 23.04.2021
4790 Clear 6 1026 65 10000 1.54 40 23:58 22.04.2021
4791 Clear 7 1026 61 10000 2.06 350 22:57 22.04.2021
4792 Clear 8 1026 61 10000 2.06 350 22:38 22.04.2021
4793 Clear 9 1026 61 10000 2.06 340 22:18 22.04.2021
4794 Clear 9 1026 57 10000 2.57 340 21:41 22.04.2021
4795 Clear 10 1025 57 10000 3.09 330 21:18 22.04.2021
4796 Clear 11 1025 50 10000 3.09 330 20:45 22.04.2021
4797 Clear 12 1025 46 10000 5.14 310 20:26 22.04.2021
4798 Clear 12 1024 43 10000 6.17 310 19:51 22.04.2021
4799 Clear 13 1025 43 10000 6.17 310 19:32 22.04.2021
4800 Clear 13 1024 43 10000 5.14 300 18:46 22.04.2021
4801 Clear 13 1024 41 10000 4.63 310 18:21 22.04.2021
4802 Clear 14 1024 41 10000 6.17 300 17:44 22.04.2021
4803 Clear 14 1024 41 10000 6.17 310 17:20 22.04.2021
4804 Clear 13 1025 41 10000 5.14 310 16:47 22.04.2021
4805 Clouds 13 1025 43 10000 5.66 310 16:28 22.04.2021
4806 Clouds 13 1025 40 10000 5.66 320 15:48 22.04.2021
4807 Clouds 13 1025 40 10000 4.12 310 15:27 22.04.2021
4808 Clouds 12 1025 43 10000 6.17 320 14:50 22.04.2021
4809 Clouds 11 1025 43 10000 5.66 310 14:29 22.04.2021
4810 Clouds 10 1025 46 10000 5.66 310 13:47 22.04.2021
4811 Clouds 10 1025 46 10000 3.6 0 13:25 22.04.2021
4812 Clouds 9 1025 46 10000 3.09 0 12:56 22.04.2021
4813 Clouds 9 1025 49 10000 3.09 350 12:37 22.04.2021
4814 Clouds 9 1025 49 10000 3.09 350 12:37 22.04.2021
4815 Clouds 9 1025 49 10000 3.09 350 12:19 22.04.2021
4816 Clouds 8 1025 49 10000 3.6 310 11:43 22.04.2021
4817 Clouds 8 1025 49 10000 3.6 310 11:22 22.04.2021
4818 Clouds 8 1025 56 10000 3.09 10 10:43 22.04.2021
4819 Clouds 8 1025 56 10000 3.09 10 10:43 22.04.2021
4820 Clouds 6 1025 56 10000 2.57 10 10:21 22.04.2021
4821 Clouds 7 1025 61 10000 3.09 350 09:41 22.04.2021
4822 Clear 6 1025 65 10000 1.54 310 09:19 22.04.2021
4823 Clouds 4 1024 75 10000 1.03 0 08:38 22.04.2021
4824 Clouds 4 1024 75 10000 1.03 0 08:18 22.04.2021
4825 Clear 3 1024 86 10000 0.51 0 07:38 22.04.2021
4826 Clear 3 1024 86 10000 0.51 0 07:19 22.04.2021
4827 Clear 3 1023 86 10000 2.06 360 06:23 22.04.2021
4828 Clear 4 1023 80 10000 1.54 360 05:25 22.04.2021
4829 Clear 5 1022 70 10000 3.09 10 03:31 22.04.2021
4830 Clear 8 1021 61 10000 3.09 360 00:52 22.04.2021
4831 Clouds 9 1020 61 10000 3.09 10 23:47 21.04.2021
4832 Clouds 9 1020 66 10000 4.63 360 23:25 21.04.2021
4833 Clouds 10 1019 62 10000 5.66 20 22:42 21.04.2021
4834 Clouds 11 1019 62 10000 5.66 10 22:23 21.04.2021
4835 Clouds 12 1018 58 10000 4.12 360 21:46 21.04.2021
4836 Clear 12 1018 62 10000 5.14 350 21:23 21.04.2021
4837 Clear 12 1017 58 10000 7.2 340 20:43 21.04.2021
4838 Clear 14 1017 51 10000 5.14 340 20:20 21.04.2021
4839 Clear 15 1016 44 10000 6.17 350 19:43 21.04.2021
4840 Clear 15 1016 44 10000 8.23 310 19:24 21.04.2021
4841 Clear 15 1016 44 10000 8.23 310 18:46 21.04.2021
4842 Clear 17 1016 42 10000 6.69 310 18:27 21.04.2021
4843 Clear 17 1016 34 10000 6.17 300 17:48 21.04.2021
4844 Clear 17 1016 39 10000 5.66 330 17:24 21.04.2021
4845 Clear 17 1016 36 10000 6.17 330 16:49 21.04.2021
4846 Clouds 17 1016 39 10000 5.14 300 15:59 21.04.2021
4847 Clouds 17 1016 39 10000 5.14 300 15:41 21.04.2021
4848 Clouds 17 1016 48 10000 3.09 280 14:58 21.04.2021
4849 Clouds 17 1016 48 10000 3.09 280 14:40 21.04.2021
4850 Clouds 16 1016 58 10000 2.06 290 14:18 21.04.2021
4851 Clear 16 1017 62 10000 2.57 290 13:40 21.04.2021
4852 Clear 15 1017 67 10000 2.06 270 13:21 21.04.2021
4853 Clear 14 1017 66 10000 1.54 0 12:31 21.04.2021
4854 Clear 13 1017 71 10000 1.03 0 11:50 21.04.2021
4855 Clear 12 1017 76 10000 2.06 150 11:30 21.04.2021
4856 Clouds 11 1017 76 10000 1.03 0 10:52 21.04.2021
4857 Clouds 10 1017 81 10000 1.54 190 10:34 21.04.2021
4858 Clouds 9 1017 81 10000 2.06 160 09:54 21.04.2021
4859 Clouds 9 1017 76 10000 1.03 0 09:19 21.04.2021
4860 Clear 8 1016 87 10000 1.54 140 08:41 21.04.2021
4861 Clear 8 1016 93 10000 0.51 0 08:20 21.04.2021
4862 Clear 7 1016 87 10000 0.51 0 07:32 21.04.2021
4863 Clear 7 1016 93 10000 0.51 0 06:59 21.04.2021
4864 Clear 8 1016 87 10000 0.51 0 05:26 21.04.2021
4865 Clear 10 1016 76 10000 1.03 0 01:34 21.04.2021
4866 Clear 11 1016 66 10000 1.03 0 23:59 20.04.2021
4867 Clear 12 1016 71 10000 1.54 50 23:32 20.04.2021
4868 Clear 12 1016 58 10000 1.54 60 22:42 20.04.2021
4869 Clear 12 1016 54 10000 1.33 314 22:23 20.04.2021
4870 Clear 13 1016 47 10000 0.51 0 21:48 20.04.2021
4871 Clear 14 1015 50 10000 0.51 60 21:27 20.04.2021
4872 Clear 14 1015 41 10000 2.06 260 20:58 20.04.2021
4873 Clear 15 1015 41 10000 2.06 260 20:38 20.04.2021
4874 Clear 16 1015 41 10000 2.57 240 20:18 20.04.2021
4875 Clear 16 1015 39 10000 2.57 250 19:44 20.04.2021
4876 Clear 17 1015 36 10000 3.09 250 19:25 20.04.2021
4877 Clear 18 1015 36 10000 3.09 250 18:41 20.04.2021
4878 Clear 18 1015 34 10000 1.54 0 18:21 20.04.2021
4879 Clear 18 1015 36 10000 0.51 0 17:39 20.04.2021
4880 Clear 18 1016 41 10000 2.06 320 16:50 20.04.2021
4881 Clear 18 1016 41 10000 1.03 0 16:18 20.04.2021
4882 Clear 17 1016 42 10000 2.06 220 15:30 20.04.2021
4883 Clear 17 1016 42 10000 2.06 220 15:30 20.04.2021
4884 Clear 17 1017 44 10000 1.54 340 14:59 20.04.2021
4885 Clear 17 1017 44 10000 1.54 340 14:35 20.04.2021
4886 Clear 18 1017 42 10000 2.06 0 13:54 20.04.2021
4887 Clouds 16 1017 44 10000 2.06 0 13:24 20.04.2021
4888 Clouds 16 1017 51 10000 1.54 0 12:48 20.04.2021
4889 Clouds 15 1017 54 10000 2.06 0 12:23 20.04.2021
4890 Clouds 14 1018 54 10000 1.54 0 11:46 20.04.2021
4891 Clouds 13 1018 58 10000 0.51 0 11:25 20.04.2021
4892 Clear 11 1018 62 10000 1.03 0 10:47 20.04.2021
4893 Clear 10 1018 66 10000 1.54 160 10:24 20.04.2021
4894 Clear 8 1018 71 10000 1.54 150 09:45 20.04.2021
4895 Clear 6 1018 93 10000 2.06 140 08:57 20.04.2021
4896 Clear 7 1018 93 10000 2.06 140 08:33 20.04.2021
4897 Clear 6 1018 93 10000 1.03 0 07:50 20.04.2021
4898 Clear 5 1018 93 10000 1.54 140 07:21 20.04.2021
4899 Clear 5 1018 93 10000 0.51 0 05:41 20.04.2021
4900 Clear 5 1018 100 10000 0.51 0 04:42 20.04.2021
4901 Clear 6 1018 100 10000 1.03 0 02:47 20.04.2021
4902 Clear 8 1019 93 10000 0.51 0 00:50 20.04.2021
4903 Clear 9 1019 87 10000 1.03 120 23:52 19.04.2021
4904 Clear 9 1019 87 10000 1.03 0 23:29 19.04.2021
4905 Clear 10 1019 76 10000 1.54 40 22:37 19.04.2021
4906 Clear 11 1019 76 10000 1.54 40 22:19 19.04.2021
4907 Clear 10 1019 76 10000 1.54 40 21:38 19.04.2021
4908 Clear 11 1018 71 10000 0.51 360 21:19 19.04.2021
4909 Clear 12 1018 66 10000 1.03 330 20:40 19.04.2021
4910 Clouds 12 1018 66 10000 2.57 340 20:20 19.04.2021
4911 Clouds 13 1018 62 10000 2.57 330 19:44 19.04.2021
4912 Clouds 13 1018 62 10000 2.06 310 19:25 19.04.2021
4913 Clouds 13 1018 58 10000 2.06 320 18:48 19.04.2021
4914 Clouds 14 1018 58 10000 2.06 320 18:48 19.04.2021
4915 Clouds 13 1018 58 10000 1.03 0 18:24 19.04.2021
4916 Clouds 13 1018 62 10000 2.06 280 17:58 19.04.2021
4917 Clouds 13 1018 62 10000 2.06 280 17:39 19.04.2021
4918 Clouds 13 1018 67 10000 2.57 250 17:20 19.04.2021
4919 Clouds 13 1019 67 10000 2.06 280 16:41 19.04.2021
4920 Clouds 13 1019 62 10000 2.06 290 16:21 19.04.2021
4921 Clouds 13 1019 62 10000 1.54 210 15:40 19.04.2021
4922 Clouds 13 1019 71 10000 2.57 250 15:22 19.04.2021
4923 Clouds 12 1019 71 10000 2.57 220 14:41 19.04.2021
4924 Clouds 12 1019 76 10000 3.09 250 14:23 19.04.2021
4925 Clouds 12 1019 76 10000 3.09 250 13:48 19.04.2021
4926 Clouds 11 1019 82 10000 3.09 270 13:25 19.04.2021
4927 Clouds 10 1020 82 10000 2.06 240 12:45 19.04.2021
4928 Clouds 10 1020 87 10000 1.03 0 12:24 19.04.2021
4929 Clouds 9 1020 87 6000 1.03 0 11:54 19.04.2021
4930 Mist 8 1020 93 5000 1.54 220 11:26 19.04.2021
4931 Clouds 8 1020 93 6000 1.54 240 10:55 19.04.2021
4932 Clouds 8 1020 93 6000 1.54 240 10:36 19.04.2021
4933 Clouds 8 1020 93 6000 1.03 0 10:18 19.04.2021
4934 Rain 8 1020 100 5000 1.03 0 09:38 19.04.2021
4935 Rain 8 1020 93 3500 1.03 0 09:19 19.04.2021
4936 Rain 8 1020 100 2500 1.54 360 08:30 19.04.2021
4937 Rain 8 1019 100 2500 1.03 0 07:49 19.04.2021
4938 Rain 8 1019 93 5000 1.03 0 07:20 19.04.2021
4939 Clouds 8 1019 93 6000 1.03 0 06:44 19.04.2021
4940 Clouds 9 1019 87 10000 2.06 160 02:38 19.04.2021
4941 Clouds 9 1020 76 10000 2.57 80 01:30 19.04.2021
4942 Clear 9 1020 76 10000 0.51 0 00:33 19.04.2021
4943 Clear 10 1020 76 10000 0.51 0 23:19 18.04.2021
4944 Clear 11 1020 66 10000 0.51 210 22:53 18.04.2021
4945 Clear 10 1020 71 10000 0.51 0 22:31 18.04.2021
4946 Clear 11 1020 66 10000 1.54 340 21:45 18.04.2021
4947 Clear 11 1020 62 10000 3.6 320 21:23 18.04.2021
4948 Clear 12 1020 62 10000 3.6 320 20:41 18.04.2021
4949 Clouds 13 1020 58 10000 3.6 320 20:21 18.04.2021
4950 Clouds 13 1020 54 10000 4.12 320 19:56 18.04.2021
4951 Clouds 13 1020 54 10000 4.12 320 19:35 18.04.2021
4952 Clear 14 1020 51 10000 5.66 320 18:59 18.04.2021
4953 Clear 14 1020 54 10000 6.17 320 18:38 18.04.2021
4954 Clear 14 1020 54 10000 6.17 320 18:20 18.04.2021
4955 Clouds 14 1020 51 10000 5.14 290 17:42 18.04.2021
4956 Clouds 14 1020 54 10000 4.12 310 17:24 18.04.2021
4957 Clouds 14 1021 54 10000 4.12 320 16:45 18.04.2021
4958 Clouds 14 1021 54 10000 4.12 320 16:45 18.04.2021
4959 Clear 13 1021 58 10000 4.63 290 16:23 18.04.2021
4960 Clear 13 1021 58 10000 5.14 320 15:43 18.04.2021
4961 Clear 12 1021 58 10000 4.63 310 15:24 18.04.2021
4962 Clear 11 1021 62 10000 5.66 300 14:45 18.04.2021
4963 Clouds 11 1021 66 10000 4.63 290 14:20 18.04.2021
4964 Clouds 11 1021 66 10000 4.12 310 13:54 18.04.2021
4965 Clouds 10 1022 76 10000 2.57 320 13:32 18.04.2021
4966 Clouds 9 1022 71 10000 3.09 310 12:49 18.04.2021
4967 Rain 10 1022 66 10000 2.06 320 12:24 18.04.2021
4968 Clear 10 1022 66 10000 2.57 290 11:41 18.04.2021
4969 Clear 9 1022 71 10000 2.57 310 11:20 18.04.2021
4970 Clouds 8 1022 70 10000 3.09 280 10:47 18.04.2021
4971 Clouds 8 1022 76 10000 2.57 300 10:22 18.04.2021
4972 Clouds 8 1022 70 10000 2.57 290 09:52 18.04.2021
4973 Clouds 7 1022 75 10000 2.57 310 09:34 18.04.2021
4974 Rain 6 1022 75 10000 2.06 320 08:56 18.04.2021
4975 Clouds 6 1022 75 10000 2.06 320 08:35 18.04.2021
4976 Clouds 6 1022 81 10000 0.51 0 07:55 18.04.2021
4977 Clouds 6 1022 81 10000 1.03 0 07:37 18.04.2021
4978 Clouds 6 1022 81 10000 1.03 0 05:42 18.04.2021
4979 Clouds 6 1022 87 10000 0.51 0 05:23 18.04.2021
4980 Clear 7 1022 70 10000 2.57 60 02:39 18.04.2021
4981 Clear 7 1022 70 10000 2.57 60 02:39 18.04.2021
4982 Clear 7 1022 70 10000 2.06 60 02:20 18.04.2021
4983 Clear 8 1022 61 10000 1.54 60 00:37 18.04.2021
4984 Clear 9 1022 57 10000 2.47 6 23:37 17.04.2021
4985 Clear 9 1022 61 10000 0.51 0 22:51 17.04.2021
4986 Clear 10 1022 49 10000 0.51 20 22:31 17.04.2021
4987 Clear 10 1022 49 10000 1.03 340 21:50 17.04.2021
4988 Clear 10 1022 46 10000 0.51 30 21:30 17.04.2021
4989 Clear 11 1022 43 10000 1.03 0 20:48 17.04.2021
4990 Clear 11 1022 43 10000 1.54 350 20:27 17.04.2021
4991 Clear 11 1022 43 10000 2.06 340 19:45 17.04.2021
4992 Clear 11 1022 43 10000 2.06 360 19:21 17.04.2021
4993 Clear 11 1022 40 10000 3.6 10 18:55 17.04.2021
4994 Clear 11 1022 40 10000 3.6 10 18:35 17.04.2021
4995 Clear 12 1023 43 10000 4.12 350 17:57 17.04.2021
4996 Clear 11 1023 46 10000 4.63 20 17:39 17.04.2021
4997 Clear 11 1023 43 10000 3.6 50 16:53 17.04.2021
4998 Clouds 11 1023 43 10000 2.57 80 16:28 17.04.2021
4999 Clouds 11 1023 43 10000 2.57 80 16:28 17.04.2021
5000 Clouds 12 1023 43 10000 3.09 80 15:42 17.04.2021
5001 Clear 12 1024 40 10000 5.14 40 14:50 17.04.2021
5002 Clear 13 1024 37 10000 5.66 30 14:30 17.04.2021
5003 Clear 13 1024 40 10000 6.17 350 13:47 17.04.2021
5004 Clouds 12 1024 40 10000 5.66 10 13:22 17.04.2021
5005 Clouds 12 1024 43 10000 5.14 30 12:41 17.04.2021
5006 Clouds 11 1025 43 10000 5.66 40 12:18 17.04.2021
5007 Clouds 10 1025 43 10000 5.66 40 11:39 17.04.2021
5008 Clouds 9 1025 43 10000 4.63 40 11:21 17.04.2021
5009 Clear 9 1025 46 10000 4.63 40 10:43 17.04.2021
5010 Clear 9 1025 46 10000 4.63 20 10:25 17.04.2021
5011 Clear 6 1025 56 10000 2.06 40 09:27 17.04.2021
5012 Clear 6 1025 75 10000 0.51 0 08:38 17.04.2021
5013 Clear 4 1025 75 10000 1.03 190 08:19 17.04.2021
5014 Clear 4 1025 80 10000 2.06 160 06:44 17.04.2021
5015 Clear 5 1025 75 10000 0.51 0 03:53 17.04.2021
5016 Clear 6 1025 65 10000 2.57 50 02:58 17.04.2021
5017 Clear 6 1025 65 10000 2.57 60 00:46 17.04.2021
5018 Clear 6 1025 65 10000 3.09 60 00:24 17.04.2021
5019 Clear 6 1025 65 10000 2.57 60 23:46 16.04.2021
5020 Clear 7 1025 61 10000 2.57 50 23:24 16.04.2021
5021 Clear 6 1025 57 10000 2.06 50 22:44 16.04.2021
5022 Clear 7 1025 53 10000 1.54 60 22:20 16.04.2021
5023 Clear 8 1025 49 10000 1.54 10 21:50 16.04.2021
5024 Clear 9 1025 46 10000 1.54 10 21:29 16.04.2021
5025 Clear 10 1025 43 10000 1.54 350 20:50 16.04.2021
5026 Clear 11 1025 40 10000 3.6 30 20:24 16.04.2021
5027 Clear 12 1025 40 10000 3.09 30 19:52 16.04.2021
5028 Clear 11 1025 40 10000 4.63 40 19:28 16.04.2021
5029 Clear 12 1025 40 10000 5.14 50 18:36 16.04.2021
5030 Clear 12 1025 40 10000 5.14 50 18:18 16.04.2021
5031 Clear 12 1025 40 10000 5.66 10 17:37 16.04.2021
5032 Clear 12 1025 37 10000 5.14 50 17:18 16.04.2021
5033 Clear 12 1025 35 10000 6.17 40 16:42 16.04.2021
5034 Clear 12 1025 37 10000 5.14 360 16:23 16.04.2021
5035 Clear 12 1026 37 10000 2.57 10 15:44 16.04.2021
5036 Clouds 11 1026 40 10000 4.63 30 15:18 16.04.2021
5037 Clouds 11 1026 40 10000 4.63 30 14:42 16.04.2021
5038 Clouds 11 1026 46 10000 4.63 40 14:18 16.04.2021
5039 Clouds 10 1026 43 10000 4.63 30 13:42 16.04.2021
5040 Clouds 10 1026 46 10000 4.12 30 13:20 16.04.2021
5041 Clouds 10 1027 46 10000 4.12 30 12:47 16.04.2021
5042 Clouds 9 1027 46 10000 5.14 30 12:27 16.04.2021
5043 Clouds 9 1027 46 10000 5.14 30 12:27 16.04.2021
5044 Clouds 9 1027 53 10000 3.09 20 11:52 16.04.2021
5045 Clouds 8 1027 57 10000 2.57 10 11:26 16.04.2021
5046 Clouds 8 1027 57 10000 2.57 10 11:26 16.04.2021
5047 Clouds 7 1027 56 10000 1.54 10 10:53 16.04.2021
5048 Clear 7 1027 56 10000 2.06 40 10:34 16.04.2021
5049 Clear 7 1027 56 10000 3.09 30 09:53 16.04.2021
5050 Clouds 6 1027 65 10000 1.54 50 09:24 16.04.2021
5051 Clouds 6 1027 65 10000 1.54 30 08:47 16.04.2021
5052 Clouds 5 1028 81 10000 0.51 0 08:28 16.04.2021
5053 Clouds 4 1027 70 10000 0.51 0 07:53 16.04.2021
5054 Clouds 4 1027 70 10000 1.03 0 07:35 16.04.2021
5055 Clouds 4 1027 80 10000 1.03 0 06:58 16.04.2021
5056 Rain 3 1027 80 10000 0.51 0 05:34 16.04.2021
5057 Clear 2 1027 74 10000 0.51 0 04:20 16.04.2021
5058 Clear 2 1028 64 10000 1.13 27 00:58 16.04.2021
5059 Clear 3 1028 60 10000 1.03 50 00:40 16.04.2021
5060 Clear 3 1028 60 10000 1.03 50 00:19 16.04.2021
5061 Clear 3 1028 60 10000 1.54 40 23:41 15.04.2021
5062 Clear 5 1028 56 10000 2.06 50 23:22 15.04.2021
5063 Clear 5 1028 56 10000 2.06 50 23:22 15.04.2021
5064 Clear 5 1028 52 10000 1.03 0 22:40 15.04.2021
5065 Clear 6 1028 48 10000 1.03 30 22:21 15.04.2021
5066 Clear 6 1028 45 10000 2.06 20 21:42 15.04.2021
5067 Clouds 8 1028 45 10000 2.06 30 21:20 15.04.2021
5068 Clouds 8 1028 39 10000 3.6 20 20:44 15.04.2021
5069 Clouds 8 1028 39 10000 3.6 20 20:44 15.04.2021
5070 Clouds 9 1027 39 10000 4.12 20 20:23 15.04.2021
5071 Clouds 9 1027 37 10000 3.6 10 19:44 15.04.2021
5072 Clouds 10 1027 32 10000 4.63 360 19:26 15.04.2021
5073 Clouds 10 1027 32 10000 5.14 20 18:43 15.04.2021
5074 Clouds 10 1028 37 10000 1.03 0 18:21 15.04.2021
5075 Clouds 10 1028 43 10000 3.6 50 17:55 15.04.2021
5076 Clouds 10 1028 37 10000 3.09 30 17:36 15.04.2021
5077 Rain 10 1028 40 10000 1.54 0 16:59 15.04.2021
5078 Rain 10 1028 40 10000 1.54 0 16:40 15.04.2021
5079 Rain 10 1028 43 10000 3.6 90 16:22 15.04.2021
5080 Clouds 10 1029 43 10000 3.09 10 15:45 15.04.2021
5081 Clouds 10 1029 46 10000 3.09 330 15:26 15.04.2021
5082 Clouds 10 1029 46 10000 2.57 360 14:41 15.04.2021
5083 Clouds 10 1029 46 10000 3.09 10 14:23 15.04.2021
5084 Clouds 11 1029 46 10000 3.09 10 14:23 15.04.2021
5085 Clouds 9 1029 46 10000 2.57 0 13:42 15.04.2021
5086 Clouds 8 1029 46 10000 1.54 0 13:19 15.04.2021
5087 Clouds 9 1030 57 10000 3.09 0 12:46 15.04.2021
5088 Clouds 8 1030 61 10000 2.57 280 12:24 15.04.2021
5089 Clouds 7 1030 61 10000 2.06 40 11:47 15.04.2021
5090 Clouds 8 1030 61 10000 1.54 260 11:25 15.04.2021
5091 Clouds 7 1030 65 10000 1.54 270 10:57 15.04.2021
5092 Clear 5 1030 70 10000 0.51 0 10:28 15.04.2021
5093 Clouds 4 1030 75 10000 1.03 0 09:50 15.04.2021
5094 Clouds 3 1030 87 10000 1.03 0 09:29 15.04.2021
5095 Clear 3 1030 86 10000 0.51 0 08:52 15.04.2021
5096 Clear 2 1030 93 10000 0.51 0 08:24 15.04.2021
5097 Clear -1 1029 93 10000 1.03 120 07:33 15.04.2021
5098 Clear -1 1029 93 10000 1.54 60 06:56 15.04.2021
5099 Clear -1 1029 100 10000 1.03 0 06:33 15.04.2021
5100 Clear 1 1029 93 10000 1.54 40 04:54 15.04.2021
5101 Clear 1 1029 93 10000 1.03 0 03:58 15.04.2021
5102 Clouds 3 1029 86 10000 0.51 0 23:59 14.04.2021
5103 Clouds 4 1029 87 10000 0.51 50 23:32 14.04.2021
5104 Clouds 4 1029 81 10000 0.51 0 22:57 14.04.2021
5105 Clouds 5 1029 81 10000 1.03 0 22:37 14.04.2021
5106 Clouds 4 1029 81 10000 1.03 0 22:19 14.04.2021
5107 Clouds 5 1029 70 10000 2.06 60 21:40 14.04.2021
5108 Clouds 5 1029 70 10000 2.57 50 21:22 14.04.2021
5109 Clouds 6 1028 60 10000 2.06 30 20:45 14.04.2021
5110 Clouds 6 1028 65 10000 3.6 350 20:27 14.04.2021
5111 Clouds 7 1028 56 10000 5.66 330 19:46 14.04.2021
5112 Clouds 8 1028 49 10000 4.12 340 19:19 14.04.2021
5113 Clouds 8 1028 39 10000 4.12 330 18:54 14.04.2021
5114 Clouds 9 1028 46 10000 4.12 320 18:20 14.04.2021
5115 Clouds 9 1029 49 10000 3.09 320 17:57 14.04.2021
5116 Clouds 9 1029 65 10000 2.06 290 17:24 14.04.2021
5117 Clouds 8 1029 65 10000 1.54 150 16:48 14.04.2021
5118 Clouds 8 1030 65 10000 4.63 60 16:24 14.04.2021
5119 Clouds 9 1030 61 10000 1.54 120 15:41 14.04.2021
5120 Clouds 7 1030 56 10000 3.6 70 15:22 14.04.2021
5121 Clouds 8 1030 56 10000 3.6 70 15:22 14.04.2021
5122 Clouds 7 1030 61 10000 7.72 40 14:44 14.04.2021
5123 Rain 8 1030 46 10000 2.06 0 14:23 14.04.2021
5124 Clouds 9 1030 53 10000 2.57 0 13:54 14.04.2021
5125 Clouds 7 1031 56 10000 3.6 350 13:19 14.04.2021
5126 Clouds 6 1031 70 10000 2.57 350 12:37 14.04.2021
5127 Clouds 6 1031 56 10000 1.54 340 11:43 14.04.2021
5128 Clouds 7 1031 57 10000 1.54 270 11:25 14.04.2021
5129 Clear 6 1031 61 10000 1.03 0 10:48 14.04.2021
5130 Clear 6 1031 65 10000 0.51 0 10:30 14.04.2021
5131 Clear 4 1031 75 10000 1.03 0 09:42 14.04.2021
5132 Clear 4 1031 80 10000 2.06 140 09:21 14.04.2021
5133 Clear 3 1031 86 10000 0.51 0 08:43 14.04.2021
5134 Clear 1 1031 93 10000 3.09 150 08:20 14.04.2021
5135 Clear -1 1031 100 10000 0.18 7 07:20 14.04.2021
5136 Clear -1 1031 93 10000 0.51 0 06:25 14.04.2021
5137 Clear 0 1031 93 10000 1.54 60 04:45 14.04.2021
5138 Clear 2 1031 80 10000 0.51 0 01:49 14.04.2021
5139 Clear 3 1031 75 10000 1.54 60 00:39 14.04.2021
5140 Clear 4 1031 75 10000 2.57 60 23:48 13.04.2021
5141 Clear 4 1031 69 10000 0.51 0 23:30 13.04.2021
5142 Clear 4 1031 65 10000 0.51 0 22:43 13.04.2021
5143 Clear 5 1031 60 10000 1.03 50 22:19 13.04.2021
5144 Clear 6 1031 60 10000 1.03 50 21:46 13.04.2021
5145 Clear 6 1031 60 10000 1.54 50 21:28 13.04.2021
5146 Clear 7 1031 49 10000 3.09 20 20:43 13.04.2021
5147 Clouds 8 1031 45 10000 2.57 360 20:23 13.04.2021
5148 Clouds 8 1030 36 10000 0.51 0 19:48 13.04.2021
5149 Clouds 9 1030 46 10000 1.03 0 19:24 13.04.2021
5150 Clouds 9 1030 46 10000 1.54 220 18:44 13.04.2021
5151 Clouds 9 1030 49 10000 1.54 0 18:25 13.04.2021
5152 Clouds 10 1030 53 10000 2.57 180 17:40 13.04.2021
5153 Clouds 10 1031 53 10000 2.57 170 17:18 13.04.2021
5154 Clouds 10 1031 57 10000 1.03 0 16:44 13.04.2021
5155 Clouds 9 1031 61 10000 2.57 100 16:23 13.04.2021
5156 Clouds 10 1031 53 10000 6.69 20 15:53 13.04.2021
5157 Clouds 9 1031 53 10000 6.69 20 15:34 13.04.2021
5158 Clouds 9 1032 53 10000 5.66 300 14:50 13.04.2021
5159 Clouds 9 1032 57 10000 4.63 320 14:22 13.04.2021
5160 Clouds 9 1032 53 10000 2.57 0 13:45 13.04.2021
5161 Clouds 9 1032 61 10000 3.09 270 13:26 13.04.2021
5162 Clouds 7 1033 65 10000 2.06 0 12:58 13.04.2021
5163 Clouds 6 1033 70 10000 2.06 280 12:31 13.04.2021
5164 Clouds 6 1033 81 10000 1.03 0 11:59 13.04.2021
5165 Clouds 5 1033 87 10000 1.03 0 11:34 13.04.2021
5166 Clouds 5 1033 87 10000 1.03 0 10:56 13.04.2021
5167 Clouds 4 1033 93 10000 1.54 140 10:37 13.04.2021
5168 Clouds 4 1033 93 10000 1.54 140 10:18 13.04.2021
5169 Clouds 3 1033 93 8000 1.03 0 09:40 13.04.2021
5170 Clouds 3 1033 86 6000 1.03 0 09:18 13.04.2021
5171 Clouds 2 1032 93 6000 0.51 0 08:42 13.04.2021
5172 Clouds 1 1032 86 9000 1.03 0 08:21 13.04.2021
5173 Clouds -1 1032 100 10000 0.51 0 07:36 13.04.2021
5174 Clouds -1 1031 93 9000 0.51 0 06:59 13.04.2021
5175 Clear -1 1031 93 10000 0.51 60 05:53 13.04.2021
5176 Clear 0 1031 93 10000 1.03 60 02:47 13.04.2021
5177 Clear 1 1030 100 10000 1.03 60 01:27 13.04.2021
5178 Clear 1 1030 100 10000 0.51 0 23:49 12.04.2021
5179 Clear 1 1030 93 10000 0.51 0 23:27 12.04.2021
5180 Clear 2 1029 93 10000 1.03 0 22:43 12.04.2021
5181 Clear 2 1029 93 10000 1.54 150 22:25 12.04.2021
5182 Clear 2 1029 93 10000 1.03 100 21:47 12.04.2021
5183 Clouds 3 1029 100 10000 1.54 70 21:23 12.04.2021
5184 Clouds 3 1029 93 10000 4.12 10 20:45 12.04.2021
5185 Clouds 3 1029 81 10000 10.8 310 20:26 12.04.2021
5186 Clouds 4 1028 56 10000 4.63 280 19:58 12.04.2021
5187 Rain 6 1028 56 10000 4.63 280 19:39 12.04.2021
5188 Clouds 7 1028 57 10000 3.09 300 19:20 12.04.2021
5189 Clouds 7 1028 57 10000 4.12 290 18:47 12.04.2021
5190 Clouds 7 1027 65 10000 3.09 310 18:29 12.04.2021
5191 Clouds 7 1027 61 10000 4.63 290 17:46 12.04.2021
5192 Clouds 7 1027 65 10000 3.6 280 17:25 12.04.2021
5193 Clouds 7 1027 65 10000 5.66 280 16:49 12.04.2021
5194 Clouds 7 1027 81 10000 2.57 0 16:29 12.04.2021
5195 Clouds 6 1028 87 10000 4.12 350 15:56 12.04.2021
5196 Clouds 7 1027 75 10000 3.09 270 15:33 12.04.2021
5197 Clouds 5 1027 81 10000 3.09 360 14:55 12.04.2021
5198 Clouds 5 1027 81 10000 3.09 360 14:37 12.04.2021
5199 Clouds 7 1027 70 10000 3.09 340 14:18 12.04.2021
5200 Rain 7 1026 70 10000 5.14 240 13:40 12.04.2021
5201 Clouds 6 1027 81 10000 4.63 240 13:18 12.04.2021
5202 Rain 7 1027 75 10000 4.63 290 12:43 12.04.2021
5203 Rain 6 1027 81 10000 4.12 290 12:22 12.04.2021
5204 Rain 6 1026 81 10000 4.12 300 11:35 12.04.2021
5205 Rain 5 1026 87 10000 2.57 270 10:51 12.04.2021
5206 Rain 4 1026 93 8000 1.54 220 10:28 12.04.2021
5207 Clouds 3 1026 87 10000 2.06 190 09:53 12.04.2021
5208 Clouds 4 1025 93 10000 1.54 170 09:25 12.04.2021
5209 Clouds 3 1025 100 10000 0.51 0 08:54 12.04.2021
5210 Clouds 1 1024 100 10000 1.03 0 07:58 12.04.2021
5211 Clouds 1 1024 100 10000 0.51 0 07:30 12.04.2021
5212 Clouds 1 1023 93 10000 0.51 0 06:47 12.04.2021
5213 Clouds 1 1023 93 10000 0.51 0 05:48 12.04.2021
5214 Clear 2 1022 93 10000 1.54 10 03:58 12.04.2021
5215 Clear 4 1020 93 10000 2.06 330 00:46 12.04.2021
5216 Clear 4 1020 87 10000 2.57 340 00:23 12.04.2021
5217 Clouds 4 1019 93 10000 2.06 330 23:44 11.04.2021
5218 Clouds 4 1019 93 10000 2.06 330 23:22 11.04.2021
5219 Clouds 5 1018 93 10000 0.51 0 22:39 11.04.2021
5220 Clouds 5 1018 93 10000 0.51 0 22:20 11.04.2021
5221 Clouds 5 1018 93 10000 0.51 0 21:45 11.04.2021
5222 Clouds 5 1018 93 10000 1.03 340 21:26 11.04.2021
5223 Clouds 5 1017 93 10000 1.03 0 20:52 11.04.2021
5224 Clouds 5 1017 93 10000 1.03 0 20:27 11.04.2021
5225 Rain 5 1016 93 10000 1.54 360 19:44 11.04.2021
5226 Rain 5 1015 87 10000 2.06 10 19:22 11.04.2021
5227 Rain 5 1015 93 10000 2.57 360 19:00 11.04.2021
5228 Rain 5 1015 87 10000 3.6 350 18:41 11.04.2021
5229 Rain 5 1015 87 10000 3.6 350 18:22 11.04.2021
5230 Rain 5 1015 87 10000 5.14 320 17:44 11.04.2021
5231 Rain 6 1014 87 10000 3.6 340 17:24 11.04.2021
5232 Rain 5 1014 93 10000 5.14 330 16:46 11.04.2021
5233 Rain 5 1014 93 10000 5.14 320 16:22 11.04.2021
5234 Rain 5 1013 93 10000 4.12 330 15:51 11.04.2021
5235 Rain 5 1013 87 10000 4.63 350 15:27 11.04.2021
5236 Rain 5 1013 87 10000 4.63 330 14:54 11.04.2021
5237 Rain 5 1013 93 10000 5.66 320 14:31 11.04.2021
5238 Rain 5 1012 87 10000 5.14 310 13:51 11.04.2021
5239 Rain 5 1012 93 10000 4.63 320 13:31 11.04.2021
5240 Rain 4 1011 93 10000 5.66 310 12:54 11.04.2021
5241 Rain 5 1011 93 10000 4.63 310 12:21 11.04.2021
5242 Rain 5 1011 93 10000 5.66 310 11:52 11.04.2021
5243 Rain 5 1011 93 7000 5.66 310 11:24 11.04.2021
5244 Rain 5 1010 93 4800 4.63 310 10:49 11.04.2021
5245 Rain 5 1010 93 4200 5.14 310 10:31 11.04.2021
5246 Rain 5 1009 100 4800 4.63 320 09:57 11.04.2021
5247 Rain 5 1009 93 4500 3.6 320 09:33 11.04.2021
5248 Clouds 5 1009 93 3200 5.66 310 08:59 11.04.2021
5249 Clouds 5 1008 93 5000 6.69 300 08:26 11.04.2021
5250 Clouds 7 1007 93 4500 4.12 310 07:24 11.04.2021
5251 Rain 8 1007 93 7000 6.17 310 06:54 11.04.2021
5252 Rain 9 1006 87 10000 2.57 240 05:44 11.04.2021
5253 Clouds 10 1006 87 10000 3.09 170 05:21 11.04.2021
5254 Clouds 10 1006 87 10000 3.6 150 04:35 11.04.2021
5255 Clouds 10 1007 81 10000 3.09 140 02:45 11.04.2021
5256 Rain 10 1008 81 10000 5.14 130 00:40 11.04.2021
5257 Clouds 10 1008 81 10000 5.14 140 23:49 10.04.2021
5258 Rain 10 1008 87 10000 3.6 150 23:26 10.04.2021
5259 Clouds 10 1009 81 10000 4.12 140 22:45 10.04.2021
5260 Clouds 10 1009 81 10000 4.12 140 22:23 10.04.2021
5261 Clouds 11 1009 81 10000 4.63 140 21:50 10.04.2021
5262 Clouds 11 1009 81 10000 4.63 140 21:50 10.04.2021
5263 Clouds 11 1009 87 10000 5.66 150 21:23 10.04.2021
5264 Clouds 11 1008 87 10000 6.17 150 20:47 10.04.2021
5265 Clouds 10 1009 87 10000 6.17 150 20:24 10.04.2021
5266 Clouds 10 1009 87 10000 5.14 140 19:45 10.04.2021
5267 Clouds 10 1009 87 10000 5.14 140 19:27 10.04.2021
5268 Clouds 10 1009 87 10000 5.14 130 18:54 10.04.2021
5269 Clouds 10 1009 87 10000 4.12 120 18:34 10.04.2021
5270 Clouds 10 1010 87 10000 4.12 130 17:44 10.04.2021
5271 Clouds 10 1010 87 10000 5.14 130 17:23 10.04.2021
5272 Clouds 10 1011 93 10000 3.09 100 16:31 10.04.2021
5273 Rain 10 1012 87 10000 3.6 110 15:56 10.04.2021
5274 Rain 10 1012 87 10000 3.6 110 15:35 10.04.2021
5275 Rain 10 1012 87 10000 3.6 110 14:50 10.04.2021
5276 Rain 10 1012 81 10000 3.6 130 14:25 10.04.2021
5277 Rain 10 1013 81 10000 2.57 130 13:47 10.04.2021
5278 Rain 10 1013 81 10000 2.06 0 13:28 10.04.2021
5279 Rain 10 1013 81 10000 1.54 180 12:37 10.04.2021
5280 Rain 10 1013 81 10000 1.54 120 11:59 10.04.2021
5281 Rain 10 1013 81 10000 1.54 120 11:41 10.04.2021
5282 Rain 9 1013 87 10000 2.57 140 11:18 10.04.2021
5283 Rain 10 1013 87 9000 2.57 140 10:42 10.04.2021
5284 Rain 10 1013 93 7000 2.57 140 10:23 10.04.2021
5285 Mist 8 1013 93 3500 2.06 120 09:29 10.04.2021
5286 Mist 8 1013 93 2700 1.03 0 08:58 10.04.2021
5287 Mist 8 1013 93 1800 1.03 80 08:31 10.04.2021
5288 Fog 7 1012 93 1600 1.54 50 07:54 10.04.2021
5289 Fog 7 1012 100 1200 1.03 110 07:25 10.04.2021
5290 Mist 7 1012 93 1700 1.03 90 06:27 10.04.2021
5291 Clouds 8 1012 100 5000 1.03 0 04:49 10.04.2021
5292 Rain 8 1012 93 5000 1.54 140 02:58 10.04.2021
5293 Rain 8 1012 100 4500 1.03 60 02:37 10.04.2021
5294 Rain 9 1012 87 10000 1.54 170 00:59 10.04.2021
5295 Rain 10 1012 81 10000 3.09 220 00:30 10.04.2021
5296 Rain 10 1012 66 10000 3.09 260 23:49 09.04.2021
5297 Rain 10 1012 54 10000 3.09 220 23:27 09.04.2021
5298 Rain 10 1012 66 10000 1.03 160 22:47 09.04.2021
5299 Rain 10 1012 54 10000 1.54 70 22:28 09.04.2021
5300 Rain 10 1012 62 10000 2.06 60 21:40 09.04.2021
5301 Clear 11 1012 54 10000 1.54 50 21:20 09.04.2021
5302 Clear 12 1012 50 10000 1.54 10 20:46 09.04.2021
5303 Clear 12 1012 50 10000 3.09 360 20:23 09.04.2021
5304 Clear 13 1012 44 10000 3.09 340 19:58 09.04.2021
5305 Clear 13 1012 44 10000 3.09 340 19:40 09.04.2021
5306 Clear 14 1012 41 10000 3.09 330 19:22 09.04.2021
5307 Clear 14 1012 41 10000 3.6 330 18:42 09.04.2021
5308 Clear 15 1012 38 10000 2.57 280 18:23 09.04.2021
5309 Clear 15 1012 36 10000 4.12 290 17:47 09.04.2021
5310 Clear 15 1012 36 10000 4.12 260 17:29 09.04.2021
5311 Clear 15 1013 36 10000 4.12 290 16:47 09.04.2021
5312 Clear 15 1013 36 10000 3.6 290 16:28 09.04.2021
5313 Clear 14 1013 38 10000 5.14 290 15:44 09.04.2021
5314 Clear 14 1014 38 10000 4.63 230 15:24 09.04.2021
5315 Clear 13 1014 38 10000 3.6 0 14:46 09.04.2021
5316 Clear 13 1014 41 10000 5.66 240 14:22 09.04.2021
5317 Clear 12 1014 44 10000 4.12 260 13:45 09.04.2021
5318 Clear 13 1014 41 10000 5.66 260 13:22 09.04.2021
5319 Clear 14 1014 41 10000 6.69 250 12:47 09.04.2021
5320 Clear 12 1015 40 10000 7.2 250 12:23 09.04.2021
5321 Clear 12 1015 43 10000 3.6 240 11:43 09.04.2021
5322 Clear 11 1015 43 10000 2.57 0 11:20 09.04.2021
5323 Clear 9 1015 53 10000 2.57 190 10:37 09.04.2021
5324 Clouds 8 1015 53 10000 2.06 170 09:58 09.04.2021
5325 Clouds 6 1016 56 10000 3.6 160 09:27 09.04.2021
5326 Clouds 6 1016 60 10000 2.57 150 08:56 09.04.2021
5327 Clouds 5 1016 65 10000 3.09 150 08:33 09.04.2021
5328 Clouds 4 1016 60 10000 2.57 130 07:32 09.04.2021
5329 Clear 4 1016 65 10000 3.6 140 06:30 09.04.2021
5330 Clear 4 1016 65 10000 3.6 140 06:30 09.04.2021
5331 Clear 3 1016 65 10000 4.12 160 05:36 09.04.2021
5332 Clear 3 1018 65 10000 3.09 140 03:43 09.04.2021
5333 Clear 3 1019 60 10000 2.57 140 00:39 09.04.2021
5334 Clear 3 1020 60 10000 3.6 140 00:21 09.04.2021
5335 Clear 4 1020 60 10000 2.57 140 23:56 08.04.2021
5336 Clear 4 1020 56 10000 1.54 140 22:56 08.04.2021
5337 Clear 5 1020 56 10000 1.54 130 22:36 08.04.2021
5338 Clear 5 1020 56 10000 1.54 130 22:18 08.04.2021
5339 Clear 5 1021 56 10000 1.54 0 21:41 08.04.2021
5340 Clear 6 1021 52 10000 1.54 190 21:23 08.04.2021
5341 Clear 7 1021 49 10000 1.54 210 20:59 08.04.2021
5342 Clear 7 1021 49 10000 1.54 210 20:40 08.04.2021
5343 Clear 8 1021 49 10000 3.09 240 20:19 08.04.2021
5344 Clear 8 1021 42 10000 3.6 270 19:41 08.04.2021
5345 Clear 9 1022 39 10000 4.12 270 19:19 08.04.2021
5346 Clear 9 1022 39 10000 4.12 270 19:19 08.04.2021
5347 Clear 9 1022 39 10000 4.63 270 18:43 08.04.2021
5348 Clear 9 1022 37 10000 5.14 250 18:20 08.04.2021
5349 Clear 10 1022 37 10000 5.14 240 17:47 08.04.2021
5350 Clear 10 1023 37 10000 5.66 230 17:21 08.04.2021
5351 Clear 11 1023 37 10000 5.14 260 16:45 08.04.2021
5352 Clear 9 1023 37 10000 5.66 260 16:25 08.04.2021
5353 Clear 9 1024 43 10000 5.14 260 15:47 08.04.2021
5354 Clear 9 1024 37 10000 5.14 250 15:28 08.04.2021
5355 Clear 8 1024 42 10000 4.63 270 14:44 08.04.2021
5356 Clouds 7 1024 42 10000 4.63 270 14:23 08.04.2021
5357 Clouds 8 1024 42 10000 5.14 270 13:54 08.04.2021
5358 Clouds 7 1024 42 10000 5.14 270 13:36 08.04.2021
5359 Clouds 8 1024 39 10000 5.66 230 13:18 08.04.2021
5360 Clouds 7 1025 42 10000 6.17 250 12:38 08.04.2021
5361 Clouds 7 1025 45 10000 5.66 280 11:59 08.04.2021
5362 Clouds 6 1025 49 10000 5.66 240 11:37 08.04.2021
5363 Clouds 6 1025 56 10000 5.66 240 10:56 08.04.2021
5364 Clouds 5 1025 56 10000 4.63 250 10:28 08.04.2021
5365 Clear 4 1025 70 10000 2.57 240 09:51 08.04.2021
5366 Clear 4 1025 70 10000 2.57 240 09:33 08.04.2021
5367 Clear 3 1024 75 10000 2.57 230 08:45 08.04.2021
5368 Clear 2 1024 80 10000 1.54 230 08:25 08.04.2021
5369 Clear 2 1024 86 10000 1.54 220 07:53 08.04.2021
5370 Clouds 2 1024 75 10000 3.09 270 06:56 08.04.2021
5371 Clouds 2 1023 75 10000 4.63 270 03:31 08.04.2021
5372 Clouds 3 1022 80 10000 4.12 270 00:44 08.04.2021
5373 Clouds 3 1022 70 10000 6.17 290 23:57 07.04.2021
5374 Clouds 3 1021 75 10000 6.69 310 23:38 07.04.2021
5375 Clouds 3 1021 75 10000 6.69 310 23:19 07.04.2021
5376 Clouds 3 1021 65 10000 5.66 300 22:47 07.04.2021
5377 Snow 3 1021 65 10000 6.17 290 22:29 07.04.2021
5378 Clouds 3 1021 65 10000 7.2 290 21:44 07.04.2021
5379 Clouds 4 1020 65 10000 6.17 290 21:24 07.04.2021
5380 Clouds 4 1020 75 10000 5.66 280 20:44 07.04.2021
5381 Clouds 4 1020 81 10000 7.72 280 20:21 07.04.2021
5382 Clouds 4 1019 93 10000 7.2 290 19:45 07.04.2021
5383 Clouds 4 1019 87 10000 6.69 280 19:26 07.04.2021
5384 Clouds 4 1019 81 10000 11.32 280 18:48 07.04.2021
5385 Clouds 5 1019 81 10000 9.77 270 18:20 07.04.2021
5386 Rain 5 1019 75 10000 10.8 280 17:55 07.04.2021
5387 Clouds 5 1019 75 10000 10.8 280 17:37 07.04.2021
5388 Clouds 5 1018 87 10000 10.29 280 16:58 07.04.2021
5389 Clouds 5 1018 87 10000 8.75 270 16:38 07.04.2021
5390 Clouds 5 1018 87 10000 8.75 270 16:19 07.04.2021
5391 Clouds 5 1017 87 10000 8.75 280 15:39 07.04.2021
5392 Rain 4 1017 87 10000 9.26 280 14:58 07.04.2021
5393 Clouds 4 1017 93 10000 6.69 280 14:32 07.04.2021
5394 Clouds 2 1016 93 9000 7.72 280 13:53 07.04.2021
5395 Clouds 3 1016 93 9000 7.72 280 13:53 07.04.2021
5396 Snow 2 1016 93 2800 4.63 280 13:27 07.04.2021
5397 Snow 2 1016 86 1500 6.17 280 12:57 07.04.2021
5398 Rain 2 1016 93 6000 7.2 270 12:25 07.04.2021
5399 Rain 2 1016 93 6000 7.2 270 12:25 07.04.2021
5400 Snow 2 1016 86 4000 10.29 270 11:57 07.04.2021
5401 Snow 1 1015 86 10000 9.77 270 11:29 07.04.2021
5402 Snow 1 1015 86 10000 9.77 270 11:29 07.04.2021
5403 Snow 1 1015 93 4000 8.23 250 10:59 07.04.2021
5404 Snow 1 1015 86 6000 11.32 260 10:30 07.04.2021
5405 Snow 1 1015 86 3000 9.26 260 09:46 07.04.2021
5406 Snow 1 1015 93 3000 7.2 260 09:27 07.04.2021
5407 Snow 1 1015 86 3300 7.72 260 08:48 07.04.2021
5408 Snow 1 1015 80 10000 7.2 260 08:23 07.04.2021
5409 Snow 1 1014 93 7000 5.66 270 07:46 07.04.2021
5410 Snow 1 1014 86 10000 7.2 270 07:26 07.04.2021
5411 Snow 1 1014 86 10000 7.2 270 06:36 07.04.2021
5412 Clouds 0 1014 86 10000 5.14 280 04:24 07.04.2021
5413 Clouds 1 1013 93 10000 5.14 290 01:21 07.04.2021
5414 Snow 1 1013 86 10000 4.63 290 23:47 06.04.2021
5415 Snow 1 1012 86 10000 5.14 290 23:22 06.04.2021
5416 Snow 1 1012 86 6000 6.17 280 22:50 06.04.2021
5417 Snow 1 1012 86 10000 6.69 270 22:21 06.04.2021
5418 Snow 1 1012 80 10000 7.2 280 21:44 06.04.2021
5419 Clouds 1 1012 86 10000 6.69 280 21:24 06.04.2021
5420 Clouds 2 1012 86 10000 9.26 280 20:57 06.04.2021
5421 Snow 2 1011 86 10000 7.72 280 20:39 06.04.2021
5422 Snow 2 1011 86 10000 7.72 280 20:19 06.04.2021
5423 Clouds 2 1011 80 10000 7.72 280 19:42 06.04.2021
5424 Clouds 2 1011 80 10000 7.2 270 19:24 06.04.2021
5425 Clouds 2 1011 93 10000 5.14 280 18:43 06.04.2021
5426 Clouds 2 1011 80 10000 8.23 270 18:20 06.04.2021
5427 Clouds 3 1011 87 10000 9.26 260 17:45 06.04.2021
5428 Clouds 3 1012 93 10000 8.75 280 17:20 06.04.2021
5429 Clouds 3 1011 75 10000 9.77 250 16:49 06.04.2021
5430 Snow 5 1011 70 10000 9.77 260 16:27 06.04.2021
5431 Clouds 5 1012 87 10000 5.66 310 15:27 06.04.2021
5432 Clouds 4 1012 75 9000 9.26 280 14:50 06.04.2021
5433 Snow 5 1012 70 10000 7.2 270 14:31 06.04.2021
5434 Snow 5 1012 70 10000 9.26 270 13:59 06.04.2021
5435 Snow 5 1012 70 10000 9.26 270 13:39 06.04.2021
5436 Clouds 6 1012 61 10000 8.75 270 13:20 06.04.2021
5437 Clouds 6 1013 65 10000 8.75 280 12:38 06.04.2021
5438 Clouds 5 1013 65 10000 8.23 280 12:19 06.04.2021
5439 Clouds 5 1013 65 10000 7.72 290 11:48 06.04.2021
5440 Clouds 5 1013 70 10000 7.2 290 11:20 06.04.2021
5441 Clouds 4 1013 75 10000 7.72 290 10:46 06.04.2021
5442 Clouds 4 1013 75 10000 8.23 290 10:24 06.04.2021
5443 Clouds 4 1013 80 10000 7.72 280 09:47 06.04.2021
5444 Clouds 2 1013 80 10000 6.69 280 09:29 06.04.2021
5445 Clouds 2 1013 80 10000 7.72 280 08:40 06.04.2021
5446 Snow 2 1013 86 10000 6.69 280 07:57 06.04.2021
5447 Snow 1 1012 86 10000 6.17 280 06:55 06.04.2021
5448 Snow 2 1013 93 10000 6.17 290 05:22 06.04.2021
5449 Snow 2 1012 86 10000 7.2 270 02:54 06.04.2021
5450 Snow 1 1013 75 10000 8.75 250 00:44 06.04.2021
5451 Clouds 1 1013 80 10000 7.2 250 00:21 06.04.2021
5452 Clouds 1 1013 80 10000 7.2 260 23:42 05.04.2021
5453 Clear 1 1014 80 10000 6.17 260 23:19 05.04.2021
5454 Clouds 1 1014 75 10000 5.66 270 22:48 05.04.2021
5455 Clouds 1 1014 80 10000 6.69 280 22:26 05.04.2021
5456 Clouds 2 1014 80 10000 6.69 280 21:43 05.04.2021
5457 Snow 1 1014 93 10000 3.6 320 21:21 05.04.2021
5458 Snow 2 1013 69 9000 6.69 310 20:43 05.04.2021
5459 Clouds 3 1013 75 10000 5.14 310 20:25 05.04.2021
5460 Snow 2 1013 86 4000 6.69 320 19:43 05.04.2021
5461 Clouds 4 1012 56 10000 10.29 300 19:22 05.04.2021
5462 Clouds 4 1012 52 10000 9.26 320 18:54 05.04.2021
5463 Clouds 4 1012 52 10000 9.26 320 18:36 05.04.2021
5464 Clouds 5 1011 48 10000 12.86 300 18:18 05.04.2021
5465 Clouds 5 1011 52 10000 11.32 320 17:42 05.04.2021
5466 Clouds 5 1011 60 10000 7.2 320 17:19 05.04.2021
5467 Clouds 4 1011 69 10000 5.66 330 16:43 05.04.2021
5468 Clouds 4 1011 70 8000 8.23 310 16:20 05.04.2021
5469 Snow 4 1010 86 10000 7.72 330 15:52 05.04.2021
5470 Clouds 4 1010 81 10000 5.14 300 15:27 05.04.2021
5471 Snow 4 1010 93 10000 5.14 330 14:50 05.04.2021
5472 Clouds 4 1009 81 5000 8.23 290 14:28 05.04.2021
5473 Snow 4 1009 87 6000 8.75 330 13:31 05.04.2021
5474 Rain 4 1008 93 10000 7.72 330 12:50 05.04.2021
5475 Rain 4 1007 93 7000 7.2 310 12:27 05.04.2021
5476 Rain 5 1007 87 10000 7.72 310 11:56 05.04.2021
5477 Rain 5 1006 87 9000 7.72 250 11:36 05.04.2021
5478 Rain 6 1006 87 9000 7.72 250 11:18 05.04.2021
5479 Rain 6 1006 87 9000 7.2 250 10:45 05.04.2021
5480 Rain 6 1006 93 4000 6.17 250 10:26 05.04.2021
5481 Clouds 6 1007 93 4800 8.75 260 09:47 05.04.2021
5482 Rain 6 1007 81 10000 7.2 250 09:22 05.04.2021
5483 Clouds 6 1007 81 10000 8.23 260 08:45 05.04.2021
5484 Clouds 7 1008 81 10000 8.75 270 08:25 05.04.2021
5485 Clouds 6 1008 75 10000 8.23 270 07:36 05.04.2021
5486 Clear 5 1009 81 10000 2.06 140 06:20 05.04.2021
5487 Clear 3 1015 86 10000 2.57 160 01:57 05.04.2021
5488 Clear 3 1016 87 10000 1.03 0 00:49 05.04.2021
5489 Clear 4 1017 87 10000 2.57 150 23:52 04.04.2021
5490 Clear 4 1018 81 10000 2.57 140 23:28 04.04.2021
5491 Clear 5 1018 81 10000 2.57 140 22:52 04.04.2021
5492 Clear 5 1018 81 10000 3.09 150 22:30 04.04.2021
5493 Clear 5 1019 75 10000 1.03 0 21:29 04.04.2021
5494 Clear 6 1019 70 10000 1.54 150 20:58 04.04.2021
5495 Clear 7 1020 65 10000 1.54 330 20:30 04.04.2021
5496 Clear 7 1020 65 10000 1.54 330 20:30 04.04.2021
5497 Clouds 7 1020 61 10000 1.54 290 19:58 04.04.2021
5498 Clouds 8 1021 61 10000 2.06 300 19:38 04.04.2021
5499 Clouds 8 1021 61 10000 2.06 300 19:19 04.04.2021
5500 Clouds 9 1021 65 10000 2.57 280 18:45 04.04.2021
5501 Clouds 9 1021 61 10000 1.54 280 18:24 04.04.2021
5502 Clouds 8 1022 65 10000 2.06 280 17:45 04.04.2021
5503 Clouds 8 1022 61 10000 2.57 260 17:24 04.04.2021
5504 Clouds 8 1023 65 10000 3.09 300 16:52 04.04.2021
5505 Clouds 8 1023 65 10000 2.06 310 16:21 04.04.2021
5506 Clouds 8 1024 65 10000 2.57 270 15:37 04.04.2021
5507 Clouds 8 1024 65 10000 2.57 270 15:18 04.04.2021
5508 Clouds 8 1024 65 10000 2.57 290 14:37 04.04.2021
5509 Clouds 7 1025 65 10000 2.57 300 14:18 04.04.2021
5510 Clouds 7 1025 65 10000 3.09 310 13:26 04.04.2021
5511 Clouds 6 1025 70 10000 3.09 320 12:50 04.04.2021
5512 Clouds 6 1026 70 10000 3.09 320 12:27 04.04.2021
5513 Clouds 6 1026 70 10000 2.57 350 11:43 04.04.2021
5514 Clouds 6 1026 70 10000 3.6 300 11:25 04.04.2021
5515 Clouds 6 1026 70 10000 2.57 320 10:46 04.04.2021
5516 Clouds 6 1026 70 10000 2.06 340 10:19 04.04.2021
5517 Clouds 5 1026 75 10000 2.06 350 09:37 04.04.2021
5518 Clouds 5 1026 75 10000 2.06 350 09:18 04.04.2021
5519 Clouds 5 1026 75 10000 2.06 360 08:42 04.04.2021
5520 Clouds 5 1026 75 10000 2.06 350 08:24 04.04.2021
5521 Clouds 4 1026 81 10000 2.06 350 06:39 04.04.2021
5522 Clouds 4 1026 81 10000 2.57 340 05:43 04.04.2021
5523 Clear 5 1026 81 10000 2.06 320 01:49 04.04.2021
5524 Clear 6 1026 75 10000 2.57 340 00:47 04.04.2021
5525 Clear 7 1026 70 10000 2.57 340 00:18 04.04.2021
5526 Clear 6 1026 70 10000 2.57 340 23:39 03.04.2021
5527 Clear 8 1026 61 10000 3.85 353 22:56 03.04.2021
5528 Clear 8 1026 61 10000 3.86 354 22:37 03.04.2021
5529 Clear 8 1025 61 10000 3.8 337 22:18 03.04.2021
5530 Clear 9 1025 56 10000 1.03 0 21:39 03.04.2021
5531 Clear 9 1025 57 10000 0.51 0 21:21 03.04.2021
5532 Clear 10 1025 49 10000 1.03 360 20:40 03.04.2021
5533 Clear 11 1025 40 10000 1.54 340 20:20 03.04.2021
5534 Clear 11 1025 40 10000 2.57 20 19:43 03.04.2021
5535 Clear 12 1025 37 10000 3.6 20 19:19 03.04.2021
5536 Clear 12 1025 37 10000 5.14 40 18:45 03.04.2021
5537 Clear 12 1025 37 10000 3.6 10 18:18 03.04.2021
5538 Clear 13 1025 37 10000 5.66 20 17:41 03.04.2021
5539 Clear 13 1025 37 10000 5.14 360 17:21 03.04.2021
5540 Clear 12 1026 35 10000 5.66 360 16:43 03.04.2021
5541 Clear 12 1026 40 10000 6.17 40 16:21 03.04.2021
5542 Clear 12 1026 43 10000 5.66 20 15:46 03.04.2021
5543 Clouds 12 1026 43 10000 4.12 330 15:21 03.04.2021
5544 Clear 12 1026 43 10000 5.14 350 14:43 03.04.2021
5545 Clear 12 1026 40 10000 3.6 0 14:22 03.04.2021
5546 Clouds 11 1026 50 10000 3.09 0 13:49 03.04.2021
5547 Clouds 11 1027 50 10000 3.6 350 13:24 03.04.2021
5548 Clouds 9 1027 53 10000 3.09 0 12:52 03.04.2021
5549 Clouds 8 1027 53 10000 3.09 360 12:31 03.04.2021
5550 Clouds 7 1027 57 10000 3.09 340 11:39 03.04.2021
5551 Clouds 8 1027 65 10000 3.6 330 10:58 03.04.2021
5552 Clouds 7 1027 65 10000 3.6 330 10:40 03.04.2021
5553 Clouds 7 1026 70 10000 4.63 330 10:18 03.04.2021
5554 Clouds 7 1026 65 10000 2.57 350 09:28 03.04.2021
5555 Clouds 6 1026 70 10000 2.06 320 08:58 03.04.2021
5556 Clouds 6 1026 56 10000 3.6 10 08:30 03.04.2021
5557 Clouds 5 1025 75 10000 2.57 340 07:29 03.04.2021
5558 Clouds 5 1024 75 10000 3.09 330 06:50 03.04.2021
5559 Clouds 6 1024 75 10000 5.66 330 03:53 03.04.2021
5560 Clouds 6 1024 75 10000 4.63 320 02:52 03.04.2021
5561 Clouds 7 1024 70 10000 4.12 330 02:26 03.04.2021
5562 Clouds 7 1025 65 10000 5.14 340 00:29 03.04.2021
5563 Clouds 7 1024 65 10000 4.12 330 23:53 02.04.2021
5564 Clouds 7 1024 61 10000 3.6 330 23:27 02.04.2021
5565 Clouds 7 1025 57 10000 4.63 330 22:56 02.04.2021
5566 Clouds 7 1024 57 10000 4.63 340 22:37 02.04.2021
5567 Clouds 7 1025 61 10000 5.14 330 21:54 02.04.2021
5568 Clouds 7 1025 61 10000 5.14 330 21:36 02.04.2021
5569 Clouds 7 1024 61 10000 5.14 340 21:18 02.04.2021
5570 Clouds 7 1024 61 10000 4.63 330 20:38 02.04.2021
5571 Clouds 8 1024 61 10000 5.14 330 20:18 02.04.2021
5572 Clouds 8 1024 61 10000 5.14 330 19:40 02.04.2021
5573 Clouds 8 1024 61 10000 5.66 330 19:22 02.04.2021
5574 Clouds 9 1024 61 10000 6.17 320 18:43 02.04.2021
5575 Clouds 10 1024 53 10000 6.17 320 18:23 02.04.2021
5576 Clouds 11 1024 53 10000 5.14 320 17:54 02.04.2021
5577 Clouds 10 1024 61 10000 4.12 340 17:22 02.04.2021
5578 Clouds 8 1024 65 10000 7.72 330 16:24 02.04.2021
5579 Clouds 9 1024 61 10000 6.17 340 15:43 02.04.2021
5580 Clouds 9 1024 61 10000 6.17 330 15:19 02.04.2021
5581 Clouds 10 1024 57 10000 5.14 330 14:33 02.04.2021
5582 Clouds 11 1024 57 10000 4.63 10 13:50 02.04.2021
5583 Clouds 11 1024 61 10000 4.63 360 13:27 02.04.2021
5584 Clouds 10 1024 61 10000 5.14 360 12:53 02.04.2021
5585 Clouds 10 1025 57 10000 4.63 30 12:21 02.04.2021
5586 Clouds 9 1025 61 10000 5.14 20 11:58 02.04.2021
5587 Clouds 9 1025 61 10000 5.14 20 11:38 02.04.2021
5588 Clouds 8 1024 65 10000 3.09 20 11:18 02.04.2021
5589 Clouds 8 1024 65 10000 3.09 10 10:42 02.04.2021
5590 Clouds 7 1024 75 10000 2.57 330 10:20 02.04.2021
5591 Clouds 7 1024 75 10000 3.09 340 09:39 02.04.2021
5592 Clouds 7 1024 75 10000 3.09 340 09:20 02.04.2021
5593 Clouds 6 1024 75 10000 2.06 330 08:44 02.04.2021
5594 Clouds 6 1024 75 10000 2.06 340 08:22 02.04.2021
5595 Clouds 6 1023 81 10000 3.09 340 07:20 02.04.2021
5596 Clouds 6 1023 81 10000 1.54 350 06:31 02.04.2021
5597 Clouds 7 1024 81 10000 2.06 340 03:24 02.04.2021
5598 Clear 8 1024 70 10000 3.09 10 01:31 02.04.2021
5599 Clear 9 1023 61 10000 3.09 10 00:38 02.04.2021
5600 Clear 10 1023 53 10000 2.06 360 23:44 01.04.2021
5601 Clear 10 1023 53 10000 4.63 10 23:26 01.04.2021
5602 Clear 12 1022 54 10000 4.12 10 22:22 01.04.2021
5603 Clear 12 1022 58 10000 2.57 360 21:59 01.04.2021
5604 Clear 13 1022 58 10000 2.57 360 21:40 01.04.2021
5605 Clear 13 1021 58 10000 4.63 10 21:20 01.04.2021
5606 Clear 14 1021 58 10000 4.63 350 20:40 01.04.2021
5607 Clear 15 1020 55 10000 5.66 340 20:21 01.04.2021
5608 Clear 16 1020 51 10000 6.17 340 19:41 01.04.2021
5609 Clear 17 1020 48 10000 6.17 330 19:18 01.04.2021
5610 Clear 18 1019 45 10000 6.69 350 18:43 01.04.2021
5611 Clear 19 1019 42 10000 6.17 340 18:18 01.04.2021
5612 Clear 20 1019 45 10000 7.72 310 17:39 01.04.2021
5613 Clear 20 1019 45 10000 7.72 310 17:21 01.04.2021
5614 Clear 20 1019 40 10000 8.23 300 16:48 01.04.2021
5615 Clear 21 1019 40 10000 6.69 300 16:18 01.04.2021
5616 Clear 21 1019 37 10000 7.2 310 15:40 01.04.2021
5617 Clear 22 1019 37 10000 6.17 320 15:19 01.04.2021
5618 Clear 21 1019 37 10000 4.63 330 14:39 01.04.2021
5619 Clear 21 1019 37 10000 4.12 310 14:20 01.04.2021
5620 Clear 21 1019 37 10000 5.66 310 13:49 01.04.2021
5621 Clear 20 1020 40 10000 4.12 300 13:29 01.04.2021
5622 Clear 19 1020 40 10000 3.6 280 12:47 01.04.2021
5623 Clear 19 1020 42 10000 2.57 280 12:29 01.04.2021
5624 Clear 18 1020 45 10000 2.06 270 11:45 01.04.2021
5625 Clear 16 1020 51 10000 1.54 280 11:24 01.04.2021
5626 Clear 16 1020 55 10000 1.03 0 10:53 01.04.2021
5627 Clear 15 1020 58 10000 1.54 160 10:33 01.04.2021
5628 Clear 16 1020 71 10000 0.51 0 09:53 01.04.2021
5629 Clear 13 1020 81 10000 1.54 50 09:24 01.04.2021
5630 Clear 10 1020 81 10000 1.03 0 08:33 01.04.2021
5631 Clear 10 1020 81 10000 2.57 60 07:52 01.04.2021
5632 Clear 10 1019 81 10000 1.54 50 07:18 01.04.2021
5633 Clear 10 1019 87 10000 2.06 50 06:42 01.04.2021
5634 Clear 12 1019 76 10000 1.54 50 03:30 01.04.2021
5635 Clear 13 1020 58 10000 2.06 60 00:49 01.04.2021
5636 Clear 15 1019 47 10000 1.54 60 23:44 31.03.2021
5637 Clear 15 1019 47 10000 1.54 140 23:18 31.03.2021
5638 Clear 16 1019 44 10000 0.51 0 22:41 31.03.2021
5639 Clear 17 1019 42 10000 1.03 0 22:20 31.03.2021
5640 Clear 18 1019 39 10000 1.03 50 21:45 31.03.2021
5641 Clear 19 1019 34 10000 1.03 30 21:23 31.03.2021
5642 Clear 19 1019 34 10000 1.54 330 20:56 31.03.2021
5643 Clear 19 1019 34 10000 1.54 330 20:38 31.03.2021
5644 Clear 21 1019 32 10000 3.09 340 20:18 31.03.2021
5645 Clear 24 1018 25 10000 4.12 310 19:38 31.03.2021
5646 Clear 24 1018 25 10000 4.12 310 19:18 31.03.2021
5647 Clear 24 1019 22 10000 3.09 280 18:49 31.03.2021
5648 Clear 25 1019 21 10000 3.09 320 17:58 31.03.2021
5649 Clear 25 1019 21 10000 1.54 0 17:36 31.03.2021
5650 Clear 25 1019 21 10000 1.54 0 17:18 31.03.2021
5651 Clear 25 1019 22 10000 2.57 0 16:42 31.03.2021
5652 Clear 25 1020 21 10000 2.57 230 16:22 31.03.2021
5653 Clear 25 1020 21 10000 1.54 140 15:50 31.03.2021
5654 Clear 26 1021 22 10000 1.54 0 15:19 31.03.2021
5655 Clear 25 1021 20 10000 2.06 0 14:45 31.03.2021
5656 Clear 24 1021 23 10000 1.03 0 14:24 31.03.2021
5657 Clear 23 1022 22 10000 2.06 160 13:42 31.03.2021
5658 Clear 22 1022 27 10000 2.06 160 13:19 31.03.2021
5659 Clear 21 1022 28 10000 2.06 170 12:37 31.03.2021
5660 Clear 21 1023 28 10000 2.57 150 12:18 31.03.2021
5661 Clear 17 1023 34 10000 3.6 150 11:22 31.03.2021
5662 Clear 18 1023 36 10000 3.6 130 10:48 31.03.2021
5663 Clear 17 1023 38 10000 3.09 140 10:27 31.03.2021
5664 Clear 14 1024 44 10000 2.06 130 09:45 31.03.2021
5665 Clear 12 1024 62 10000 1.03 0 09:26 31.03.2021
5666 Clear 11 1024 61 10000 0.51 0 08:41 31.03.2021
5667 Clear 9 1024 70 10000 0.51 0 08:21 31.03.2021
5668 Clear 8 1024 70 10000 0.51 0 07:19 31.03.2021
5669 Clear 10 1025 57 10000 0.51 0 04:34 31.03.2021
5670 Clear 12 1026 43 10000 1.54 80 02:37 31.03.2021
5671 Clear 12 1026 41 10000 2.06 70 00:54 31.03.2021
5672 Clear 13 1027 41 10000 0.51 0 00:22 31.03.2021
5673 Clear 13 1027 33 10000 2.06 110 23:54 30.03.2021
5674 Clear 15 1027 31 10000 2.57 110 23:24 30.03.2021
5675 Clear 15 1027 31 10000 3.09 110 22:49 30.03.2021
5676 Clear 15 1027 31 10000 2.57 110 22:30 30.03.2021
5677 Clear 16 1027 27 10000 2.57 100 21:56 30.03.2021
5678 Clear 17 1027 31 10000 1.54 80 21:29 30.03.2021
5679 Clear 18 1027 24 10000 1.03 90 20:59 30.03.2021
5680 Clear 18 1027 24 10000 1.03 90 20:38 30.03.2021
5681 Clear 20 1027 19 10000 1.54 120 20:18 30.03.2021
5682 Clear 22 1027 17 10000 1.54 120 19:41 30.03.2021
5683 Clear 23 1027 15 10000 3.09 120 18:57 30.03.2021
5684 Clear 24 1028 16 10000 3.09 140 18:27 30.03.2021
5685 Clear 24 1028 16 10000 3.6 140 17:47 30.03.2021
5686 Clear 24 1028 16 10000 2.57 130 17:29 30.03.2021
5687 Clear 25 1029 15 10000 1.54 0 16:47 30.03.2021
5688 Clear 24 1029 15 10000 2.06 110 16:28 30.03.2021
5689 Clear 23 1030 20 10000 2.06 0 15:39 30.03.2021
5690 Clear 23 1030 20 10000 2.06 0 15:19 30.03.2021
5691 Clear 23 1030 18 10000 2.06 0 14:45 30.03.2021
5692 Clear 22 1031 20 10000 2.57 140 14:21 30.03.2021
5693 Clear 22 1031 20 10000 3.6 140 13:49 30.03.2021
5694 Clear 19 1031 24 10000 4.12 150 13:29 30.03.2021
5695 Clear 19 1032 28 10000 3.09 150 12:42 30.03.2021
5696 Clear 19 1032 28 10000 3.09 150 12:42 30.03.2021
5697 Clear 19 1032 30 10000 2.57 150 12:22 30.03.2021
5698 Clear 18 1032 36 10000 2.06 160 11:48 30.03.2021
5699 Clear 14 1032 41 10000 2.06 160 11:20 30.03.2021
5700 Clear 15 1032 47 10000 2.57 130 10:43 30.03.2021
5701 Clear 13 1032 50 10000 1.03 0 10:19 30.03.2021
5702 Clear 13 1032 62 10000 1.03 0 09:43 30.03.2021
5703 Clear 13 1032 62 10000 1.03 0 09:43 30.03.2021
5704 Clear 10 1032 76 10000 0.51 0 09:24 30.03.2021
5705 Clear 7 1032 75 10000 0.51 0 08:51 30.03.2021
5706 Clear 6 1032 86 10000 1.03 0 08:32 30.03.2021
5707 Clear 5 1031 81 10000 2.06 60 07:50 30.03.2021
5708 Clear 5 1031 80 10000 3.09 140 07:21 30.03.2021
5709 Clear 7 1031 75 10000 0.51 0 05:25 30.03.2021
5710 Clear 7 1031 75 10000 0.51 0 03:23 30.03.2021
5711 Clear 10 1031 57 10000 1.03 0 00:26 30.03.2021
5712 Clear 11 1031 46 10000 0.51 0 23:29 29.03.2021
5713 Clear 12 1031 40 10000 0.51 0 22:43 29.03.2021
5714 Clear 13 1030 38 10000 1.03 50 22:18 29.03.2021
5715 Clear 14 1030 33 10000 1.03 70 21:43 29.03.2021
5716 Clear 15 1030 29 10000 0.51 0 21:22 29.03.2021
5717 Clear 16 1030 31 10000 0.51 0 20:44 29.03.2021
5718 Clear 17 1029 27 10000 3.09 280 20:26 29.03.2021
5719 Clear 19 1029 26 10000 3.09 280 19:46 29.03.2021
5720 Clear 21 1029 23 10000 3.6 290 19:20 29.03.2021
5721 Clear 21 1029 21 10000 4.12 290 18:40 29.03.2021
5722 Clear 21 1029 18 10000 5.14 280 18:21 29.03.2021
5723 Clear 21 1029 17 10000 5.66 290 17:45 29.03.2021
5724 Clear 21 1029 17 10000 5.66 260 16:59 29.03.2021
5725 Clear 21 1029 18 10000 5.66 260 16:37 29.03.2021
5726 Clear 22 1029 18 10000 5.66 260 16:18 29.03.2021
5727 Clear 21 1030 16 10000 8.23 260 15:35 29.03.2021
5728 Clear 21 1030 17 10000 7.2 260 14:57 29.03.2021
5729 Clear 21 1030 23 10000 4.63 250 14:36 29.03.2021
5730 Clear 20 1030 26 10000 4.63 250 13:53 29.03.2021
5731 Clear 19 1030 27 10000 5.14 260 13:29 29.03.2021
5732 Clear 19 1030 34 10000 4.12 240 12:51 29.03.2021
5733 Clear 19 1030 34 10000 4.12 240 12:51 29.03.2021
5734 Clear 18 1030 39 10000 5.66 230 12:30 29.03.2021
5735 Clear 17 1030 44 10000 4.12 220 11:41 29.03.2021
5736 Clear 15 1030 47 10000 3.09 190 11:22 29.03.2021
5737 Clear 13 1030 50 10000 3.6 180 10:40 29.03.2021
5738 Clear 12 1030 58 10000 4.12 160 09:56 29.03.2021
5739 Clear 9 1029 57 10000 3.6 140 09:23 29.03.2021
5740 Clear 8 1029 66 10000 3.6 140 08:30 29.03.2021
5741 Clear 8 1029 61 10000 3.6 140 07:51 29.03.2021
5742 Clear 8 1029 61 10000 3.09 130 06:42 29.03.2021
5743 Clear 8 1029 61 10000 3.6 140 05:18 29.03.2021
5744 Clear 9 1029 61 10000 4.12 150 02:22 29.03.2021
5745 Clear 10 1028 61 10000 3.09 170 00:26 29.03.2021
5746 Clear 11 1028 54 10000 3.6 190 23:55 28.03.2021
5747 Clear 12 1028 54 10000 4.12 190 23:24 28.03.2021
5748 Clear 12 1028 54 10000 3.6 190 22:42 28.03.2021
5749 Clear 11 1028 54 10000 3.09 200 22:24 28.03.2021
5750 Clear 12 1028 54 10000 3.09 200 22:24 28.03.2021
5751 Clear 12 1027 50 10000 3.6 200 21:46 28.03.2021
5752 Clear 13 1027 50 10000 2.57 220 21:24 28.03.2021
5753 Clear 13 1027 50 10000 2.57 230 20:51 28.03.2021
5754 Clear 14 1027 44 10000 1.54 230 20:33 28.03.2021
5755 Clear 14 1027 47 10000 3.09 260 19:56 28.03.2021
5756 Clear 14 1027 47 10000 3.09 260 19:38 28.03.2021
5757 Clear 15 1026 41 10000 6.17 250 19:20 28.03.2021
5758 Clear 15 1026 38 10000 5.66 240 18:41 28.03.2021
5759 Clear 16 1026 36 10000 6.69 240 18:18 28.03.2021
5760 Clear 16 1026 36 10000 5.14 220 17:37 28.03.2021
5761 Clear 16 1026 36 10000 7.72 230 16:57 28.03.2021
5762 Clear 16 1026 39 10000 7.2 250 16:29 28.03.2021
5763 Clear 16 1027 38 10000 8.23 220 15:58 28.03.2021
5764 Clear 15 1027 39 10000 8.75 240 15:24 28.03.2021
5765 Clear 15 1027 41 10000 7.72 230 14:49 28.03.2021
5766 Clear 14 1027 44 10000 7.72 220 14:25 28.03.2021
5767 Clouds 15 1027 44 10000 7.2 230 13:36 28.03.2021
5768 Clouds 13 1028 50 10000 7.2 220 12:58 28.03.2021
5769 Clouds 13 1028 50 10000 6.17 210 12:35 28.03.2021
5770 Clear 13 1028 58 10000 5.14 190 11:59 28.03.2021
5771 Clear 12 1028 58 10000 5.14 190 11:38 28.03.2021
5772 Clear 10 1028 66 10000 4.63 200 10:55 28.03.2021
5773 Clear 10 1028 66 10000 4.63 200 10:32 28.03.2021
5774 Clear 8 1028 76 10000 4.12 160 09:56 28.03.2021
5775 Clear 8 1028 70 10000 3.09 160 09:28 28.03.2021
5776 Clouds 7 1028 75 10000 3.6 150 08:56 28.03.2021
5777 Clouds 7 1028 75 10000 3.6 150 08:35 28.03.2021
5778 Clouds 6 1028 70 10000 3.09 160 07:43 28.03.2021
5779 Clear 6 1027 81 10000 3.6 160 06:22 28.03.2021
5780 Clear 6 1028 70 10000 3.09 190 03:51 28.03.2021
5781 Clouds 5 1028 75 10000 3.09 200 00:48 28.03.2021
5782 Clouds 6 1028 81 10000 3.09 190 00:18 28.03.2021
5783 Clear 6 1028 75 10000 2.57 180 23:37 27.03.2021
5784 Clear 6 1028 75 10000 1.54 170 22:50 27.03.2021
5785 Clear 6 1027 75 10000 2.57 200 22:31 27.03.2021
5786 Clear 6 1027 75 10000 3.09 200 21:46 27.03.2021
5787 Clear 7 1027 70 10000 2.57 200 21:21 27.03.2021
5788 Clear 7 1027 70 10000 3.6 260 20:59 27.03.2021
5789 Clear 7 1027 70 10000 3.6 260 20:37 27.03.2021
5790 Clear 8 1026 65 10000 3.6 240 20:19 27.03.2021
5791 Clouds 8 1026 61 10000 4.12 250 19:41 27.03.2021
5792 Clouds 8 1025 42 10000 5.66 280 19:22 27.03.2021
5793 Clear 9 1025 37 10000 6.69 280 18:47 27.03.2021
5794 Clear 10 1025 34 10000 7.72 270 18:22 27.03.2021
5795 Clear 11 1024 34 10000 9.77 270 17:40 27.03.2021
5796 Clear 11 1024 34 10000 9.77 270 17:20 27.03.2021
5797 Clear 11 1024 34 10000 11.32 260 16:48 27.03.2021
5798 Clear 11 1024 37 10000 10.8 270 16:27 27.03.2021
5799 Clouds 11 1023 53 10000 8.75 250 15:46 27.03.2021
5800 Clouds 11 1023 53 10000 8.23 240 15:21 27.03.2021
5801 Clouds 10 1023 57 10000 10.8 260 14:45 27.03.2021
5802 Clouds 10 1022 61 10000 10.8 250 13:42 27.03.2021
5803 Clouds 9 1022 61 10000 10.8 240 13:22 27.03.2021
5804 Clouds 9 1022 57 10000 13.38 250 12:51 27.03.2021
5805 Clouds 8 1021 61 10000 9.77 250 11:59 27.03.2021
5806 Clouds 8 1021 61 10000 9.77 250 11:41 27.03.2021
5807 Clouds 8 1021 61 10000 10.29 250 11:19 27.03.2021
5808 Clouds 8 1021 66 10000 9.26 260 10:43 27.03.2021
5809 Clouds 8 1020 75 10000 6.69 240 10:22 27.03.2021
5810 Clouds 5 1019 87 10000 6.17 220 09:28 27.03.2021
5811 Clouds 4 1019 93 10000 11.83 250 08:43 27.03.2021
5812 Rain 6 1018 70 10000 6.17 230 08:20 27.03.2021
5813 Clouds 6 1018 75 10000 4.12 200 07:34 27.03.2021
5814 Clouds 6 1017 75 10000 5.14 220 06:43 27.03.2021
5815 Clouds 6 1016 81 10000 7.2 250 04:57 27.03.2021
5816 Clouds 6 1016 81 10000 7.2 250 04:39 27.03.2021
5817 Rain 11 1011 58 10000 5.14 170 00:50 27.03.2021
5818 Clear 11 1012 58 10000 6.17 170 00:29 27.03.2021
5819 Clear 11 1012 54 10000 5.14 180 23:54 26.03.2021
5820 Clear 11 1012 54 10000 5.14 180 23:54 26.03.2021
5821 Clear 12 1013 54 10000 4.63 180 23:19 26.03.2021
5822 Clear 12 1013 58 10000 4.12 180 22:35 26.03.2021
5823 Clear 12 1014 50 10000 3.6 170 21:37 26.03.2021
5824 Clear 12 1014 54 10000 3.6 190 21:18 26.03.2021
5825 Clear 13 1014 50 10000 3.09 210 20:39 26.03.2021
5826 Clear 13 1014 50 10000 3.09 210 20:20 26.03.2021
5827 Clear 13 1014 47 10000 3.6 220 19:48 26.03.2021
5828 Clear 14 1014 44 10000 4.63 210 19:29 26.03.2021
5829 Clear 15 1014 44 10000 6.17 210 18:44 26.03.2021
5830 Clear 15 1014 41 10000 7.72 210 18:26 26.03.2021
5831 Clear 15 1014 41 10000 7.72 210 18:26 26.03.2021
5832 Clear 16 1014 41 10000 6.17 200 17:47 26.03.2021
5833 Clear 16 1015 44 10000 6.69 210 16:58 26.03.2021
5834 Clear 17 1015 41 10000 6.69 210 16:33 26.03.2021
5835 Clear 17 1015 41 10000 6.17 200 15:57 26.03.2021
5836 Clear 17 1015 41 10000 6.17 200 15:24 26.03.2021
5837 Clear 18 1016 41 10000 7.72 220 14:34 26.03.2021
5838 Clear 16 1017 47 10000 6.17 210 13:42 26.03.2021
5839 Clouds 16 1017 47 10000 7.2 210 13:21 26.03.2021
5840 Clouds 16 1018 47 10000 5.66 230 12:34 26.03.2021
5841 Clouds 16 1018 54 10000 5.14 210 11:47 26.03.2021
5842 Clouds 14 1019 62 10000 3.6 180 11:27 26.03.2021
5843 Clouds 13 1019 62 10000 4.63 190 10:42 26.03.2021
5844 Clouds 11 1019 66 10000 4.63 180 10:19 26.03.2021
5845 Clouds 12 1019 71 10000 5.14 180 09:41 26.03.2021
5846 Clouds 9 1019 81 10000 2.57 150 08:48 26.03.2021
5847 Clear 8 1019 81 10000 1.54 70 08:26 26.03.2021
5848 Clear 7 1019 87 10000 1.54 140 07:43 26.03.2021
5849 Clear 6 1019 93 10000 0.51 0 07:21 26.03.2021
5850 Clear 6 1019 87 10000 1.03 0 06:55 26.03.2021
5851 Clear 6 1019 87 10000 1.54 130 05:32 26.03.2021
5852 Clear 7 1020 87 10000 1.54 110 03:29 26.03.2021
5853 Clouds 8 1021 87 10000 1.54 200 00:52 26.03.2021
5854 Clouds 9 1021 87 10000 2.06 150 23:51 25.03.2021
5855 Clouds 10 1021 81 10000 0.51 0 23:33 25.03.2021
5856 Clouds 11 1021 76 10000 1.54 160 22:41 25.03.2021
5857 Clouds 11 1021 76 10000 1.54 160 22:19 25.03.2021
5858 Clouds 11 1021 76 10000 1.54 200 21:47 25.03.2021
5859 Clouds 11 1021 71 10000 2.57 290 21:29 25.03.2021
5860 Clouds 11 1021 71 10000 3.09 310 20:41 25.03.2021
5861 Clouds 11 1021 71 10000 2.57 300 20:23 25.03.2021
5862 Clouds 12 1020 66 10000 2.57 330 19:40 25.03.2021
5863 Clouds 12 1020 66 10000 2.57 330 19:22 25.03.2021
5864 Clouds 12 1020 66 10000 3.09 310 18:46 25.03.2021
5865 Clouds 13 1020 58 10000 3.6 290 18:26 25.03.2021
5866 Clouds 13 1020 62 10000 4.63 300 17:42 25.03.2021
5867 Clouds 14 1020 58 10000 3.6 310 17:23 25.03.2021
5868 Clouds 13 1020 54 10000 4.12 290 16:39 25.03.2021
5869 Clouds 15 1020 54 10000 4.63 320 16:20 25.03.2021
5870 Clouds 14 1019 58 10000 3.6 310 15:42 25.03.2021
5871 Clouds 15 1019 54 10000 2.57 310 15:19 25.03.2021
5872 Clouds 15 1020 48 10000 3.09 290 14:42 25.03.2021
5873 Clouds 13 1020 58 10000 2.57 270 13:41 25.03.2021
5874 Clouds 13 1020 58 10000 2.57 270 13:23 25.03.2021
5875 Clear 12 1020 62 10000 1.54 280 12:41 25.03.2021
5876 Clouds 12 1020 62 9000 1.54 0 12:20 25.03.2021
5877 Clouds 12 1021 66 9000 1.54 230 11:48 25.03.2021
5878 Clouds 10 1021 66 9000 1.03 0 11:26 25.03.2021
5879 Clouds 11 1021 66 9000 1.03 0 10:54 25.03.2021
5880 Clouds 11 1021 71 9000 1.03 0 10:25 25.03.2021
5881 Clear 10 1021 76 10000 1.03 0 09:56 25.03.2021
5882 Clear 10 1021 76 10000 1.03 0 09:38 25.03.2021
5883 Clear 8 1020 87 10000 0.51 0 08:57 25.03.2021
5884 Clear 7 1020 81 10000 1.54 150 08:28 25.03.2021
5885 Clear 6 1019 93 10000 0.51 0 07:23 25.03.2021
5886 Clear 5 1019 87 10000 0.51 20 06:26 25.03.2021
5887 Clear 4 1019 93 10000 1.03 0 05:49 25.03.2021
5888 Clear 5 1019 93 10000 0.51 0 03:59 25.03.2021
5889 Clear 7 1020 81 10000 1.03 0 00:35 25.03.2021
5890 Clear 7 1020 81 10000 1.03 0 00:35 25.03.2021
5891 Clear 7 1020 76 10000 2.57 60 23:55 24.03.2021
5892 Clear 9 1020 76 10000 1.54 60 23:33 24.03.2021
5893 Clear 9 1021 71 10000 1.03 0 22:51 24.03.2021
5894 Clear 9 1021 76 10000 1.54 140 22:32 24.03.2021
5895 Clear 10 1021 66 10000 2.57 60 21:47 24.03.2021
5896 Clear 10 1021 66 10000 2.57 60 21:47 24.03.2021
5897 Clear 10 1021 58 10000 0.51 0 21:25 24.03.2021
5898 Clear 11 1020 58 10000 0.51 0 20:46 24.03.2021
5899 Clear 11 1020 58 10000 0.51 0 20:46 24.03.2021
5900 Clear 12 1020 54 10000 1.54 340 20:21 24.03.2021
5901 Clear 12 1020 54 10000 2.06 350 19:59 24.03.2021
5902 Clear 13 1020 50 10000 2.06 340 19:31 24.03.2021
5903 Clear 14 1020 51 10000 3.09 330 18:52 24.03.2021
5904 Clear 16 1020 41 10000 3.09 320 18:24 24.03.2021
5905 Clear 16 1020 41 10000 2.06 290 17:53 24.03.2021
5906 Clear 16 1020 41 10000 2.06 290 17:32 24.03.2021
5907 Clear 16 1020 41 10000 2.06 290 17:32 24.03.2021
5908 Clear 17 1020 34 10000 1.54 140 16:54 24.03.2021
5909 Clear 18 1021 36 10000 1.54 0 16:32 24.03.2021
5910 Clear 17 1021 36 10000 1.54 0 15:58 24.03.2021
5911 Clear 17 1021 36 10000 2.06 0 15:33 24.03.2021
5912 Clear 17 1022 41 10000 1.54 0 14:59 24.03.2021
5913 Clear 17 1022 41 10000 3.09 150 14:29 24.03.2021
5914 Clear 16 1022 44 10000 3.09 160 13:58 24.03.2021
5915 Clear 16 1023 41 10000 2.06 190 13:28 24.03.2021
5916 Clear 15 1023 47 10000 1.54 0 12:50 24.03.2021
5917 Clear 14 1023 47 10000 1.54 160 12:29 24.03.2021
5918 Clear 13 1024 50 10000 2.06 150 11:54 24.03.2021
5919 Clear 12 1024 50 10000 2.06 150 11:36 24.03.2021
5920 Clear 12 1024 57 10000 1.54 170 10:49 24.03.2021
5921 Clear 10 1024 61 10000 3.09 150 10:28 24.03.2021
5922 Clear 9 1024 70 10000 2.57 150 09:54 24.03.2021
5923 Clear 8 1024 70 10000 3.09 140 09:29 24.03.2021
5924 Clear 6 1024 75 10000 2.06 120 08:57 24.03.2021
5925 Clear 5 1024 81 10000 1.03 0 08:38 24.03.2021
5926 Clear 3 1024 86 10000 0.51 0 07:48 24.03.2021
5927 Clear 2 1024 93 10000 1.54 60 07:19 24.03.2021
5928 Clear 3 1024 87 10000 1.03 0 06:43 24.03.2021
5929 Clear 3 1024 87 10000 0.51 0 02:18 24.03.2021
5930 Clear 5 1024 81 10000 1.54 60 00:40 24.03.2021
5931 Clear 5 1025 75 10000 1.03 0 23:52 23.03.2021
5932 Clear 6 1025 75 10000 1.03 0 23:19 23.03.2021
5933 Clear 6 1025 75 10000 1.03 0 22:50 23.03.2021
5934 Clear 6 1025 75 10000 1.03 0 22:24 23.03.2021
5935 Clear 6 1025 75 10000 1.03 0 21:45 23.03.2021
5936 Clear 6 1025 75 10000 3.09 130 21:26 23.03.2021
5937 Rain 7 1025 70 10000 0.51 0 20:46 23.03.2021
5938 Clouds 8 1025 70 10000 1.03 0 20:25 23.03.2021
5939 Clouds 8 1024 70 10000 1.03 0 19:48 23.03.2021
5940 Clouds 9 1024 66 10000 1.03 80 19:26 23.03.2021
5941 Clouds 10 1024 58 10000 0.51 0 18:46 23.03.2021
5942 Clouds 11 1024 54 10000 1.54 30 18:22 23.03.2021
5943 Clouds 11 1024 58 10000 1.54 320 17:48 23.03.2021
5944 Clouds 12 1024 58 10000 1.54 320 17:23 23.03.2021
5945 Clouds 12 1024 54 10000 2.06 330 16:57 23.03.2021
5946 Clouds 12 1025 54 10000 2.57 320 16:25 23.03.2021
5947 Clouds 12 1025 50 10000 1.54 310 15:47 23.03.2021
5948 Clouds 11 1025 54 10000 2.57 280 15:18 23.03.2021
5949 Clouds 11 1025 54 10000 3.6 310 14:40 23.03.2021
5950 Clouds 11 1025 54 10000 3.09 260 14:18 23.03.2021
5951 Clouds 12 1025 57 10000 3.09 270 13:43 23.03.2021
5952 Clouds 11 1026 57 10000 3.09 240 13:21 23.03.2021
5953 Clouds 11 1026 62 10000 3.6 230 12:43 23.03.2021
5954 Clouds 10 1026 57 10000 3.09 250 12:23 23.03.2021
5955 Clouds 10 1026 61 10000 3.09 230 11:47 23.03.2021
5956 Clouds 9 1027 61 10000 2.06 220 10:59 23.03.2021
5957 Clouds 9 1027 61 10000 2.06 220 10:41 23.03.2021
5958 Clouds 8 1027 65 10000 2.06 190 10:20 23.03.2021
5959 Clouds 8 1026 65 10000 1.54 200 09:47 23.03.2021
5960 Clouds 7 1026 75 10000 1.54 210 09:22 23.03.2021
5961 Clouds 7 1026 75 10000 1.54 180 08:54 23.03.2021
5962 Clouds 7 1026 75 10000 1.54 180 08:36 23.03.2021
5963 Clouds 6 1026 75 10000 1.54 0 08:18 23.03.2021
5964 Clouds 5 1026 75 10000 1.54 160 07:26 23.03.2021
5965 Clouds 5 1026 81 10000 1.54 170 06:52 23.03.2021
5966 Clouds 4 1026 81 10000 0.51 0 03:24 23.03.2021
5967 Clouds 5 1026 75 10000 0.51 0 02:22 23.03.2021
5968 Clouds 6 1026 81 10000 0.51 0 23:46 22.03.2021
5969 Clouds 6 1026 75 10000 0.51 180 22:59 22.03.2021
5970 Clouds 6 1026 75 10000 0.51 180 22:40 22.03.2021
5971 Clouds 7 1026 70 10000 0.51 200 22:20 22.03.2021
5972 Clouds 7 1026 75 10000 0.51 320 21:46 22.03.2021
5973 Clouds 7 1026 75 10000 2.06 310 21:25 22.03.2021
5974 Clouds 7 1026 75 10000 1.54 310 20:42 22.03.2021
5975 Clouds 7 1025 70 10000 2.06 310 20:24 22.03.2021
5976 Clouds 7 1025 70 10000 2.06 320 19:58 22.03.2021
5977 Clouds 7 1025 75 10000 2.57 320 19:38 22.03.2021
5978 Clouds 7 1025 75 10000 2.57 320 19:19 22.03.2021
5979 Clouds 8 1025 70 10000 2.57 310 18:40 22.03.2021
5980 Clouds 8 1025 65 10000 3.09 330 18:22 22.03.2021
5981 Clouds 8 1024 70 10000 3.6 320 17:49 22.03.2021
5982 Clouds 8 1024 70 10000 5.14 310 17:22 22.03.2021
5983 Clouds 8 1024 65 10000 4.63 320 16:49 22.03.2021
5984 Clouds 8 1024 65 10000 4.63 320 16:49 22.03.2021
5985 Clouds 8 1024 65 10000 4.12 320 16:22 22.03.2021
5986 Clouds 8 1024 65 10000 5.14 320 15:42 22.03.2021
5987 Clouds 8 1024 65 10000 5.14 320 15:42 22.03.2021
5988 Clouds 8 1024 70 10000 4.63 310 15:22 22.03.2021
5989 Clouds 8 1024 65 10000 4.63 310 14:57 22.03.2021
5990 Clouds 8 1024 65 10000 4.63 310 14:34 22.03.2021
5991 Clouds 8 1024 70 10000 4.12 320 13:50 22.03.2021
5992 Clouds 8 1024 70 10000 4.12 320 13:29 22.03.2021
5993 Clouds 8 1025 75 10000 2.06 360 12:58 22.03.2021
5994 Clouds 7 1025 75 10000 2.06 360 12:26 22.03.2021
5995 Clouds 7 1024 81 10000 4.12 330 11:57 22.03.2021
5996 Clouds 7 1024 81 10000 4.12 330 11:39 22.03.2021
5997 Clouds 6 1024 81 10000 4.12 330 11:19 22.03.2021
5998 Clouds 6 1024 81 10000 3.6 320 10:41 22.03.2021
5999 Clouds 7 1024 81 10000 3.6 330 10:18 22.03.2021
6000 Clouds 6 1024 81 10000 4.12 330 09:36 22.03.2021
6001 Clouds 5 1023 93 10000 4.63 310 08:59 22.03.2021
6002 Clouds 4 1023 93 10000 4.63 310 08:40 22.03.2021
6003 Clouds 4 1023 87 10000 2.57 330 08:21 22.03.2021
6004 Clouds 4 1023 87 10000 4.12 300 07:43 22.03.2021
6005 Drizzle 4 1023 87 10000 3.6 310 06:52 22.03.2021
6006 Clouds 5 1023 81 10000 4.12 320 05:24 22.03.2021
6007 Clouds 5 1023 70 10000 3.09 330 01:40 22.03.2021
6008 Clouds 5 1023 70 10000 4.12 330 00:21 22.03.2021
6009 Clouds 5 1023 70 10000 3.09 340 23:53 21.03.2021
6010 Clouds 6 1023 70 10000 4.63 340 23:19 21.03.2021
6011 Clouds 6 1023 70 10000 5.66 330 22:55 21.03.2021
6012 Clouds 6 1023 65 10000 5.14 330 21:58 21.03.2021
6013 Clouds 6 1023 65 10000 5.66 330 21:39 21.03.2021
6014 Clouds 6 1023 65 10000 5.66 330 21:21 21.03.2021
6015 Clouds 7 1022 65 10000 4.63 330 20:41 21.03.2021
6016 Clouds 7 1022 65 10000 4.12 330 20:23 21.03.2021
6017 Clouds 7 1022 65 10000 6.17 320 19:52 21.03.2021
6018 Clouds 7 1022 65 10000 5.66 330 19:21 21.03.2021
6019 Clouds 7 1021 65 10000 5.66 320 18:47 21.03.2021
6020 Clouds 8 1021 61 10000 6.69 330 18:27 21.03.2021
6021 Clouds 8 1021 61 10000 5.66 330 17:46 21.03.2021
6022 Clouds 8 1021 61 10000 7.2 330 17:20 21.03.2021
6023 Clouds 9 1021 57 10000 7.2 310 16:57 21.03.2021
6024 Clouds 9 1021 57 10000 7.2 320 16:32 21.03.2021
6025 Clouds 9 1021 57 10000 6.69 330 15:58 21.03.2021
6026 Clouds 9 1022 61 10000 6.69 320 15:39 21.03.2021
6027 Clouds 9 1022 61 10000 6.69 320 15:19 21.03.2021
6028 Clouds 9 1022 65 10000 7.2 320 14:44 21.03.2021
6029 Clouds 9 1022 65 10000 6.69 320 14:26 21.03.2021
6030 Clouds 8 1022 70 10000 5.14 340 13:54 21.03.2021
6031 Clouds 8 1022 70 10000 6.69 320 13:25 21.03.2021
6032 Clouds 8 1022 75 10000 5.66 320 12:42 21.03.2021
6033 Clouds 8 1022 76 10000 6.17 340 12:23 21.03.2021
6034 Clouds 8 1022 87 10000 3.6 340 11:37 21.03.2021
6035 Clouds 7 1022 87 10000 3.6 340 11:19 21.03.2021
6036 Clouds 7 1022 87 10000 5.14 330 10:42 21.03.2021
6037 Clouds 7 1022 87 10000 5.14 330 10:23 21.03.2021
6038 Clouds 7 1022 87 10000 4.12 320 09:46 21.03.2021
6039 Clouds 7 1022 93 10000 5.14 310 09:27 21.03.2021
6040 Drizzle 6 1022 93 4000 5.66 310 08:44 21.03.2021
6041 Rain 6 1021 93 3700 4.12 290 08:26 21.03.2021
6042 Rain 5 1022 93 3700 3.09 300 07:39 21.03.2021
6043 Rain 5 1022 93 3700 3.09 300 07:19 21.03.2021
6044 Rain 5 1022 100 9000 5.14 280 05:55 21.03.2021
6045 Drizzle 6 1024 87 10000 4.63 300 02:34 21.03.2021
6046 Clouds 6 1024 65 10000 3.09 320 00:55 21.03.2021
6047 Clouds 7 1025 61 10000 3.09 310 00:36 21.03.2021
6048 Clouds 7 1025 61 10000 3.09 310 00:18 21.03.2021
6049 Clouds 6 1025 65 10000 2.57 250 23:37 20.03.2021
6050 Clouds 6 1025 56 10000 1.54 210 22:57 20.03.2021
6051 Clouds 7 1025 56 10000 1.03 180 22:24 20.03.2021
6052 Clear 7 1025 60 10000 1.54 220 21:48 20.03.2021
6053 Clear 7 1026 60 10000 1.54 210 21:25 20.03.2021
6054 Clear 7 1026 49 10000 2.06 320 20:49 20.03.2021
6055 Clear 7 1026 49 10000 2.06 320 20:24 20.03.2021
6056 Clear 7 1026 45 10000 3.09 310 19:52 20.03.2021
6057 Clear 7 1026 42 10000 3.09 310 19:29 20.03.2021
6058 Clear 7 1026 36 10000 3.6 280 18:52 20.03.2021
6059 Clear 7 1026 29 10000 2.57 340 18:28 20.03.2021
6060 Clear 8 1026 29 10000 4.12 310 17:58 20.03.2021
6061 Clear 8 1026 29 10000 4.12 310 17:40 20.03.2021
6062 Clear 8 1026 29 10000 4.12 310 17:20 20.03.2021
6063 Clear 8 1027 26 10000 4.12 310 16:40 20.03.2021
6064 Clear 9 1027 29 10000 4.12 300 16:18 20.03.2021
6065 Clear 8 1027 31 10000 4.63 300 15:42 20.03.2021
6066 Clear 9 1027 31 10000 3.6 280 15:24 20.03.2021
6067 Clear 8 1027 33 10000 4.12 300 14:40 20.03.2021
6068 Clear 8 1028 33 10000 5.14 300 14:19 20.03.2021
6069 Clouds 7 1028 39 10000 4.12 290 13:31 20.03.2021
6070 Clouds 7 1029 42 10000 2.57 230 12:41 20.03.2021
6071 Clouds 6 1029 48 10000 2.06 0 12:23 20.03.2021
6072 Clouds 6 1029 48 10000 2.06 0 12:23 20.03.2021
6073 Clouds 6 1029 52 10000 1.54 0 11:43 20.03.2021
6074 Clouds 4 1029 60 10000 2.06 250 11:22 20.03.2021
6075 Clouds 4 1029 65 10000 2.57 260 10:47 20.03.2021
6076 Clouds 3 1030 65 10000 0.51 0 10:25 20.03.2021
6077 Clouds 2 1029 75 10000 1.03 0 09:53 20.03.2021
6078 Clear 1 1029 75 10000 1.03 0 09:26 20.03.2021
6079 Clear 1 1029 80 10000 0.51 0 08:55 20.03.2021
6080 Clear 1 1029 86 10000 0.51 0 08:28 20.03.2021
6081 Clear 1 1029 86 10000 1.54 320 07:49 20.03.2021
6082 Clear 0 1028 86 10000 1.03 360 07:30 20.03.2021
6083 Clear 0 1028 93 10000 2.06 330 06:46 20.03.2021
6084 Clear 0 1028 86 10000 3.6 60 05:30 20.03.2021
6085 Clear 1 1027 86 10000 3.6 60 03:46 20.03.2021
6086 Clear 1 1027 86 10000 3.6 60 03:46 20.03.2021
6087 Clear 1 1027 80 10000 3.6 60 02:40 20.03.2021
6088 Clear 1 1027 86 10000 0.51 0 23:56 19.03.2021
6089 Clear 2 1027 86 10000 0.51 0 23:22 19.03.2021
6090 Clear 2 1026 80 10000 1.03 50 22:45 19.03.2021
6091 Clouds 3 1026 80 10000 1.03 40 22:25 19.03.2021
6092 Clouds 3 1026 75 10000 1.54 50 21:52 19.03.2021
6093 Clouds 4 1026 70 10000 2.06 60 21:21 19.03.2021
6094 Clouds 5 1026 65 10000 1.54 30 20:46 19.03.2021
6095 Clouds 5 1025 56 10000 2.06 10 20:27 19.03.2021
6096 Clouds 5 1025 52 10000 3.09 10 19:59 19.03.2021
6097 Clouds 6 1025 52 10000 3.09 10 19:39 19.03.2021
6098 Clouds 6 1025 52 10000 3.6 10 19:19 19.03.2021
6099 Clouds 7 1025 45 10000 4.63 360 18:39 19.03.2021
6100 Clouds 7 1024 45 10000 3.6 20 18:18 19.03.2021
6101 Clouds 8 1024 42 10000 4.63 20 17:51 19.03.2021
6102 Clouds 8 1024 36 10000 6.17 40 17:27 19.03.2021
6103 Clouds 9 1024 39 10000 5.14 20 16:51 19.03.2021
6104 Clear 9 1024 39 10000 6.17 20 16:26 19.03.2021
6105 Clear 8 1024 42 10000 7.72 40 15:46 19.03.2021
6106 Clouds 8 1024 42 10000 6.69 10 15:22 19.03.2021
6107 Clouds 8 1024 39 10000 7.72 50 14:45 19.03.2021
6108 Clouds 9 1024 42 10000 6.69 50 14:26 19.03.2021
6109 Clouds 8 1024 53 10000 6.69 20 13:39 19.03.2021
6110 Clouds 7 1024 49 10000 8.23 30 12:50 19.03.2021
6111 Clouds 7 1023 49 10000 7.2 20 12:32 19.03.2021
6112 Clouds 7 1023 49 10000 7.2 30 11:40 19.03.2021
6113 Clouds 5 1023 65 10000 6.17 20 10:53 19.03.2021
6114 Clouds 4 1023 70 10000 5.14 20 10:30 19.03.2021
6115 Clouds 4 1022 70 10000 4.63 10 09:49 19.03.2021
6116 Clouds 3 1022 75 10000 2.57 360 09:30 19.03.2021
6117 Clouds 3 1021 87 10000 2.06 310 08:55 19.03.2021
6118 Clouds 3 1021 86 10000 2.06 330 08:37 19.03.2021
6119 Clouds 3 1021 86 10000 2.06 330 08:18 19.03.2021
6120 Clouds 2 1021 93 10000 2.06 20 07:37 19.03.2021
6121 Clouds 1 1020 93 10000 2.06 30 06:51 19.03.2021
6122 Clouds 2 1018 100 10000 2.57 340 02:45 19.03.2021
6123 Clouds 4 1018 87 10000 3.09 360 00:58 19.03.2021
6124 Clouds 4 1018 93 10000 3.6 40 23:48 18.03.2021
6125 Clouds 4 1018 100 10000 2.06 10 23:25 18.03.2021
6126 Rain 5 1018 93 8000 0.51 0 22:39 18.03.2021
6127 Rain 5 1018 93 10000 0.51 0 22:20 18.03.2021
6128 Rain 5 1018 93 10000 1.03 0 21:39 18.03.2021
6129 Rain 5 1019 87 10000 3.09 290 20:54 18.03.2021
6130 Rain 5 1019 87 10000 3.09 290 20:35 18.03.2021
6131 Rain 6 1019 75 10000 2.06 290 19:59 18.03.2021
6132 Clouds 6 1019 75 10000 2.06 290 19:41 18.03.2021
6133 Rain 6 1020 75 10000 3.09 300 19:20 18.03.2021
6134 Clouds 6 1020 75 10000 3.09 300 18:38 18.03.2021
6135 Clouds 6 1020 65 10000 3.09 290 17:51 18.03.2021
6136 Clouds 6 1021 70 10000 4.12 300 17:26 18.03.2021
6137 Clouds 6 1021 65 10000 3.6 310 16:50 18.03.2021
6138 Clouds 7 1022 65 10000 4.63 300 16:31 18.03.2021
6139 Clouds 7 1022 65 10000 5.14 300 15:49 18.03.2021
6140 Clouds 7 1022 57 10000 5.14 290 15:30 18.03.2021
6141 Clouds 8 1022 61 10000 5.14 300 14:59 18.03.2021
6142 Clouds 8 1022 61 10000 5.14 300 14:40 18.03.2021
6143 Clouds 7 1023 65 10000 3.09 270 13:57 18.03.2021
6144 Clouds 7 1024 65 10000 3.09 0 13:27 18.03.2021
6145 Clouds 7 1024 75 9000 1.54 240 12:57 18.03.2021
6146 Clouds 7 1024 75 9000 1.54 240 12:37 18.03.2021
6147 Clouds 6 1025 81 7000 1.03 0 12:18 18.03.2021
6148 Clouds 6 1025 81 6000 1.03 0 11:40 18.03.2021
6149 Clouds 4 1025 87 6000 1.03 0 10:57 18.03.2021
6150 Clouds 4 1025 87 6000 1.03 0 10:57 18.03.2021
6151 Clouds 4 1025 87 6000 0.51 0 10:39 18.03.2021
6152 Clouds 4 1025 87 6000 0.51 0 10:20 18.03.2021
6153 Clouds 4 1025 87 6000 1.03 0 09:38 18.03.2021
6154 Clouds 3 1025 87 8000 1.03 0 09:20 18.03.2021
6155 Clouds 3 1025 93 8000 1.54 170 08:43 18.03.2021
6156 Clouds 2 1025 93 7000 1.54 150 08:23 18.03.2021
6157 Clouds 2 1025 93 6000 0.51 0 07:45 18.03.2021
6158 Clouds 1 1026 93 10000 1.03 0 06:44 18.03.2021
6159 Clouds 0 1026 100 10000 0.51 20 06:25 18.03.2021
6160 Clouds 0 1026 100 10000 1.54 60 05:26 18.03.2021
6161 Clear 1 1026 93 10000 0.51 0 00:48 18.03.2021
6162 Clear 2 1026 86 10000 0.51 0 23:37 17.03.2021
6163 Clouds 2 1026 80 10000 1.54 60 22:42 17.03.2021
6164 Clear 3 1026 75 10000 2.06 50 22:23 17.03.2021
6165 Clear 3 1026 65 10000 1.54 20 21:51 17.03.2021
6166 Clear 3 1026 65 10000 2.06 30 21:32 17.03.2021
6167 Clouds 4 1025 60 10000 0.51 30 20:55 17.03.2021
6168 Clouds 4 1025 60 10000 0.51 30 20:37 17.03.2021
6169 Clouds 5 1025 56 10000 1.54 10 20:19 17.03.2021
6170 Clouds 5 1025 60 10000 2.06 50 19:43 17.03.2021
6171 Clouds 6 1025 56 10000 1.54 320 19:20 17.03.2021
6172 Clouds 6 1025 60 10000 1.54 360 18:52 17.03.2021
6173 Clouds 6 1025 60 10000 1.54 360 18:32 17.03.2021
6174 Clouds 7 1025 52 10000 3.09 10 17:43 17.03.2021
6175 Clouds 7 1024 52 10000 3.6 340 17:23 17.03.2021
6176 Clouds 7 1024 56 10000 3.09 350 16:43 17.03.2021
6177 Clouds 7 1024 56 10000 3.09 360 16:21 17.03.2021
6178 Clouds 7 1024 56 10000 4.12 330 15:53 17.03.2021
6179 Clouds 7 1024 56 10000 5.14 360 15:35 17.03.2021
6180 Clouds 7 1024 61 10000 4.63 360 14:45 17.03.2021
6181 Clouds 6 1024 61 10000 5.66 330 14:26 17.03.2021
6182 Clouds 6 1024 65 10000 5.14 340 13:55 17.03.2021
6183 Clouds 7 1024 65 10000 3.6 340 13:27 17.03.2021
6184 Clouds 6 1024 75 10000 4.63 360 12:51 17.03.2021
6185 Clouds 6 1024 75 10000 5.14 20 12:33 17.03.2021
6186 Clouds 6 1024 70 10000 6.17 350 11:51 17.03.2021
6187 Clouds 6 1024 81 10000 5.14 340 11:23 17.03.2021
6188 Clouds 6 1024 81 10000 3.6 360 10:55 17.03.2021
6189 Drizzle 5 1024 93 10000 4.12 350 10:28 17.03.2021
6190 Clouds 5 1024 93 10000 4.63 320 09:49 17.03.2021
6191 Drizzle 5 1024 93 10000 3.6 320 09:26 17.03.2021
6192 Drizzle 5 1024 93 9000 3.6 310 08:59 17.03.2021
6193 Drizzle 5 1024 93 9000 3.6 310 08:39 17.03.2021
6194 Clouds 4 1024 93 10000 3.6 330 07:50 17.03.2021
6195 Clouds 4 1024 93 10000 3.09 330 07:32 17.03.2021
6196 Rain 4 1024 93 10000 3.09 330 06:46 17.03.2021
6197 Rain 5 1023 93 6000 3.09 330 04:26 17.03.2021
6198 Clouds 5 1023 93 6000 2.06 330 03:25 17.03.2021
6199 Rain 5 1023 93 10000 1.54 310 00:40 17.03.2021
6200 Rain 5 1023 93 7000 1.03 0 23:38 16.03.2021
6201 Rain 5 1023 100 6000 1.54 350 23:18 16.03.2021
6202 Rain 5 1023 93 10000 2.06 340 22:43 16.03.2021
6203 Rain 5 1023 87 9000 2.06 330 22:24 16.03.2021
6204 Rain 5 1023 87 10000 4.12 310 21:40 16.03.2021
6205 Rain 6 1022 87 10000 3.6 300 21:21 16.03.2021
6206 Clouds 6 1023 87 10000 4.63 290 20:46 16.03.2021
6207 Rain 6 1023 87 10000 4.12 280 20:19 16.03.2021
6208 Rain 6 1023 87 10000 3.09 290 19:43 16.03.2021
6209 Clouds 6 1023 81 10000 3.6 280 19:24 16.03.2021
6210 Clouds 6 1022 81 10000 4.63 280 18:52 16.03.2021
6211 Clouds 6 1023 93 10000 1.54 180 18:30 16.03.2021
6212 Clouds 6 1023 93 10000 0.51 0 17:51 16.03.2021
6213 Clouds 6 1023 93 10000 0.51 0 17:33 16.03.2021
6214 Clouds 6 1023 93 10000 2.06 30 16:54 16.03.2021
6215 Clouds 6 1023 93 10000 2.06 30 16:54 16.03.2021
6216 Clouds 6 1023 93 10000 2.06 30 16:54 16.03.2021
6217 Clouds 6 1023 93 10000 2.06 30 16:54 16.03.2021
6218 Clouds 6 1023 93 10000 2.06 30 16:54 16.03.2021
6219 Clouds 6 1023 93 10000 2.06 30 16:54 16.03.2021
6220 Clouds 6 1023 93 10000 2.06 30 16:54 16.03.2021
6221 Clouds 7 1023 81 10000 7.72 270 16:31 16.03.2021
6222 Clouds 7 1023 81 10000 6.17 270 15:58 16.03.2021
6223 Clouds 8 1023 81 10000 6.17 270 15:37 16.03.2021
6224 Clouds 8 1023 81 10000 5.66 290 15:19 16.03.2021
6225 Clouds 8 1023 81 10000 5.66 290 15:19 16.03.2021
6226 Clouds 8 1023 71 10000 4.63 330 14:42 16.03.2021
6227 Clouds 8 1023 76 10000 2.57 260 14:22 16.03.2021
6228 Clouds 8 1023 81 10000 6.17 290 13:58 16.03.2021
6229 Clouds 8 1023 71 10000 5.66 290 13:29 16.03.2021
6230 Clouds 9 1023 61 10000 6.17 300 12:56 16.03.2021
6231 Clouds 8 1023 70 10000 2.06 290 12:37 16.03.2021
6232 Clouds 8 1023 70 10000 2.06 290 12:18 16.03.2021
6233 Clouds 8 1023 70 10000 2.06 290 12:18 16.03.2021
6234 Clouds 7 1023 81 10000 3.6 360 11:35 16.03.2021
6235 Clouds 7 1023 70 10000 6.17 300 10:50 16.03.2021
6236 Clouds 7 1023 70 10000 6.17 300 10:50 16.03.2021
6237 Clouds 7 1023 75 10000 6.69 300 10:21 16.03.2021
6238 Clouds 7 1023 75 10000 6.69 300 10:21 16.03.2021
6239 Clouds 7 1023 75 10000 6.69 300 10:21 16.03.2021
6240 Clouds 7 1023 81 10000 5.14 300 09:41 16.03.2021
6241 Clouds 6 1023 75 10000 4.63 300 09:21 16.03.2021
6242 Clouds 6 1023 81 10000 6.17 300 08:57 16.03.2021
6243 Clouds 6 1023 81 10000 6.17 300 08:39 16.03.2021
6244 Clouds 6 1023 87 10000 4.63 310 07:57 16.03.2021
6245 Clouds 5 1022 81 10000 5.66 300 07:29 16.03.2021
6246 Clouds 5 1022 81 10000 6.17 310 06:38 16.03.2021
6247 Clouds 5 1021 81 10000 6.17 310 05:37 16.03.2021
6248 Clouds 5 1021 81 10000 7.2 310 05:18 16.03.2021
6249 Clouds 5 1020 87 10000 8.23 300 02:44 16.03.2021
6250 Clouds 5 1020 93 10000 6.17 310 01:59 16.03.2021
6251 Rain 5 1019 81 10000 7.72 300 23:56 15.03.2021
6252 Clouds 6 1019 81 10000 7.2 300 23:28 15.03.2021
6253 Clouds 5 1019 81 10000 6.17 300 22:51 15.03.2021
6254 Clouds 5 1018 81 10000 6.69 300 22:33 15.03.2021
6255 Clouds 6 1018 81 10000 6.69 300 21:54 15.03.2021
6256 Clouds 6 1018 81 10000 7.72 300 21:34 15.03.2021
6257 Clouds 6 1017 87 10000 6.17 300 20:58 15.03.2021
6258 Clouds 6 1017 87 10000 6.17 300 20:39 15.03.2021
6259 Clouds 6 1017 81 10000 6.69 310 20:21 15.03.2021
6260 Clouds 6 1017 81 10000 7.2 310 19:50 15.03.2021
6261 Clouds 6 1016 81 10000 6.69 310 19:31 15.03.2021
6262 Clouds 6 1016 81 10000 8.23 300 18:57 15.03.2021
6263 Clouds 6 1015 75 10000 9.26 310 18:28 15.03.2021
6264 Clouds 7 1015 76 10000 8.75 310 17:56 15.03.2021
6265 Clouds 7 1014 76 10000 9.26 320 17:32 15.03.2021
6266 Clouds 8 1014 61 10000 10.29 310 16:55 15.03.2021
6267 Rain 9 1013 61 10000 9.26 300 16:35 15.03.2021
6268 Clouds 10 1013 57 10000 10.29 300 15:47 15.03.2021
6269 Clouds 10 1013 66 10000 6.17 320 15:26 15.03.2021
6270 Clouds 8 1013 76 10000 6.69 300 14:45 15.03.2021
6271 Clouds 9 1013 76 10000 6.69 300 14:24 15.03.2021
6272 Clouds 9 1013 76 10000 6.69 300 13:53 15.03.2021
6273 Clouds 9 1013 76 10000 6.69 300 13:34 15.03.2021
6274 Clouds 8 1012 70 10000 6.69 310 12:51 15.03.2021
6275 Clouds 8 1012 87 10000 5.14 310 12:20 15.03.2021
6276 Clouds 7 1012 81 10000 6.17 320 11:56 15.03.2021
6277 Clouds 7 1012 81 10000 6.17 320 11:38 15.03.2021
6278 Clouds 7 1012 81 10000 6.69 310 11:18 15.03.2021
6279 Clouds 7 1012 87 10000 5.14 300 10:34 15.03.2021
6280 Clouds 7 1012 87 10000 5.66 310 09:59 15.03.2021
6281 Clouds 7 1012 87 10000 5.66 310 09:40 15.03.2021
6282 Clouds 6 1011 93 10000 5.14 330 09:20 15.03.2021
6283 Clouds 6 1011 93 10000 5.14 320 08:41 15.03.2021
6284 Clouds 5 1010 93 10000 4.63 320 08:19 15.03.2021
6285 Clouds 5 1009 93 6000 5.14 320 07:33 15.03.2021
6286 Rain 5 1008 100 10000 3.09 250 06:48 15.03.2021
6287 Clouds 5 1008 93 10000 3.09 200 05:35 15.03.2021
6288 Rain 5 1010 93 10000 3.09 170 03:20 15.03.2021
6289 Clouds 4 1012 93 10000 3.6 160 00:27 15.03.2021
6290 Clouds 4 1013 93 10000 3.09 250 23:23 14.03.2021
6291 Clouds 5 1013 87 10000 6.69 300 22:49 14.03.2021
6292 Rain 5 1013 81 10000 6.17 250 22:28 14.03.2021
6293 Rain 6 1013 81 10000 3.6 240 21:53 14.03.2021
6294 Clouds 6 1013 75 10000 4.12 260 21:24 14.03.2021
6295 Clouds 6 1013 70 10000 5.14 270 20:59 14.03.2021
6296 Clouds 6 1013 70 10000 5.14 270 20:40 14.03.2021
6297 Clouds 7 1013 70 10000 5.66 280 20:22 14.03.2021
6298 Clouds 7 1013 70 10000 6.17 280 19:41 14.03.2021
6299 Clouds 7 1013 65 10000 6.17 290 19:19 14.03.2021
6300 Clouds 7 1012 65 10000 8.23 290 18:37 14.03.2021
6301 Clouds 8 1012 66 10000 8.23 280 17:56 14.03.2021
6302 Clouds 9 1011 66 10000 6.69 280 17:37 14.03.2021
6303 Clouds 9 1011 66 10000 6.69 280 17:19 14.03.2021
6304 Clouds 9 1011 76 10000 4.12 280 16:40 14.03.2021
6305 Clouds 8 1012 76 10000 5.66 280 16:21 14.03.2021
6306 Clouds 8 1012 76 10000 5.66 280 16:21 14.03.2021
6307 Clouds 8 1011 76 10000 6.17 270 15:48 14.03.2021
6308 Clouds 8 1011 81 10000 4.12 270 14:59 14.03.2021
6309 Clouds 8 1011 81 10000 4.12 270 14:40 14.03.2021
6310 Clouds 7 1011 81 8000 6.17 270 14:20 14.03.2021
6311 Clouds 7 1011 81 10000 5.14 260 13:43 14.03.2021
6312 Clouds 6 1011 87 10000 6.17 260 13:24 14.03.2021
6313 Clouds 6 1011 87 10000 4.63 260 12:42 14.03.2021
6314 Clouds 6 1011 87 10000 7.72 270 12:23 14.03.2021
6315 Clouds 5 1010 81 10000 8.23 260 11:41 14.03.2021
6316 Clouds 6 1010 81 10000 7.2 250 11:22 14.03.2021
6317 Rain 6 1009 75 10000 6.69 250 10:38 14.03.2021
6318 Clouds 6 1009 75 10000 6.17 240 10:20 14.03.2021
6319 Clouds 6 1009 75 10000 4.12 230 09:59 14.03.2021
6320 Rain 6 1009 75 10000 4.12 230 09:40 14.03.2021
6321 Clouds 5 1009 75 10000 5.66 240 09:20 14.03.2021
6322 Clouds 5 1008 75 10000 6.17 250 08:39 14.03.2021
6323 Clouds 5 1007 81 10000 5.66 250 07:58 14.03.2021
6324 Clouds 5 1007 81 10000 5.14 240 07:28 14.03.2021
6325 Clouds 5 1005 81 10000 7.72 260 05:38 14.03.2021
6326 Clouds 4 1002 87 10000 4.63 230 01:29 14.03.2021
6327 Clouds 4 1002 81 10000 5.66 240 00:42 14.03.2021
6328 Clouds 4 1002 87 10000 5.66 260 00:18 14.03.2021
6329 Clouds 5 1002 81 10000 7.2 260 23:40 13.03.2021
6330 Clouds 5 1001 81 10000 7.72 250 23:19 13.03.2021
6331 Rain 4 1001 93 10000 5.66 250 22:46 13.03.2021
6332 Clouds 4 1001 81 10000 8.75 290 22:23 13.03.2021
6333 Rain 6 1000 70 10000 4.63 230 21:36 13.03.2021
6334 Rain 7 1000 70 10000 4.63 230 21:18 13.03.2021
6335 Clouds 7 999 70 10000 5.14 230 20:46 13.03.2021
6336 Clouds 7 999 65 10000 5.66 240 20:25 13.03.2021
6337 Clouds 8 999 61 10000 7.2 240 19:45 13.03.2021
6338 Clouds 8 998 61 10000 7.2 240 19:24 13.03.2021
6339 Clouds 9 997 57 10000 10.29 250 18:43 13.03.2021
6340 Clouds 9 997 49 10000 12.35 240 18:21 13.03.2021
6341 Clouds 10 997 53 10000 12.86 250 17:52 13.03.2021
6342 Clouds 10 997 43 10000 13.38 250 17:32 13.03.2021
6343 Clouds 10 996 50 10000 12.35 250 16:57 13.03.2021
6344 Clouds 10 996 50 10000 12.35 250 16:38 13.03.2021
6345 Clouds 9 996 57 10000 12.86 240 15:57 13.03.2021
6346 Clouds 9 995 57 10000 13.38 260 15:22 13.03.2021
6347 Clouds 9 995 57 10000 14.92 250 14:43 13.03.2021
6348 Clouds 9 995 50 10000 14.4 240 14:24 13.03.2021
6349 Clouds 9 996 57 10000 11.83 240 13:30 13.03.2021
6350 Clouds 9 996 57 10000 10.29 240 12:56 13.03.2021
6351 Clouds 9 996 57 10000 10.29 240 12:38 13.03.2021
6352 Clouds 8 990 76 10000 10.5 247 11:59 13.03.2021
6353 Clouds 8 996 65 10000 10.29 230 11:40 13.03.2021
6354 Clouds 8 996 70 10000 9.77 230 11:22 13.03.2021
6355 Clouds 8 996 76 10000 8.23 220 10:49 13.03.2021
6356 Rain 7 996 93 10000 6.17 220 10:25 13.03.2021
6357 Rain 7 995 71 10000 9.26 200 09:38 13.03.2021
6358 Rain 9 995 76 10000 9.26 210 08:58 13.03.2021
6359 Rain 9 995 76 10000 9.26 210 08:58 13.03.2021
6360 Rain 9 995 76 10000 9.26 210 08:38 13.03.2021
6361 Rain 9 995 76 10000 8.23 200 08:18 13.03.2021
6362 Rain 8 996 76 10000 7.72 200 07:39 13.03.2021
6363 Rain 7 999 76 10000 6.17 180 05:45 13.03.2021
6364 Rain 6 1003 76 10000 4.12 190 02:43 13.03.2021
6365 Clouds 7 1004 70 10000 4.63 210 00:50 13.03.2021
6366 Clouds 7 1005 70 10000 4.63 210 23:54 12.03.2021
6367 Clouds 7 1005 75 10000 4.63 220 23:32 12.03.2021
6368 Clouds 7 1005 75 10000 4.63 200 22:42 12.03.2021
6369 Clouds 7 1005 75 10000 4.12 190 22:23 12.03.2021
6370 Clouds 7 1005 75 10000 3.6 200 21:44 12.03.2021
6371 Clouds 7 1005 75 10000 4.63 200 21:25 12.03.2021
6372 Clouds 6 1005 81 10000 4.63 190 20:55 12.03.2021
6373 Clouds 6 1005 81 10000 3.6 200 20:32 12.03.2021
6374 Clouds 6 1005 87 10000 3.6 200 19:58 12.03.2021
6375 Clouds 6 1005 87 10000 3.6 200 19:39 12.03.2021
6376 Clouds 6 1005 81 10000 5.66 210 19:18 12.03.2021
6377 Clouds 7 1005 87 10000 7.72 220 18:35 12.03.2021
6378 Rain 7 1005 93 8000 13.89 260 17:50 12.03.2021
6379 Rain 8 1004 53 10000 8.23 220 17:30 12.03.2021
6380 Rain 10 1005 53 10000 8.75 220 16:59 12.03.2021
6381 Rain 10 1005 53 10000 10.29 230 16:36 12.03.2021
6382 Clouds 11 1005 50 10000 8.75 230 15:52 12.03.2021
6383 Clouds 11 1006 50 10000 8.23 220 15:31 12.03.2021
6384 Clouds 11 1006 50 10000 8.23 220 14:48 12.03.2021
6385 Clouds 11 1007 50 10000 9.77 230 14:21 12.03.2021
6386 Clouds 11 1007 50 10000 9.77 230 14:21 12.03.2021
6387 Clouds 10 1007 46 10000 9.77 220 13:44 12.03.2021
6388 Clouds 11 1008 46 10000 9.77 230 13:24 12.03.2021
6389 Clouds 11 1008 46 10000 9.77 220 12:58 12.03.2021
6390 Clouds 11 1008 46 10000 9.77 220 12:38 12.03.2021
6391 Clouds 11 1009 50 10000 10.29 230 12:20 12.03.2021
6392 Clouds 10 1009 57 10000 8.23 220 11:50 12.03.2021
6393 Clouds 9 1009 61 10000 8.23 230 11:22 12.03.2021
6394 Clouds 9 1010 66 10000 8.75 230 10:53 12.03.2021
6395 Clouds 8 1009 61 10000 7.2 220 10:25 12.03.2021
6396 Clouds 9 1010 61 10000 5.14 220 09:56 12.03.2021
6397 Clouds 8 1009 61 10000 6.17 230 09:25 12.03.2021
6398 Clouds 7 1009 65 10000 5.14 220 08:45 12.03.2021
6399 Clouds 7 1009 70 10000 6.17 240 07:58 12.03.2021
6400 Clouds 6 1008 70 10000 6.69 250 07:34 12.03.2021
6401 Clouds 6 1008 70 10000 5.14 230 06:53 12.03.2021
6402 Clouds 6 1008 75 10000 6.17 250 06:28 12.03.2021
6403 Clouds 6 1008 75 10000 6.17 250 06:28 12.03.2021
6404 Clouds 6 1006 75 10000 9.26 250 02:49 12.03.2021
6405 Clouds 7 1005 70 10000 10.8 260 00:47 12.03.2021
6406 Clouds 7 1003 87 10000 11.83 260 23:31 11.03.2021
6407 Clouds 8 1003 66 10000 6.17 250 22:51 11.03.2021
6408 Clouds 9 1002 66 10000 8.75 250 22:30 11.03.2021
6409 Clouds 9 1002 66 10000 7.72 240 21:55 11.03.2021
6410 Clouds 9 1002 66 10000 8.75 240 21:36 11.03.2021
6411 Clouds 9 1002 66 10000 8.75 240 21:18 11.03.2021
6412 Clouds 10 1001 66 10000 8.23 240 20:41 11.03.2021
6413 Clouds 10 1001 62 10000 8.23 240 20:19 11.03.2021
6414 Clouds 11 1000 62 10000 7.2 250 19:45 11.03.2021
6415 Clouds 11 1000 62 10000 7.72 230 19:26 11.03.2021
6416 Clouds 11 1000 54 10000 9.77 260 18:48 11.03.2021
6417 Clouds 12 1000 58 10000 10.29 270 18:29 11.03.2021
6418 Clouds 12 999 54 10000 10.29 270 17:44 11.03.2021
6419 Clouds 13 999 47 10000 11.83 270 17:24 11.03.2021
6420 Clouds 13 999 50 10000 13.89 250 16:29 11.03.2021
6421 Clouds 14 999 47 10000 12.86 260 15:49 11.03.2021
6422 Clouds 14 999 41 10000 15.95 250 15:22 11.03.2021
6423 Clouds 14 999 47 10000 10.8 270 14:49 11.03.2021
6424 Clouds 14 999 47 10000 14.92 260 14:20 11.03.2021
6425 Clouds 15 999 41 10000 16.46 260 13:59 11.03.2021
6426 Clouds 15 999 41 10000 16.46 260 13:38 11.03.2021
6427 Clouds 14 998 54 10000 14.92 250 13:18 11.03.2021
6428 Clouds 14 999 62 10000 10.29 250 12:43 11.03.2021
6429 Clouds 13 999 76 10000 9.26 250 12:25 11.03.2021
6430 Clouds 12 999 87 10000 7.2 260 11:45 11.03.2021
6431 Clouds 12 999 71 10000 7.72 220 11:27 11.03.2021
6432 Rain 11 998 71 10000 7.72 180 10:44 11.03.2021
6433 Clouds 11 999 71 10000 6.17 180 10:21 11.03.2021
6434 Clouds 11 1000 76 10000 5.14 190 09:45 11.03.2021
6435 Clouds 11 1000 76 10000 6.17 170 09:25 11.03.2021
6436 Clouds 10 1001 76 10000 6.69 180 08:48 11.03.2021
6437 Clouds 10 1001 76 10000 4.63 180 08:23 11.03.2021
6438 Clouds 9 1001 76 10000 6.17 190 07:44 11.03.2021
6439 Rain 9 1001 76 10000 7.2 180 06:50 11.03.2021
6440 Clouds 9 1002 76 10000 7.72 190 06:31 11.03.2021
6441 Clouds 9 1003 76 10000 5.66 190 04:48 11.03.2021
6442 Clouds 7 1006 81 10000 6.17 170 01:39 11.03.2021
6443 Clouds 7 1009 81 10000 5.14 170 23:53 10.03.2021
6444 Rain 7 1010 76 10000 5.66 180 23:22 10.03.2021
6445 Rain 8 1010 71 10000 6.69 190 22:39 10.03.2021
6446 Rain 9 1011 57 10000 7.72 190 21:57 10.03.2021
6447 Rain 9 1011 57 10000 7.72 190 21:38 10.03.2021
6448 Rain 10 1011 57 10000 7.2 170 21:20 10.03.2021
6449 Rain 10 1012 53 10000 5.66 180 20:42 10.03.2021
6450 Clear 10 1012 53 10000 5.14 180 20:21 10.03.2021
6451 Clear 10 1013 57 10000 5.66 170 19:40 10.03.2021
6452 Rain 10 1013 57 10000 5.14 170 19:21 10.03.2021
6453 Rain 10 1013 57 10000 5.14 170 19:21 10.03.2021
6454 Clouds 10 1013 53 10000 5.14 160 18:42 10.03.2021
6455 Clouds 10 1014 53 10000 5.66 170 18:23 10.03.2021
6456 Rain 11 1014 53 10000 4.63 180 17:42 10.03.2021
6457 Rain 11 1014 53 10000 5.66 190 17:21 10.03.2021
6458 Rain 11 1015 54 10000 5.14 190 16:55 10.03.2021
6459 Clouds 11 1015 54 10000 5.14 190 16:37 10.03.2021
6460 Clouds 12 1015 54 10000 4.63 190 16:18 10.03.2021
6461 Clouds 12 1015 54 10000 4.63 180 15:40 10.03.2021
6462 Clouds 12 1016 54 10000 4.63 170 15:21 10.03.2021
6463 Clear 12 1016 54 10000 5.14 180 14:41 10.03.2021
6464 Clear 12 1017 62 10000 5.14 160 14:19 10.03.2021
6465 Clear 11 1017 66 10000 5.14 150 13:46 10.03.2021
6466 Clear 11 1018 71 10000 4.12 170 13:24 10.03.2021
6467 Clear 10 1018 71 10000 4.12 160 12:44 10.03.2021
6468 Clear 9 1018 71 10000 4.12 160 12:18 10.03.2021
6469 Clear 8 1018 87 10000 4.12 160 11:32 10.03.2021
6470 Clear 8 1018 87 10000 4.12 160 11:32 10.03.2021
6471 Clouds 7 1019 81 10000 3.6 150 10:57 10.03.2021
6472 Clouds 6 1019 81 10000 3.6 150 10:37 10.03.2021
6473 Clouds 6 1019 87 10000 3.6 150 10:19 10.03.2021
6474 Clouds 5 1019 87 10000 2.57 150 09:42 10.03.2021
6475 Clouds 5 1019 87 10000 2.57 140 09:21 10.03.2021
6476 Clouds 5 1019 87 10000 3.09 140 08:50 10.03.2021
6477 Clouds 5 1019 87 10000 2.57 130 08:28 10.03.2021
6478 Clouds 5 1018 87 9000 3.09 140 07:58 10.03.2021
6479 Clouds 4 1019 93 9000 3.09 140 07:30 10.03.2021
6480 Clouds 4 1019 93 8000 2.57 140 06:56 10.03.2021
6481 Clouds 4 1019 93 10000 2.06 140 06:25 10.03.2021
6482 Clouds 4 1018 93 10000 1.03 0 02:41 10.03.2021
6483 Clouds 5 1018 93 10000 1.03 0 23:52 09.03.2021
6484 Clouds 5 1018 93 10000 1.54 250 23:20 09.03.2021
6485 Clouds 5 1018 87 10000 2.57 320 22:39 09.03.2021
6486 Clouds 6 1019 87 10000 2.06 310 22:21 09.03.2021
6487 Clouds 5 1018 93 10000 1.03 0 21:46 09.03.2021
6488 Clouds 6 1018 87 10000 1.03 0 21:25 09.03.2021
6489 Clouds 6 1018 87 10000 1.03 0 20:58 09.03.2021
6490 Clouds 6 1018 87 10000 1.03 0 20:40 09.03.2021
6491 Clouds 6 1018 87 10000 1.03 0 20:40 09.03.2021
6492 Clouds 6 1018 93 10000 1.54 320 20:21 09.03.2021
6493 Clouds 6 1018 93 9000 1.54 300 19:51 09.03.2021
6494 Clouds 6 1017 93 9000 2.06 280 19:27 09.03.2021
6495 Clouds 6 1017 93 9000 2.06 240 18:50 09.03.2021
6496 Clouds 6 1017 93 8000 2.06 240 18:27 09.03.2021
6497 Drizzle 6 1017 93 4500 2.06 210 17:53 09.03.2021
6498 Mist 6 1017 93 4500 1.54 200 17:33 09.03.2021
6499 Drizzle 5 1017 100 4000 2.06 160 16:55 09.03.2021
6500 Drizzle 5 1017 93 4000 2.06 170 16:37 09.03.2021
6501 Drizzle 5 1017 93 4000 2.06 170 16:18 09.03.2021
6502 Drizzle 5 1017 93 6000 2.06 170 15:44 09.03.2021
6503 Drizzle 5 1017 93 6000 2.57 180 15:22 09.03.2021
6504 Clouds 5 1017 87 10000 2.57 180 14:36 09.03.2021
6505 Clouds 4 1017 87 10000 2.57 180 14:18 09.03.2021
6506 Clouds 4 1018 93 9000 2.57 200 13:38 09.03.2021
6507 Mist 4 1018 87 4800 2.06 200 13:20 09.03.2021
6508 Clouds 4 1018 93 4500 3.09 240 12:40 09.03.2021
6509 Rain 4 1018 87 6000 2.06 190 12:21 09.03.2021
6510 Rain 4 1018 93 6000 2.57 170 11:42 09.03.2021
6511 Rain 4 1018 93 6000 3.09 180 11:21 09.03.2021
6512 Rain 4 1018 87 6000 3.6 190 10:56 09.03.2021
6513 Rain 4 1018 87 6000 3.6 190 10:38 09.03.2021
6514 Mist 3 1018 87 4800 2.57 170 10:19 09.03.2021
6515 Mist 3 1018 87 4800 3.6 160 09:43 09.03.2021
6516 Rain 3 1018 87 4800 3.09 160 09:24 09.03.2021
6517 Rain 3 1018 93 4500 3.09 160 08:48 09.03.2021
6518 Rain 3 1018 93 3900 3.09 140 08:28 09.03.2021
6519 Rain 2 1018 93 3800 3.09 140 07:40 09.03.2021
6520 Rain 2 1019 93 3600 2.06 130 07:21 09.03.2021
6521 Clouds 2 1019 93 6000 0.51 0 06:18 09.03.2021
6522 Clouds 2 1019 93 7000 0.51 0 05:46 09.03.2021
6523 Clouds 3 1021 93 6000 2.06 60 00:38 09.03.2021
6524 Clouds 3 1021 86 6000 0.51 210 23:45 08.03.2021
6525 Clouds 3 1021 93 6000 2.06 60 23:27 08.03.2021
6526 Clouds 3 1021 93 6000 1.03 80 22:58 08.03.2021
6527 Clouds 3 1021 93 6000 1.03 80 22:39 08.03.2021
6528 Clouds 3 1021 86 6000 1.54 0 22:20 08.03.2021
6529 Clouds 3 1021 93 7000 1.03 90 21:43 08.03.2021
6530 Clouds 3 1021 86 7000 1.54 30 21:24 08.03.2021
6531 Clouds 3 1021 93 8000 0.51 0 20:39 08.03.2021
6532 Clouds 4 1022 87 8000 1.03 0 20:19 08.03.2021
6533 Clouds 4 1022 80 9000 0.51 0 19:38 08.03.2021
6534 Clouds 5 1021 75 9000 1.03 360 18:57 08.03.2021
6535 Clouds 6 1021 75 10000 2.06 360 18:37 08.03.2021
6536 Clouds 6 1021 75 10000 2.06 360 18:18 08.03.2021
6537 Clouds 7 1021 70 10000 2.06 350 17:43 08.03.2021
6538 Clouds 7 1022 70 10000 2.06 330 17:22 08.03.2021
6539 Clouds 6 1022 70 9000 2.06 300 16:41 08.03.2021
6540 Clouds 6 1022 70 9000 3.09 310 16:21 08.03.2021
6541 Clouds 6 1022 70 9000 2.57 330 15:41 08.03.2021
6542 Clouds 6 1022 70 9000 2.57 300 15:22 08.03.2021
6543 Clouds 6 1022 70 9000 2.57 280 14:21 08.03.2021
6544 Clouds 6 1023 70 9000 2.06 0 13:57 08.03.2021
6545 Clouds 5 1023 70 9000 1.54 250 13:23 08.03.2021
6546 Clouds 5 1023 70 10000 1.03 0 12:58 08.03.2021
6547 Clouds 6 1023 75 10000 1.54 0 12:35 08.03.2021
6548 Clouds 5 1023 75 10000 1.03 0 11:50 08.03.2021
6549 Clouds 5 1023 70 10000 1.03 0 11:30 08.03.2021
6550 Clouds 4 1023 75 10000 1.54 190 10:57 08.03.2021
6551 Clouds 4 1023 75 10000 1.54 190 10:39 08.03.2021
6552 Clouds 4 1023 80 10000 1.03 0 10:18 08.03.2021
6553 Clouds 3 1023 80 10000 1.03 160 09:29 08.03.2021
6554 Clouds 3 1023 80 10000 1.03 0 08:54 08.03.2021
6555 Clouds 2 1023 80 10000 0.51 0 08:25 08.03.2021
6556 Clear 1 1023 80 10000 1.03 0 07:22 08.03.2021
6557 Clear 1 1022 80 10000 1.03 0 06:33 08.03.2021
6558 Clouds 2 1023 74 10000 0.51 150 02:59 08.03.2021
6559 Clear 2 1023 80 10000 1.03 0 00:43 08.03.2021
6560 Clouds 2 1023 74 10000 1.03 0 23:54 07.03.2021
6561 Clouds 2 1023 74 10000 2.06 50 23:23 07.03.2021
6562 Clouds 1 1023 69 10000 2.57 50 22:59 07.03.2021
6563 Clouds 1 1023 69 10000 2.57 50 22:40 07.03.2021
6564 Clouds 1 1023 69 10000 2.06 60 22:20 07.03.2021
6565 Clouds 2 1023 69 10000 1.54 50 21:42 07.03.2021
6566 Clouds 2 1022 69 10000 1.54 40 21:23 07.03.2021
6567 Clear 3 1023 64 10000 1.54 60 20:43 07.03.2021
6568 Clear 3 1022 60 10000 1.54 20 20:24 07.03.2021
6569 Clouds 3 1022 60 10000 1.54 350 19:56 07.03.2021
6570 Clear 4 1022 56 10000 2.06 360 19:37 07.03.2021
6571 Clear 5 1022 56 10000 2.06 360 19:19 07.03.2021
6572 Clear 5 1022 52 10000 3.6 340 18:40 07.03.2021
6573 Clear 6 1022 48 10000 4.63 330 18:19 07.03.2021
6574 Clear 7 1021 45 10000 5.66 310 17:39 07.03.2021
6575 Clear 7 1021 45 10000 5.66 310 17:20 07.03.2021
6576 Clear 7 1022 45 10000 4.12 340 16:58 07.03.2021
6577 Clear 7 1022 45 10000 4.12 340 16:38 07.03.2021
6578 Clear 7 1022 42 10000 5.66 310 16:19 07.03.2021
6579 Clear 7 1022 46 10000 3.09 360 15:42 07.03.2021
6580 Clear 7 1022 42 10000 3.6 10 15:22 07.03.2021
6581 Clear 7 1023 39 10000 3.09 320 14:30 07.03.2021
6582 Clear 7 1023 39 10000 3.6 300 13:59 07.03.2021
6583 Clear 7 1023 39 10000 3.6 300 13:40 07.03.2021
6584 Clouds 6 1024 39 10000 4.63 300 13:21 07.03.2021
6585 Clear 6 1024 42 10000 3.6 310 12:45 07.03.2021
6586 Clear 6 1025 49 10000 2.57 0 12:27 07.03.2021
6587 Clear 4 1025 52 10000 1.03 0 11:41 07.03.2021
6588 Clear 3 1025 60 10000 1.03 0 11:21 07.03.2021
6589 Clear 4 1025 60 10000 0.51 0 10:43 07.03.2021
6590 Clear 3 1026 64 10000 0.51 0 10:25 07.03.2021
6591 Clear 3 1026 69 10000 1.03 0 09:43 07.03.2021
6592 Clear 1 1026 74 10000 0.51 0 09:23 07.03.2021
6593 Clear -2 1026 86 10000 0.51 0 08:45 07.03.2021
6594 Clear -3 1026 86 10000 1.03 0 08:24 07.03.2021
6595 Clear -3 1026 86 10000 0.51 150 07:34 07.03.2021
6596 Clear -2 1028 80 10000 1.03 70 02:42 07.03.2021
6597 Clear 0 1028 69 10000 0.51 0 00:51 07.03.2021
6598 Clear 2 1029 64 10000 2.57 80 23:46 06.03.2021
6599 Clear 2 1029 64 10000 1.54 110 23:24 06.03.2021
6600 Clear 2 1029 64 10000 3.6 70 22:48 06.03.2021
6601 Clear 2 1029 64 10000 3.6 50 22:28 06.03.2021
6602 Clear 3 1029 60 10000 3.6 60 21:58 06.03.2021
6603 Clear 3 1030 60 10000 1.03 50 21:22 06.03.2021
6604 Clear 3 1030 60 10000 0.51 0 20:53 06.03.2021
6605 Clear 4 1030 52 10000 0.51 0 20:33 06.03.2021
6606 Clear 5 1030 41 10000 1.54 310 19:50 06.03.2021
6607 Clear 6 1030 38 10000 1.03 0 19:22 06.03.2021
6608 Clear 6 1030 33 10000 1.03 320 18:56 06.03.2021
6609 Clear 6 1030 33 10000 1.03 320 18:56 06.03.2021
6610 Clear 6 1030 33 10000 1.03 320 18:38 06.03.2021
6611 Clear 8 1030 29 10000 0.51 0 18:18 06.03.2021
6612 Clear 8 1030 29 10000 0.51 0 17:44 06.03.2021
6613 Clear 9 1030 29 10000 1.54 0 17:24 06.03.2021
6614 Clear 9 1030 31 10000 1.54 0 16:52 06.03.2021
6615 Clear 8 1030 29 10000 1.54 0 16:29 06.03.2021
6616 Clear 8 1031 31 10000 2.57 60 15:54 06.03.2021
6617 Clear 8 1031 31 10000 2.57 60 15:34 06.03.2021
6618 Clear 8 1032 31 10000 2.57 50 14:54 06.03.2021
6619 Clouds 8 1032 36 10000 2.57 120 14:30 06.03.2021
6620 Clear 7 1032 39 10000 3.09 30 13:46 06.03.2021
6621 Clear 6 1033 39 10000 3.09 70 13:24 06.03.2021
6622 Clear 6 1033 42 10000 2.57 350 12:48 06.03.2021
6623 Clear 6 1034 39 10000 2.06 110 12:20 06.03.2021
6624 Clear 5 1034 48 10000 1.03 0 11:58 06.03.2021
6625 Clear 3 1034 48 10000 0.51 0 11:23 06.03.2021
6626 Clear 3 1034 60 10000 1.03 0 10:54 06.03.2021
6627 Clear 4 1034 60 10000 1.03 0 10:36 06.03.2021
6628 Clear 2 1034 75 10000 0.51 0 09:56 06.03.2021
6629 Clear 1 1034 74 10000 0.51 0 09:24 06.03.2021
6630 Clear -1 1034 80 10000 1.03 0 08:54 06.03.2021
6631 Clear -4 1034 86 10000 1.03 110 08:30 06.03.2021
6632 Clear -5 1033 93 10000 0.66 92 07:54 06.03.2021
6633 Clear -4 1033 93 10000 0.48 93 07:22 06.03.2021
6634 Clear -4 1033 93 10000 0.51 0 05:52 06.03.2021
6635 Clear -2 1033 86 10000 1.03 0 03:47 06.03.2021
6636 Clear -1 1033 93 10000 1.03 0 01:33 06.03.2021
6637 Clear -1 1033 93 10000 0.51 0 00:46 06.03.2021
6638 Clear -1 1033 80 10000 1.54 190 23:49 05.03.2021
6639 Clear 0 1033 80 10000 1.03 0 23:19 05.03.2021
6640 Clear 0 1033 80 10000 1.03 0 23:19 05.03.2021
6641 Clear 0 1032 80 10000 1.03 0 22:44 05.03.2021
6642 Clear 0 1032 74 10000 3.09 60 22:22 05.03.2021
6643 Clear 1 1032 74 10000 2.06 50 21:51 05.03.2021
6644 Clear 1 1032 69 10000 2.06 60 21:31 05.03.2021
6645 Clear 2 1031 69 10000 2.06 50 20:50 05.03.2021
6646 Clear 2 1031 69 10000 1.54 50 20:26 05.03.2021
6647 Clear 2 1031 69 10000 1.54 50 20:26 05.03.2021
6648 Clear 3 1031 60 10000 1.54 40 19:54 05.03.2021
6649 Clear 4 1030 55 10000 1.54 40 19:26 05.03.2021
6650 Clouds 4 1030 48 10000 2.06 60 18:56 05.03.2021
6651 Clouds 5 1030 48 10000 2.06 60 18:38 05.03.2021
6652 Clouds 5 1030 45 10000 4.12 50 18:18 05.03.2021
6653 Clouds 6 1029 45 10000 4.63 40 17:34 05.03.2021
6654 Clouds 7 1029 42 10000 5.66 20 16:46 05.03.2021
6655 Clouds 6 1029 42 10000 5.14 30 16:24 05.03.2021
6656 Clouds 6 1028 39 10000 5.14 40 15:58 05.03.2021
6657 Clouds 6 1028 39 10000 5.14 40 15:39